<?xml version='1.0' encoding='UTF-8'?><gpx version="1.1" creator="JPX - https://github.com/jenetics/jpx" xmlns="http://www.topografix.com/GPX/1/1"><trk><trkseg><trkpt lat="41.8265055" lon="12.6115071"><ele>97.99999999999999</ele><time>2026-04-04T08:54:58.835Z</time></trkpt><trkpt lat="41.8265406" lon="12.6115914"><ele>98.0</ele><time>2026-04-04T08:55:00.835Z</time></trkpt><trkpt lat="41.8266035" lon="12.6117295"><ele>98.0</ele><time>2026-04-04T08:55:02.835Z</time></trkpt><trkpt lat="41.8266382" lon="12.6118091"><ele>98.0</ele><time>2026-04-04T08:55:03.835Z</time></trkpt><trkpt lat="41.8266791" lon="12.6118942"><ele>97.99999999999999</ele><time>2026-04-04T08:55:04.835Z</time></trkpt><trkpt lat="41.8267171" lon="12.6119875"><ele>98.0</ele><time>2026-04-04T08:55:05.835Z</time></trkpt><trkpt lat="41.8267535" lon="12.6120883"><ele>97.66666666666666</ele><time>2026-04-04T08:55:06.835Z</time></trkpt><trkpt lat="41.8267889" lon="12.6121889"><ele>97.33333333333333</ele><time>2026-04-04T08:55:07.835Z</time></trkpt><trkpt lat="41.8268292" lon="12.6122979"><ele>97.0</ele><time>2026-04-04T08:55:08.835Z</time></trkpt><trkpt lat="41.8268676" lon="12.612402"><ele>96.66666666666666</ele><time>2026-04-04T08:55:09.835Z</time></trkpt><trkpt lat="41.8269086" lon="12.6125101"><ele>96.33333333333333</ele><time>2026-04-04T08:55:10.835Z</time></trkpt><trkpt lat="41.8269524" lon="12.6126206"><ele>96.0</ele><time>2026-04-04T08:55:11.835Z</time></trkpt><trkpt lat="41.8269959" lon="12.6127317"><ele>96.19999999999999</ele><time>2026-04-04T08:55:12.835Z</time></trkpt><trkpt lat="41.8270426" lon="12.6128444"><ele>96.39999999999999</ele><time>2026-04-04T08:55:13.835Z</time></trkpt><trkpt lat="41.8270908" lon="12.6129604"><ele>96.6</ele><time>2026-04-04T08:55:14.835Z</time></trkpt><trkpt lat="41.8271383" lon="12.6130765"><ele>96.8</ele><time>2026-04-04T08:55:15.835Z</time></trkpt><trkpt lat="41.8271874" lon="12.6131845"><ele>97.0</ele><time>2026-04-04T08:55:16.835Z</time></trkpt><trkpt lat="41.8272374" lon="12.6132831"><ele>97.0</ele><time>2026-04-04T08:55:17.835Z</time></trkpt><trkpt lat="41.8272779" lon="12.6133778"><ele>97.0</ele><time>2026-04-04T08:55:18.835Z</time></trkpt><trkpt lat="41.8273236" lon="12.6135048"><ele>97.0</ele><time>2026-04-04T08:55:20.835Z</time></trkpt><trkpt lat="41.827414" lon="12.6135222"><ele>97.0</ele><time>2026-04-04T08:55:26.835Z</time></trkpt><trkpt lat="41.8275028" lon="12.6134488"><ele>97.0</ele><time>2026-04-04T08:55:28.835Z</time></trkpt><trkpt lat="41.8275584" lon="12.6133936"><ele>97.0</ele><time>2026-04-04T08:55:29.835Z</time></trkpt><trkpt lat="41.8276281" lon="12.6133263"><ele>97.0</ele><time>2026-04-04T08:55:30.834Z</time></trkpt><trkpt lat="41.8277054" lon="12.6132531"><ele>97.0</ele><time>2026-04-04T08:55:31.835Z</time></trkpt><trkpt lat="41.8277867" lon="12.6131785"><ele>97.0</ele><time>2026-04-04T08:55:32.834Z</time></trkpt><trkpt lat="41.8278745" lon="12.6130965"><ele>97.0</ele><time>2026-04-04T08:55:33.835Z</time></trkpt><trkpt lat="41.8279593" lon="12.6130124"><ele>96.66666666666667</ele><time>2026-04-04T08:55:34.835Z</time></trkpt><trkpt lat="41.8280396" lon="12.612931"><ele>96.33333333333334</ele><time>2026-04-04T08:55:35.835Z</time></trkpt><trkpt lat="41.8281087" lon="12.6128536"><ele>96.0</ele><time>2026-04-04T08:55:36.834Z</time></trkpt><trkpt lat="41.8281709" lon="12.6127921"><ele>95.66666666666667</ele><time>2026-04-04T08:55:37.835Z</time></trkpt><trkpt lat="41.8282289" lon="12.6127517"><ele>95.33333333333334</ele><time>2026-04-04T08:55:38.835Z</time></trkpt><trkpt lat="41.8283349" lon="12.6127993"><ele>95.0</ele><time>2026-04-04T08:55:40.835Z</time></trkpt><trkpt lat="41.8283747" lon="12.6128799"><ele>95.0</ele><time>2026-04-04T08:55:41.835Z</time></trkpt><trkpt lat="41.8284144" lon="12.6129852"><ele>95.0</ele><time>2026-04-04T08:55:42.835Z</time></trkpt><trkpt lat="41.8284564" lon="12.6131097"><ele>95.0</ele><time>2026-04-04T08:55:43.835Z</time></trkpt><trkpt lat="41.8285008" lon="12.6132445"><ele>95.0</ele><time>2026-04-04T08:55:44.835Z</time></trkpt><trkpt lat="41.8285458" lon="12.6133889"><ele>95.0</ele><time>2026-04-04T08:55:45.835Z</time></trkpt><trkpt lat="41.8285917" lon="12.6135239"><ele>96.25</ele><time>2026-04-04T08:55:46.835Z</time></trkpt><trkpt lat="41.8286361" lon="12.6136662"><ele>97.5</ele><time>2026-04-04T08:55:47.835Z</time></trkpt><trkpt lat="41.8286812" lon="12.6138121"><ele>98.75</ele><time>2026-04-04T08:55:48.835Z</time></trkpt><trkpt lat="41.8287302" lon="12.6139624"><ele>100.0</ele><time>2026-04-04T08:55:49.835Z</time></trkpt><trkpt lat="41.8287802" lon="12.6141092"><ele>100.0</ele><time>2026-04-04T08:55:50.835Z</time></trkpt><trkpt lat="41.8288305" lon="12.6142589"><ele>100.0</ele><time>2026-04-04T08:55:51.835Z</time></trkpt><trkpt lat="41.8288857" lon="12.6144073"><ele>100.0</ele><time>2026-04-04T08:55:52.834Z</time></trkpt><trkpt lat="41.8289491" lon="12.614548"><ele>100.0</ele><time>2026-04-04T08:55:53.835Z</time></trkpt><trkpt lat="41.8290184" lon="12.6146875"><ele>99.75</ele><time>2026-04-04T08:55:54.835Z</time></trkpt><trkpt lat="41.8290982" lon="12.6148171"><ele>99.5</ele><time>2026-04-04T08:55:55.835Z</time></trkpt><trkpt lat="41.8291823" lon="12.6149333"><ele>99.25</ele><time>2026-04-04T08:55:56.835Z</time></trkpt><trkpt lat="41.8292749" lon="12.6150429"><ele>99.0</ele><time>2026-04-04T08:55:57.835Z</time></trkpt><trkpt lat="41.8293586" lon="12.6151491"><ele>99.0</ele><time>2026-04-04T08:55:58.835Z</time></trkpt><trkpt lat="41.8294306" lon="12.6152513"><ele>99.0</ele><time>2026-04-04T08:55:59.835Z</time></trkpt><trkpt lat="41.8294951" lon="12.6153472"><ele>99.0</ele><time>2026-04-04T08:56:00.835Z</time></trkpt><trkpt lat="41.8295401" lon="12.6154465"><ele>99.0</ele><time>2026-04-04T08:56:01.835Z</time></trkpt><trkpt lat="41.8295626" lon="12.6155462"><ele>99.0</ele><time>2026-04-04T08:56:02.835Z</time></trkpt><trkpt lat="41.8295698" lon="12.6156584"><ele>99.0</ele><time>2026-04-04T08:56:03.835Z</time></trkpt><trkpt lat="41.8295701" lon="12.6157838"><ele>99.0</ele><time>2026-04-04T08:56:04.835Z</time></trkpt><trkpt lat="41.8295624" lon="12.615915"><ele>99.0</ele><time>2026-04-04T08:56:05.834Z</time></trkpt><trkpt lat="41.829556" lon="12.6160584"><ele>99.0</ele><time>2026-04-04T08:56:06.835Z</time></trkpt><trkpt lat="41.8295506" lon="12.6162122"><ele>99.0</ele><time>2026-04-04T08:56:07.835Z</time></trkpt><trkpt lat="41.8295454" lon="12.6163697"><ele>99.0</ele><time>2026-04-04T08:56:08.835Z</time></trkpt><trkpt lat="41.8295396" lon="12.6165242"><ele>98.4</ele><time>2026-04-04T08:56:09.835Z</time></trkpt><trkpt lat="41.8295396" lon="12.6166796"><ele>97.80000000000001</ele><time>2026-04-04T08:56:10.834Z</time></trkpt><trkpt lat="41.8295345" lon="12.6168227"><ele>97.19999999999999</ele><time>2026-04-04T08:56:11.835Z</time></trkpt><trkpt lat="41.8295312" lon="12.6169652"><ele>96.6</ele><time>2026-04-04T08:56:12.835Z</time></trkpt><trkpt lat="41.8295284" lon="12.6171032"><ele>96.0</ele><time>2026-04-04T08:56:13.835Z</time></trkpt><trkpt lat="41.8295242" lon="12.6172308"><ele>95.16666666666667</ele><time>2026-04-04T08:56:14.835Z</time></trkpt><trkpt lat="41.8295195" lon="12.6173405"><ele>94.33333333333333</ele><time>2026-04-04T08:56:15.835Z</time></trkpt><trkpt lat="41.829515" lon="12.6174299"><ele>93.5</ele><time>2026-04-04T08:56:16.835Z</time></trkpt><trkpt lat="41.8295072" lon="12.6175421"><ele>92.66666666666666</ele><time>2026-04-04T08:56:18.835Z</time></trkpt><trkpt lat="41.8295272" lon="12.6176792"><ele>91.83333333333333</ele><time>2026-04-04T08:56:27.835Z</time></trkpt><trkpt lat="41.82959" lon="12.6177338"><ele>91.0</ele><time>2026-04-04T08:56:28.835Z</time></trkpt><trkpt lat="41.8296656" lon="12.6177912"><ele>90.0</ele><time>2026-04-04T08:56:29.835Z</time></trkpt><trkpt lat="41.8298036" lon="12.6178502"><ele>89.0</ele><time>2026-04-04T08:56:30.835Z</time></trkpt><trkpt lat="41.8299533" lon="12.617925"><ele>88.0</ele><time>2026-04-04T08:56:31.835Z</time></trkpt><trkpt lat="41.8300975" lon="12.6180054"><ele>88.5</ele><time>2026-04-04T08:56:32.835Z</time></trkpt><trkpt lat="41.8302348" lon="12.618089"><ele>89.0</ele><time>2026-04-04T08:56:33.835Z</time></trkpt><trkpt lat="41.8303403" lon="12.6181725"><ele>89.5</ele><time>2026-04-04T08:56:34.835Z</time></trkpt><trkpt lat="41.8304385" lon="12.618253"><ele>90.0</ele><time>2026-04-04T08:56:35.835Z</time></trkpt><trkpt lat="41.8305161" lon="12.6183323"><ele>90.0</ele><time>2026-04-04T08:56:36.834Z</time></trkpt><trkpt lat="41.8305745" lon="12.6184147"><ele>90.0</ele><time>2026-04-04T08:56:37.835Z</time></trkpt><trkpt lat="41.8306217" lon="12.6185"><ele>90.0</ele><time>2026-04-04T08:56:38.835Z</time></trkpt><trkpt lat="41.8306585" lon="12.6185857"><ele>90.0</ele><time>2026-04-04T08:56:39.835Z</time></trkpt><trkpt lat="41.8306871" lon="12.6186707"><ele>90.0</ele><time>2026-04-04T08:56:40.835Z</time></trkpt><trkpt lat="41.8307078" lon="12.6187604"><ele>90.0</ele><time>2026-04-04T08:56:41.835Z</time></trkpt><trkpt lat="41.8307173" lon="12.6188556"><ele>90.0</ele><time>2026-04-04T08:56:42.835Z</time></trkpt><trkpt lat="41.8307139" lon="12.6189517"><ele>89.57142857142857</ele><time>2026-04-04T08:56:43.834Z</time></trkpt><trkpt lat="41.8307041" lon="12.6190493"><ele>89.14285714285715</ele><time>2026-04-04T08:56:44.835Z</time></trkpt><trkpt lat="41.8306899" lon="12.6191397"><ele>88.71428571428572</ele><time>2026-04-04T08:56:45.835Z</time></trkpt><trkpt lat="41.830664" lon="12.6192239"><ele>88.28571428571428</ele><time>2026-04-04T08:56:46.835Z</time></trkpt><trkpt lat="41.8306289" lon="12.6192973"><ele>87.85714285714286</ele><time>2026-04-04T08:56:47.835Z</time></trkpt><trkpt lat="41.8305892" lon="12.619364"><ele>87.42857142857143</ele><time>2026-04-04T08:56:48.835Z</time></trkpt><trkpt lat="41.8305425" lon="12.6194242"><ele>87.0</ele><time>2026-04-04T08:56:49.835Z</time></trkpt><trkpt lat="41.8304852" lon="12.6194822"><ele>87.0</ele><time>2026-04-04T08:56:50.835Z</time></trkpt><trkpt lat="41.8304041" lon="12.6195515"><ele>87.0</ele><time>2026-04-04T08:56:51.835Z</time></trkpt><trkpt lat="41.830327" lon="12.6196078"><ele>87.0</ele><time>2026-04-04T08:56:52.835Z</time></trkpt><trkpt lat="41.8302433" lon="12.6196583"><ele>87.0</ele><time>2026-04-04T08:56:53.835Z</time></trkpt><trkpt lat="41.8301834" lon="12.6197203"><ele>87.0</ele><time>2026-04-04T08:56:54.835Z</time></trkpt><trkpt lat="41.8300904" lon="12.6198518"><ele>87.0</ele><time>2026-04-04T08:56:56.835Z</time></trkpt><trkpt lat="41.8300299" lon="12.6199375"><ele>87.0</ele><time>2026-04-04T08:56:57.835Z</time></trkpt><trkpt lat="41.8299141" lon="12.6200644"><ele>87.0</ele><time>2026-04-04T08:56:58.835Z</time></trkpt><trkpt lat="41.8298066" lon="12.620194"><ele>87.0</ele><time>2026-04-04T08:56:59.835Z</time></trkpt><trkpt lat="41.8296959" lon="12.6203237"><ele>87.5</ele><time>2026-04-04T08:57:00.834Z</time></trkpt><trkpt lat="41.8295949" lon="12.620458"><ele>88.0</ele><time>2026-04-04T08:57:01.835Z</time></trkpt><trkpt lat="41.8294971" lon="12.6205896"><ele>88.5</ele><time>2026-04-04T08:57:02.835Z</time></trkpt><trkpt lat="41.8294086" lon="12.6207068"><ele>89.0</ele><time>2026-04-04T08:57:03.835Z</time></trkpt><trkpt lat="41.8293248" lon="12.6208179"><ele>88.80000000000001</ele><time>2026-04-04T08:57:04.834Z</time></trkpt><trkpt lat="41.8292513" lon="12.6209192"><ele>88.60000000000001</ele><time>2026-04-04T08:57:05.835Z</time></trkpt><trkpt lat="41.8291845" lon="12.6210136"><ele>88.4</ele><time>2026-04-04T08:57:06.835Z</time></trkpt><trkpt lat="41.8291146" lon="12.6211145"><ele>88.2</ele><time>2026-04-04T08:57:07.835Z</time></trkpt><trkpt lat="41.829053" lon="12.621221"><ele>88.0</ele><time>2026-04-04T08:57:08.835Z</time></trkpt><trkpt lat="41.8289989" lon="12.6213351"><ele>88.0</ele><time>2026-04-04T08:57:09.835Z</time></trkpt><trkpt lat="41.8289501" lon="12.6214644"><ele>88.0</ele><time>2026-04-04T08:57:10.835Z</time></trkpt><trkpt lat="41.828908" lon="12.62159"><ele>88.0</ele><time>2026-04-04T08:57:11.835Z</time></trkpt><trkpt lat="41.8288616" lon="12.6217248"><ele>88.0</ele><time>2026-04-04T08:57:12.835Z</time></trkpt><trkpt lat="41.8288007" lon="12.6218657"><ele>88.0</ele><time>2026-04-04T08:57:13.835Z</time></trkpt><trkpt lat="41.8287193" lon="12.6220086"><ele>88.33333333333333</ele><time>2026-04-04T08:57:14.835Z</time></trkpt><trkpt lat="41.8286336" lon="12.6221656"><ele>88.66666666666667</ele><time>2026-04-04T08:57:15.835Z</time></trkpt><trkpt lat="41.8285467" lon="12.6223284"><ele>89.0</ele><time>2026-04-04T08:57:16.835Z</time></trkpt><trkpt lat="41.8284488" lon="12.6225027"><ele>89.0</ele><time>2026-04-04T08:57:17.835Z</time></trkpt><trkpt lat="41.8283574" lon="12.6226691"><ele>89.0</ele><time>2026-04-04T08:57:18.835Z</time></trkpt><trkpt lat="41.8282666" lon="12.6228257"><ele>89.0</ele><time>2026-04-04T08:57:19.835Z</time></trkpt><trkpt lat="41.8281846" lon="12.6229656"><ele>89.0</ele><time>2026-04-04T08:57:20.835Z</time></trkpt><trkpt lat="41.8281035" lon="12.6230951"><ele>89.5</ele><time>2026-04-04T08:57:21.835Z</time></trkpt><trkpt lat="41.8280287" lon="12.6232108"><ele>90.0</ele><time>2026-04-04T08:57:22.835Z</time></trkpt><trkpt lat="41.8279608" lon="12.6233292"><ele>90.5</ele><time>2026-04-04T08:57:23.834Z</time></trkpt><trkpt lat="41.8278895" lon="12.6234662"><ele>91.0</ele><time>2026-04-04T08:57:24.835Z</time></trkpt><trkpt lat="41.8278194" lon="12.623621"><ele>92.0</ele><time>2026-04-04T08:57:25.835Z</time></trkpt><trkpt lat="41.8277494" lon="12.6237887"><ele>93.0</ele><time>2026-04-04T08:57:26.835Z</time></trkpt><trkpt lat="41.8276831" lon="12.6239714"><ele>94.0</ele><time>2026-04-04T08:57:27.835Z</time></trkpt><trkpt lat="41.8276232" lon="12.6241679"><ele>94.0</ele><time>2026-04-04T08:57:28.835Z</time></trkpt><trkpt lat="41.8275626" lon="12.6243685"><ele>94.0</ele><time>2026-04-04T08:57:29.835Z</time></trkpt><trkpt lat="41.8275018" lon="12.624571"><ele>94.0</ele><time>2026-04-04T08:57:30.835Z</time></trkpt><trkpt lat="41.8274444" lon="12.6247701"><ele>93.0</ele><time>2026-04-04T08:57:31.834Z</time></trkpt><trkpt lat="41.8273879" lon="12.6249735"><ele>92.0</ele><time>2026-04-04T08:57:32.835Z</time></trkpt><trkpt lat="41.8273276" lon="12.6251797"><ele>91.0</ele><time>2026-04-04T08:57:33.835Z</time></trkpt><trkpt lat="41.8272671" lon="12.6253854"><ele>91.0</ele><time>2026-04-04T08:57:34.835Z</time></trkpt><trkpt lat="41.8272083" lon="12.6255919"><ele>91.0</ele><time>2026-04-04T08:57:35.835Z</time></trkpt><trkpt lat="41.8271473" lon="12.6258075"><ele>91.0</ele><time>2026-04-04T08:57:36.835Z</time></trkpt><trkpt lat="41.8270872" lon="12.6260193"><ele>92.33333333333333</ele><time>2026-04-04T08:57:37.835Z</time></trkpt><trkpt lat="41.8270209" lon="12.6262423"><ele>93.66666666666667</ele><time>2026-04-04T08:57:38.835Z</time></trkpt><trkpt lat="41.8269467" lon="12.6264783"><ele>95.0</ele><time>2026-04-04T08:57:39.834Z</time></trkpt><trkpt lat="41.8268784" lon="12.6266925"><ele>95.0</ele><time>2026-04-04T08:57:40.835Z</time></trkpt><trkpt lat="41.8268122" lon="12.626897"><ele>95.0</ele><time>2026-04-04T08:57:41.835Z</time></trkpt><trkpt lat="41.8267444" lon="12.6270907"><ele>95.0</ele><time>2026-04-04T08:57:42.835Z</time></trkpt><trkpt lat="41.8266745" lon="12.6272792"><ele>95.0</ele><time>2026-04-04T08:57:43.835Z</time></trkpt><trkpt lat="41.8265955" lon="12.6274748"><ele>95.0</ele><time>2026-04-04T08:57:44.835Z</time></trkpt><trkpt lat="41.8265066" lon="12.627676"><ele>95.0</ele><time>2026-04-04T08:57:45.835Z</time></trkpt><trkpt lat="41.8264083" lon="12.6278841"><ele>97.0</ele><time>2026-04-04T08:57:46.835Z</time></trkpt><trkpt lat="41.8263033" lon="12.6280876"><ele>99.0</ele><time>2026-04-04T08:57:47.835Z</time></trkpt><trkpt lat="41.8261972" lon="12.6282873"><ele>101.0</ele><time>2026-04-04T08:57:48.835Z</time></trkpt><trkpt lat="41.8260885" lon="12.6284802"><ele>100.33333333333333</ele><time>2026-04-04T08:57:49.835Z</time></trkpt><trkpt lat="41.8259674" lon="12.6286672"><ele>99.66666666666666</ele><time>2026-04-04T08:57:50.835Z</time></trkpt><trkpt lat="41.8258442" lon="12.628849"><ele>99.0</ele><time>2026-04-04T08:57:51.835Z</time></trkpt><trkpt lat="41.8257176" lon="12.6290289"><ele>99.0</ele><time>2026-04-04T08:57:52.835Z</time></trkpt><trkpt lat="41.8255889" lon="12.6292067"><ele>99.0</ele><time>2026-04-04T08:57:53.835Z</time></trkpt><trkpt lat="41.8254606" lon="12.6293843"><ele>99.0</ele><time>2026-04-04T08:57:54.835Z</time></trkpt><trkpt lat="41.8253317" lon="12.6295598"><ele>99.66666666666666</ele><time>2026-04-04T08:57:55.835Z</time></trkpt><trkpt lat="41.8252017" lon="12.6297383"><ele>100.33333333333333</ele><time>2026-04-04T08:57:56.835Z</time></trkpt><trkpt lat="41.8250702" lon="12.6299137"><ele>101.0</ele><time>2026-04-04T08:57:57.835Z</time></trkpt><trkpt lat="41.8249404" lon="12.6300883"><ele>101.0</ele><time>2026-04-04T08:57:58.835Z</time></trkpt><trkpt lat="41.8248144" lon="12.6302703"><ele>101.0</ele><time>2026-04-04T08:57:59.835Z</time></trkpt><trkpt lat="41.8246936" lon="12.630455"><ele>101.0</ele><time>2026-04-04T08:58:00.835Z</time></trkpt><trkpt lat="41.8245745" lon="12.6306453"><ele>101.33333333333333</ele><time>2026-04-04T08:58:01.835Z</time></trkpt><trkpt lat="41.8244572" lon="12.6308377"><ele>101.66666666666666</ele><time>2026-04-04T08:58:02.835Z</time></trkpt><trkpt lat="41.8243436" lon="12.6310296"><ele>102.0</ele><time>2026-04-04T08:58:03.835Z</time></trkpt><trkpt lat="41.8242304" lon="12.6312197"><ele>102.0</ele><time>2026-04-04T08:58:04.835Z</time></trkpt><trkpt lat="41.8241214" lon="12.631408"><ele>102.0</ele><time>2026-04-04T08:58:05.835Z</time></trkpt><trkpt lat="41.8240188" lon="12.631599"><ele>102.0</ele><time>2026-04-04T08:58:06.835Z</time></trkpt><trkpt lat="41.8239324" lon="12.6317841"><ele>102.0</ele><time>2026-04-04T08:58:07.834Z</time></trkpt><trkpt lat="41.8238675" lon="12.6319725"><ele>102.0</ele><time>2026-04-04T08:58:08.835Z</time></trkpt><trkpt lat="41.8238199" lon="12.6321645"><ele>102.0</ele><time>2026-04-04T08:58:09.835Z</time></trkpt><trkpt lat="41.8237844" lon="12.6323599"><ele>103.33333333333334</ele><time>2026-04-04T08:58:10.835Z</time></trkpt><trkpt lat="41.8237495" lon="12.6325601"><ele>104.66666666666667</ele><time>2026-04-04T08:58:11.835Z</time></trkpt><trkpt lat="41.8237157" lon="12.6327539"><ele>106.0</ele><time>2026-04-04T08:58:12.835Z</time></trkpt><trkpt lat="41.8236798" lon="12.6329479"><ele>106.5</ele><time>2026-04-04T08:58:13.835Z</time></trkpt><trkpt lat="41.8236475" lon="12.6331416"><ele>107.0</ele><time>2026-04-04T08:58:14.835Z</time></trkpt><trkpt lat="41.8236153" lon="12.6333302"><ele>107.5</ele><time>2026-04-04T08:58:15.835Z</time></trkpt><trkpt lat="41.8235828" lon="12.633514"><ele>108.0</ele><time>2026-04-04T08:58:16.835Z</time></trkpt><trkpt lat="41.8235576" lon="12.6336865"><ele>108.25</ele><time>2026-04-04T08:58:17.834Z</time></trkpt><trkpt lat="41.823533" lon="12.6338544"><ele>108.5</ele><time>2026-04-04T08:58:18.835Z</time></trkpt><trkpt lat="41.8235139" lon="12.6340184"><ele>108.75</ele><time>2026-04-04T08:58:19.835Z</time></trkpt><trkpt lat="41.8234942" lon="12.6341706"><ele>109.0</ele><time>2026-04-04T08:58:20.835Z</time></trkpt><trkpt lat="41.8234743" lon="12.6343128"><ele>108.66666666666667</ele><time>2026-04-04T08:58:21.835Z</time></trkpt><trkpt lat="41.8234569" lon="12.6344371"><ele>108.33333333333334</ele><time>2026-04-04T08:58:22.835Z</time></trkpt><trkpt lat="41.8234426" lon="12.6345495"><ele>108.0</ele><time>2026-04-04T08:58:23.834Z</time></trkpt><trkpt lat="41.8234304" lon="12.6346495"><ele>107.66666666666666</ele><time>2026-04-04T08:58:24.835Z</time></trkpt><trkpt lat="41.8234203" lon="12.6347416"><ele>107.33333333333333</ele><time>2026-04-04T08:58:25.835Z</time></trkpt><trkpt lat="41.8233946" lon="12.6348812"><ele>107.0</ele><time>2026-04-04T08:58:27.835Z</time></trkpt><trkpt lat="41.8233768" lon="12.6349801"><ele>107.66666666666666</ele><time>2026-04-04T08:58:29.834Z</time></trkpt><trkpt lat="41.823365" lon="12.6350663"><ele>108.33333333333333</ele><time>2026-04-04T08:58:33.835Z</time></trkpt><trkpt lat="41.8233507" lon="12.6351532"><ele>109.0</ele><time>2026-04-04T08:58:58.835Z</time></trkpt><trkpt lat="41.8233427" lon="12.6352968"><ele>109.66666666666666</ele><time>2026-04-04T08:59:00.835Z</time></trkpt><trkpt lat="41.8233359" lon="12.6353814"><ele>110.33333333333333</ele><time>2026-04-04T08:59:01.835Z</time></trkpt><trkpt lat="41.8233121" lon="12.6355508"><ele>111.0</ele><time>2026-04-04T08:59:03.835Z</time></trkpt><trkpt lat="41.8232943" lon="12.6356569"><ele>111.75</ele><time>2026-04-04T08:59:04.835Z</time></trkpt><trkpt lat="41.8232839" lon="12.6357746"><ele>112.5</ele><time>2026-04-04T08:59:05.835Z</time></trkpt><trkpt lat="41.8232796" lon="12.6359416"><ele>113.25</ele><time>2026-04-04T08:59:06.834Z</time></trkpt><trkpt lat="41.8232557" lon="12.6361463"><ele>114.0</ele><time>2026-04-04T08:59:07.835Z</time></trkpt><trkpt lat="41.8232138" lon="12.6363674"><ele>114.33333333333334</ele><time>2026-04-04T08:59:08.835Z</time></trkpt><trkpt lat="41.8231674" lon="12.6365954"><ele>114.66666666666667</ele><time>2026-04-04T08:59:09.835Z</time></trkpt><trkpt lat="41.8231144" lon="12.6368287"><ele>115.0</ele><time>2026-04-04T08:59:10.835Z</time></trkpt><trkpt lat="41.8230549" lon="12.6370537"><ele>115.33333333333334</ele><time>2026-04-04T08:59:11.835Z</time></trkpt><trkpt lat="41.8229937" lon="12.6372667"><ele>115.66666666666666</ele><time>2026-04-04T08:59:12.835Z</time></trkpt><trkpt lat="41.8229303" lon="12.6374595"><ele>116.0</ele><time>2026-04-04T08:59:13.835Z</time></trkpt><trkpt lat="41.8228628" lon="12.6376391"><ele>116.75</ele><time>2026-04-04T08:59:14.835Z</time></trkpt><trkpt lat="41.8227884" lon="12.6378155"><ele>117.5</ele><time>2026-04-04T08:59:15.835Z</time></trkpt><trkpt lat="41.8227129" lon="12.6379866"><ele>118.25</ele><time>2026-04-04T08:59:16.835Z</time></trkpt><trkpt lat="41.8226402" lon="12.6381489"><ele>119.0</ele><time>2026-04-04T08:59:17.835Z</time></trkpt><trkpt lat="41.8225674" lon="12.6383083"><ele>119.75</ele><time>2026-04-04T08:59:18.835Z</time></trkpt><trkpt lat="41.8224955" lon="12.6384636"><ele>120.5</ele><time>2026-04-04T08:59:19.835Z</time></trkpt><trkpt lat="41.8224277" lon="12.6386184"><ele>121.25</ele><time>2026-04-04T08:59:20.835Z</time></trkpt><trkpt lat="41.8223604" lon="12.6387732"><ele>122.0</ele><time>2026-04-04T08:59:21.834Z</time></trkpt><trkpt lat="41.8222935" lon="12.6389308"><ele>122.0</ele><time>2026-04-04T08:59:22.835Z</time></trkpt><trkpt lat="41.8222257" lon="12.6390924"><ele>122.0</ele><time>2026-04-04T08:59:23.835Z</time></trkpt><trkpt lat="41.8221583" lon="12.639261"><ele>122.0</ele><time>2026-04-04T08:59:24.835Z</time></trkpt><trkpt lat="41.8220889" lon="12.6394219"><ele>122.0</ele><time>2026-04-04T08:59:25.835Z</time></trkpt><trkpt lat="41.8220183" lon="12.6395787"><ele>121.5</ele><time>2026-04-04T08:59:26.835Z</time></trkpt><trkpt lat="41.8219461" lon="12.6397382"><ele>121.0</ele><time>2026-04-04T08:59:27.835Z</time></trkpt><trkpt lat="41.8218735" lon="12.6398985"><ele>120.5</ele><time>2026-04-04T08:59:28.835Z</time></trkpt><trkpt lat="41.8218042" lon="12.6400527"><ele>120.0</ele><time>2026-04-04T08:59:29.835Z</time></trkpt><trkpt lat="41.821736" lon="12.6402141"><ele>120.0</ele><time>2026-04-04T08:59:30.835Z</time></trkpt><trkpt lat="41.8216678" lon="12.6403606"><ele>120.0</ele><time>2026-04-04T08:59:31.835Z</time></trkpt><trkpt lat="41.8216013" lon="12.6404938"><ele>120.0</ele><time>2026-04-04T08:59:32.835Z</time></trkpt><trkpt lat="41.821539" lon="12.6406213"><ele>120.0</ele><time>2026-04-04T08:59:33.835Z</time></trkpt><trkpt lat="41.8214876" lon="12.6407445"><ele>120.0</ele><time>2026-04-04T08:59:34.835Z</time></trkpt><trkpt lat="41.8214423" lon="12.6408761"><ele>120.0</ele><time>2026-04-04T08:59:35.835Z</time></trkpt><trkpt lat="41.8214057" lon="12.6410093"><ele>120.0</ele><time>2026-04-04T08:59:36.835Z</time></trkpt><trkpt lat="41.8213944" lon="12.6411466"><ele>120.0</ele><time>2026-04-04T08:59:37.835Z</time></trkpt><trkpt lat="41.8213972" lon="12.6412677"><ele>120.0</ele><time>2026-04-04T08:59:38.835Z</time></trkpt><trkpt lat="41.8214145" lon="12.641369"><ele>120.2</ele><time>2026-04-04T08:59:39.835Z</time></trkpt><trkpt lat="41.8214406" lon="12.641457"><ele>120.4</ele><time>2026-04-04T08:59:40.835Z</time></trkpt><trkpt lat="41.8214882" lon="12.6415476"><ele>120.6</ele><time>2026-04-04T08:59:41.835Z</time></trkpt><trkpt lat="41.8215538" lon="12.6416213"><ele>120.8</ele><time>2026-04-04T08:59:42.835Z</time></trkpt><trkpt lat="41.8216375" lon="12.6416971"><ele>121.0</ele><time>2026-04-04T08:59:43.835Z</time></trkpt><trkpt lat="41.8217264" lon="12.6417897"><ele>121.25</ele><time>2026-04-04T08:59:44.834Z</time></trkpt><trkpt lat="41.8218178" lon="12.6418813"><ele>121.5</ele><time>2026-04-04T08:59:45.834Z</time></trkpt><trkpt lat="41.8219111" lon="12.6419766"><ele>121.75</ele><time>2026-04-04T08:59:46.835Z</time></trkpt><trkpt lat="41.8219928" lon="12.642075"><ele>122.0</ele><time>2026-04-04T08:59:47.835Z</time></trkpt><trkpt lat="41.8220823" lon="12.6421681"><ele>123.75</ele><time>2026-04-04T08:59:48.835Z</time></trkpt><trkpt lat="41.8221799" lon="12.6422691"><ele>125.5</ele><time>2026-04-04T08:59:49.834Z</time></trkpt><trkpt lat="41.8222746" lon="12.6423729"><ele>127.25</ele><time>2026-04-04T08:59:50.835Z</time></trkpt><trkpt lat="41.8223573" lon="12.6424756"><ele>129.0</ele><time>2026-04-04T08:59:51.835Z</time></trkpt><trkpt lat="41.8224405" lon="12.6425932"><ele>129.0</ele><time>2026-04-04T08:59:52.835Z</time></trkpt><trkpt lat="41.8225043" lon="12.6427159"><ele>129.0</ele><time>2026-04-04T08:59:53.834Z</time></trkpt><trkpt lat="41.8225528" lon="12.6428491"><ele>129.0</ele><time>2026-04-04T08:59:54.835Z</time></trkpt><trkpt lat="41.8225876" lon="12.6429879"><ele>129.0</ele><time>2026-04-04T08:59:55.835Z</time></trkpt><trkpt lat="41.8226126" lon="12.6431231"><ele>129.0</ele><time>2026-04-04T08:59:56.835Z</time></trkpt><trkpt lat="41.822626" lon="12.6432449"><ele>129.83333333333334</ele><time>2026-04-04T08:59:57.834Z</time></trkpt><trkpt lat="41.8226263" lon="12.6433483"><ele>130.66666666666666</ele><time>2026-04-04T08:59:58.835Z</time></trkpt><trkpt lat="41.8226222" lon="12.6434367"><ele>131.5</ele><time>2026-04-04T08:59:59.835Z</time></trkpt><trkpt lat="41.8226291" lon="12.6435963"><ele>132.33333333333331</ele><time>2026-04-04T09:00:01.835Z</time></trkpt><trkpt lat="41.822672" lon="12.6436811"><ele>133.16666666666666</ele><time>2026-04-04T09:00:02.834Z</time></trkpt><trkpt lat="41.8227411" lon="12.6437553"><ele>134.0</ele><time>2026-04-04T09:00:03.835Z</time></trkpt><trkpt lat="41.8228251" lon="12.6438204"><ele>134.5</ele><time>2026-04-04T09:00:04.835Z</time></trkpt><trkpt lat="41.8229344" lon="12.6438762"><ele>135.0</ele><time>2026-04-04T09:00:05.835Z</time></trkpt><trkpt lat="41.8230382" lon="12.6439411"><ele>135.5</ele><time>2026-04-04T09:00:06.835Z</time></trkpt><trkpt lat="41.8231536" lon="12.6440102"><ele>136.0</ele><time>2026-04-04T09:00:07.835Z</time></trkpt><trkpt lat="41.823281" lon="12.6440809"><ele>136.0</ele><time>2026-04-04T09:00:08.835Z</time></trkpt><trkpt lat="41.8234086" lon="12.6441523"><ele>136.0</ele><time>2026-04-04T09:00:09.835Z</time></trkpt><trkpt lat="41.8235346" lon="12.6442238"><ele>136.0</ele><time>2026-04-04T09:00:10.835Z</time></trkpt><trkpt lat="41.8236648" lon="12.6442919"><ele>136.0</ele><time>2026-04-04T09:00:11.835Z</time></trkpt><trkpt lat="41.8237929" lon="12.6443605"><ele>135.5</ele><time>2026-04-04T09:00:12.835Z</time></trkpt><trkpt lat="41.8239224" lon="12.6444215"><ele>135.0</ele><time>2026-04-04T09:00:13.835Z</time></trkpt><trkpt lat="41.8240533" lon="12.6444849"><ele>134.5</ele><time>2026-04-04T09:00:14.835Z</time></trkpt><trkpt lat="41.8241828" lon="12.6445512"><ele>134.0</ele><time>2026-04-04T09:00:15.835Z</time></trkpt><trkpt lat="41.8243159" lon="12.6446149"><ele>133.5</ele><time>2026-04-04T09:00:16.835Z</time></trkpt><trkpt lat="41.8244503" lon="12.6446853"><ele>133.0</ele><time>2026-04-04T09:00:17.835Z</time></trkpt><trkpt lat="41.8245824" lon="12.6447628"><ele>132.5</ele><time>2026-04-04T09:00:18.835Z</time></trkpt><trkpt lat="41.8247095" lon="12.6448612"><ele>132.0</ele><time>2026-04-04T09:00:19.835Z</time></trkpt><trkpt lat="41.8248249" lon="12.6449773"><ele>132.0</ele><time>2026-04-04T09:00:20.835Z</time></trkpt><trkpt lat="41.8249255" lon="12.6451064"><ele>132.0</ele><time>2026-04-04T09:00:21.835Z</time></trkpt><trkpt lat="41.825017" lon="12.6452375"><ele>132.0</ele><time>2026-04-04T09:00:22.835Z</time></trkpt><trkpt lat="41.8251101" lon="12.6453636"><ele>132.0</ele><time>2026-04-04T09:00:23.835Z</time></trkpt><trkpt lat="41.8252076" lon="12.6455011"><ele>131.25</ele><time>2026-04-04T09:00:24.835Z</time></trkpt><trkpt lat="41.8252996" lon="12.6456412"><ele>130.5</ele><time>2026-04-04T09:00:25.835Z</time></trkpt><trkpt lat="41.8253936" lon="12.6457829"><ele>129.75</ele><time>2026-04-04T09:00:26.835Z</time></trkpt><trkpt lat="41.8254892" lon="12.6459256"><ele>129.0</ele><time>2026-04-04T09:00:27.835Z</time></trkpt><trkpt lat="41.8255849" lon="12.6460678"><ele>129.25</ele><time>2026-04-04T09:00:28.835Z</time></trkpt><trkpt lat="41.8256815" lon="12.6462121"><ele>129.5</ele><time>2026-04-04T09:00:29.835Z</time></trkpt><trkpt lat="41.8257777" lon="12.646357"><ele>129.75</ele><time>2026-04-04T09:00:30.835Z</time></trkpt><trkpt lat="41.8258759" lon="12.6465014"><ele>130.0</ele><time>2026-04-04T09:00:31.835Z</time></trkpt><trkpt lat="41.8259721" lon="12.646643"><ele>129.5</ele><time>2026-04-04T09:00:32.835Z</time></trkpt><trkpt lat="41.8260694" lon="12.6467866"><ele>129.0</ele><time>2026-04-04T09:00:33.835Z</time></trkpt><trkpt lat="41.82617" lon="12.6469313"><ele>128.5</ele><time>2026-04-04T09:00:34.835Z</time></trkpt><trkpt lat="41.8262711" lon="12.6470785"><ele>128.0</ele><time>2026-04-04T09:00:35.835Z</time></trkpt><trkpt lat="41.8263753" lon="12.6472247"><ele>128.0</ele><time>2026-04-04T09:00:36.835Z</time></trkpt><trkpt lat="41.8264808" lon="12.6473726"><ele>128.0</ele><time>2026-04-04T09:00:37.835Z</time></trkpt><trkpt lat="41.8265842" lon="12.6475188"><ele>128.0</ele><time>2026-04-04T09:00:38.835Z</time></trkpt><trkpt lat="41.8266875" lon="12.6476674"><ele>127.66666666666666</ele><time>2026-04-04T09:00:39.835Z</time></trkpt><trkpt lat="41.8267881" lon="12.6478177"><ele>127.33333333333334</ele><time>2026-04-04T09:00:40.835Z</time></trkpt><trkpt lat="41.8268883" lon="12.6479704"><ele>127.0</ele><time>2026-04-04T09:00:41.835Z</time></trkpt><trkpt lat="41.8269889" lon="12.6481164"><ele>127.0</ele><time>2026-04-04T09:00:42.835Z</time></trkpt><trkpt lat="41.8270892" lon="12.6482581"><ele>127.0</ele><time>2026-04-04T09:00:43.835Z</time></trkpt><trkpt lat="41.8271922" lon="12.6484013"><ele>127.0</ele><time>2026-04-04T09:00:44.835Z</time></trkpt><trkpt lat="41.8272926" lon="12.6485465"><ele>127.0</ele><time>2026-04-04T09:00:45.835Z</time></trkpt><trkpt lat="41.8273926" lon="12.6486978"><ele>127.33333333333334</ele><time>2026-04-04T09:00:46.835Z</time></trkpt><trkpt lat="41.8274927" lon="12.6488536"><ele>127.66666666666666</ele><time>2026-04-04T09:00:47.835Z</time></trkpt><trkpt lat="41.8275981" lon="12.6490081"><ele>128.0</ele><time>2026-04-04T09:00:48.835Z</time></trkpt><trkpt lat="41.8277026" lon="12.6491622"><ele>128.66666666666666</ele><time>2026-04-04T09:00:49.835Z</time></trkpt><trkpt lat="41.8278085" lon="12.6493154"><ele>129.33333333333334</ele><time>2026-04-04T09:00:50.835Z</time></trkpt><trkpt lat="41.8279125" lon="12.6494695"><ele>130.0</ele><time>2026-04-04T09:00:51.835Z</time></trkpt><trkpt lat="41.8280149" lon="12.6496264"><ele>130.66666666666669</ele><time>2026-04-04T09:00:52.835Z</time></trkpt><trkpt lat="41.8281219" lon="12.6497806"><ele>131.33333333333334</ele><time>2026-04-04T09:00:53.835Z</time></trkpt><trkpt lat="41.8282246" lon="12.6499356"><ele>132.0</ele><time>2026-04-04T09:00:54.835Z</time></trkpt><trkpt lat="41.828328" lon="12.6500971"><ele>132.0</ele><time>2026-04-04T09:00:55.835Z</time></trkpt><trkpt lat="41.8284299" lon="12.6502611"><ele>132.0</ele><time>2026-04-04T09:00:56.835Z</time></trkpt><trkpt lat="41.8285329" lon="12.6504314"><ele>132.0</ele><time>2026-04-04T09:00:57.835Z</time></trkpt><trkpt lat="41.8286365" lon="12.6505989"><ele>131.33333333333334</ele><time>2026-04-04T09:00:58.835Z</time></trkpt><trkpt lat="41.8287369" lon="12.6507598"><ele>130.66666666666669</ele><time>2026-04-04T09:00:59.835Z</time></trkpt><trkpt lat="41.8288378" lon="12.6509201"><ele>130.0</ele><time>2026-04-04T09:01:00.835Z</time></trkpt><trkpt lat="41.8289368" lon="12.6510782"><ele>128.66666666666669</ele><time>2026-04-04T09:01:01.835Z</time></trkpt><trkpt lat="41.8290426" lon="12.651234"><ele>127.33333333333334</ele><time>2026-04-04T09:01:02.835Z</time></trkpt><trkpt lat="41.8291532" lon="12.6513833"><ele>126.0</ele><time>2026-04-04T09:01:03.835Z</time></trkpt><trkpt lat="41.8292719" lon="12.6515218"><ele>125.0</ele><time>2026-04-04T09:01:04.835Z</time></trkpt><trkpt lat="41.829398" lon="12.6516444"><ele>124.0</ele><time>2026-04-04T09:01:05.835Z</time></trkpt><trkpt lat="41.8295268" lon="12.6517593"><ele>123.0</ele><time>2026-04-04T09:01:06.834Z</time></trkpt><trkpt lat="41.8296579" lon="12.6518672"><ele>122.33333333333334</ele><time>2026-04-04T09:01:07.835Z</time></trkpt><trkpt lat="41.8297914" lon="12.6519725"><ele>121.66666666666667</ele><time>2026-04-04T09:01:08.835Z</time></trkpt><trkpt lat="41.8299255" lon="12.6520667"><ele>121.0</ele><time>2026-04-04T09:01:09.835Z</time></trkpt><trkpt lat="41.830059" lon="12.6521492"><ele>120.25</ele><time>2026-04-04T09:01:10.835Z</time></trkpt><trkpt lat="41.8301856" lon="12.652224"><ele>119.5</ele><time>2026-04-04T09:01:11.835Z</time></trkpt><trkpt lat="41.8303175" lon="12.6522977"><ele>118.75</ele><time>2026-04-04T09:01:12.835Z</time></trkpt><trkpt lat="41.8304524" lon="12.6523695"><ele>118.0</ele><time>2026-04-04T09:01:13.835Z</time></trkpt><trkpt lat="41.8305851" lon="12.6524433"><ele>118.0</ele><time>2026-04-04T09:01:14.835Z</time></trkpt><trkpt lat="41.8307194" lon="12.6525166"><ele>118.0</ele><time>2026-04-04T09:01:15.834Z</time></trkpt><trkpt lat="41.8308523" lon="12.6525944"><ele>118.0</ele><time>2026-04-04T09:01:16.834Z</time></trkpt><trkpt lat="41.8309875" lon="12.6526831"><ele>118.0</ele><time>2026-04-04T09:01:17.835Z</time></trkpt><trkpt lat="41.8311218" lon="12.6527785"><ele>117.75</ele><time>2026-04-04T09:01:18.835Z</time></trkpt><trkpt lat="41.8312447" lon="12.6528872"><ele>117.5</ele><time>2026-04-04T09:01:19.835Z</time></trkpt><trkpt lat="41.831359" lon="12.6530091"><ele>117.25</ele><time>2026-04-04T09:01:20.834Z</time></trkpt><trkpt lat="41.8314754" lon="12.6531355"><ele>117.0</ele><time>2026-04-04T09:01:21.835Z</time></trkpt><trkpt lat="41.8315924" lon="12.6532654"><ele>117.0</ele><time>2026-04-04T09:01:22.835Z</time></trkpt><trkpt lat="41.8317086" lon="12.6533933"><ele>117.0</ele><time>2026-04-04T09:01:23.835Z</time></trkpt><trkpt lat="41.8318244" lon="12.6535168"><ele>117.0</ele><time>2026-04-04T09:01:24.834Z</time></trkpt><trkpt lat="41.8319362" lon="12.6536367"><ele>117.0</ele><time>2026-04-04T09:01:25.835Z</time></trkpt><trkpt lat="41.8320411" lon="12.6537516"><ele>117.0</ele><time>2026-04-04T09:01:26.835Z</time></trkpt><trkpt lat="41.8321406" lon="12.6538581"><ele>117.0</ele><time>2026-04-04T09:01:27.835Z</time></trkpt><trkpt lat="41.8322407" lon="12.6539626"><ele>117.0</ele><time>2026-04-04T09:01:28.835Z</time></trkpt><trkpt lat="41.8323396" lon="12.6540729"><ele>117.0</ele><time>2026-04-04T09:01:29.835Z</time></trkpt><trkpt lat="41.832445" lon="12.6541855"><ele>117.0</ele><time>2026-04-04T09:01:30.835Z</time></trkpt><trkpt lat="41.8325417" lon="12.6542994"><ele>117.0</ele><time>2026-04-04T09:01:31.835Z</time></trkpt><trkpt lat="41.8326515" lon="12.6544256"><ele>117.0</ele><time>2026-04-04T09:01:32.835Z</time></trkpt><trkpt lat="41.8327526" lon="12.6545496"><ele>117.0</ele><time>2026-04-04T09:01:33.835Z</time></trkpt><trkpt lat="41.8328662" lon="12.6546617"><ele>118.0</ele><time>2026-04-04T09:01:34.835Z</time></trkpt><trkpt lat="41.8329741" lon="12.6547922"><ele>119.0</ele><time>2026-04-04T09:01:35.835Z</time></trkpt><trkpt lat="41.8330822" lon="12.6549222"><ele>120.0</ele><time>2026-04-04T09:01:36.834Z</time></trkpt><trkpt lat="41.8331917" lon="12.6550529"><ele>121.0</ele><time>2026-04-04T09:01:37.835Z</time></trkpt><trkpt lat="41.8332979" lon="12.6551914"><ele>120.66666666666667</ele><time>2026-04-04T09:01:38.835Z</time></trkpt><trkpt lat="41.83341" lon="12.6553344"><ele>120.33333333333334</ele><time>2026-04-04T09:01:39.835Z</time></trkpt><trkpt lat="41.8335176" lon="12.655478"><ele>120.0</ele><time>2026-04-04T09:01:40.834Z</time></trkpt><trkpt lat="41.8336319" lon="12.6556274"><ele>119.66666666666666</ele><time>2026-04-04T09:01:41.835Z</time></trkpt><trkpt lat="41.8337517" lon="12.6557752"><ele>119.33333333333333</ele><time>2026-04-04T09:01:42.835Z</time></trkpt><trkpt lat="41.8338696" lon="12.6559239"><ele>119.0</ele><time>2026-04-04T09:01:43.835Z</time></trkpt><trkpt lat="41.8339896" lon="12.6560729"><ele>118.66666666666666</ele><time>2026-04-04T09:01:44.835Z</time></trkpt><trkpt lat="41.8341092" lon="12.656224"><ele>118.33333333333334</ele><time>2026-04-04T09:01:45.835Z</time></trkpt><trkpt lat="41.8342285" lon="12.6563741"><ele>118.0</ele><time>2026-04-04T09:01:46.835Z</time></trkpt><trkpt lat="41.8343492" lon="12.6565269"><ele>117.66666666666667</ele><time>2026-04-04T09:01:47.835Z</time></trkpt><trkpt lat="41.8344675" lon="12.6566781"><ele>117.33333333333334</ele><time>2026-04-04T09:01:48.835Z</time></trkpt><trkpt lat="41.8345796" lon="12.656825"><ele>117.0</ele><time>2026-04-04T09:01:49.835Z</time></trkpt><trkpt lat="41.8346954" lon="12.6569694"><ele>115.66666666666666</ele><time>2026-04-04T09:01:50.835Z</time></trkpt><trkpt lat="41.8348095" lon="12.6571168"><ele>114.33333333333333</ele><time>2026-04-04T09:01:51.835Z</time></trkpt><trkpt lat="41.8349202" lon="12.6572602"><ele>113.0</ele><time>2026-04-04T09:01:52.835Z</time></trkpt><trkpt lat="41.8350263" lon="12.6574045"><ele>113.0</ele><time>2026-04-04T09:01:53.835Z</time></trkpt><trkpt lat="41.8351351" lon="12.6575436"><ele>113.0</ele><time>2026-04-04T09:01:54.835Z</time></trkpt><trkpt lat="41.8352415" lon="12.657685"><ele>113.0</ele><time>2026-04-04T09:01:55.835Z</time></trkpt><trkpt lat="41.8353485" lon="12.6578236"><ele>113.0</ele><time>2026-04-04T09:01:56.835Z</time></trkpt><trkpt lat="41.8354667" lon="12.6579506"><ele>113.66666666666666</ele><time>2026-04-04T09:01:57.835Z</time></trkpt><trkpt lat="41.835603" lon="12.6580477"><ele>114.33333333333334</ele><time>2026-04-04T09:01:58.835Z</time></trkpt><trkpt lat="41.8357413" lon="12.6581315"><ele>115.0</ele><time>2026-04-04T09:01:59.835Z</time></trkpt><trkpt lat="41.8358785" lon="12.6582145"><ele>113.75</ele><time>2026-04-04T09:02:00.835Z</time></trkpt><trkpt lat="41.8360139" lon="12.6582962"><ele>112.5</ele><time>2026-04-04T09:02:01.835Z</time></trkpt><trkpt lat="41.8361426" lon="12.6583707"><ele>111.25</ele><time>2026-04-04T09:02:02.835Z</time></trkpt><trkpt lat="41.836255" lon="12.6584388"><ele>110.0</ele><time>2026-04-04T09:02:03.835Z</time></trkpt><trkpt lat="41.8363563" lon="12.6585002"><ele>109.99999999999999</ele><time>2026-04-04T09:02:04.835Z</time></trkpt><trkpt lat="41.8364417" lon="12.6585704"><ele>110.0</ele><time>2026-04-04T09:02:05.835Z</time></trkpt><trkpt lat="41.8364968" lon="12.6586531"><ele>110.0</ele><time>2026-04-04T09:02:06.835Z</time></trkpt><trkpt lat="41.8365417" lon="12.6587431"><ele>110.0</ele><time>2026-04-04T09:02:07.834Z</time></trkpt><trkpt lat="41.8365885" lon="12.6588435"><ele>109.99999999999999</ele><time>2026-04-04T09:02:08.835Z</time></trkpt><trkpt lat="41.8366558" lon="12.6589232"><ele>110.0</ele><time>2026-04-04T09:02:09.835Z</time></trkpt><trkpt lat="41.836745" lon="12.6589806"><ele>109.8</ele><time>2026-04-04T09:02:10.835Z</time></trkpt><trkpt lat="41.8368444" lon="12.6590099"><ele>109.6</ele><time>2026-04-04T09:02:11.835Z</time></trkpt><trkpt lat="41.8369392" lon="12.6590552"><ele>109.4</ele><time>2026-04-04T09:02:12.834Z</time></trkpt><trkpt lat="41.8370253" lon="12.6591326"><ele>109.2</ele><time>2026-04-04T09:02:13.835Z</time></trkpt><trkpt lat="41.8370997" lon="12.6592342"><ele>109.0</ele><time>2026-04-04T09:02:14.835Z</time></trkpt><trkpt lat="41.8371816" lon="12.6593469"><ele>109.25</ele><time>2026-04-04T09:02:15.835Z</time></trkpt><trkpt lat="41.8372613" lon="12.6594653"><ele>109.5</ele><time>2026-04-04T09:02:16.835Z</time></trkpt><trkpt lat="41.8373421" lon="12.6595903"><ele>109.75</ele><time>2026-04-04T09:02:17.835Z</time></trkpt><trkpt lat="41.8374227" lon="12.6597117"><ele>110.0</ele><time>2026-04-04T09:02:18.835Z</time></trkpt><trkpt lat="41.8375057" lon="12.6598322"><ele>110.0</ele><time>2026-04-04T09:02:19.835Z</time></trkpt><trkpt lat="41.8375871" lon="12.6599542"><ele>110.0</ele><time>2026-04-04T09:02:20.835Z</time></trkpt><trkpt lat="41.8376665" lon="12.6600748"><ele>110.0</ele><time>2026-04-04T09:02:21.835Z</time></trkpt><trkpt lat="41.8377492" lon="12.6601917"><ele>110.0</ele><time>2026-04-04T09:02:22.835Z</time></trkpt><trkpt lat="41.8378398" lon="12.6602911"><ele>110.75</ele><time>2026-04-04T09:02:23.835Z</time></trkpt><trkpt lat="41.8379409" lon="12.6603703"><ele>111.5</ele><time>2026-04-04T09:02:24.835Z</time></trkpt><trkpt lat="41.8380518" lon="12.6604145"><ele>112.25</ele><time>2026-04-04T09:02:25.835Z</time></trkpt><trkpt lat="41.8381641" lon="12.6604245"><ele>113.0</ele><time>2026-04-04T09:02:26.835Z</time></trkpt><trkpt lat="41.8382799" lon="12.6604087"><ele>113.0</ele><time>2026-04-04T09:02:27.834Z</time></trkpt><trkpt lat="41.8384008" lon="12.660389"><ele>113.0</ele><time>2026-04-04T09:02:28.835Z</time></trkpt><trkpt lat="41.8385222" lon="12.6603592"><ele>113.0</ele><time>2026-04-04T09:02:29.835Z</time></trkpt><trkpt lat="41.8386392" lon="12.6603269"><ele>113.0</ele><time>2026-04-04T09:02:30.834Z</time></trkpt><trkpt lat="41.8387536" lon="12.6602967"><ele>111.75</ele><time>2026-04-04T09:02:31.835Z</time></trkpt><trkpt lat="41.838871" lon="12.6602652"><ele>110.5</ele><time>2026-04-04T09:02:32.835Z</time></trkpt><trkpt lat="41.8389896" lon="12.6602368"><ele>109.25</ele><time>2026-04-04T09:02:33.835Z</time></trkpt><trkpt lat="41.8391083" lon="12.6602077"><ele>108.0</ele><time>2026-04-04T09:02:34.834Z</time></trkpt><trkpt lat="41.8392228" lon="12.6601793"><ele>109.0</ele><time>2026-04-04T09:02:35.835Z</time></trkpt><trkpt lat="41.8393417" lon="12.660147"><ele>110.0</ele><time>2026-04-04T09:02:36.835Z</time></trkpt><trkpt lat="41.8394574" lon="12.6601204"><ele>111.0</ele><time>2026-04-04T09:02:37.834Z</time></trkpt><trkpt lat="41.8395711" lon="12.6600946"><ele>112.0</ele><time>2026-04-04T09:02:38.835Z</time></trkpt><trkpt lat="41.8396905" lon="12.6600686"><ele>112.0</ele><time>2026-04-04T09:02:39.835Z</time></trkpt><trkpt lat="41.8398109" lon="12.660047"><ele>112.0</ele><time>2026-04-04T09:02:40.835Z</time></trkpt><trkpt lat="41.839931" lon="12.6600308"><ele>112.0</ele><time>2026-04-04T09:02:41.835Z</time></trkpt><trkpt lat="41.8400529" lon="12.6600203"><ele>112.0</ele><time>2026-04-04T09:02:42.835Z</time></trkpt><trkpt lat="41.8401744" lon="12.6600206"><ele>112.0</ele><time>2026-04-04T09:02:43.834Z</time></trkpt><trkpt lat="41.8403" lon="12.6600289"><ele>112.0</ele><time>2026-04-04T09:02:44.835Z</time></trkpt><trkpt lat="41.8404273" lon="12.6600416"><ele>112.0</ele><time>2026-04-04T09:02:45.835Z</time></trkpt><trkpt lat="41.8405658" lon="12.6600727"><ele>112.0</ele><time>2026-04-04T09:02:46.835Z</time></trkpt><trkpt lat="41.8407014" lon="12.6601061"><ele>112.0</ele><time>2026-04-04T09:02:47.835Z</time></trkpt><trkpt lat="41.8408361" lon="12.6601467"><ele>112.0</ele><time>2026-04-04T09:02:48.835Z</time></trkpt><trkpt lat="41.8409692" lon="12.6601919"><ele>112.0</ele><time>2026-04-04T09:02:49.835Z</time></trkpt><trkpt lat="41.8410855" lon="12.6602629"><ele>112.0</ele><time>2026-04-04T09:02:50.835Z</time></trkpt><trkpt lat="41.8412085" lon="12.66034"><ele>112.0</ele><time>2026-04-04T09:02:51.835Z</time></trkpt><trkpt lat="41.8413267" lon="12.6604121"><ele>112.0</ele><time>2026-04-04T09:02:52.835Z</time></trkpt><trkpt lat="41.8414459" lon="12.6604929"><ele>112.0</ele><time>2026-04-04T09:02:53.835Z</time></trkpt><trkpt lat="41.8415674" lon="12.6605744"><ele>112.0</ele><time>2026-04-04T09:02:54.835Z</time></trkpt><trkpt lat="41.8416883" lon="12.6606601"><ele>112.25</ele><time>2026-04-04T09:02:55.835Z</time></trkpt><trkpt lat="41.8418053" lon="12.6607443"><ele>112.5</ele><time>2026-04-04T09:02:56.834Z</time></trkpt><trkpt lat="41.8419187" lon="12.6608285"><ele>112.75</ele><time>2026-04-04T09:02:57.834Z</time></trkpt><trkpt lat="41.8420295" lon="12.6609148"><ele>113.0</ele><time>2026-04-04T09:02:58.835Z</time></trkpt><trkpt lat="41.8421377" lon="12.6610055"><ele>113.0</ele><time>2026-04-04T09:02:59.835Z</time></trkpt><trkpt lat="41.8422386" lon="12.6611029"><ele>113.0</ele><time>2026-04-04T09:03:00.835Z</time></trkpt><trkpt lat="41.8423381" lon="12.6612036"><ele>113.0</ele><time>2026-04-04T09:03:01.835Z</time></trkpt><trkpt lat="41.8424322" lon="12.6613021"><ele>113.0</ele><time>2026-04-04T09:03:02.834Z</time></trkpt><trkpt lat="41.8425122" lon="12.6613891"><ele>113.33333333333333</ele><time>2026-04-04T09:03:03.835Z</time></trkpt><trkpt lat="41.8425892" lon="12.6614722"><ele>113.66666666666666</ele><time>2026-04-04T09:03:04.835Z</time></trkpt><trkpt lat="41.8426548" lon="12.661542"><ele>114.0</ele><time>2026-04-04T09:03:05.835Z</time></trkpt><trkpt lat="41.8427053" lon="12.6615972"><ele>114.33333333333334</ele><time>2026-04-04T09:03:06.835Z</time></trkpt><trkpt lat="41.8427845" lon="12.6616732"><ele>114.66666666666667</ele><time>2026-04-04T09:03:08.835Z</time></trkpt><trkpt lat="41.8428313" lon="12.6617343"><ele>115.0</ele><time>2026-04-04T09:03:12.835Z</time></trkpt><trkpt lat="41.8429035" lon="12.6618048"><ele>115.0</ele><time>2026-04-04T09:03:14.835Z</time></trkpt><trkpt lat="41.8429797" lon="12.6618774"><ele>115.0</ele><time>2026-04-04T09:03:15.835Z</time></trkpt><trkpt lat="41.8430891" lon="12.6619889"><ele>115.0</ele><time>2026-04-04T09:03:16.835Z</time></trkpt><trkpt lat="41.8431982" lon="12.6621167"><ele>115.0</ele><time>2026-04-04T09:03:17.835Z</time></trkpt><trkpt lat="41.8433233" lon="12.6622461"><ele>115.0</ele><time>2026-04-04T09:03:18.835Z</time></trkpt><trkpt lat="41.8434355" lon="12.6623787"><ele>115.0</ele><time>2026-04-04T09:03:19.835Z</time></trkpt><trkpt lat="41.8435372" lon="12.6625123"><ele>115.0</ele><time>2026-04-04T09:03:20.835Z</time></trkpt><trkpt lat="41.8436349" lon="12.6626436"><ele>115.0</ele><time>2026-04-04T09:03:21.835Z</time></trkpt><trkpt lat="41.8437349" lon="12.6627777"><ele>114.75</ele><time>2026-04-04T09:03:22.835Z</time></trkpt><trkpt lat="41.843828" lon="12.6629041"><ele>114.5</ele><time>2026-04-04T09:03:23.835Z</time></trkpt><trkpt lat="41.8439275" lon="12.6630418"><ele>114.25</ele><time>2026-04-04T09:03:24.835Z</time></trkpt><trkpt lat="41.8440465" lon="12.6632121"><ele>114.0</ele><time>2026-04-04T09:03:25.835Z</time></trkpt><trkpt lat="41.8441534" lon="12.6633904"><ele>114.0</ele><time>2026-04-04T09:03:26.835Z</time></trkpt><trkpt lat="41.8442417" lon="12.6635597"><ele>114.0</ele><time>2026-04-04T09:03:27.835Z</time></trkpt><trkpt lat="41.8443201" lon="12.6637252"><ele>114.0</ele><time>2026-04-04T09:03:28.835Z</time></trkpt><trkpt lat="41.8443883" lon="12.6638748"><ele>114.0</ele><time>2026-04-04T09:03:29.835Z</time></trkpt><trkpt lat="41.8444502" lon="12.6640165"><ele>113.5</ele><time>2026-04-04T09:03:30.835Z</time></trkpt><trkpt lat="41.8445135" lon="12.664154"><ele>113.0</ele><time>2026-04-04T09:03:31.835Z</time></trkpt><trkpt lat="41.8445778" lon="12.664295"><ele>112.5</ele><time>2026-04-04T09:03:32.835Z</time></trkpt><trkpt lat="41.8446426" lon="12.6644382"><ele>112.0</ele><time>2026-04-04T09:03:33.835Z</time></trkpt><trkpt lat="41.8447024" lon="12.6645771"><ele>112.0</ele><time>2026-04-04T09:03:34.835Z</time></trkpt><trkpt lat="41.8447655" lon="12.6647192"><ele>112.0</ele><time>2026-04-04T09:03:35.834Z</time></trkpt><trkpt lat="41.8448257" lon="12.6648605"><ele>112.0</ele><time>2026-04-04T09:03:36.835Z</time></trkpt><trkpt lat="41.8448873" lon="12.6649957"><ele>112.0</ele><time>2026-04-04T09:03:37.835Z</time></trkpt><trkpt lat="41.8449522" lon="12.6651317"><ele>112.0</ele><time>2026-04-04T09:03:38.835Z</time></trkpt><trkpt lat="41.8450225" lon="12.6652587"><ele>112.0</ele><time>2026-04-04T09:03:39.835Z</time></trkpt><trkpt lat="41.8450951" lon="12.6653762"><ele>112.0</ele><time>2026-04-04T09:03:40.835Z</time></trkpt><trkpt lat="41.845168" lon="12.6654969"><ele>112.0</ele><time>2026-04-04T09:03:41.835Z</time></trkpt><trkpt lat="41.8452393" lon="12.6656139"><ele>111.0</ele><time>2026-04-04T09:03:42.835Z</time></trkpt><trkpt lat="41.8453119" lon="12.6657329"><ele>110.0</ele><time>2026-04-04T09:03:43.835Z</time></trkpt><trkpt lat="41.8454016" lon="12.6658576"><ele>109.0</ele><time>2026-04-04T09:03:44.835Z</time></trkpt><trkpt lat="41.8454958" lon="12.6659921"><ele>108.0</ele><time>2026-04-04T09:03:45.835Z</time></trkpt><trkpt lat="41.845596" lon="12.6661458"><ele>107.33333333333334</ele><time>2026-04-04T09:03:46.835Z</time></trkpt><trkpt lat="41.8457092" lon="12.6663145"><ele>106.66666666666667</ele><time>2026-04-04T09:03:47.834Z</time></trkpt><trkpt lat="41.8458453" lon="12.6665042"><ele>106.0</ele><time>2026-04-04T09:03:48.835Z</time></trkpt><trkpt lat="41.8459831" lon="12.6666717"><ele>106.0</ele><time>2026-04-04T09:03:49.835Z</time></trkpt><trkpt lat="41.8461041" lon="12.6668149"><ele>106.0</ele><time>2026-04-04T09:03:50.835Z</time></trkpt><trkpt lat="41.8462139" lon="12.6669423"><ele>106.0</ele><time>2026-04-04T09:03:51.835Z</time></trkpt><trkpt lat="41.8463169" lon="12.6670596"><ele>106.0</ele><time>2026-04-04T09:03:52.835Z</time></trkpt><trkpt lat="41.8464094" lon="12.6671644"><ele>106.8</ele><time>2026-04-04T09:03:53.835Z</time></trkpt><trkpt lat="41.8464909" lon="12.6672575"><ele>107.6</ele><time>2026-04-04T09:03:54.835Z</time></trkpt><trkpt lat="41.8465618" lon="12.6673374"><ele>108.4</ele><time>2026-04-04T09:03:55.835Z</time></trkpt><trkpt lat="41.8466255" lon="12.6674061"><ele>109.2</ele><time>2026-04-04T09:03:56.835Z</time></trkpt><trkpt lat="41.8466901" lon="12.6674732"><ele>110.0</ele><time>2026-04-04T09:03:57.835Z</time></trkpt><trkpt lat="41.8467605" lon="12.6675471"><ele>110.16666666666666</ele><time>2026-04-04T09:03:58.834Z</time></trkpt><trkpt lat="41.8468295" lon="12.6676111"><ele>110.33333333333333</ele><time>2026-04-04T09:03:59.835Z</time></trkpt><trkpt lat="41.846893" lon="12.6676815"><ele>110.5</ele><time>2026-04-04T09:04:00.835Z</time></trkpt><trkpt lat="41.8469608" lon="12.6677425"><ele>110.66666666666666</ele><time>2026-04-04T09:04:01.835Z</time></trkpt><trkpt lat="41.8470254" lon="12.6678046"><ele>110.83333333333333</ele><time>2026-04-04T09:04:02.835Z</time></trkpt><trkpt lat="41.8470965" lon="12.6678526"><ele>111.0</ele><time>2026-04-04T09:04:03.835Z</time></trkpt><trkpt lat="41.8471663" lon="12.6679022"><ele>111.33333333333333</ele><time>2026-04-04T09:04:04.835Z</time></trkpt><trkpt lat="41.8472322" lon="12.6679498"><ele>111.66666666666666</ele><time>2026-04-04T09:04:05.835Z</time></trkpt><trkpt lat="41.8472987" lon="12.6679932"><ele>112.0</ele><time>2026-04-04T09:04:06.835Z</time></trkpt><trkpt lat="41.8473884" lon="12.6680568"><ele>112.33333333333333</ele><time>2026-04-04T09:04:08.835Z</time></trkpt><trkpt lat="41.8474591" lon="12.6681034"><ele>112.66666666666666</ele><time>2026-04-04T09:04:11.835Z</time></trkpt><trkpt lat="41.8475311" lon="12.6681459"><ele>113.0</ele><time>2026-04-04T09:04:35.835Z</time></trkpt><trkpt lat="41.8475886" lon="12.6681918"><ele>112.4</ele><time>2026-04-04T09:04:36.835Z</time></trkpt><trkpt lat="41.8476556" lon="12.6682441"><ele>111.80000000000001</ele><time>2026-04-04T09:04:37.835Z</time></trkpt><trkpt lat="41.8477336" lon="12.6683101"><ele>111.2</ele><time>2026-04-04T09:04:38.835Z</time></trkpt><trkpt lat="41.8478187" lon="12.6683859"><ele>110.6</ele><time>2026-04-04T09:04:39.835Z</time></trkpt><trkpt lat="41.8479052" lon="12.6684713"><ele>110.0</ele><time>2026-04-04T09:04:40.835Z</time></trkpt><trkpt lat="41.847999" lon="12.6685767"><ele>110.25</ele><time>2026-04-04T09:04:41.835Z</time></trkpt><trkpt lat="41.8481025" lon="12.6686906"><ele>110.5</ele><time>2026-04-04T09:04:42.835Z</time></trkpt><trkpt lat="41.8482055" lon="12.6688147"><ele>110.75</ele><time>2026-04-04T09:04:43.835Z</time></trkpt><trkpt lat="41.8483108" lon="12.668943"><ele>111.0</ele><time>2026-04-04T09:04:44.834Z</time></trkpt><trkpt lat="41.8484209" lon="12.6690742"><ele>110.66666666666666</ele><time>2026-04-04T09:04:45.835Z</time></trkpt><trkpt lat="41.8485373" lon="12.6692139"><ele>110.33333333333333</ele><time>2026-04-04T09:04:46.835Z</time></trkpt><trkpt lat="41.8486601" lon="12.6693598"><ele>110.0</ele><time>2026-04-04T09:04:47.835Z</time></trkpt><trkpt lat="41.8487852" lon="12.6695107"><ele>108.66666666666666</ele><time>2026-04-04T09:04:48.834Z</time></trkpt><trkpt lat="41.848915" lon="12.6696631"><ele>107.33333333333334</ele><time>2026-04-04T09:04:49.835Z</time></trkpt><trkpt lat="41.8490477" lon="12.6698158"><ele>106.0</ele><time>2026-04-04T09:04:50.835Z</time></trkpt><trkpt lat="41.8491788" lon="12.6699688"><ele>106.0</ele><time>2026-04-04T09:04:51.835Z</time></trkpt><trkpt lat="41.84931" lon="12.6701163"><ele>106.0</ele><time>2026-04-04T09:04:52.835Z</time></trkpt><trkpt lat="41.8494387" lon="12.6702637"><ele>106.0</ele><time>2026-04-04T09:04:53.835Z</time></trkpt><trkpt lat="41.8495645" lon="12.6704143"><ele>106.0</ele><time>2026-04-04T09:04:54.835Z</time></trkpt><trkpt lat="41.8496821" lon="12.6705544"><ele>106.0</ele><time>2026-04-04T09:04:55.835Z</time></trkpt><trkpt lat="41.8497867" lon="12.6706826"><ele>106.0</ele><time>2026-04-04T09:04:56.835Z</time></trkpt><trkpt lat="41.8498849" lon="12.6707996"><ele>106.0</ele><time>2026-04-04T09:04:57.835Z</time></trkpt><trkpt lat="41.8499798" lon="12.6709176"><ele>106.0</ele><time>2026-04-04T09:04:58.835Z</time></trkpt><trkpt lat="41.8500864" lon="12.6710418"><ele>106.0</ele><time>2026-04-04T09:04:59.835Z</time></trkpt><trkpt lat="41.8501983" lon="12.6711738"><ele>106.0</ele><time>2026-04-04T09:05:00.835Z</time></trkpt><trkpt lat="41.8503104" lon="12.6713065"><ele>106.0</ele><time>2026-04-04T09:05:01.835Z</time></trkpt><trkpt lat="41.8504162" lon="12.6714274"><ele>106.0</ele><time>2026-04-04T09:05:02.835Z</time></trkpt><trkpt lat="41.8505166" lon="12.6715432"><ele>106.0</ele><time>2026-04-04T09:05:03.835Z</time></trkpt><trkpt lat="41.8506244" lon="12.6716595"><ele>106.0</ele><time>2026-04-04T09:05:04.835Z</time></trkpt><trkpt lat="41.850746" lon="12.6717654"><ele>106.0</ele><time>2026-04-04T09:05:05.835Z</time></trkpt><trkpt lat="41.8508822" lon="12.6718637"><ele>106.66666666666667</ele><time>2026-04-04T09:05:06.835Z</time></trkpt><trkpt lat="41.8510214" lon="12.671959"><ele>107.33333333333334</ele><time>2026-04-04T09:05:07.835Z</time></trkpt><trkpt lat="41.8511606" lon="12.6720515"><ele>108.0</ele><time>2026-04-04T09:05:08.835Z</time></trkpt><trkpt lat="41.851298" lon="12.6721423"><ele>108.0</ele><time>2026-04-04T09:05:09.834Z</time></trkpt><trkpt lat="41.8514344" lon="12.6722319"><ele>108.0</ele><time>2026-04-04T09:05:10.835Z</time></trkpt><trkpt lat="41.8515688" lon="12.6723109"><ele>108.0</ele><time>2026-04-04T09:05:11.834Z</time></trkpt><trkpt lat="41.8516938" lon="12.6723889"><ele>108.0</ele><time>2026-04-04T09:05:12.835Z</time></trkpt><trkpt lat="41.8518207" lon="12.6724768"><ele>108.5</ele><time>2026-04-04T09:05:13.835Z</time></trkpt><trkpt lat="41.851947" lon="12.6725625"><ele>109.0</ele><time>2026-04-04T09:05:14.835Z</time></trkpt><trkpt lat="41.8520642" lon="12.6726462"><ele>109.5</ele><time>2026-04-04T09:05:15.835Z</time></trkpt><trkpt lat="41.8521725" lon="12.6727209"><ele>110.0</ele><time>2026-04-04T09:05:16.835Z</time></trkpt><trkpt lat="41.8522661" lon="12.6727851"><ele>110.4</ele><time>2026-04-04T09:05:17.835Z</time></trkpt><trkpt lat="41.8523497" lon="12.6728401"><ele>110.8</ele><time>2026-04-04T09:05:18.835Z</time></trkpt><trkpt lat="41.8524348" lon="12.6728893"><ele>111.19999999999999</ele><time>2026-04-04T09:05:19.835Z</time></trkpt><trkpt lat="41.8525286" lon="12.6729466"><ele>111.6</ele><time>2026-04-04T09:05:20.835Z</time></trkpt><trkpt lat="41.85263" lon="12.6730128"><ele>112.0</ele><time>2026-04-04T09:05:21.835Z</time></trkpt><trkpt lat="41.8527331" lon="12.6730823"><ele>112.0</ele><time>2026-04-04T09:05:22.835Z</time></trkpt><trkpt lat="41.8528268" lon="12.6731509"><ele>111.99999999999999</ele><time>2026-04-04T09:05:23.835Z</time></trkpt><trkpt lat="41.8529177" lon="12.6732152"><ele>111.99999999999999</ele><time>2026-04-04T09:05:24.835Z</time></trkpt><trkpt lat="41.8529995" lon="12.6732763"><ele>112.0</ele><time>2026-04-04T09:05:25.835Z</time></trkpt><trkpt lat="41.8530782" lon="12.6733393"><ele>112.0</ele><time>2026-04-04T09:05:26.835Z</time></trkpt><trkpt lat="41.853163" lon="12.6734089"><ele>112.00000000000001</ele><time>2026-04-04T09:05:27.835Z</time></trkpt><trkpt lat="41.8532419" lon="12.6734857"><ele>112.0</ele><time>2026-04-04T09:05:28.835Z</time></trkpt><trkpt lat="41.8533178" lon="12.6735601"><ele>112.0</ele><time>2026-04-04T09:05:29.835Z</time></trkpt><trkpt lat="41.8533863" lon="12.6736303"><ele>112.0</ele><time>2026-04-04T09:05:30.835Z</time></trkpt><trkpt lat="41.8534486" lon="12.6736959"><ele>112.00000000000001</ele><time>2026-04-04T09:05:31.835Z</time></trkpt><trkpt lat="41.8535082" lon="12.6737597"><ele>112.0</ele><time>2026-04-04T09:05:32.835Z</time></trkpt><trkpt lat="41.8535606" lon="12.673822"><ele>112.0</ele><time>2026-04-04T09:05:33.835Z</time></trkpt><trkpt lat="41.8536415" lon="12.6739109"><ele>111.99999999999999</ele><time>2026-04-04T09:05:35.835Z</time></trkpt><trkpt lat="41.8537092" lon="12.6739827"><ele>111.99999999999999</ele><time>2026-04-04T09:05:37.835Z</time></trkpt><trkpt lat="41.8537547" lon="12.6740426"><ele>112.0</ele><time>2026-04-04T09:05:38.835Z</time></trkpt><trkpt lat="41.8538374" lon="12.6741562"><ele>112.0</ele><time>2026-04-04T09:05:40.835Z</time></trkpt><trkpt lat="41.8538985" lon="12.6742323"><ele>112.00000000000001</ele><time>2026-04-04T09:05:41.835Z</time></trkpt><trkpt lat="41.8539614" lon="12.6743252"><ele>112.0</ele><time>2026-04-04T09:05:42.834Z</time></trkpt><trkpt lat="41.8540212" lon="12.6744167"><ele>112.0</ele><time>2026-04-04T09:05:43.835Z</time></trkpt><trkpt lat="41.8540841" lon="12.674512"><ele>112.0</ele><time>2026-04-04T09:05:44.835Z</time></trkpt><trkpt lat="41.8541442" lon="12.674596"><ele>112.00000000000001</ele><time>2026-04-04T09:05:45.834Z</time></trkpt><trkpt lat="41.8541998" lon="12.6746752"><ele>112.0</ele><time>2026-04-04T09:05:46.835Z</time></trkpt><trkpt lat="41.854255" lon="12.6747461"><ele>111.19999999999999</ele><time>2026-04-04T09:05:47.835Z</time></trkpt><trkpt lat="41.854308" lon="12.6748158"><ele>110.39999999999999</ele><time>2026-04-04T09:05:48.835Z</time></trkpt><trkpt lat="41.8543552" lon="12.6748861"><ele>109.60000000000001</ele><time>2026-04-04T09:05:49.835Z</time></trkpt><trkpt lat="41.8544388" lon="12.6749936"><ele>108.80000000000001</ele><time>2026-04-04T09:05:51.834Z</time></trkpt><trkpt lat="41.8545177" lon="12.6750989"><ele>108.0</ele><time>2026-04-04T09:05:53.834Z</time></trkpt><trkpt lat="41.8545804" lon="12.6751952"><ele>108.2</ele><time>2026-04-04T09:05:55.835Z</time></trkpt><trkpt lat="41.8546658" lon="12.6753103"><ele>108.4</ele><time>2026-04-04T09:05:57.835Z</time></trkpt><trkpt lat="41.8547283" lon="12.6753968"><ele>108.60000000000001</ele><time>2026-04-04T09:05:58.835Z</time></trkpt><trkpt lat="41.8547868" lon="12.6754764"><ele>108.80000000000001</ele><time>2026-04-04T09:05:59.835Z</time></trkpt><trkpt lat="41.8548565" lon="12.6755728"><ele>109.0</ele><time>2026-04-04T09:06:00.835Z</time></trkpt><trkpt lat="41.8549186" lon="12.6756621"><ele>109.0</ele><time>2026-04-04T09:06:01.835Z</time></trkpt><trkpt lat="41.8549887" lon="12.6757552"><ele>109.0</ele><time>2026-04-04T09:06:02.835Z</time></trkpt><trkpt lat="41.8550688" lon="12.6758578"><ele>109.0</ele><time>2026-04-04T09:06:03.835Z</time></trkpt><trkpt lat="41.8551477" lon="12.6759655"><ele>109.0</ele><time>2026-04-04T09:06:04.835Z</time></trkpt><trkpt lat="41.8552305" lon="12.6760877"><ele>109.0</ele><time>2026-04-04T09:06:05.835Z</time></trkpt><trkpt lat="41.8553166" lon="12.6762168"><ele>109.25</ele><time>2026-04-04T09:06:06.835Z</time></trkpt><trkpt lat="41.8554053" lon="12.6763433"><ele>109.5</ele><time>2026-04-04T09:06:07.835Z</time></trkpt><trkpt lat="41.8555006" lon="12.6764713"><ele>109.75</ele><time>2026-04-04T09:06:08.835Z</time></trkpt><trkpt lat="41.8555904" lon="12.6766028"><ele>110.0</ele><time>2026-04-04T09:06:09.835Z</time></trkpt><trkpt lat="41.8556777" lon="12.6767271"><ele>110.0</ele><time>2026-04-04T09:06:10.835Z</time></trkpt><trkpt lat="41.8557649" lon="12.6768564"><ele>110.0</ele><time>2026-04-04T09:06:11.835Z</time></trkpt><trkpt lat="41.8558454" lon="12.6769985"><ele>110.0</ele><time>2026-04-04T09:06:12.835Z</time></trkpt><trkpt lat="41.8559355" lon="12.6771635"><ele>110.0</ele><time>2026-04-04T09:06:13.834Z</time></trkpt><trkpt lat="41.8560387" lon="12.6773547"><ele>108.33333333333333</ele><time>2026-04-04T09:06:14.835Z</time></trkpt><trkpt lat="41.8561445" lon="12.6775487"><ele>106.66666666666666</ele><time>2026-04-04T09:06:15.834Z</time></trkpt><trkpt lat="41.8562456" lon="12.6777383"><ele>105.0</ele><time>2026-04-04T09:06:16.835Z</time></trkpt><trkpt lat="41.856347" lon="12.6779187"><ele>104.0</ele><time>2026-04-04T09:06:17.835Z</time></trkpt><trkpt lat="41.856443" lon="12.6780882"><ele>103.0</ele><time>2026-04-04T09:06:18.835Z</time></trkpt><trkpt lat="41.8565351" lon="12.6782508"><ele>102.0</ele><time>2026-04-04T09:06:19.835Z</time></trkpt><trkpt lat="41.8566212" lon="12.6784101"><ele>102.0</ele><time>2026-04-04T09:06:20.835Z</time></trkpt><trkpt lat="41.856702" lon="12.6785714"><ele>102.0</ele><time>2026-04-04T09:06:21.835Z</time></trkpt><trkpt lat="41.8567634" lon="12.6787535"><ele>102.0</ele><time>2026-04-04T09:06:22.835Z</time></trkpt><trkpt lat="41.8568179" lon="12.6789509"><ele>101.33333333333334</ele><time>2026-04-04T09:06:23.834Z</time></trkpt><trkpt lat="41.856866" lon="12.679151"><ele>100.66666666666667</ele><time>2026-04-04T09:06:24.835Z</time></trkpt><trkpt lat="41.8569108" lon="12.679357"><ele>100.0</ele><time>2026-04-04T09:06:25.835Z</time></trkpt><trkpt lat="41.8569571" lon="12.6795626"><ele>101.33333333333334</ele><time>2026-04-04T09:06:26.835Z</time></trkpt><trkpt lat="41.8569984" lon="12.679768"><ele>102.66666666666666</ele><time>2026-04-04T09:06:27.835Z</time></trkpt><trkpt lat="41.8570381" lon="12.6799651"><ele>104.0</ele><time>2026-04-04T09:06:28.835Z</time></trkpt><trkpt lat="41.857076" lon="12.6801463"><ele>103.5</ele><time>2026-04-04T09:06:29.835Z</time></trkpt><trkpt lat="41.857119" lon="12.6803159"><ele>103.0</ele><time>2026-04-04T09:06:30.835Z</time></trkpt><trkpt lat="41.8571758" lon="12.6804663"><ele>102.5</ele><time>2026-04-04T09:06:31.835Z</time></trkpt><trkpt lat="41.8572508" lon="12.6805914"><ele>102.0</ele><time>2026-04-04T09:06:32.835Z</time></trkpt><trkpt lat="41.8573387" lon="12.6807047"><ele>102.0</ele><time>2026-04-04T09:06:33.835Z</time></trkpt><trkpt lat="41.8574332" lon="12.6808192"><ele>102.0</ele><time>2026-04-04T09:06:34.835Z</time></trkpt><trkpt lat="41.8575492" lon="12.6809243"><ele>102.0</ele><time>2026-04-04T09:06:35.835Z</time></trkpt><trkpt lat="41.8576734" lon="12.681008"><ele>102.0</ele><time>2026-04-04T09:06:36.835Z</time></trkpt><trkpt lat="41.857807" lon="12.6810844"><ele>101.0</ele><time>2026-04-04T09:06:37.835Z</time></trkpt><trkpt lat="41.857946" lon="12.68115"><ele>100.0</ele><time>2026-04-04T09:06:38.835Z</time></trkpt><trkpt lat="41.8580888" lon="12.6811966"><ele>99.0</ele><time>2026-04-04T09:06:39.835Z</time></trkpt><trkpt lat="41.8582284" lon="12.681232"><ele>98.0</ele><time>2026-04-04T09:06:40.835Z</time></trkpt><trkpt lat="41.8583598" lon="12.6812663"><ele>98.75</ele><time>2026-04-04T09:06:41.835Z</time></trkpt><trkpt lat="41.8584808" lon="12.6812982"><ele>99.5</ele><time>2026-04-04T09:06:42.835Z</time></trkpt><trkpt lat="41.8586062" lon="12.6813259"><ele>100.25</ele><time>2026-04-04T09:06:43.835Z</time></trkpt><trkpt lat="41.8587382" lon="12.6813522"><ele>101.0</ele><time>2026-04-04T09:06:44.835Z</time></trkpt><trkpt lat="41.858868" lon="12.6813815"><ele>101.0</ele><time>2026-04-04T09:06:45.835Z</time></trkpt><trkpt lat="41.8590011" lon="12.6814197"><ele>101.0</ele><time>2026-04-04T09:06:46.835Z</time></trkpt><trkpt lat="41.8591337" lon="12.6814634"><ele>101.0</ele><time>2026-04-04T09:06:47.835Z</time></trkpt><trkpt lat="41.8592652" lon="12.6815238"><ele>101.0</ele><time>2026-04-04T09:06:48.835Z</time></trkpt><trkpt lat="41.8593979" lon="12.6815955"><ele>102.25</ele><time>2026-04-04T09:06:49.835Z</time></trkpt><trkpt lat="41.8595206" lon="12.6816558"><ele>103.5</ele><time>2026-04-04T09:06:50.835Z</time></trkpt><trkpt lat="41.8596362" lon="12.6817224"><ele>104.75</ele><time>2026-04-04T09:06:51.835Z</time></trkpt><trkpt lat="41.8597505" lon="12.6817974"><ele>106.0</ele><time>2026-04-04T09:06:52.835Z</time></trkpt><trkpt lat="41.8598659" lon="12.6818845"><ele>106.75</ele><time>2026-04-04T09:06:53.835Z</time></trkpt><trkpt lat="41.8599829" lon="12.6819873"><ele>107.5</ele><time>2026-04-04T09:06:54.835Z</time></trkpt><trkpt lat="41.8600924" lon="12.6821043"><ele>108.25</ele><time>2026-04-04T09:06:55.835Z</time></trkpt><trkpt lat="41.8601994" lon="12.6822187"><ele>109.0</ele><time>2026-04-04T09:06:56.835Z</time></trkpt><trkpt lat="41.8602955" lon="12.6823258"><ele>109.0</ele><time>2026-04-04T09:06:57.835Z</time></trkpt><trkpt lat="41.8603851" lon="12.6824237"><ele>109.0</ele><time>2026-04-04T09:06:58.835Z</time></trkpt><trkpt lat="41.8604626" lon="12.6824996"><ele>109.0</ele><time>2026-04-04T09:06:59.835Z</time></trkpt><trkpt lat="41.8605262" lon="12.6825631"><ele>109.0</ele><time>2026-04-04T09:07:00.835Z</time></trkpt><trkpt lat="41.8605867" lon="12.6826288"><ele>109.0</ele><time>2026-04-04T09:07:01.834Z</time></trkpt><trkpt lat="41.8606743" lon="12.6827156"><ele>108.6</ele><time>2026-04-04T09:07:03.835Z</time></trkpt><trkpt lat="41.8607439" lon="12.6827818"><ele>108.2</ele><time>2026-04-04T09:07:05.835Z</time></trkpt><trkpt lat="41.86082" lon="12.6828504"><ele>107.79999999999998</ele><time>2026-04-04T09:07:07.835Z</time></trkpt><trkpt lat="41.860927" lon="12.6829561"><ele>107.39999999999999</ele><time>2026-04-04T09:07:09.835Z</time></trkpt><trkpt lat="41.860986" lon="12.6830162"><ele>107.0</ele><time>2026-04-04T09:07:10.835Z</time></trkpt><trkpt lat="41.8610362" lon="12.6830771"><ele>106.99999999999999</ele><time>2026-04-04T09:07:11.835Z</time></trkpt><trkpt lat="41.8610932" lon="12.6831497"><ele>107.0</ele><time>2026-04-04T09:07:13.835Z</time></trkpt><trkpt lat="41.8610577" lon="12.6832742"><ele>107.0</ele><time>2026-04-04T09:07:16.835Z</time></trkpt><trkpt lat="41.8609721" lon="12.6833805"><ele>107.0</ele><time>2026-04-04T09:07:18.835Z</time></trkpt><trkpt lat="41.8609183" lon="12.6834311"><ele>106.99999999999999</ele><time>2026-04-04T09:07:19.835Z</time></trkpt><trkpt lat="41.8608642" lon="12.6834935"><ele>107.0</ele><time>2026-04-04T09:07:20.835Z</time></trkpt><trkpt lat="41.8608053" lon="12.6835534"><ele>106.49999999999999</ele><time>2026-04-04T09:07:21.835Z</time></trkpt><trkpt lat="41.860745" lon="12.6836177"><ele>106.0</ele><time>2026-04-04T09:07:22.835Z</time></trkpt><trkpt lat="41.8606786" lon="12.6836846"><ele>105.5</ele><time>2026-04-04T09:07:23.835Z</time></trkpt><trkpt lat="41.8606081" lon="12.6837569"><ele>105.0</ele><time>2026-04-04T09:07:24.835Z</time></trkpt><trkpt lat="41.8605407" lon="12.6838277"><ele>104.49999999999999</ele><time>2026-04-04T09:07:25.834Z</time></trkpt><trkpt lat="41.8604788" lon="12.683901"><ele>104.0</ele><time>2026-04-04T09:07:26.835Z</time></trkpt><trkpt lat="41.8604164" lon="12.6839628"><ele>103.99999999999999</ele><time>2026-04-04T09:07:27.835Z</time></trkpt><trkpt lat="41.8603563" lon="12.6840252"><ele>104.0</ele><time>2026-04-04T09:07:28.835Z</time></trkpt><trkpt lat="41.8602994" lon="12.6840819"><ele>104.0</ele><time>2026-04-04T09:07:29.835Z</time></trkpt><trkpt lat="41.8602082" lon="12.6841748"><ele>104.0</ele><time>2026-04-04T09:07:31.835Z</time></trkpt><trkpt lat="41.8601428" lon="12.6842487"><ele>103.99999999999999</ele><time>2026-04-04T09:07:33.835Z</time></trkpt><trkpt lat="41.8600867" lon="12.6843098"><ele>104.0</ele><time>2026-04-04T09:07:35.835Z</time></trkpt><trkpt lat="41.8600288" lon="12.6843717"><ele>104.14285714285714</ele><time>2026-04-04T09:07:37.835Z</time></trkpt><trkpt lat="41.8599727" lon="12.6844194"><ele>104.28571428571429</ele><time>2026-04-04T09:07:39.835Z</time></trkpt><trkpt lat="41.8599033" lon="12.6844926"><ele>104.42857142857143</ele><time>2026-04-04T09:07:42.835Z</time></trkpt><trkpt lat="41.859849" lon="12.6845487"><ele>104.57142857142857</ele><time>2026-04-04T09:07:47.835Z</time></trkpt><trkpt lat="41.8597879" lon="12.6846002"><ele>104.71428571428572</ele><time>2026-04-04T09:07:50.835Z</time></trkpt><trkpt lat="41.8597348" lon="12.6846608"><ele>104.85714285714286</ele><time>2026-04-04T09:07:54.835Z</time></trkpt><trkpt lat="41.8596785" lon="12.684718"><ele>105.0</ele><time>2026-04-04T09:07:55.834Z</time></trkpt><trkpt lat="41.8596583" lon="12.6848007"><ele>105.0</ele><time>2026-04-04T09:07:59.834Z</time></trkpt><trkpt lat="41.8597403" lon="12.6848723"><ele>105.0</ele><time>2026-04-04T09:08:02.835Z</time></trkpt><trkpt lat="41.8598827" lon="12.684883"><ele>105.0</ele><time>2026-04-04T09:08:04.835Z</time></trkpt><trkpt lat="41.8599993" lon="12.6849058"><ele>105.0</ele><time>2026-04-04T09:08:05.835Z</time></trkpt><trkpt lat="41.860134" lon="12.6849449"><ele>104.5</ele><time>2026-04-04T09:08:06.835Z</time></trkpt><trkpt lat="41.8602793" lon="12.6849848"><ele>104.0</ele><time>2026-04-04T09:08:07.835Z</time></trkpt><trkpt lat="41.86042" lon="12.6850271"><ele>103.5</ele><time>2026-04-04T09:08:08.835Z</time></trkpt><trkpt lat="41.8605498" lon="12.6850672"><ele>103.0</ele><time>2026-04-04T09:08:09.835Z</time></trkpt><trkpt lat="41.8606702" lon="12.6850969"><ele>103.0</ele><time>2026-04-04T09:08:10.835Z</time></trkpt><trkpt lat="41.8607811" lon="12.6851346"><ele>103.0</ele><time>2026-04-04T09:08:11.835Z</time></trkpt><trkpt lat="41.8608825" lon="12.6851627"><ele>103.0</ele><time>2026-04-04T09:08:12.835Z</time></trkpt><trkpt lat="41.860975" lon="12.6851892"><ele>103.0</ele><time>2026-04-04T09:08:13.835Z</time></trkpt><trkpt lat="41.8610628" lon="12.6852016"><ele>103.0</ele><time>2026-04-04T09:08:14.835Z</time></trkpt><trkpt lat="41.8611475" lon="12.6852151"><ele>102.83333333333334</ele><time>2026-04-04T09:08:15.835Z</time></trkpt><trkpt lat="41.8612142" lon="12.6852276"><ele>102.66666666666667</ele><time>2026-04-04T09:08:16.835Z</time></trkpt><trkpt lat="41.8613148" lon="12.6852313"><ele>102.5</ele><time>2026-04-04T09:08:18.835Z</time></trkpt><trkpt lat="41.8614116" lon="12.6852379"><ele>102.33333333333334</ele><time>2026-04-04T09:08:20.835Z</time></trkpt><trkpt lat="41.8614894" lon="12.6852353"><ele>102.16666666666667</ele><time>2026-04-04T09:08:21.835Z</time></trkpt><trkpt lat="41.8615763" lon="12.6852284"><ele>102.0</ele><time>2026-04-04T09:08:22.835Z</time></trkpt><trkpt lat="41.8616688" lon="12.6852319"><ele>102.0</ele><time>2026-04-04T09:08:23.835Z</time></trkpt><trkpt lat="41.8617538" lon="12.6852374"><ele>102.0</ele><time>2026-04-04T09:08:24.835Z</time></trkpt><trkpt lat="41.8618336" lon="12.6852426"><ele>102.0</ele><time>2026-04-04T09:08:25.835Z</time></trkpt><trkpt lat="41.8619309" lon="12.6852507"><ele>102.0</ele><time>2026-04-04T09:08:27.834Z</time></trkpt><trkpt lat="41.8619998" lon="12.6852532"><ele>102.0</ele><time>2026-04-04T09:08:31.835Z</time></trkpt><trkpt lat="41.8620687" lon="12.6852461"><ele>102.0</ele><time>2026-04-04T09:08:32.835Z</time></trkpt><trkpt lat="41.8621349" lon="12.685241"><ele>101.66666666666667</ele><time>2026-04-04T09:08:33.835Z</time></trkpt><trkpt lat="41.8622162" lon="12.6852667"><ele>101.33333333333334</ele><time>2026-04-04T09:08:34.835Z</time></trkpt><trkpt lat="41.8622982" lon="12.6853043"><ele>101.0</ele><time>2026-04-04T09:08:36.835Z</time></trkpt><trkpt lat="41.8623863" lon="12.6853703"><ele>100.66666666666667</ele><time>2026-04-04T09:08:39.835Z</time></trkpt><trkpt lat="41.8624313" lon="12.6854515"><ele>100.33333333333334</ele><time>2026-04-04T09:08:40.835Z</time></trkpt><trkpt lat="41.8624821" lon="12.6855513"><ele>100.0</ele><time>2026-04-04T09:08:41.835Z</time></trkpt><trkpt lat="41.8625276" lon="12.6856452"><ele>100.0</ele><time>2026-04-04T09:08:42.835Z</time></trkpt><trkpt lat="41.862588" lon="12.6858002"><ele>100.0</ele><time>2026-04-04T09:08:44.835Z</time></trkpt><trkpt lat="41.8626039" lon="12.6858854"><ele>100.0</ele><time>2026-04-04T09:08:45.835Z</time></trkpt><trkpt lat="41.8626279" lon="12.686014"><ele>100.0</ele><time>2026-04-04T09:08:47.835Z</time></trkpt><trkpt lat="41.8626395" lon="12.6861756"><ele>100.0</ele><time>2026-04-04T09:08:49.835Z</time></trkpt><trkpt lat="41.8626418" lon="12.6863232"><ele>99.8</ele><time>2026-04-04T09:08:51.835Z</time></trkpt><trkpt lat="41.8626469" lon="12.6864423"><ele>99.6</ele><time>2026-04-04T09:08:54.835Z</time></trkpt><trkpt lat="41.8626509" lon="12.6865398"><ele>99.4</ele><time>2026-04-04T09:08:56.835Z</time></trkpt><trkpt lat="41.8626605" lon="12.6866739"><ele>99.2</ele><time>2026-04-04T09:08:58.835Z</time></trkpt><trkpt lat="41.8626694" lon="12.6868378"><ele>99.0</ele><time>2026-04-04T09:09:00.835Z</time></trkpt><trkpt lat="41.8626765" lon="12.6870134"><ele>99.0</ele><time>2026-04-04T09:09:02.835Z</time></trkpt><trkpt lat="41.8626811" lon="12.6871174"><ele>99.0</ele><time>2026-04-04T09:09:03.835Z</time></trkpt><trkpt lat="41.8626907" lon="12.6872206"><ele>99.0</ele><time>2026-04-04T09:09:04.835Z</time></trkpt><trkpt lat="41.8626993" lon="12.687309"><ele>99.0</ele><time>2026-04-04T09:09:05.835Z</time></trkpt><trkpt lat="41.8627092" lon="12.6874029"><ele>99.0</ele><time>2026-04-04T09:09:06.835Z</time></trkpt><trkpt lat="41.8627214" lon="12.6875058"><ele>99.0</ele><time>2026-04-04T09:09:07.835Z</time></trkpt><trkpt lat="41.862737" lon="12.6875969"><ele>99.0</ele><time>2026-04-04T09:09:08.835Z</time></trkpt><trkpt lat="41.8627577" lon="12.6876879"><ele>99.33333333333333</ele><time>2026-04-04T09:09:09.835Z</time></trkpt><trkpt lat="41.8627781" lon="12.6877883"><ele>99.66666666666666</ele><time>2026-04-04T09:09:10.835Z</time></trkpt><trkpt lat="41.8627993" lon="12.6878746"><ele>100.0</ele><time>2026-04-04T09:09:11.835Z</time></trkpt><trkpt lat="41.8628282" lon="12.6879632"><ele>100.33333333333333</ele><time>2026-04-04T09:09:12.835Z</time></trkpt><trkpt lat="41.8628582" lon="12.6880715"><ele>100.66666666666666</ele><time>2026-04-04T09:09:13.835Z</time></trkpt><trkpt lat="41.8628765" lon="12.6881626"><ele>101.0</ele><time>2026-04-04T09:09:14.835Z</time></trkpt><trkpt lat="41.8629086" lon="12.6882978"><ele>101.0</ele><time>2026-04-04T09:09:16.835Z</time></trkpt><trkpt lat="41.8629419" lon="12.6883815"><ele>101.0</ele><time>2026-04-04T09:09:19.835Z</time></trkpt><trkpt lat="41.8630133" lon="12.6884216"><ele>101.0</ele><time>2026-04-04T09:09:21.835Z</time></trkpt><trkpt lat="41.8631177" lon="12.6883593"><ele>101.0</ele><time>2026-04-04T09:09:23.834Z</time></trkpt><trkpt lat="41.8632029" lon="12.6883058"><ele>101.0</ele><time>2026-04-04T09:09:24.835Z</time></trkpt><trkpt lat="41.8633141" lon="12.6882405"><ele>101.0</ele><time>2026-04-04T09:09:25.834Z</time></trkpt><trkpt lat="41.8634207" lon="12.6881841"><ele>101.0</ele><time>2026-04-04T09:09:26.835Z</time></trkpt><trkpt lat="41.8635108" lon="12.6881344"><ele>101.0</ele><time>2026-04-04T09:09:27.835Z</time></trkpt><trkpt lat="41.8635882" lon="12.688092"><ele>101.0</ele><time>2026-04-04T09:09:28.835Z</time></trkpt><trkpt lat="41.8636456" lon="12.6880568"><ele>101.0</ele><time>2026-04-04T09:09:29.835Z</time></trkpt><trkpt lat="41.8637451" lon="12.6879968"><ele>100.8</ele><time>2026-04-04T09:09:31.835Z</time></trkpt><trkpt lat="41.8638056" lon="12.6879614"><ele>100.6</ele><time>2026-04-04T09:09:33.835Z</time></trkpt><trkpt lat="41.8639012" lon="12.6879128"><ele>100.4</ele><time>2026-04-04T09:09:35.835Z</time></trkpt><trkpt lat="41.8639608" lon="12.6878753"><ele>100.2</ele><time>2026-04-04T09:09:36.835Z</time></trkpt><trkpt lat="41.8640695" lon="12.687824"><ele>100.0</ele><time>2026-04-04T09:09:38.835Z</time></trkpt><trkpt lat="41.8641994" lon="12.6877654"><ele>99.50000000000001</ele><time>2026-04-04T09:09:40.835Z</time></trkpt><trkpt lat="41.8642646" lon="12.6877286"><ele>99.0</ele><time>2026-04-04T09:09:41.835Z</time></trkpt><trkpt lat="41.8643861" lon="12.6876659"><ele>98.5</ele><time>2026-04-04T09:09:43.835Z</time></trkpt><trkpt lat="41.8644494" lon="12.6876417"><ele>98.0</ele><time>2026-04-04T09:09:44.834Z</time></trkpt><trkpt lat="41.8645114" lon="12.6876228"><ele>97.50000000000001</ele><time>2026-04-04T09:09:45.835Z</time></trkpt><trkpt lat="41.8645806" lon="12.6876145"><ele>97.0</ele><time>2026-04-04T09:09:46.835Z</time></trkpt><trkpt lat="41.8646522" lon="12.6876204"><ele>97.00000000000001</ele><time>2026-04-04T09:09:47.835Z</time></trkpt><trkpt lat="41.864716" lon="12.6876481"><ele>97.0</ele><time>2026-04-04T09:09:48.835Z</time></trkpt><trkpt lat="41.8647882" lon="12.6876783"><ele>97.0</ele><time>2026-04-04T09:09:49.834Z</time></trkpt><trkpt lat="41.8648648" lon="12.6877257"><ele>97.0</ele><time>2026-04-04T09:09:50.835Z</time></trkpt><trkpt lat="41.8649301" lon="12.6877747"><ele>97.00000000000001</ele><time>2026-04-04T09:09:51.835Z</time></trkpt><trkpt lat="41.8649887" lon="12.6878194"><ele>97.0</ele><time>2026-04-04T09:09:52.835Z</time></trkpt><trkpt lat="41.8650674" lon="12.6878783"><ele>96.66666666666667</ele><time>2026-04-04T09:09:54.835Z</time></trkpt><trkpt lat="41.8651315" lon="12.6879221"><ele>96.33333333333334</ele><time>2026-04-04T09:09:56.835Z</time></trkpt><trkpt lat="41.8652041" lon="12.6879704"><ele>96.0</ele><time>2026-04-04T09:09:58.834Z</time></trkpt><trkpt lat="41.8653001" lon="12.6880323"><ele>95.66666666666667</ele><time>2026-04-04T09:10:00.834Z</time></trkpt><trkpt lat="41.8653929" lon="12.6880958"><ele>95.33333333333334</ele><time>2026-04-04T09:10:02.834Z</time></trkpt><trkpt lat="41.8654523" lon="12.6881437"><ele>95.0</ele><time>2026-04-04T09:10:06.835Z</time></trkpt><trkpt lat="41.8655286" lon="12.6882229"><ele>95.0</ele><time>2026-04-04T09:10:09.835Z</time></trkpt><trkpt lat="41.8656119" lon="12.6882787"><ele>95.0</ele><time>2026-04-04T09:10:10.835Z</time></trkpt><trkpt lat="41.865721" lon="12.6883516"><ele>95.0</ele><time>2026-04-04T09:10:11.834Z</time></trkpt><trkpt lat="41.8658258" lon="12.6884108"><ele>95.0</ele><time>2026-04-04T09:10:12.835Z</time></trkpt><trkpt lat="41.8659058" lon="12.688459"><ele>95.0</ele><time>2026-04-04T09:10:13.834Z</time></trkpt><trkpt lat="41.865966" lon="12.6884933"><ele>95.4</ele><time>2026-04-04T09:10:14.835Z</time></trkpt><trkpt lat="41.8660831" lon="12.6885553"><ele>95.8</ele><time>2026-04-04T09:10:16.834Z</time></trkpt><trkpt lat="41.8661877" lon="12.6886093"><ele>96.19999999999999</ele><time>2026-04-04T09:10:18.835Z</time></trkpt><trkpt lat="41.8662733" lon="12.6886445"><ele>96.6</ele><time>2026-04-04T09:10:20.835Z</time></trkpt><trkpt lat="41.8663466" lon="12.6886776"><ele>97.0</ele><time>2026-04-04T09:10:22.835Z</time></trkpt><trkpt lat="41.8664623" lon="12.6887256"><ele>97.0</ele><time>2026-04-04T09:10:24.835Z</time></trkpt><trkpt lat="41.8665659" lon="12.6887653"><ele>97.0</ele><time>2026-04-04T09:10:25.835Z</time></trkpt><trkpt lat="41.8666772" lon="12.6888275"><ele>97.0</ele><time>2026-04-04T09:10:26.835Z</time></trkpt><trkpt lat="41.8668206" lon="12.6889062"><ele>97.0</ele><time>2026-04-04T09:10:27.835Z</time></trkpt><trkpt lat="41.866975" lon="12.6889871"><ele>95.66666666666667</ele><time>2026-04-04T09:10:28.835Z</time></trkpt><trkpt lat="41.8671362" lon="12.6890729"><ele>94.33333333333334</ele><time>2026-04-04T09:10:29.835Z</time></trkpt><trkpt lat="41.8672988" lon="12.6891571"><ele>93.0</ele><time>2026-04-04T09:10:30.835Z</time></trkpt><trkpt lat="41.8674563" lon="12.6892313"><ele>93.0</ele><time>2026-04-04T09:10:31.835Z</time></trkpt><trkpt lat="41.8676078" lon="12.6892965"><ele>93.0</ele><time>2026-04-04T09:10:32.835Z</time></trkpt><trkpt lat="41.8677656" lon="12.6893655"><ele>93.0</ele><time>2026-04-04T09:10:33.835Z</time></trkpt><trkpt lat="41.8679232" lon="12.6894277"><ele>91.33333333333333</ele><time>2026-04-04T09:10:34.835Z</time></trkpt><trkpt lat="41.8680806" lon="12.6894831"><ele>89.66666666666666</ele><time>2026-04-04T09:10:35.835Z</time></trkpt><trkpt lat="41.8682344" lon="12.6895386"><ele>88.0</ele><time>2026-04-04T09:10:36.835Z</time></trkpt><trkpt lat="41.8683872" lon="12.6895902"><ele>86.33333333333333</ele><time>2026-04-04T09:10:37.835Z</time></trkpt><trkpt lat="41.8685444" lon="12.6896396"><ele>84.66666666666667</ele><time>2026-04-04T09:10:38.835Z</time></trkpt><trkpt lat="41.8686917" lon="12.6896872"><ele>83.0</ele><time>2026-04-04T09:10:39.835Z</time></trkpt><trkpt lat="41.8688372" lon="12.6897375"><ele>83.0</ele><time>2026-04-04T09:10:40.835Z</time></trkpt><trkpt lat="41.8689771" lon="12.6897815"><ele>83.0</ele><time>2026-04-04T09:10:41.835Z</time></trkpt><trkpt lat="41.8691108" lon="12.6898187"><ele>83.0</ele><time>2026-04-04T09:10:42.835Z</time></trkpt><trkpt lat="41.8692385" lon="12.6898597"><ele>83.0</ele><time>2026-04-04T09:10:43.835Z</time></trkpt><trkpt lat="41.8693502" lon="12.6898957"><ele>82.60000000000001</ele><time>2026-04-04T09:10:44.833Z</time></trkpt><trkpt lat="41.8694449" lon="12.6899232"><ele>82.2</ele><time>2026-04-04T09:10:45.835Z</time></trkpt><trkpt lat="41.8695293" lon="12.6899484"><ele>81.8</ele><time>2026-04-04T09:10:46.835Z</time></trkpt><trkpt lat="41.8696151" lon="12.6899708"><ele>81.4</ele><time>2026-04-04T09:10:47.834Z</time></trkpt><trkpt lat="41.8697025" lon="12.6900007"><ele>81.0</ele><time>2026-04-04T09:10:48.835Z</time></trkpt><trkpt lat="41.869803" lon="12.6900343"><ele>81.0</ele><time>2026-04-04T09:10:49.835Z</time></trkpt><trkpt lat="41.8699145" lon="12.6900702"><ele>81.0</ele><time>2026-04-04T09:10:50.835Z</time></trkpt><trkpt lat="41.8700399" lon="12.6901119"><ele>81.0</ele><time>2026-04-04T09:10:51.834Z</time></trkpt><trkpt lat="41.8701695" lon="12.6901551"><ele>81.0</ele><time>2026-04-04T09:10:52.835Z</time></trkpt><trkpt lat="41.8702889" lon="12.690196"><ele>80.6</ele><time>2026-04-04T09:10:53.835Z</time></trkpt><trkpt lat="41.8704019" lon="12.6902337"><ele>80.19999999999999</ele><time>2026-04-04T09:10:54.835Z</time></trkpt><trkpt lat="41.8704974" lon="12.6902638"><ele>79.80000000000001</ele><time>2026-04-04T09:10:55.835Z</time></trkpt><trkpt lat="41.8705718" lon="12.6902835"><ele>79.4</ele><time>2026-04-04T09:10:56.835Z</time></trkpt><trkpt lat="41.8706431" lon="12.6903043"><ele>79.0</ele><time>2026-04-04T09:10:57.835Z</time></trkpt><trkpt lat="41.8707272" lon="12.6903366"><ele>79.0</ele><time>2026-04-04T09:10:58.835Z</time></trkpt><trkpt lat="41.8708252" lon="12.690376"><ele>79.0</ele><time>2026-04-04T09:10:59.835Z</time></trkpt><trkpt lat="41.8709493" lon="12.690416"><ele>79.0</ele><time>2026-04-04T09:11:00.834Z</time></trkpt><trkpt lat="41.871096" lon="12.6904614"><ele>79.0</ele><time>2026-04-04T09:11:01.835Z</time></trkpt><trkpt lat="41.8712461" lon="12.6905127"><ele>77.33333333333333</ele><time>2026-04-04T09:11:02.835Z</time></trkpt><trkpt lat="41.8714316" lon="12.6905626"><ele>75.66666666666667</ele><time>2026-04-04T09:11:03.835Z</time></trkpt><trkpt lat="41.8716421" lon="12.6906187"><ele>74.0</ele><time>2026-04-04T09:11:04.835Z</time></trkpt><trkpt lat="41.8718721" lon="12.6907052"><ele>74.0</ele><time>2026-04-04T09:11:05.835Z</time></trkpt><trkpt lat="41.8721065" lon="12.690786"><ele>74.0</ele><time>2026-04-04T09:11:06.834Z</time></trkpt><trkpt lat="41.8723383" lon="12.6908671"><ele>74.0</ele><time>2026-04-04T09:11:07.835Z</time></trkpt><trkpt lat="41.8725516" lon="12.6909283"><ele>74.0</ele><time>2026-04-04T09:11:08.834Z</time></trkpt><trkpt lat="41.8727494" lon="12.6909824"><ele>74.0</ele><time>2026-04-04T09:11:09.835Z</time></trkpt><trkpt lat="41.8729461" lon="12.6910368"><ele>73.33333333333334</ele><time>2026-04-04T09:11:10.835Z</time></trkpt><trkpt lat="41.8731337" lon="12.6910885"><ele>72.66666666666667</ele><time>2026-04-04T09:11:11.835Z</time></trkpt><trkpt lat="41.8733147" lon="12.6911392"><ele>72.0</ele><time>2026-04-04T09:11:12.835Z</time></trkpt><trkpt lat="41.8734904" lon="12.691186"><ele>71.66666666666667</ele><time>2026-04-04T09:11:13.835Z</time></trkpt><trkpt lat="41.8736574" lon="12.691231"><ele>71.33333333333334</ele><time>2026-04-04T09:11:14.835Z</time></trkpt><trkpt lat="41.8738257" lon="12.6912755"><ele>71.0</ele><time>2026-04-04T09:11:15.835Z</time></trkpt><trkpt lat="41.8739938" lon="12.6913186"><ele>71.0</ele><time>2026-04-04T09:11:16.835Z</time></trkpt><trkpt lat="41.874146" lon="12.6913594"><ele>71.0</ele><time>2026-04-04T09:11:17.835Z</time></trkpt><trkpt lat="41.8742953" lon="12.6913926"><ele>71.0</ele><time>2026-04-04T09:11:18.835Z</time></trkpt><trkpt lat="41.8744372" lon="12.6914291"><ele>71.0</ele><time>2026-04-04T09:11:19.835Z</time></trkpt><trkpt lat="41.8745754" lon="12.6914636"><ele>71.0</ele><time>2026-04-04T09:11:20.835Z</time></trkpt><trkpt lat="41.8747173" lon="12.6915004"><ele>71.0</ele><time>2026-04-04T09:11:21.835Z</time></trkpt><trkpt lat="41.874861" lon="12.6915398"><ele>71.0</ele><time>2026-04-04T09:11:22.835Z</time></trkpt><trkpt lat="41.8749988" lon="12.691579"><ele>70.0</ele><time>2026-04-04T09:11:23.834Z</time></trkpt><trkpt lat="41.875131" lon="12.6916219"><ele>69.0</ele><time>2026-04-04T09:11:24.834Z</time></trkpt><trkpt lat="41.8752702" lon="12.6916644"><ele>68.0</ele><time>2026-04-04T09:11:25.835Z</time></trkpt><trkpt lat="41.8754158" lon="12.6917195"><ele>67.0</ele><time>2026-04-04T09:11:26.835Z</time></trkpt><trkpt lat="41.8755688" lon="12.6917882"><ele>67.0</ele><time>2026-04-04T09:11:27.835Z</time></trkpt><trkpt lat="41.8757211" lon="12.691868"><ele>67.0</ele><time>2026-04-04T09:11:28.835Z</time></trkpt><trkpt lat="41.8758663" lon="12.6919509"><ele>67.0</ele><time>2026-04-04T09:11:29.835Z</time></trkpt><trkpt lat="41.8760187" lon="12.6920309"><ele>65.66666666666666</ele><time>2026-04-04T09:11:30.835Z</time></trkpt><trkpt lat="41.8761779" lon="12.692111"><ele>64.33333333333333</ele><time>2026-04-04T09:11:31.835Z</time></trkpt><trkpt lat="41.8763372" lon="12.6922011"><ele>63.0</ele><time>2026-04-04T09:11:32.835Z</time></trkpt><trkpt lat="41.876489" lon="12.6922863"><ele>63.0</ele><time>2026-04-04T09:11:33.835Z</time></trkpt><trkpt lat="41.8766317" lon="12.6923686"><ele>63.0</ele><time>2026-04-04T09:11:34.835Z</time></trkpt><trkpt lat="41.8767643" lon="12.6924398"><ele>63.0</ele><time>2026-04-04T09:11:35.835Z</time></trkpt><trkpt lat="41.8768875" lon="12.6925076"><ele>63.0</ele><time>2026-04-04T09:11:36.835Z</time></trkpt><trkpt lat="41.8770059" lon="12.6925721"><ele>62.25</ele><time>2026-04-04T09:11:37.834Z</time></trkpt><trkpt lat="41.8771179" lon="12.6926344"><ele>61.5</ele><time>2026-04-04T09:11:38.835Z</time></trkpt><trkpt lat="41.8772323" lon="12.6927004"><ele>60.75</ele><time>2026-04-04T09:11:39.834Z</time></trkpt><trkpt lat="41.8773498" lon="12.6927644"><ele>60.0</ele><time>2026-04-04T09:11:40.835Z</time></trkpt><trkpt lat="41.8774665" lon="12.6928266"><ele>60.0</ele><time>2026-04-04T09:11:41.835Z</time></trkpt><trkpt lat="41.8775826" lon="12.692889"><ele>60.0</ele><time>2026-04-04T09:11:42.835Z</time></trkpt><trkpt lat="41.8777038" lon="12.6929569"><ele>60.0</ele><time>2026-04-04T09:11:43.834Z</time></trkpt><trkpt lat="41.8778264" lon="12.6930253"><ele>60.0</ele><time>2026-04-04T09:11:44.835Z</time></trkpt><trkpt lat="41.877953" lon="12.6930953"><ele>59.75</ele><time>2026-04-04T09:11:45.835Z</time></trkpt><trkpt lat="41.8780733" lon="12.6931638"><ele>59.5</ele><time>2026-04-04T09:11:46.835Z</time></trkpt><trkpt lat="41.8781981" lon="12.6932295"><ele>59.25</ele><time>2026-04-04T09:11:47.835Z</time></trkpt><trkpt lat="41.8783205" lon="12.6932962"><ele>59.0</ele><time>2026-04-04T09:11:48.835Z</time></trkpt><trkpt lat="41.8784422" lon="12.693365"><ele>59.0</ele><time>2026-04-04T09:11:49.835Z</time></trkpt><trkpt lat="41.8785599" lon="12.6934302"><ele>59.0</ele><time>2026-04-04T09:11:50.835Z</time></trkpt><trkpt lat="41.8786817" lon="12.6934932"><ele>59.0</ele><time>2026-04-04T09:11:51.835Z</time></trkpt><trkpt lat="41.8788057" lon="12.6935612"><ele>59.0</ele><time>2026-04-04T09:11:52.835Z</time></trkpt><trkpt lat="41.8789293" lon="12.6936273"><ele>59.0</ele><time>2026-04-04T09:11:53.835Z</time></trkpt><trkpt lat="41.8790541" lon="12.6936959"><ele>59.0</ele><time>2026-04-04T09:11:54.835Z</time></trkpt><trkpt lat="41.8791803" lon="12.6937667"><ele>59.0</ele><time>2026-04-04T09:11:55.835Z</time></trkpt><trkpt lat="41.8793089" lon="12.6938355"><ele>59.0</ele><time>2026-04-04T09:11:56.834Z</time></trkpt><trkpt lat="41.8794371" lon="12.6939026"><ele>59.25</ele><time>2026-04-04T09:11:57.835Z</time></trkpt><trkpt lat="41.8795578" lon="12.6939706"><ele>59.5</ele><time>2026-04-04T09:11:58.834Z</time></trkpt><trkpt lat="41.8796724" lon="12.6940364"><ele>59.75</ele><time>2026-04-04T09:11:59.835Z</time></trkpt><trkpt lat="41.879782" lon="12.6940965"><ele>60.0</ele><time>2026-04-04T09:12:00.835Z</time></trkpt><trkpt lat="41.8798682" lon="12.6941503"><ele>60.0</ele><time>2026-04-04T09:12:01.835Z</time></trkpt><trkpt lat="41.8799361" lon="12.6941996"><ele>60.0</ele><time>2026-04-04T09:12:02.835Z</time></trkpt><trkpt lat="41.880042" lon="12.694326"><ele>60.0</ele><time>2026-04-04T09:12:04.835Z</time></trkpt><trkpt lat="41.880112" lon="12.6943972"><ele>60.0</ele><time>2026-04-04T09:12:05.835Z</time></trkpt><trkpt lat="41.8802107" lon="12.69446"><ele>60.0</ele><time>2026-04-04T09:12:06.835Z</time></trkpt><trkpt lat="41.880328" lon="12.6945286"><ele>59.75</ele><time>2026-04-04T09:12:07.835Z</time></trkpt><trkpt lat="41.8804586" lon="12.6946005"><ele>59.5</ele><time>2026-04-04T09:12:08.835Z</time></trkpt><trkpt lat="41.8805899" lon="12.6946662"><ele>59.25</ele><time>2026-04-04T09:12:09.835Z</time></trkpt><trkpt lat="41.8807206" lon="12.694732"><ele>59.0</ele><time>2026-04-04T09:12:10.835Z</time></trkpt><trkpt lat="41.8808576" lon="12.6948026"><ele>59.25</ele><time>2026-04-04T09:12:11.835Z</time></trkpt><trkpt lat="41.8809963" lon="12.6948601"><ele>59.5</ele><time>2026-04-04T09:12:12.835Z</time></trkpt><trkpt lat="41.8811325" lon="12.6949008"><ele>59.75</ele><time>2026-04-04T09:12:13.835Z</time></trkpt><trkpt lat="41.8812636" lon="12.6949366"><ele>60.0</ele><time>2026-04-04T09:12:14.834Z</time></trkpt><trkpt lat="41.881387" lon="12.6949672"><ele>60.0</ele><time>2026-04-04T09:12:15.835Z</time></trkpt><trkpt lat="41.8815079" lon="12.6949952"><ele>60.0</ele><time>2026-04-04T09:12:16.835Z</time></trkpt><trkpt lat="41.8816107" lon="12.6950234"><ele>60.0</ele><time>2026-04-04T09:12:17.835Z</time></trkpt><trkpt lat="41.881699" lon="12.6950454"><ele>60.0</ele><time>2026-04-04T09:12:18.835Z</time></trkpt><trkpt lat="41.881783" lon="12.6950666"><ele>60.0</ele><time>2026-04-04T09:12:19.835Z</time></trkpt><trkpt lat="41.8818517" lon="12.6950924"><ele>60.0</ele><time>2026-04-04T09:12:20.835Z</time></trkpt><trkpt lat="41.8819368" lon="12.6951185"><ele>60.0</ele><time>2026-04-04T09:12:21.835Z</time></trkpt><trkpt lat="41.8820401" lon="12.695154"><ele>60.0</ele><time>2026-04-04T09:12:22.835Z</time></trkpt><trkpt lat="41.8821715" lon="12.6951844"><ele>60.0</ele><time>2026-04-04T09:12:23.835Z</time></trkpt><trkpt lat="41.88232" lon="12.6952201"><ele>59.0</ele><time>2026-04-04T09:12:24.835Z</time></trkpt><trkpt lat="41.8824824" lon="12.6952631"><ele>58.0</ele><time>2026-04-04T09:12:25.835Z</time></trkpt><trkpt lat="41.8826459" lon="12.6953018"><ele>57.0</ele><time>2026-04-04T09:12:26.835Z</time></trkpt><trkpt lat="41.8828183" lon="12.6953471"><ele>57.0</ele><time>2026-04-04T09:12:27.835Z</time></trkpt><trkpt lat="41.8829781" lon="12.6953905"><ele>57.0</ele><time>2026-04-04T09:12:28.835Z</time></trkpt><trkpt lat="41.8831253" lon="12.6954272"><ele>57.0</ele><time>2026-04-04T09:12:29.834Z</time></trkpt><trkpt lat="41.8832555" lon="12.6954625"><ele>57.0</ele><time>2026-04-04T09:12:30.835Z</time></trkpt><trkpt lat="41.8833619" lon="12.6954901"><ele>56.666666666666664</ele><time>2026-04-04T09:12:31.835Z</time></trkpt><trkpt lat="41.8834392" lon="12.6955096"><ele>56.33333333333333</ele><time>2026-04-04T09:12:32.835Z</time></trkpt><trkpt lat="41.8835077" lon="12.695523"><ele>56.0</ele><time>2026-04-04T09:12:33.835Z</time></trkpt><trkpt lat="41.8835665" lon="12.6954813"><ele>55.666666666666664</ele><time>2026-04-04T09:12:35.835Z</time></trkpt><trkpt lat="41.8836305" lon="12.6954393"><ele>55.33333333333333</ele><time>2026-04-04T09:12:47.835Z</time></trkpt><trkpt lat="41.8837835" lon="12.6954719"><ele>55.0</ele><time>2026-04-04T09:12:49.835Z</time></trkpt><trkpt lat="41.8838853" lon="12.6955019"><ele>55.0</ele><time>2026-04-04T09:12:50.835Z</time></trkpt><trkpt lat="41.8840218" lon="12.6955348"><ele>55.0</ele><time>2026-04-04T09:12:51.835Z</time></trkpt><trkpt lat="41.8841749" lon="12.695579"><ele>55.0</ele><time>2026-04-04T09:12:52.835Z</time></trkpt><trkpt lat="41.8843138" lon="12.6956158"><ele>55.0</ele><time>2026-04-04T09:12:53.835Z</time></trkpt><trkpt lat="41.8844515" lon="12.6956487"><ele>54.5</ele><time>2026-04-04T09:12:54.835Z</time></trkpt><trkpt lat="41.8845887" lon="12.6956759"><ele>54.0</ele><time>2026-04-04T09:12:55.835Z</time></trkpt><trkpt lat="41.884714" lon="12.6956947"><ele>53.5</ele><time>2026-04-04T09:12:56.835Z</time></trkpt><trkpt lat="41.8848387" lon="12.6957147"><ele>53.0</ele><time>2026-04-04T09:12:57.835Z</time></trkpt><trkpt lat="41.8849628" lon="12.6957309"><ele>53.0</ele><time>2026-04-04T09:12:58.835Z</time></trkpt><trkpt lat="41.8850761" lon="12.6957448"><ele>53.0</ele><time>2026-04-04T09:12:59.835Z</time></trkpt><trkpt lat="41.885181" lon="12.6957559"><ele>53.0</ele><time>2026-04-04T09:13:00.835Z</time></trkpt><trkpt lat="41.8852869" lon="12.6957674"><ele>53.0</ele><time>2026-04-04T09:13:01.834Z</time></trkpt><trkpt lat="41.8853895" lon="12.6957818"><ele>53.0</ele><time>2026-04-04T09:13:02.835Z</time></trkpt><trkpt lat="41.8854912" lon="12.6957956"><ele>52.8</ele><time>2026-04-04T09:13:03.835Z</time></trkpt><trkpt lat="41.8855989" lon="12.6958086"><ele>52.599999999999994</ele><time>2026-04-04T09:13:04.835Z</time></trkpt><trkpt lat="41.8857007" lon="12.695817"><ele>52.400000000000006</ele><time>2026-04-04T09:13:05.835Z</time></trkpt><trkpt lat="41.8857979" lon="12.6958277"><ele>52.2</ele><time>2026-04-04T09:13:06.835Z</time></trkpt><trkpt lat="41.8858892" lon="12.6958407"><ele>52.0</ele><time>2026-04-04T09:13:07.835Z</time></trkpt><trkpt lat="41.8859732" lon="12.6958509"><ele>52.0</ele><time>2026-04-04T09:13:08.835Z</time></trkpt><trkpt lat="41.8860398" lon="12.6958578"><ele>52.0</ele><time>2026-04-04T09:13:09.835Z</time></trkpt><trkpt lat="41.8861344" lon="12.6958711"><ele>52.0</ele><time>2026-04-04T09:13:11.834Z</time></trkpt><trkpt lat="41.8862007" lon="12.6958764"><ele>52.0</ele><time>2026-04-04T09:13:14.835Z</time></trkpt><trkpt lat="41.8862693" lon="12.6958926"><ele>52.0</ele><time>2026-04-04T09:13:16.835Z</time></trkpt><trkpt lat="41.8863376" lon="12.6959023"><ele>52.0</ele><time>2026-04-04T09:13:17.835Z</time></trkpt><trkpt lat="41.8864061" lon="12.6959058"><ele>52.0</ele><time>2026-04-04T09:13:18.835Z</time></trkpt><trkpt lat="41.8864966" lon="12.6959175"><ele>51.99999999999999</ele><time>2026-04-04T09:13:19.835Z</time></trkpt><trkpt lat="41.8865935" lon="12.6959304"><ele>52.0</ele><time>2026-04-04T09:13:20.835Z</time></trkpt><trkpt lat="41.886679" lon="12.6959382"><ele>52.0</ele><time>2026-04-04T09:13:21.835Z</time></trkpt><trkpt lat="41.8867547" lon="12.6959465"><ele>52.0</ele><time>2026-04-04T09:13:22.834Z</time></trkpt><trkpt lat="41.8868486" lon="12.6959618"><ele>51.99999999999999</ele><time>2026-04-04T09:13:23.835Z</time></trkpt><trkpt lat="41.886943" lon="12.6959748"><ele>52.0</ele><time>2026-04-04T09:13:24.835Z</time></trkpt><trkpt lat="41.8870276" lon="12.6959804"><ele>52.2</ele><time>2026-04-04T09:13:25.835Z</time></trkpt><trkpt lat="41.8871229" lon="12.6959926"><ele>52.400000000000006</ele><time>2026-04-04T09:13:26.835Z</time></trkpt><trkpt lat="41.8872262" lon="12.6959966"><ele>52.599999999999994</ele><time>2026-04-04T09:13:27.835Z</time></trkpt><trkpt lat="41.8873413" lon="12.6959922"><ele>52.8</ele><time>2026-04-04T09:13:28.835Z</time></trkpt><trkpt lat="41.8874697" lon="12.6959922"><ele>53.0</ele><time>2026-04-04T09:13:29.835Z</time></trkpt><trkpt lat="41.8876011" lon="12.6959938"><ele>53.25</ele><time>2026-04-04T09:13:30.835Z</time></trkpt><trkpt lat="41.8877216" lon="12.6959858"><ele>53.5</ele><time>2026-04-04T09:13:31.835Z</time></trkpt><trkpt lat="41.8878387" lon="12.6959732"><ele>53.75</ele><time>2026-04-04T09:13:32.835Z</time></trkpt><trkpt lat="41.8879495" lon="12.6959514"><ele>54.0</ele><time>2026-04-04T09:13:33.835Z</time></trkpt><trkpt lat="41.8880604" lon="12.6959274"><ele>54.0</ele><time>2026-04-04T09:13:34.835Z</time></trkpt><trkpt lat="41.8881589" lon="12.6959043"><ele>54.0</ele><time>2026-04-04T09:13:35.835Z</time></trkpt><trkpt lat="41.8882459" lon="12.6958909"><ele>54.0</ele><time>2026-04-04T09:13:36.835Z</time></trkpt><trkpt lat="41.8883181" lon="12.6958752"><ele>54.0</ele><time>2026-04-04T09:13:37.835Z</time></trkpt><trkpt lat="41.8884279" lon="12.6958539"><ele>54.0</ele><time>2026-04-04T09:13:39.835Z</time></trkpt><trkpt lat="41.8884984" lon="12.6958582"><ele>54.0</ele><time>2026-04-04T09:13:41.835Z</time></trkpt><trkpt lat="41.8886369" lon="12.69583"><ele>53.6</ele><time>2026-04-04T09:14:31.835Z</time></trkpt><trkpt lat="41.8887402" lon="12.6957946"><ele>53.2</ele><time>2026-04-04T09:14:32.835Z</time></trkpt><trkpt lat="41.8888418" lon="12.6957502"><ele>52.800000000000004</ele><time>2026-04-04T09:14:33.835Z</time></trkpt><trkpt lat="41.8889371" lon="12.6957089"><ele>52.400000000000006</ele><time>2026-04-04T09:14:34.834Z</time></trkpt><trkpt lat="41.8890306" lon="12.6956578"><ele>52.0</ele><time>2026-04-04T09:14:35.835Z</time></trkpt><trkpt lat="41.889115" lon="12.695605"><ele>52.0</ele><time>2026-04-04T09:14:36.835Z</time></trkpt><trkpt lat="41.8892058" lon="12.6955486"><ele>52.0</ele><time>2026-04-04T09:14:37.834Z</time></trkpt><trkpt lat="41.8893011" lon="12.6954977"><ele>52.0</ele><time>2026-04-04T09:14:38.835Z</time></trkpt><trkpt lat="41.8894075" lon="12.695436"><ele>52.0</ele><time>2026-04-04T09:14:39.834Z</time></trkpt><trkpt lat="41.8895233" lon="12.6953696"><ele>52.0</ele><time>2026-04-04T09:14:40.835Z</time></trkpt><trkpt lat="41.8896231" lon="12.6953118"><ele>52.0</ele><time>2026-04-04T09:14:41.834Z</time></trkpt><trkpt lat="41.8897172" lon="12.695255"><ele>52.0</ele><time>2026-04-04T09:14:42.834Z</time></trkpt><trkpt lat="41.8898155" lon="12.6952001"><ele>52.0</ele><time>2026-04-04T09:14:43.835Z</time></trkpt><trkpt lat="41.8899165" lon="12.6951422"><ele>52.0</ele><time>2026-04-04T09:14:44.835Z</time></trkpt><trkpt lat="41.8900009" lon="12.6950918"><ele>52.0</ele><time>2026-04-04T09:14:46.835Z</time></trkpt><trkpt lat="41.8900644" lon="12.6950812"><ele>51.8</ele><time>2026-04-04T09:14:48.835Z</time></trkpt><trkpt lat="41.8901475" lon="12.6951036"><ele>51.6</ele><time>2026-04-04T09:14:50.835Z</time></trkpt><trkpt lat="41.8902329" lon="12.6952626"><ele>51.4</ele><time>2026-04-04T09:14:52.835Z</time></trkpt><trkpt lat="41.8902666" lon="12.6953951"><ele>51.199999999999996</ele><time>2026-04-04T09:14:53.835Z</time></trkpt><trkpt lat="41.8903048" lon="12.6955255"><ele>51.0</ele><time>2026-04-04T09:14:54.835Z</time></trkpt><trkpt lat="41.8903384" lon="12.6956546"><ele>51.0</ele><time>2026-04-04T09:14:55.835Z</time></trkpt><trkpt lat="41.8903649" lon="12.6957778"><ele>51.0</ele><time>2026-04-04T09:14:56.835Z</time></trkpt><trkpt lat="41.8903858" lon="12.6958947"><ele>51.0</ele><time>2026-04-04T09:14:57.834Z</time></trkpt><trkpt lat="41.8904041" lon="12.6960164"><ele>51.0</ele><time>2026-04-04T09:14:58.835Z</time></trkpt><trkpt lat="41.8904199" lon="12.6961344"><ele>51.0</ele><time>2026-04-04T09:14:59.835Z</time></trkpt><trkpt lat="41.8904262" lon="12.6962589"><ele>50.599999999999994</ele><time>2026-04-04T09:15:00.835Z</time></trkpt><trkpt lat="41.8904354" lon="12.6963909"><ele>50.2</ele><time>2026-04-04T09:15:01.834Z</time></trkpt><trkpt lat="41.8904465" lon="12.6965203"><ele>49.8</ele><time>2026-04-04T09:15:02.835Z</time></trkpt><trkpt lat="41.8904548" lon="12.696643"><ele>49.400000000000006</ele><time>2026-04-04T09:15:03.835Z</time></trkpt><trkpt lat="41.8904694" lon="12.6967663"><ele>49.0</ele><time>2026-04-04T09:15:04.835Z</time></trkpt><trkpt lat="41.890483" lon="12.6968879"><ele>49.166666666666664</ele><time>2026-04-04T09:15:05.835Z</time></trkpt><trkpt lat="41.8905066" lon="12.6970105"><ele>49.33333333333333</ele><time>2026-04-04T09:15:06.835Z</time></trkpt><trkpt lat="41.8905323" lon="12.6971272"><ele>49.5</ele><time>2026-04-04T09:15:07.835Z</time></trkpt><trkpt lat="41.8905674" lon="12.6972342"><ele>49.66666666666667</ele><time>2026-04-04T09:15:08.835Z</time></trkpt><trkpt lat="41.8906113" lon="12.6973253"><ele>49.833333333333336</ele><time>2026-04-04T09:15:09.835Z</time></trkpt><trkpt lat="41.8906527" lon="12.6974184"><ele>50.0</ele><time>2026-04-04T09:15:10.835Z</time></trkpt><trkpt lat="41.8906925" lon="12.6975154"><ele>50.0</ele><time>2026-04-04T09:15:11.835Z</time></trkpt><trkpt lat="41.8907346" lon="12.69762"><ele>50.0</ele><time>2026-04-04T09:15:12.835Z</time></trkpt><trkpt lat="41.890775" lon="12.6977237"><ele>50.0</ele><time>2026-04-04T09:15:13.835Z</time></trkpt><trkpt lat="41.8908183" lon="12.6978346"><ele>50.0</ele><time>2026-04-04T09:15:14.835Z</time></trkpt><trkpt lat="41.8908661" lon="12.6979586"><ele>50.0</ele><time>2026-04-04T09:15:15.835Z</time></trkpt><trkpt lat="41.8909155" lon="12.6980947"><ele>52.333333333333336</ele><time>2026-04-04T09:15:16.835Z</time></trkpt><trkpt lat="41.8909709" lon="12.6982468"><ele>54.66666666666667</ele><time>2026-04-04T09:15:17.834Z</time></trkpt><trkpt lat="41.8910433" lon="12.6984392"><ele>57.0</ele><time>2026-04-04T09:15:18.835Z</time></trkpt><trkpt lat="41.8911197" lon="12.6986686"><ele>57.33333333333333</ele><time>2026-04-04T09:15:19.835Z</time></trkpt><trkpt lat="41.8911908" lon="12.6989146"><ele>57.666666666666664</ele><time>2026-04-04T09:15:20.835Z</time></trkpt><trkpt lat="41.8912733" lon="12.6991826"><ele>58.0</ele><time>2026-04-04T09:15:21.835Z</time></trkpt><trkpt lat="41.8913524" lon="12.6994363"><ele>58.666666666666664</ele><time>2026-04-04T09:15:22.835Z</time></trkpt><trkpt lat="41.8914291" lon="12.6996692"><ele>59.33333333333333</ele><time>2026-04-04T09:15:23.835Z</time></trkpt><trkpt lat="41.891499" lon="12.6998907"><ele>60.0</ele><time>2026-04-04T09:15:24.835Z</time></trkpt><trkpt lat="41.8915701" lon="12.7001063"><ele>60.0</ele><time>2026-04-04T09:15:25.835Z</time></trkpt><trkpt lat="41.8916415" lon="12.7002945"><ele>60.0</ele><time>2026-04-04T09:15:26.835Z</time></trkpt><trkpt lat="41.8917115" lon="12.7004783"><ele>60.0</ele><time>2026-04-04T09:15:27.835Z</time></trkpt><trkpt lat="41.8918178" lon="12.7005928"><ele>60.0</ele><time>2026-04-04T09:15:28.835Z</time></trkpt><trkpt lat="41.89194" lon="12.7006938"><ele>61.0</ele><time>2026-04-04T09:15:29.835Z</time></trkpt><trkpt lat="41.892089" lon="12.7007699"><ele>62.0</ele><time>2026-04-04T09:15:30.835Z</time></trkpt><trkpt lat="41.8922506" lon="12.7008419"><ele>63.0</ele><time>2026-04-04T09:15:31.835Z</time></trkpt><trkpt lat="41.8924221" lon="12.7009189"><ele>63.33333333333333</ele><time>2026-04-04T09:15:32.835Z</time></trkpt><trkpt lat="41.892598" lon="12.7009992"><ele>63.666666666666664</ele><time>2026-04-04T09:15:33.835Z</time></trkpt><trkpt lat="41.8927801" lon="12.7010919"><ele>64.0</ele><time>2026-04-04T09:15:34.834Z</time></trkpt><trkpt lat="41.8929806" lon="12.7012014"><ele>64.0</ele><time>2026-04-04T09:15:35.835Z</time></trkpt><trkpt lat="41.8931659" lon="12.7013162"><ele>64.0</ele><time>2026-04-04T09:15:36.834Z</time></trkpt><trkpt lat="41.8933431" lon="12.7014323"><ele>64.0</ele><time>2026-04-04T09:15:37.834Z</time></trkpt><trkpt lat="41.8935254" lon="12.7015617"><ele>64.0</ele><time>2026-04-04T09:15:38.835Z</time></trkpt><trkpt lat="41.8937043" lon="12.7016992"><ele>64.0</ele><time>2026-04-04T09:15:39.835Z</time></trkpt><trkpt lat="41.8938824" lon="12.7018401"><ele>64.0</ele><time>2026-04-04T09:15:40.835Z</time></trkpt><trkpt lat="41.8940694" lon="12.701987"><ele>64.0</ele><time>2026-04-04T09:15:41.835Z</time></trkpt><trkpt lat="41.8942628" lon="12.7021445"><ele>64.0</ele><time>2026-04-04T09:15:42.834Z</time></trkpt><trkpt lat="41.8944543" lon="12.7023052"><ele>64.0</ele><time>2026-04-04T09:15:43.835Z</time></trkpt><trkpt lat="41.8946466" lon="12.7024661"><ele>64.0</ele><time>2026-04-04T09:15:44.835Z</time></trkpt><trkpt lat="41.8948292" lon="12.7026198"><ele>64.0</ele><time>2026-04-04T09:15:45.835Z</time></trkpt><trkpt lat="41.895016" lon="12.7027678"><ele>63.0</ele><time>2026-04-04T09:15:46.835Z</time></trkpt><trkpt lat="41.8952061" lon="12.7029143"><ele>62.0</ele><time>2026-04-04T09:15:47.835Z</time></trkpt><trkpt lat="41.8953997" lon="12.7030605"><ele>61.0</ele><time>2026-04-04T09:15:48.834Z</time></trkpt><trkpt lat="41.8955973" lon="12.7032091"><ele>61.0</ele><time>2026-04-04T09:15:49.835Z</time></trkpt><trkpt lat="41.8957999" lon="12.7033629"><ele>61.0</ele><time>2026-04-04T09:15:50.835Z</time></trkpt><trkpt lat="41.8960044" lon="12.7035169"><ele>60.5</ele><time>2026-04-04T09:15:51.835Z</time></trkpt><trkpt lat="41.8962042" lon="12.7036743"><ele>60.0</ele><time>2026-04-04T09:15:52.835Z</time></trkpt><trkpt lat="41.8964085" lon="12.703829"><ele>60.0</ele><time>2026-04-04T09:15:53.835Z</time></trkpt><trkpt lat="41.8966111" lon="12.7039817"><ele>60.0</ele><time>2026-04-04T09:15:54.835Z</time></trkpt><trkpt lat="41.8968038" lon="12.7041272"><ele>60.33333333333333</ele><time>2026-04-04T09:15:55.835Z</time></trkpt><trkpt lat="41.8969939" lon="12.7042737"><ele>60.666666666666664</ele><time>2026-04-04T09:15:56.835Z</time></trkpt><trkpt lat="41.8971828" lon="12.7044193"><ele>61.0</ele><time>2026-04-04T09:15:57.835Z</time></trkpt><trkpt lat="41.8973714" lon="12.7045611"><ele>62.0</ele><time>2026-04-04T09:15:58.835Z</time></trkpt><trkpt lat="41.8975623" lon="12.7047049"><ele>63.0</ele><time>2026-04-04T09:15:59.835Z</time></trkpt><trkpt lat="41.8977528" lon="12.7048461"><ele>64.0</ele><time>2026-04-04T09:16:00.835Z</time></trkpt><trkpt lat="41.8979468" lon="12.7049865"><ele>64.0</ele><time>2026-04-04T09:16:01.834Z</time></trkpt><trkpt lat="41.8981377" lon="12.7051261"><ele>64.0</ele><time>2026-04-04T09:16:02.835Z</time></trkpt><trkpt lat="41.8983263" lon="12.7052665"><ele>64.0</ele><time>2026-04-04T09:16:03.835Z</time></trkpt><trkpt lat="41.8985127" lon="12.705406"><ele>66.0</ele><time>2026-04-04T09:16:04.835Z</time></trkpt><trkpt lat="41.8986963" lon="12.7055449"><ele>68.0</ele><time>2026-04-04T09:16:05.834Z</time></trkpt><trkpt lat="41.8988779" lon="12.7056827"><ele>70.0</ele><time>2026-04-04T09:16:06.835Z</time></trkpt><trkpt lat="41.8990626" lon="12.7058227"><ele>70.0</ele><time>2026-04-04T09:16:07.835Z</time></trkpt><trkpt lat="41.899249" lon="12.7059656"><ele>70.0</ele><time>2026-04-04T09:16:08.835Z</time></trkpt><trkpt lat="41.8994359" lon="12.7061104"><ele>70.0</ele><time>2026-04-04T09:16:09.835Z</time></trkpt><trkpt lat="41.8996231" lon="12.7062595"><ele>70.66666666666666</ele><time>2026-04-04T09:16:10.835Z</time></trkpt><trkpt lat="41.899812" lon="12.706408"><ele>71.33333333333333</ele><time>2026-04-04T09:16:11.835Z</time></trkpt><trkpt lat="41.9000052" lon="12.706549"><ele>72.0</ele><time>2026-04-04T09:16:12.835Z</time></trkpt><trkpt lat="41.9002013" lon="12.7066928"><ele>72.0</ele><time>2026-04-04T09:16:13.835Z</time></trkpt><trkpt lat="41.9003955" lon="12.7068383"><ele>72.0</ele><time>2026-04-04T09:16:14.835Z</time></trkpt><trkpt lat="41.9005909" lon="12.7069735"><ele>72.0</ele><time>2026-04-04T09:16:15.835Z</time></trkpt><trkpt lat="41.9007834" lon="12.7071073"><ele>71.5</ele><time>2026-04-04T09:16:16.835Z</time></trkpt><trkpt lat="41.9009895" lon="12.7072443"><ele>71.0</ele><time>2026-04-04T09:16:17.835Z</time></trkpt><trkpt lat="41.9012051" lon="12.7073886"><ele>71.0</ele><time>2026-04-04T09:16:18.835Z</time></trkpt><trkpt lat="41.9014026" lon="12.7075237"><ele>71.0</ele><time>2026-04-04T09:16:19.835Z</time></trkpt><trkpt lat="41.9015931" lon="12.7076583"><ele>71.0</ele><time>2026-04-04T09:16:20.835Z</time></trkpt><trkpt lat="41.901784" lon="12.7077861"><ele>70.0</ele><time>2026-04-04T09:16:21.835Z</time></trkpt><trkpt lat="41.9019731" lon="12.7079116"><ele>69.0</ele><time>2026-04-04T09:16:22.835Z</time></trkpt><trkpt lat="41.9021589" lon="12.708042"><ele>68.0</ele><time>2026-04-04T09:16:23.835Z</time></trkpt><trkpt lat="41.9023446" lon="12.7081697"><ele>68.0</ele><time>2026-04-04T09:16:24.835Z</time></trkpt><trkpt lat="41.9025311" lon="12.708295"><ele>68.0</ele><time>2026-04-04T09:16:25.835Z</time></trkpt><trkpt lat="41.9027176" lon="12.708421"><ele>68.0</ele><time>2026-04-04T09:16:26.835Z</time></trkpt><trkpt lat="41.9029035" lon="12.7085492"><ele>68.33333333333334</ele><time>2026-04-04T09:16:27.835Z</time></trkpt><trkpt lat="41.9030919" lon="12.7086755"><ele>68.66666666666667</ele><time>2026-04-04T09:16:28.835Z</time></trkpt><trkpt lat="41.9032783" lon="12.7088022"><ele>69.0</ele><time>2026-04-04T09:16:29.835Z</time></trkpt><trkpt lat="41.9034658" lon="12.7089334"><ele>69.0</ele><time>2026-04-04T09:16:30.835Z</time></trkpt><trkpt lat="41.9036556" lon="12.7090673"><ele>69.0</ele><time>2026-04-04T09:16:31.835Z</time></trkpt><trkpt lat="41.9038502" lon="12.709207"><ele>69.0</ele><time>2026-04-04T09:16:32.835Z</time></trkpt><trkpt lat="41.9040435" lon="12.7093493"><ele>68.0</ele><time>2026-04-04T09:16:33.835Z</time></trkpt><trkpt lat="41.9042399" lon="12.7094909"><ele>67.0</ele><time>2026-04-04T09:16:34.835Z</time></trkpt><trkpt lat="41.9044362" lon="12.7096366"><ele>66.0</ele><time>2026-04-04T09:16:35.835Z</time></trkpt><trkpt lat="41.9046293" lon="12.7097882"><ele>66.0</ele><time>2026-04-04T09:16:36.835Z</time></trkpt><trkpt lat="41.90481" lon="12.7099396"><ele>66.0</ele><time>2026-04-04T09:16:37.834Z</time></trkpt><trkpt lat="41.9049709" lon="12.7100787"><ele>66.0</ele><time>2026-04-04T09:16:38.835Z</time></trkpt><trkpt lat="41.905115" lon="12.7102118"><ele>64.66666666666667</ele><time>2026-04-04T09:16:39.835Z</time></trkpt><trkpt lat="41.9052354" lon="12.7103675"><ele>63.333333333333336</ele><time>2026-04-04T09:16:40.835Z</time></trkpt><trkpt lat="41.9053366" lon="12.7105459"><ele>62.0</ele><time>2026-04-04T09:16:41.835Z</time></trkpt><trkpt lat="41.9054125" lon="12.710737"><ele>62.0</ele><time>2026-04-04T09:16:42.835Z</time></trkpt><trkpt lat="41.9054666" lon="12.7109272"><ele>62.0</ele><time>2026-04-04T09:16:43.835Z</time></trkpt><trkpt lat="41.9055141" lon="12.7111125"><ele>62.0</ele><time>2026-04-04T09:16:44.835Z</time></trkpt><trkpt lat="41.9055623" lon="12.7112867"><ele>62.0</ele><time>2026-04-04T09:16:45.835Z</time></trkpt><trkpt lat="41.9056031" lon="12.7114547"><ele>62.6</ele><time>2026-04-04T09:16:46.834Z</time></trkpt><trkpt lat="41.9056351" lon="12.7116129"><ele>63.2</ele><time>2026-04-04T09:16:47.835Z</time></trkpt><trkpt lat="41.9056608" lon="12.7117597"><ele>63.8</ele><time>2026-04-04T09:16:48.835Z</time></trkpt><trkpt lat="41.9056843" lon="12.7118899"><ele>64.4</ele><time>2026-04-04T09:16:49.835Z</time></trkpt><trkpt lat="41.9057054" lon="12.7120082"><ele>65.0</ele><time>2026-04-04T09:16:50.835Z</time></trkpt><trkpt lat="41.9057236" lon="12.7121098"><ele>65.0</ele><time>2026-04-04T09:16:51.835Z</time></trkpt><trkpt lat="41.9057518" lon="12.7122687"><ele>65.0</ele><time>2026-04-04T09:16:53.835Z</time></trkpt><trkpt lat="41.9057688" lon="12.7123899"><ele>65.0</ele><time>2026-04-04T09:16:54.835Z</time></trkpt><trkpt lat="41.9057977" lon="12.7125358"><ele>65.0</ele><time>2026-04-04T09:16:55.835Z</time></trkpt><trkpt lat="41.9058257" lon="12.7126897"><ele>65.0</ele><time>2026-04-04T09:16:56.835Z</time></trkpt><trkpt lat="41.9058569" lon="12.7128665"><ele>64.66666666666667</ele><time>2026-04-04T09:16:57.835Z</time></trkpt><trkpt lat="41.905896" lon="12.7130727"><ele>64.33333333333333</ele><time>2026-04-04T09:16:58.834Z</time></trkpt><trkpt lat="41.9059357" lon="12.7132804"><ele>64.0</ele><time>2026-04-04T09:16:59.834Z</time></trkpt><trkpt lat="41.9059806" lon="12.7135183"><ele>64.66666666666666</ele><time>2026-04-04T09:17:00.835Z</time></trkpt><trkpt lat="41.9060285" lon="12.7137595"><ele>65.33333333333333</ele><time>2026-04-04T09:17:01.835Z</time></trkpt><trkpt lat="41.9060767" lon="12.7140027"><ele>66.0</ele><time>2026-04-04T09:17:02.834Z</time></trkpt><trkpt lat="41.906128" lon="12.7142618"><ele>64.66666666666667</ele><time>2026-04-04T09:17:03.835Z</time></trkpt><trkpt lat="41.9061805" lon="12.7145278"><ele>63.333333333333336</ele><time>2026-04-04T09:17:04.835Z</time></trkpt><trkpt lat="41.9062356" lon="12.7147938"><ele>62.0</ele><time>2026-04-04T09:17:05.835Z</time></trkpt><trkpt lat="41.906287" lon="12.7150602"><ele>60.66666666666667</ele><time>2026-04-04T09:17:06.835Z</time></trkpt><trkpt lat="41.9063404" lon="12.7153263"><ele>59.33333333333333</ele><time>2026-04-04T09:17:07.835Z</time></trkpt><trkpt lat="41.9063931" lon="12.7155908"><ele>58.0</ele><time>2026-04-04T09:17:08.835Z</time></trkpt><trkpt lat="41.906446" lon="12.7158579"><ele>57.33333333333333</ele><time>2026-04-04T09:17:09.835Z</time></trkpt><trkpt lat="41.9064987" lon="12.7161216"><ele>56.66666666666667</ele><time>2026-04-04T09:17:10.835Z</time></trkpt><trkpt lat="41.9065477" lon="12.7163843"><ele>56.0</ele><time>2026-04-04T09:17:11.834Z</time></trkpt><trkpt lat="41.9065981" lon="12.7166459"><ele>56.66666666666667</ele><time>2026-04-04T09:17:12.835Z</time></trkpt><trkpt lat="41.9066505" lon="12.7169048"><ele>57.33333333333333</ele><time>2026-04-04T09:17:13.835Z</time></trkpt><trkpt lat="41.9066992" lon="12.7171548"><ele>58.0</ele><time>2026-04-04T09:17:14.835Z</time></trkpt><trkpt lat="41.9067475" lon="12.7174047"><ele>58.666666666666664</ele><time>2026-04-04T09:17:15.835Z</time></trkpt><trkpt lat="41.9067966" lon="12.7176545"><ele>59.33333333333333</ele><time>2026-04-04T09:17:16.835Z</time></trkpt><trkpt lat="41.9068452" lon="12.717918"><ele>60.0</ele><time>2026-04-04T09:17:17.835Z</time></trkpt><trkpt lat="41.9068957" lon="12.7181706"><ele>63.0</ele><time>2026-04-04T09:17:18.835Z</time></trkpt><trkpt lat="41.9069423" lon="12.7184131"><ele>66.0</ele><time>2026-04-04T09:17:19.835Z</time></trkpt><trkpt lat="41.9069904" lon="12.7186396"><ele>69.0</ele><time>2026-04-04T09:17:20.835Z</time></trkpt><trkpt lat="41.907036" lon="12.7188475"><ele>68.75</ele><time>2026-04-04T09:17:21.835Z</time></trkpt><trkpt lat="41.9070736" lon="12.719037"><ele>68.5</ele><time>2026-04-04T09:17:22.835Z</time></trkpt><trkpt lat="41.9071074" lon="12.7192147"><ele>68.25</ele><time>2026-04-04T09:17:23.835Z</time></trkpt><trkpt lat="41.9071451" lon="12.7193913"><ele>68.0</ele><time>2026-04-04T09:17:24.835Z</time></trkpt><trkpt lat="41.9071767" lon="12.7195576"><ele>68.0</ele><time>2026-04-04T09:17:25.835Z</time></trkpt><trkpt lat="41.9072094" lon="12.7197157"><ele>68.0</ele><time>2026-04-04T09:17:26.835Z</time></trkpt><trkpt lat="41.9072437" lon="12.7198846"><ele>68.0</ele><time>2026-04-04T09:17:27.835Z</time></trkpt><trkpt lat="41.9072801" lon="12.7200598"><ele>68.0</ele><time>2026-04-04T09:17:28.835Z</time></trkpt><trkpt lat="41.907316" lon="12.7202479"><ele>67.0</ele><time>2026-04-04T09:17:29.835Z</time></trkpt><trkpt lat="41.9073528" lon="12.7204419"><ele>66.0</ele><time>2026-04-04T09:17:30.835Z</time></trkpt><trkpt lat="41.9073928" lon="12.7206394"><ele>65.0</ele><time>2026-04-04T09:17:31.835Z</time></trkpt><trkpt lat="41.9074451" lon="12.7208515"><ele>64.0</ele><time>2026-04-04T09:17:32.834Z</time></trkpt><trkpt lat="41.907497" lon="12.721093"><ele>63.0</ele><time>2026-04-04T09:17:33.835Z</time></trkpt><trkpt lat="41.9075451" lon="12.7213582"><ele>62.0</ele><time>2026-04-04T09:17:34.835Z</time></trkpt><trkpt lat="41.9075942" lon="12.7216257"><ele>61.66666666666667</ele><time>2026-04-04T09:17:35.835Z</time></trkpt><trkpt lat="41.9076446" lon="12.7218871"><ele>61.33333333333333</ele><time>2026-04-04T09:17:36.835Z</time></trkpt><trkpt lat="41.9076991" lon="12.7221451"><ele>61.0</ele><time>2026-04-04T09:17:37.835Z</time></trkpt><trkpt lat="41.9077582" lon="12.7223888"><ele>60.666666666666664</ele><time>2026-04-04T09:17:38.835Z</time></trkpt><trkpt lat="41.907828" lon="12.7226147"><ele>60.33333333333333</ele><time>2026-04-04T09:17:39.835Z</time></trkpt><trkpt lat="41.9079137" lon="12.7228284"><ele>60.0</ele><time>2026-04-04T09:17:40.835Z</time></trkpt><trkpt lat="41.9080095" lon="12.7230365"><ele>60.0</ele><time>2026-04-04T09:17:41.835Z</time></trkpt><trkpt lat="41.9081557" lon="12.7232238"><ele>60.0</ele><time>2026-04-04T09:17:42.835Z</time></trkpt><trkpt lat="41.9082928" lon="12.7234128"><ele>60.0</ele><time>2026-04-04T09:17:43.835Z</time></trkpt><trkpt lat="41.9084372" lon="12.7236052"><ele>58.66666666666667</ele><time>2026-04-04T09:17:44.835Z</time></trkpt><trkpt lat="41.9085812" lon="12.7237889"><ele>57.333333333333336</ele><time>2026-04-04T09:17:45.835Z</time></trkpt><trkpt lat="41.9087316" lon="12.7239749"><ele>56.0</ele><time>2026-04-04T09:17:46.835Z</time></trkpt><trkpt lat="41.908888" lon="12.724165"><ele>56.0</ele><time>2026-04-04T09:17:47.835Z</time></trkpt><trkpt lat="41.9090464" lon="12.7243616"><ele>56.0</ele><time>2026-04-04T09:17:48.835Z</time></trkpt><trkpt lat="41.9092056" lon="12.724555"><ele>56.0</ele><time>2026-04-04T09:17:49.835Z</time></trkpt><trkpt lat="41.909361" lon="12.7247456"><ele>54.0</ele><time>2026-04-04T09:17:50.835Z</time></trkpt><trkpt lat="41.9095136" lon="12.724934"><ele>52.0</ele><time>2026-04-04T09:17:51.835Z</time></trkpt><trkpt lat="41.909666" lon="12.7251207"><ele>50.0</ele><time>2026-04-04T09:17:52.835Z</time></trkpt><trkpt lat="41.9098162" lon="12.7253115"><ele>49.333333333333336</ele><time>2026-04-04T09:17:53.835Z</time></trkpt><trkpt lat="41.9099668" lon="12.7255013"><ele>48.66666666666667</ele><time>2026-04-04T09:17:54.835Z</time></trkpt><trkpt lat="41.9101136" lon="12.7256839"><ele>48.0</ele><time>2026-04-04T09:17:55.835Z</time></trkpt><trkpt lat="41.9102504" lon="12.7258731"><ele>48.0</ele><time>2026-04-04T09:17:56.835Z</time></trkpt><trkpt lat="41.9103746" lon="12.726051"><ele>48.0</ele><time>2026-04-04T09:17:57.835Z</time></trkpt><trkpt lat="41.9104924" lon="12.7262216"><ele>48.0</ele><time>2026-04-04T09:17:58.835Z</time></trkpt><trkpt lat="41.9106054" lon="12.7263832"><ele>47.333333333333336</ele><time>2026-04-04T09:17:59.835Z</time></trkpt><trkpt lat="41.9107121" lon="12.7265389"><ele>46.66666666666667</ele><time>2026-04-04T09:18:00.835Z</time></trkpt><trkpt lat="41.910817" lon="12.7266905"><ele>46.0</ele><time>2026-04-04T09:18:01.835Z</time></trkpt><trkpt lat="41.9109189" lon="12.7268426"><ele>46.0</ele><time>2026-04-04T09:18:02.835Z</time></trkpt><trkpt lat="41.9110137" lon="12.7269875"><ele>46.0</ele><time>2026-04-04T09:18:03.835Z</time></trkpt><trkpt lat="41.9111061" lon="12.7271264"><ele>46.0</ele><time>2026-04-04T09:18:04.835Z</time></trkpt><trkpt lat="41.911193" lon="12.7272625"><ele>46.0</ele><time>2026-04-04T09:18:05.835Z</time></trkpt><trkpt lat="41.9112811" lon="12.7273972"><ele>46.0</ele><time>2026-04-04T09:18:06.835Z</time></trkpt><trkpt lat="41.9113502" lon="12.7275045"><ele>46.0</ele><time>2026-04-04T09:18:07.835Z</time></trkpt><trkpt lat="41.911409" lon="12.7276039"><ele>46.0</ele><time>2026-04-04T09:18:08.835Z</time></trkpt><trkpt lat="41.9114758" lon="12.7277158"><ele>46.0</ele><time>2026-04-04T09:18:09.835Z</time></trkpt><trkpt lat="41.911551" lon="12.7278505"><ele>46.0</ele><time>2026-04-04T09:18:10.835Z</time></trkpt><trkpt lat="41.9116281" lon="12.7279929"><ele>46.0</ele><time>2026-04-04T09:18:11.834Z</time></trkpt><trkpt lat="41.9117076" lon="12.728136"><ele>46.0</ele><time>2026-04-04T09:18:12.835Z</time></trkpt><trkpt lat="41.911788" lon="12.7282834"><ele>46.0</ele><time>2026-04-04T09:18:13.835Z</time></trkpt><trkpt lat="41.9118622" lon="12.728428"><ele>46.0</ele><time>2026-04-04T09:18:14.835Z</time></trkpt><trkpt lat="41.9119312" lon="12.7285622"><ele>46.0</ele><time>2026-04-04T09:18:15.835Z</time></trkpt><trkpt lat="41.9119964" lon="12.7286876"><ele>46.0</ele><time>2026-04-04T09:18:16.835Z</time></trkpt><trkpt lat="41.9120598" lon="12.7288135"><ele>46.0</ele><time>2026-04-04T09:18:17.835Z</time></trkpt><trkpt lat="41.9121236" lon="12.7289432"><ele>46.0</ele><time>2026-04-04T09:18:18.835Z</time></trkpt><trkpt lat="41.9121916" lon="12.729069"><ele>46.0</ele><time>2026-04-04T09:18:19.834Z</time></trkpt><trkpt lat="41.9122593" lon="12.7291973"><ele>46.0</ele><time>2026-04-04T09:18:20.835Z</time></trkpt><trkpt lat="41.9123308" lon="12.7293288"><ele>46.0</ele><time>2026-04-04T09:18:21.835Z</time></trkpt><trkpt lat="41.9123993" lon="12.729465"><ele>46.0</ele><time>2026-04-04T09:18:22.835Z</time></trkpt><trkpt lat="41.9124711" lon="12.7296048"><ele>46.199999999999996</ele><time>2026-04-04T09:18:23.835Z</time></trkpt><trkpt lat="41.9125358" lon="12.7297367"><ele>46.4</ele><time>2026-04-04T09:18:24.835Z</time></trkpt><trkpt lat="41.9125896" lon="12.7298474"><ele>46.6</ele><time>2026-04-04T09:18:25.835Z</time></trkpt><trkpt lat="41.912634" lon="12.7299381"><ele>46.8</ele><time>2026-04-04T09:18:26.835Z</time></trkpt><trkpt lat="41.9126762" lon="12.7300211"><ele>47.0</ele><time>2026-04-04T09:18:27.835Z</time></trkpt><trkpt lat="41.9127221" lon="12.7301084"><ele>47.0</ele><time>2026-04-04T09:18:28.835Z</time></trkpt><trkpt lat="41.9127635" lon="12.7301925"><ele>47.0</ele><time>2026-04-04T09:18:29.835Z</time></trkpt><trkpt lat="41.9127968" lon="12.730268"><ele>47.0</ele><time>2026-04-04T09:18:30.835Z</time></trkpt><trkpt lat="41.9128603" lon="12.730384"><ele>47.0</ele><time>2026-04-04T09:18:32.835Z</time></trkpt><trkpt lat="41.9128945" lon="12.7304584"><ele>47.0</ele><time>2026-04-04T09:18:35.835Z</time></trkpt><trkpt lat="41.9129507" lon="12.7305713"><ele>47.0</ele><time>2026-04-04T09:18:38.835Z</time></trkpt><trkpt lat="41.9129984" lon="12.7306704"><ele>47.0</ele><time>2026-04-04T09:18:39.835Z</time></trkpt><trkpt lat="41.9130541" lon="12.7307841"><ele>47.0</ele><time>2026-04-04T09:18:40.835Z</time></trkpt><trkpt lat="41.913118" lon="12.7309141"><ele>47.0</ele><time>2026-04-04T09:18:41.835Z</time></trkpt><trkpt lat="41.9131863" lon="12.7310602"><ele>47.0</ele><time>2026-04-04T09:18:42.835Z</time></trkpt><trkpt lat="41.9132577" lon="12.7312126"><ele>47.0</ele><time>2026-04-04T09:18:43.835Z</time></trkpt><trkpt lat="41.91333" lon="12.7313652"><ele>47.0</ele><time>2026-04-04T09:18:44.834Z</time></trkpt><trkpt lat="41.9134062" lon="12.7315241"><ele>47.0</ele><time>2026-04-04T09:18:45.835Z</time></trkpt><trkpt lat="41.9134868" lon="12.7316914"><ele>47.0</ele><time>2026-04-04T09:18:46.835Z</time></trkpt><trkpt lat="41.9135696" lon="12.7318615"><ele>46.25</ele><time>2026-04-04T09:18:47.834Z</time></trkpt><trkpt lat="41.9136564" lon="12.7320365"><ele>45.5</ele><time>2026-04-04T09:18:48.835Z</time></trkpt><trkpt lat="41.9137359" lon="12.7322026"><ele>44.75</ele><time>2026-04-04T09:18:49.835Z</time></trkpt><trkpt lat="41.9138114" lon="12.7323564"><ele>44.0</ele><time>2026-04-04T09:18:50.835Z</time></trkpt><trkpt lat="41.9138772" lon="12.7324894"><ele>44.0</ele><time>2026-04-04T09:18:51.835Z</time></trkpt><trkpt lat="41.9139368" lon="12.7326109"><ele>44.0</ele><time>2026-04-04T09:18:52.835Z</time></trkpt><trkpt lat="41.9139907" lon="12.7327229"><ele>44.0</ele><time>2026-04-04T09:18:53.835Z</time></trkpt><trkpt lat="41.9140408" lon="12.73283"><ele>44.0</ele><time>2026-04-04T09:18:54.835Z</time></trkpt><trkpt lat="41.9140923" lon="12.7329428"><ele>44.0</ele><time>2026-04-04T09:18:55.835Z</time></trkpt><trkpt lat="41.9141461" lon="12.7330421"><ele>44.166666666666664</ele><time>2026-04-04T09:18:56.835Z</time></trkpt><trkpt lat="41.9141938" lon="12.7331413"><ele>44.33333333333333</ele><time>2026-04-04T09:18:57.835Z</time></trkpt><trkpt lat="41.914241" lon="12.7332428"><ele>44.5</ele><time>2026-04-04T09:18:58.834Z</time></trkpt><trkpt lat="41.9142872" lon="12.733339"><ele>44.666666666666664</ele><time>2026-04-04T09:18:59.835Z</time></trkpt><trkpt lat="41.9143284" lon="12.7334244"><ele>44.833333333333336</ele><time>2026-04-04T09:19:00.835Z</time></trkpt><trkpt lat="41.914366" lon="12.7334963"><ele>45.0</ele><time>2026-04-04T09:19:01.835Z</time></trkpt><trkpt lat="41.9144357" lon="12.7336437"><ele>44.6</ele><time>2026-04-04T09:19:03.835Z</time></trkpt><trkpt lat="41.9144795" lon="12.7337346"><ele>44.2</ele><time>2026-04-04T09:19:04.835Z</time></trkpt><trkpt lat="41.9145314" lon="12.7338351"><ele>43.8</ele><time>2026-04-04T09:19:05.835Z</time></trkpt><trkpt lat="41.9146026" lon="12.7339609"><ele>43.4</ele><time>2026-04-04T09:19:06.835Z</time></trkpt><trkpt lat="41.9146751" lon="12.7341039"><ele>43.0</ele><time>2026-04-04T09:19:07.834Z</time></trkpt><trkpt lat="41.9147615" lon="12.7342744"><ele>43.0</ele><time>2026-04-04T09:19:08.835Z</time></trkpt><trkpt lat="41.9148558" lon="12.7344847"><ele>43.0</ele><time>2026-04-04T09:19:09.835Z</time></trkpt><trkpt lat="41.9149556" lon="12.7347045"><ele>43.0</ele><time>2026-04-04T09:19:10.835Z</time></trkpt><trkpt lat="41.9150732" lon="12.7349433"><ele>42.66666666666667</ele><time>2026-04-04T09:19:11.835Z</time></trkpt><trkpt lat="41.9151992" lon="12.7351857"><ele>42.333333333333336</ele><time>2026-04-04T09:19:12.835Z</time></trkpt><trkpt lat="41.9153358" lon="12.7354271"><ele>42.0</ele><time>2026-04-04T09:19:13.834Z</time></trkpt><trkpt lat="41.9154867" lon="12.7356762"><ele>41.5</ele><time>2026-04-04T09:19:14.834Z</time></trkpt><trkpt lat="41.9156352" lon="12.7359178"><ele>41.0</ele><time>2026-04-04T09:19:15.835Z</time></trkpt><trkpt lat="41.9157827" lon="12.7361555"><ele>42.5</ele><time>2026-04-04T09:19:16.835Z</time></trkpt><trkpt lat="41.9159266" lon="12.7363935"><ele>44.0</ele><time>2026-04-04T09:19:17.835Z</time></trkpt><trkpt lat="41.9160678" lon="12.7366234"><ele>44.0</ele><time>2026-04-04T09:19:18.835Z</time></trkpt><trkpt lat="41.9162092" lon="12.73685"><ele>44.0</ele><time>2026-04-04T09:19:19.835Z</time></trkpt><trkpt lat="41.9163443" lon="12.7370745"><ele>44.0</ele><time>2026-04-04T09:19:20.835Z</time></trkpt><trkpt lat="41.9164735" lon="12.7373006"><ele>45.33333333333333</ele><time>2026-04-04T09:19:21.835Z</time></trkpt><trkpt lat="41.9165947" lon="12.7375248"><ele>46.666666666666664</ele><time>2026-04-04T09:19:22.835Z</time></trkpt><trkpt lat="41.9167141" lon="12.7377457"><ele>48.0</ele><time>2026-04-04T09:19:23.835Z</time></trkpt><trkpt lat="41.9168347" lon="12.7379624"><ele>49.0</ele><time>2026-04-04T09:19:24.835Z</time></trkpt><trkpt lat="41.9169503" lon="12.7381813"><ele>50.0</ele><time>2026-04-04T09:19:25.835Z</time></trkpt><trkpt lat="41.9170657" lon="12.7383991"><ele>51.0</ele><time>2026-04-04T09:19:26.835Z</time></trkpt><trkpt lat="41.9171814" lon="12.7386148"><ele>51.66666666666667</ele><time>2026-04-04T09:19:27.835Z</time></trkpt><trkpt lat="41.9173001" lon="12.7388306"><ele>52.333333333333336</ele><time>2026-04-04T09:19:28.835Z</time></trkpt><trkpt lat="41.9174185" lon="12.73905"><ele>53.0</ele><time>2026-04-04T09:19:29.835Z</time></trkpt><trkpt lat="41.9175375" lon="12.7392634"><ele>54.333333333333336</ele><time>2026-04-04T09:19:30.835Z</time></trkpt><trkpt lat="41.9176599" lon="12.7394714"><ele>55.66666666666667</ele><time>2026-04-04T09:19:31.835Z</time></trkpt><trkpt lat="41.9177789" lon="12.7396831"><ele>57.0</ele><time>2026-04-04T09:19:32.835Z</time></trkpt><trkpt lat="41.9178926" lon="12.7398944"><ele>57.0</ele><time>2026-04-04T09:19:33.835Z</time></trkpt><trkpt lat="41.9179996" lon="12.7401109"><ele>57.0</ele><time>2026-04-04T09:19:34.835Z</time></trkpt><trkpt lat="41.9180999" lon="12.7403333"><ele>57.0</ele><time>2026-04-04T09:19:35.835Z</time></trkpt><trkpt lat="41.9181944" lon="12.7405516"><ele>57.33333333333333</ele><time>2026-04-04T09:19:36.835Z</time></trkpt><trkpt lat="41.918283" lon="12.7407716"><ele>57.666666666666664</ele><time>2026-04-04T09:19:37.835Z</time></trkpt><trkpt lat="41.9183588" lon="12.7409984"><ele>58.0</ele><time>2026-04-04T09:19:38.835Z</time></trkpt><trkpt lat="41.9184235" lon="12.7412276"><ele>58.666666666666664</ele><time>2026-04-04T09:19:39.835Z</time></trkpt><trkpt lat="41.9184824" lon="12.7414586"><ele>59.33333333333333</ele><time>2026-04-04T09:19:40.835Z</time></trkpt><trkpt lat="41.9185421" lon="12.7416977"><ele>60.0</ele><time>2026-04-04T09:19:41.834Z</time></trkpt><trkpt lat="41.9186025" lon="12.7419421"><ele>60.66666666666667</ele><time>2026-04-04T09:19:42.835Z</time></trkpt><trkpt lat="41.9186646" lon="12.7421922"><ele>61.333333333333336</ele><time>2026-04-04T09:19:43.835Z</time></trkpt><trkpt lat="41.9187293" lon="12.7424482"><ele>62.0</ele><time>2026-04-04T09:19:44.835Z</time></trkpt><trkpt lat="41.9187944" lon="12.7427007"><ele>62.66666666666667</ele><time>2026-04-04T09:19:45.835Z</time></trkpt><trkpt lat="41.9188584" lon="12.7429454"><ele>63.33333333333333</ele><time>2026-04-04T09:19:46.835Z</time></trkpt><trkpt lat="41.9189222" lon="12.7431912"><ele>64.0</ele><time>2026-04-04T09:19:47.835Z</time></trkpt><trkpt lat="41.9189872" lon="12.7434332"><ele>64.66666666666666</ele><time>2026-04-04T09:19:48.835Z</time></trkpt><trkpt lat="41.9190567" lon="12.7436725"><ele>65.33333333333333</ele><time>2026-04-04T09:19:49.835Z</time></trkpt><trkpt lat="41.9191287" lon="12.7439083"><ele>66.0</ele><time>2026-04-04T09:19:50.835Z</time></trkpt><trkpt lat="41.9192021" lon="12.7441442"><ele>66.0</ele><time>2026-04-04T09:19:51.835Z</time></trkpt><trkpt lat="41.9192732" lon="12.7443789"><ele>66.0</ele><time>2026-04-04T09:19:52.835Z</time></trkpt><trkpt lat="41.919339" lon="12.7446148"><ele>66.0</ele><time>2026-04-04T09:19:53.835Z</time></trkpt><trkpt lat="41.9194082" lon="12.7448543"><ele>66.0</ele><time>2026-04-04T09:19:54.835Z</time></trkpt><trkpt lat="41.9194766" lon="12.7450794"><ele>66.0</ele><time>2026-04-04T09:19:55.835Z</time></trkpt><trkpt lat="41.9195522" lon="12.74532"><ele>66.0</ele><time>2026-04-04T09:19:56.835Z</time></trkpt><trkpt lat="41.9196203" lon="12.7455565"><ele>66.33333333333333</ele><time>2026-04-04T09:19:57.835Z</time></trkpt><trkpt lat="41.9196912" lon="12.7457897"><ele>66.66666666666666</ele><time>2026-04-04T09:19:58.835Z</time></trkpt><trkpt lat="41.9197593" lon="12.7460173"><ele>67.0</ele><time>2026-04-04T09:19:59.835Z</time></trkpt><trkpt lat="41.919827" lon="12.7462419"><ele>68.33333333333333</ele><time>2026-04-04T09:20:00.835Z</time></trkpt><trkpt lat="41.9198953" lon="12.7464692"><ele>69.66666666666667</ele><time>2026-04-04T09:20:01.835Z</time></trkpt><trkpt lat="41.9199697" lon="12.7467014"><ele>71.0</ele><time>2026-04-04T09:20:02.835Z</time></trkpt><trkpt lat="41.9200532" lon="12.7469329"><ele>70.66666666666667</ele><time>2026-04-04T09:20:03.835Z</time></trkpt><trkpt lat="41.9201451" lon="12.7471608"><ele>70.33333333333333</ele><time>2026-04-04T09:20:04.835Z</time></trkpt><trkpt lat="41.9202437" lon="12.7473778"><ele>70.0</ele><time>2026-04-04T09:20:05.835Z</time></trkpt><trkpt lat="41.9203448" lon="12.7476019"><ele>70.0</ele><time>2026-04-04T09:20:06.835Z</time></trkpt><trkpt lat="41.9204521" lon="12.7478157"><ele>70.0</ele><time>2026-04-04T09:20:07.834Z</time></trkpt><trkpt lat="41.9205531" lon="12.7480236"><ele>70.0</ele><time>2026-04-04T09:20:08.835Z</time></trkpt><trkpt lat="41.9206484" lon="12.7482276"><ele>70.0</ele><time>2026-04-04T09:20:09.835Z</time></trkpt><trkpt lat="41.9207353" lon="12.7484398"><ele>70.0</ele><time>2026-04-04T09:20:10.835Z</time></trkpt><trkpt lat="41.9208067" lon="12.7486527"><ele>70.0</ele><time>2026-04-04T09:20:11.835Z</time></trkpt><trkpt lat="41.9208674" lon="12.7488725"><ele>67.66666666666666</ele><time>2026-04-04T09:20:12.835Z</time></trkpt><trkpt lat="41.9209187" lon="12.7491058"><ele>65.33333333333333</ele><time>2026-04-04T09:20:13.835Z</time></trkpt><trkpt lat="41.9209649" lon="12.749341"><ele>63.0</ele><time>2026-04-04T09:20:14.835Z</time></trkpt><trkpt lat="41.921006" lon="12.7495781"><ele>61.0</ele><time>2026-04-04T09:20:15.835Z</time></trkpt><trkpt lat="41.9210476" lon="12.7498116"><ele>59.0</ele><time>2026-04-04T09:20:16.835Z</time></trkpt><trkpt lat="41.9210891" lon="12.7500443"><ele>57.0</ele><time>2026-04-04T09:20:17.835Z</time></trkpt><trkpt lat="41.9211301" lon="12.750269"><ele>56.0</ele><time>2026-04-04T09:20:18.835Z</time></trkpt><trkpt lat="41.921176" lon="12.7504973"><ele>55.0</ele><time>2026-04-04T09:20:19.835Z</time></trkpt><trkpt lat="41.9212202" lon="12.7507294"><ele>54.0</ele><time>2026-04-04T09:20:20.835Z</time></trkpt><trkpt lat="41.92126" lon="12.7509583"><ele>52.33333333333333</ele><time>2026-04-04T09:20:21.835Z</time></trkpt><trkpt lat="41.9212977" lon="12.7511829"><ele>50.666666666666664</ele><time>2026-04-04T09:20:22.835Z</time></trkpt><trkpt lat="41.9213353" lon="12.7514119"><ele>49.0</ele><time>2026-04-04T09:20:23.835Z</time></trkpt><trkpt lat="41.9213715" lon="12.751633"><ele>49.0</ele><time>2026-04-04T09:20:24.835Z</time></trkpt><trkpt lat="41.9214049" lon="12.7518469"><ele>49.0</ele><time>2026-04-04T09:20:25.835Z</time></trkpt><trkpt lat="41.9214355" lon="12.7520478"><ele>49.0</ele><time>2026-04-04T09:20:26.834Z</time></trkpt><trkpt lat="41.9214629" lon="12.7522346"><ele>48.75</ele><time>2026-04-04T09:20:27.835Z</time></trkpt><trkpt lat="41.9214812" lon="12.752409"><ele>48.5</ele><time>2026-04-04T09:20:28.835Z</time></trkpt><trkpt lat="41.9214939" lon="12.7525727"><ele>48.25</ele><time>2026-04-04T09:20:29.835Z</time></trkpt><trkpt lat="41.9215073" lon="12.7527204"><ele>48.0</ele><time>2026-04-04T09:20:30.835Z</time></trkpt><trkpt lat="41.9215245" lon="12.7528617"><ele>48.8</ele><time>2026-04-04T09:20:31.835Z</time></trkpt><trkpt lat="41.9215522" lon="12.7529948"><ele>49.599999999999994</ele><time>2026-04-04T09:20:32.835Z</time></trkpt><trkpt lat="41.9216043" lon="12.7531137"><ele>50.400000000000006</ele><time>2026-04-04T09:20:33.835Z</time></trkpt><trkpt lat="41.9216764" lon="12.753213"><ele>51.2</ele><time>2026-04-04T09:20:34.835Z</time></trkpt><trkpt lat="41.9217552" lon="12.7533059"><ele>52.0</ele><time>2026-04-04T09:20:35.835Z</time></trkpt><trkpt lat="41.9218495" lon="12.7534072"><ele>52.5</ele><time>2026-04-04T09:20:36.835Z</time></trkpt><trkpt lat="41.9219521" lon="12.7535107"><ele>53.0</ele><time>2026-04-04T09:20:37.835Z</time></trkpt><trkpt lat="41.9220727" lon="12.7536118"><ele>53.5</ele><time>2026-04-04T09:20:38.834Z</time></trkpt><trkpt lat="41.9221951" lon="12.75373"><ele>54.0</ele><time>2026-04-04T09:20:39.835Z</time></trkpt><trkpt lat="41.9223046" lon="12.7538433"><ele>55.0</ele><time>2026-04-04T09:20:40.834Z</time></trkpt><trkpt lat="41.9224092" lon="12.7539484"><ele>56.0</ele><time>2026-04-04T09:20:41.835Z</time></trkpt><trkpt lat="41.9225097" lon="12.7540466"><ele>57.0</ele><time>2026-04-04T09:20:42.835Z</time></trkpt><trkpt lat="41.9226171" lon="12.7541531"><ele>58.0</ele><time>2026-04-04T09:20:43.835Z</time></trkpt><trkpt lat="41.9227572" lon="12.7542842"><ele>61.666666666666664</ele><time>2026-04-04T09:20:44.835Z</time></trkpt><trkpt lat="41.9229001" lon="12.7544194"><ele>65.33333333333333</ele><time>2026-04-04T09:20:45.835Z</time></trkpt><trkpt lat="41.9230591" lon="12.7545643"><ele>69.0</ele><time>2026-04-04T09:20:46.835Z</time></trkpt><trkpt lat="41.9232165" lon="12.7547204"><ele>69.0</ele><time>2026-04-04T09:20:47.835Z</time></trkpt><trkpt lat="41.9233676" lon="12.7548831"><ele>69.0</ele><time>2026-04-04T09:20:48.835Z</time></trkpt><trkpt lat="41.9235204" lon="12.7550406"><ele>69.0</ele><time>2026-04-04T09:20:49.835Z</time></trkpt><trkpt lat="41.9236694" lon="12.7551908"><ele>73.0</ele><time>2026-04-04T09:20:50.835Z</time></trkpt><trkpt lat="41.9238178" lon="12.7553292"><ele>77.0</ele><time>2026-04-04T09:20:51.835Z</time></trkpt><trkpt lat="41.9239599" lon="12.7554605"><ele>81.0</ele><time>2026-04-04T09:20:52.835Z</time></trkpt><trkpt lat="41.9240946" lon="12.7555859"><ele>81.0</ele><time>2026-04-04T09:20:53.835Z</time></trkpt><trkpt lat="41.9242225" lon="12.7556987"><ele>81.0</ele><time>2026-04-04T09:20:54.835Z</time></trkpt><trkpt lat="41.9243489" lon="12.7557934"><ele>81.0</ele><time>2026-04-04T09:20:55.835Z</time></trkpt><trkpt lat="41.9244812" lon="12.75586"><ele>81.0</ele><time>2026-04-04T09:20:56.835Z</time></trkpt><trkpt lat="41.9246219" lon="12.755887"><ele>81.5</ele><time>2026-04-04T09:20:57.835Z</time></trkpt><trkpt lat="41.9247653" lon="12.7558794"><ele>82.0</ele><time>2026-04-04T09:20:58.835Z</time></trkpt><trkpt lat="41.9249062" lon="12.7558384"><ele>82.5</ele><time>2026-04-04T09:20:59.835Z</time></trkpt><trkpt lat="41.9250407" lon="12.7557576"><ele>83.0</ele><time>2026-04-04T09:21:00.835Z</time></trkpt><trkpt lat="41.9251749" lon="12.7556613"><ele>83.0</ele><time>2026-04-04T09:21:01.834Z</time></trkpt><trkpt lat="41.9253136" lon="12.7555664"><ele>83.0</ele><time>2026-04-04T09:21:02.835Z</time></trkpt><trkpt lat="41.9254585" lon="12.7554717"><ele>83.0</ele><time>2026-04-04T09:21:03.835Z</time></trkpt><trkpt lat="41.9256072" lon="12.7553773"><ele>83.0</ele><time>2026-04-04T09:21:04.835Z</time></trkpt><trkpt lat="41.9257589" lon="12.7552834"><ele>83.0</ele><time>2026-04-04T09:21:05.835Z</time></trkpt><trkpt lat="41.9259079" lon="12.7551972"><ele>83.0</ele><time>2026-04-04T09:21:06.835Z</time></trkpt><trkpt lat="41.9260555" lon="12.7551154"><ele>80.66666666666667</ele><time>2026-04-04T09:21:07.835Z</time></trkpt><trkpt lat="41.9262062" lon="12.755038"><ele>78.33333333333333</ele><time>2026-04-04T09:21:08.834Z</time></trkpt><trkpt lat="41.9263597" lon="12.7549577"><ele>76.0</ele><time>2026-04-04T09:21:09.835Z</time></trkpt><trkpt lat="41.9265148" lon="12.754874"><ele>76.0</ele><time>2026-04-04T09:21:10.835Z</time></trkpt><trkpt lat="41.9266731" lon="12.7547924"><ele>76.0</ele><time>2026-04-04T09:21:11.835Z</time></trkpt><trkpt lat="41.9268307" lon="12.7547121"><ele>76.0</ele><time>2026-04-04T09:21:12.835Z</time></trkpt><trkpt lat="41.9269896" lon="12.7546323"><ele>75.66666666666666</ele><time>2026-04-04T09:21:13.835Z</time></trkpt><trkpt lat="41.9271511" lon="12.7545474"><ele>75.33333333333333</ele><time>2026-04-04T09:21:14.835Z</time></trkpt><trkpt lat="41.927307" lon="12.7544719"><ele>75.0</ele><time>2026-04-04T09:21:15.835Z</time></trkpt><trkpt lat="41.9274619" lon="12.7543981"><ele>71.66666666666667</ele><time>2026-04-04T09:21:16.835Z</time></trkpt><trkpt lat="41.927609" lon="12.754322"><ele>68.33333333333334</ele><time>2026-04-04T09:21:17.835Z</time></trkpt><trkpt lat="41.9277552" lon="12.7542504"><ele>65.0</ele><time>2026-04-04T09:21:18.835Z</time></trkpt><trkpt lat="41.9278922" lon="12.754186"><ele>65.0</ele><time>2026-04-04T09:21:19.835Z</time></trkpt><trkpt lat="41.9280488" lon="12.754174"><ele>65.0</ele><time>2026-04-04T09:21:20.835Z</time></trkpt><trkpt lat="41.9281984" lon="12.7541977"><ele>65.0</ele><time>2026-04-04T09:21:21.835Z</time></trkpt><trkpt lat="41.9283533" lon="12.7542399"><ele>64.66666666666667</ele><time>2026-04-04T09:21:22.835Z</time></trkpt><trkpt lat="41.928502" lon="12.7543093"><ele>64.33333333333333</ele><time>2026-04-04T09:21:23.835Z</time></trkpt><trkpt lat="41.9286561" lon="12.7543865"><ele>64.0</ele><time>2026-04-04T09:21:24.835Z</time></trkpt><trkpt lat="41.9288103" lon="12.754476"><ele>62.666666666666664</ele><time>2026-04-04T09:21:25.835Z</time></trkpt><trkpt lat="41.9289669" lon="12.7545651"><ele>61.33333333333333</ele><time>2026-04-04T09:21:26.835Z</time></trkpt><trkpt lat="41.9291274" lon="12.7546561"><ele>60.0</ele><time>2026-04-04T09:21:27.834Z</time></trkpt><trkpt lat="41.9292849" lon="12.7547494"><ele>60.0</ele><time>2026-04-04T09:21:28.835Z</time></trkpt><trkpt lat="41.9294342" lon="12.7548423"><ele>60.0</ele><time>2026-04-04T09:21:29.835Z</time></trkpt><trkpt lat="41.9295838" lon="12.7549259"><ele>60.0</ele><time>2026-04-04T09:21:30.834Z</time></trkpt><trkpt lat="41.9297374" lon="12.7549963"><ele>60.0</ele><time>2026-04-04T09:21:31.835Z</time></trkpt><trkpt lat="41.9298913" lon="12.7550416"><ele>60.0</ele><time>2026-04-04T09:21:32.835Z</time></trkpt><trkpt lat="41.9300494" lon="12.7550515"><ele>60.0</ele><time>2026-04-04T09:21:33.835Z</time></trkpt><trkpt lat="41.9302102" lon="12.7550277"><ele>59.66666666666667</ele><time>2026-04-04T09:21:34.835Z</time></trkpt><trkpt lat="41.9303694" lon="12.7549742"><ele>59.333333333333336</ele><time>2026-04-04T09:21:35.835Z</time></trkpt><trkpt lat="41.9305236" lon="12.7549066"><ele>59.0</ele><time>2026-04-04T09:21:36.835Z</time></trkpt><trkpt lat="41.9306776" lon="12.7548251"><ele>59.0</ele><time>2026-04-04T09:21:37.835Z</time></trkpt><trkpt lat="41.9308205" lon="12.7547338"><ele>59.0</ele><time>2026-04-04T09:21:38.835Z</time></trkpt><trkpt lat="41.930953" lon="12.7546406"><ele>59.0</ele><time>2026-04-04T09:21:39.834Z</time></trkpt><trkpt lat="41.9310814" lon="12.7545528"><ele>58.75</ele><time>2026-04-04T09:21:40.835Z</time></trkpt><trkpt lat="41.9312077" lon="12.7544705"><ele>58.5</ele><time>2026-04-04T09:21:41.835Z</time></trkpt><trkpt lat="41.9313322" lon="12.754403"><ele>58.25</ele><time>2026-04-04T09:21:42.835Z</time></trkpt><trkpt lat="41.9314703" lon="12.7543551"><ele>58.0</ele><time>2026-04-04T09:21:43.835Z</time></trkpt><trkpt lat="41.9316182" lon="12.7543522"><ele>57.33333333333333</ele><time>2026-04-04T09:21:44.835Z</time></trkpt><trkpt lat="41.9317636" lon="12.754377"><ele>56.66666666666667</ele><time>2026-04-04T09:21:45.834Z</time></trkpt><trkpt lat="41.931914" lon="12.7544427"><ele>56.0</ele><time>2026-04-04T09:21:46.835Z</time></trkpt><trkpt lat="41.93206" lon="12.7545346"><ele>56.0</ele><time>2026-04-04T09:21:47.835Z</time></trkpt><trkpt lat="41.9322108" lon="12.7546367"><ele>56.0</ele><time>2026-04-04T09:21:48.834Z</time></trkpt><trkpt lat="41.9323757" lon="12.7547398"><ele>56.0</ele><time>2026-04-04T09:21:49.835Z</time></trkpt><trkpt lat="41.9325437" lon="12.7548393"><ele>55.66666666666667</ele><time>2026-04-04T09:21:50.835Z</time></trkpt><trkpt lat="41.9327082" lon="12.7549343"><ele>55.33333333333333</ele><time>2026-04-04T09:21:51.835Z</time></trkpt><trkpt lat="41.9328735" lon="12.7550173"><ele>55.0</ele><time>2026-04-04T09:21:52.835Z</time></trkpt><trkpt lat="41.9330441" lon="12.7550756"><ele>55.0</ele><time>2026-04-04T09:21:53.835Z</time></trkpt><trkpt lat="41.9332156" lon="12.7551198"><ele>55.0</ele><time>2026-04-04T09:21:54.835Z</time></trkpt><trkpt lat="41.9333959" lon="12.7551063"><ele>55.0</ele><time>2026-04-04T09:21:55.835Z</time></trkpt><trkpt lat="41.933574" lon="12.7550906"><ele>56.33333333333333</ele><time>2026-04-04T09:21:56.835Z</time></trkpt><trkpt lat="41.9337525" lon="12.7550718"><ele>57.66666666666667</ele><time>2026-04-04T09:21:57.835Z</time></trkpt><trkpt lat="41.9339345" lon="12.7550436"><ele>59.0</ele><time>2026-04-04T09:21:58.835Z</time></trkpt><trkpt lat="41.9341193" lon="12.7550119"><ele>60.333333333333336</ele><time>2026-04-04T09:21:59.835Z</time></trkpt><trkpt lat="41.9343083" lon="12.7549779"><ele>61.66666666666667</ele><time>2026-04-04T09:22:00.835Z</time></trkpt><trkpt lat="41.9344991" lon="12.7549362"><ele>63.0</ele><time>2026-04-04T09:22:01.835Z</time></trkpt><trkpt lat="41.9346924" lon="12.7548921"><ele>63.0</ele><time>2026-04-04T09:22:02.835Z</time></trkpt><trkpt lat="41.9348931" lon="12.7548455"><ele>63.0</ele><time>2026-04-04T09:22:03.835Z</time></trkpt><trkpt lat="41.9350897" lon="12.7547982"><ele>63.0</ele><time>2026-04-04T09:22:04.835Z</time></trkpt><trkpt lat="41.9352746" lon="12.7547557"><ele>61.66666666666667</ele><time>2026-04-04T09:22:05.834Z</time></trkpt><trkpt lat="41.9354474" lon="12.7547167"><ele>60.333333333333336</ele><time>2026-04-04T09:22:06.835Z</time></trkpt><trkpt lat="41.9356101" lon="12.7546815"><ele>59.0</ele><time>2026-04-04T09:22:07.835Z</time></trkpt><trkpt lat="41.9357675" lon="12.7546562"><ele>56.0</ele><time>2026-04-04T09:22:08.835Z</time></trkpt><trkpt lat="41.9359195" lon="12.754645"><ele>53.0</ele><time>2026-04-04T09:22:09.835Z</time></trkpt><trkpt lat="41.9360743" lon="12.754646"><ele>50.0</ele><time>2026-04-04T09:22:10.835Z</time></trkpt><trkpt lat="41.9362289" lon="12.7546617"><ele>50.0</ele><time>2026-04-04T09:22:11.835Z</time></trkpt><trkpt lat="41.9363884" lon="12.7546974"><ele>50.0</ele><time>2026-04-04T09:22:12.835Z</time></trkpt><trkpt lat="41.9365439" lon="12.7547532"><ele>50.0</ele><time>2026-04-04T09:22:13.835Z</time></trkpt><trkpt lat="41.9366954" lon="12.7548169"><ele>49.75</ele><time>2026-04-04T09:22:14.835Z</time></trkpt><trkpt lat="41.9368453" lon="12.7548786"><ele>49.5</ele><time>2026-04-04T09:22:15.835Z</time></trkpt><trkpt lat="41.9369827" lon="12.7549335"><ele>49.25</ele><time>2026-04-04T09:22:16.834Z</time></trkpt><trkpt lat="41.9371193" lon="12.7549934"><ele>49.0</ele><time>2026-04-04T09:22:17.835Z</time></trkpt><trkpt lat="41.9372555" lon="12.75505"><ele>49.0</ele><time>2026-04-04T09:22:18.835Z</time></trkpt><trkpt lat="41.9373871" lon="12.7551009"><ele>49.0</ele><time>2026-04-04T09:22:19.835Z</time></trkpt><trkpt lat="41.9375048" lon="12.7551438"><ele>49.0</ele><time>2026-04-04T09:22:20.835Z</time></trkpt><trkpt lat="41.937622" lon="12.7551777"><ele>49.0</ele><time>2026-04-04T09:22:21.835Z</time></trkpt><trkpt lat="41.9377352" lon="12.7552092"><ele>50.75</ele><time>2026-04-04T09:22:22.834Z</time></trkpt><trkpt lat="41.9378539" lon="12.7552399"><ele>52.5</ele><time>2026-04-04T09:22:23.834Z</time></trkpt><trkpt lat="41.9379669" lon="12.7552514"><ele>54.25</ele><time>2026-04-04T09:22:24.835Z</time></trkpt><trkpt lat="41.9380833" lon="12.755264"><ele>56.0</ele><time>2026-04-04T09:22:25.835Z</time></trkpt><trkpt lat="41.9381913" lon="12.7552764"><ele>56.00000000000001</ele><time>2026-04-04T09:22:26.835Z</time></trkpt><trkpt lat="41.9382883" lon="12.7552856"><ele>56.0</ele><time>2026-04-04T09:22:27.835Z</time></trkpt><trkpt lat="41.9383747" lon="12.7552898"><ele>56.0</ele><time>2026-04-04T09:22:28.834Z</time></trkpt><trkpt lat="41.9384548" lon="12.7552899"><ele>56.0</ele><time>2026-04-04T09:22:29.835Z</time></trkpt><trkpt lat="41.9385252" lon="12.755294"><ele>56.00000000000001</ele><time>2026-04-04T09:22:30.835Z</time></trkpt><trkpt lat="41.9386014" lon="12.7553149"><ele>56.0</ele><time>2026-04-04T09:22:33.835Z</time></trkpt><trkpt lat="41.9387165" lon="12.755339"><ele>55.199999999999996</ele><time>2026-04-04T09:22:35.835Z</time></trkpt><trkpt lat="41.9388095" lon="12.7553296"><ele>54.39999999999999</ele><time>2026-04-04T09:22:36.835Z</time></trkpt><trkpt lat="41.938908" lon="12.7553285"><ele>53.6</ele><time>2026-04-04T09:22:37.835Z</time></trkpt><trkpt lat="41.9390155" lon="12.7553256"><ele>52.8</ele><time>2026-04-04T09:22:38.835Z</time></trkpt><trkpt lat="41.9391301" lon="12.7553268"><ele>52.0</ele><time>2026-04-04T09:22:39.835Z</time></trkpt><trkpt lat="41.9392516" lon="12.7553316"><ele>51.25</ele><time>2026-04-04T09:22:40.835Z</time></trkpt><trkpt lat="41.9393783" lon="12.7553396"><ele>50.5</ele><time>2026-04-04T09:22:41.835Z</time></trkpt><trkpt lat="41.9395048" lon="12.7553511"><ele>49.75</ele><time>2026-04-04T09:22:42.835Z</time></trkpt><trkpt lat="41.9396314" lon="12.7553598"><ele>49.0</ele><time>2026-04-04T09:22:43.835Z</time></trkpt><trkpt lat="41.9397578" lon="12.7553703"><ele>49.0</ele><time>2026-04-04T09:22:44.835Z</time></trkpt><trkpt lat="41.9398847" lon="12.755382"><ele>49.0</ele><time>2026-04-04T09:22:45.835Z</time></trkpt><trkpt lat="41.9400196" lon="12.7553887"><ele>49.0</ele><time>2026-04-04T09:22:46.835Z</time></trkpt><trkpt lat="41.9401542" lon="12.7553986"><ele>49.0</ele><time>2026-04-04T09:22:47.835Z</time></trkpt><trkpt lat="41.940291" lon="12.7554133"><ele>49.25</ele><time>2026-04-04T09:22:48.835Z</time></trkpt><trkpt lat="41.9404318" lon="12.7554234"><ele>49.5</ele><time>2026-04-04T09:22:49.834Z</time></trkpt><trkpt lat="41.9405756" lon="12.7554331"><ele>49.75</ele><time>2026-04-04T09:22:50.835Z</time></trkpt><trkpt lat="41.9407241" lon="12.7554399"><ele>50.0</ele><time>2026-04-04T09:22:51.835Z</time></trkpt><trkpt lat="41.940868" lon="12.7554552"><ele>51.75</ele><time>2026-04-04T09:22:52.835Z</time></trkpt><trkpt lat="41.9410171" lon="12.7554659"><ele>53.5</ele><time>2026-04-04T09:22:53.835Z</time></trkpt><trkpt lat="41.9411629" lon="12.7554811"><ele>55.25</ele><time>2026-04-04T09:22:54.835Z</time></trkpt><trkpt lat="41.9413079" lon="12.7554899"><ele>57.0</ele><time>2026-04-04T09:22:55.835Z</time></trkpt><trkpt lat="41.9414545" lon="12.7555"><ele>57.0</ele><time>2026-04-04T09:22:56.835Z</time></trkpt><trkpt lat="41.9416011" lon="12.7555087"><ele>57.0</ele><time>2026-04-04T09:22:57.835Z</time></trkpt><trkpt lat="41.9417446" lon="12.7555218"><ele>57.0</ele><time>2026-04-04T09:22:58.835Z</time></trkpt><trkpt lat="41.9418859" lon="12.7555372"><ele>57.0</ele><time>2026-04-04T09:22:59.835Z</time></trkpt><trkpt lat="41.9420276" lon="12.7555571"><ele>55.75</ele><time>2026-04-04T09:23:00.835Z</time></trkpt><trkpt lat="41.9421675" lon="12.7555997"><ele>54.5</ele><time>2026-04-04T09:23:01.835Z</time></trkpt><trkpt lat="41.9422965" lon="12.7556595"><ele>53.25</ele><time>2026-04-04T09:23:02.835Z</time></trkpt><trkpt lat="41.9424125" lon="12.7557446"><ele>52.0</ele><time>2026-04-04T09:23:03.834Z</time></trkpt><trkpt lat="41.9425232" lon="12.755846"><ele>50.75</ele><time>2026-04-04T09:23:04.835Z</time></trkpt><trkpt lat="41.9426212" lon="12.755966"><ele>49.5</ele><time>2026-04-04T09:23:05.835Z</time></trkpt><trkpt lat="41.9427093" lon="12.7560991"><ele>48.25</ele><time>2026-04-04T09:23:06.835Z</time></trkpt><trkpt lat="41.942784" lon="12.7562507"><ele>47.0</ele><time>2026-04-04T09:23:07.835Z</time></trkpt><trkpt lat="41.9428405" lon="12.7564195"><ele>47.0</ele><time>2026-04-04T09:23:08.835Z</time></trkpt><trkpt lat="41.9428879" lon="12.7566069"><ele>47.0</ele><time>2026-04-04T09:23:09.835Z</time></trkpt><trkpt lat="41.9429257" lon="12.7568059"><ele>47.0</ele><time>2026-04-04T09:23:10.835Z</time></trkpt><trkpt lat="41.9429578" lon="12.7570131"><ele>47.33333333333333</ele><time>2026-04-04T09:23:11.835Z</time></trkpt><trkpt lat="41.9429918" lon="12.7572261"><ele>47.666666666666664</ele><time>2026-04-04T09:23:12.835Z</time></trkpt><trkpt lat="41.9430207" lon="12.7574387"><ele>48.0</ele><time>2026-04-04T09:23:13.835Z</time></trkpt><trkpt lat="41.9430503" lon="12.7576488"><ele>48.0</ele><time>2026-04-04T09:23:14.835Z</time></trkpt><trkpt lat="41.9430869" lon="12.7578506"><ele>48.0</ele><time>2026-04-04T09:23:15.835Z</time></trkpt><trkpt lat="41.9431253" lon="12.7580397"><ele>48.0</ele><time>2026-04-04T09:23:16.834Z</time></trkpt><trkpt lat="41.9431637" lon="12.7582189"><ele>48.0</ele><time>2026-04-04T09:23:17.835Z</time></trkpt><trkpt lat="41.9432116" lon="12.7583952"><ele>48.0</ele><time>2026-04-04T09:23:18.835Z</time></trkpt><trkpt lat="41.9432753" lon="12.7585602"><ele>48.0</ele><time>2026-04-04T09:23:19.835Z</time></trkpt><trkpt lat="41.9433559" lon="12.75871"><ele>48.0</ele><time>2026-04-04T09:23:20.835Z</time></trkpt><trkpt lat="41.943447" lon="12.7588546"><ele>48.0</ele><time>2026-04-04T09:23:21.835Z</time></trkpt><trkpt lat="41.9435547" lon="12.7589944"><ele>48.0</ele><time>2026-04-04T09:23:22.835Z</time></trkpt><trkpt lat="41.9436787" lon="12.7591135"><ele>48.0</ele><time>2026-04-04T09:23:23.835Z</time></trkpt><trkpt lat="41.943815" lon="12.7592066"><ele>48.0</ele><time>2026-04-04T09:23:24.834Z</time></trkpt><trkpt lat="41.9439617" lon="12.7592782"><ele>48.0</ele><time>2026-04-04T09:23:25.835Z</time></trkpt><trkpt lat="41.9441113" lon="12.7593387"><ele>48.0</ele><time>2026-04-04T09:23:26.835Z</time></trkpt><trkpt lat="41.9442526" lon="12.7593899"><ele>48.0</ele><time>2026-04-04T09:23:27.835Z</time></trkpt><trkpt lat="41.9443885" lon="12.7594316"><ele>48.0</ele><time>2026-04-04T09:23:28.835Z</time></trkpt><trkpt lat="41.9445173" lon="12.7594688"><ele>49.2</ele><time>2026-04-04T09:23:29.835Z</time></trkpt><trkpt lat="41.9446373" lon="12.7595021"><ele>50.4</ele><time>2026-04-04T09:23:30.835Z</time></trkpt><trkpt lat="41.9447457" lon="12.7595335"><ele>51.60000000000001</ele><time>2026-04-04T09:23:31.835Z</time></trkpt><trkpt lat="41.944848" lon="12.7595593"><ele>52.800000000000004</ele><time>2026-04-04T09:23:32.835Z</time></trkpt><trkpt lat="41.9449399" lon="12.7595909"><ele>54.0</ele><time>2026-04-04T09:23:33.835Z</time></trkpt><trkpt lat="41.9450197" lon="12.7596237"><ele>53.2</ele><time>2026-04-04T09:23:34.835Z</time></trkpt><trkpt lat="41.9450932" lon="12.7596502"><ele>52.400000000000006</ele><time>2026-04-04T09:23:35.835Z</time></trkpt><trkpt lat="41.9451694" lon="12.7596793"><ele>51.6</ele><time>2026-04-04T09:23:36.835Z</time></trkpt><trkpt lat="41.9452489" lon="12.7597191"><ele>50.8</ele><time>2026-04-04T09:23:37.835Z</time></trkpt><trkpt lat="41.945357" lon="12.7597801"><ele>50.0</ele><time>2026-04-04T09:23:38.835Z</time></trkpt><trkpt lat="41.9454731" lon="12.7598227"><ele>50.0</ele><time>2026-04-04T09:23:39.834Z</time></trkpt><trkpt lat="41.9456068" lon="12.7598456"><ele>50.0</ele><time>2026-04-04T09:23:40.835Z</time></trkpt><trkpt lat="41.9457545" lon="12.7598677"><ele>50.0</ele><time>2026-04-04T09:23:41.835Z</time></trkpt><trkpt lat="41.9459057" lon="12.7598894"><ele>50.0</ele><time>2026-04-04T09:23:42.835Z</time></trkpt><trkpt lat="41.946075" lon="12.7599237"><ele>49.333333333333336</ele><time>2026-04-04T09:23:43.835Z</time></trkpt><trkpt lat="41.9462502" lon="12.7599687"><ele>48.66666666666667</ele><time>2026-04-04T09:23:44.835Z</time></trkpt><trkpt lat="41.9464245" lon="12.7600153"><ele>48.0</ele><time>2026-04-04T09:23:45.835Z</time></trkpt><trkpt lat="41.9466034" lon="12.7600662"><ele>48.0</ele><time>2026-04-04T09:23:46.835Z</time></trkpt><trkpt lat="41.9467804" lon="12.7601222"><ele>48.0</ele><time>2026-04-04T09:23:47.835Z</time></trkpt><trkpt lat="41.9469508" lon="12.7601782"><ele>48.0</ele><time>2026-04-04T09:23:48.835Z</time></trkpt><trkpt lat="41.9471091" lon="12.7602283"><ele>48.0</ele><time>2026-04-04T09:23:49.835Z</time></trkpt><trkpt lat="41.9472638" lon="12.7602742"><ele>48.0</ele><time>2026-04-04T09:23:50.835Z</time></trkpt><trkpt lat="41.9473868" lon="12.7603065"><ele>48.0</ele><time>2026-04-04T09:23:51.835Z</time></trkpt><trkpt lat="41.9475159" lon="12.7603486"><ele>48.0</ele><time>2026-04-04T09:23:52.835Z</time></trkpt><trkpt lat="41.9476551" lon="12.7603848"><ele>48.0</ele><time>2026-04-04T09:23:53.835Z</time></trkpt><trkpt lat="41.9477995" lon="12.760422"><ele>48.0</ele><time>2026-04-04T09:23:54.835Z</time></trkpt><trkpt lat="41.9479442" lon="12.7604603"><ele>48.0</ele><time>2026-04-04T09:23:55.835Z</time></trkpt><trkpt lat="41.9480921" lon="12.7605033"><ele>48.0</ele><time>2026-04-04T09:23:56.835Z</time></trkpt><trkpt lat="41.9482287" lon="12.7605473"><ele>48.0</ele><time>2026-04-04T09:23:57.835Z</time></trkpt><trkpt lat="41.9483609" lon="12.7605855"><ele>48.0</ele><time>2026-04-04T09:23:58.835Z</time></trkpt><trkpt lat="41.9484835" lon="12.7606246"><ele>48.0</ele><time>2026-04-04T09:23:59.835Z</time></trkpt><trkpt lat="41.9486018" lon="12.760663"><ele>48.0</ele><time>2026-04-04T09:24:00.835Z</time></trkpt><trkpt lat="41.9487238" lon="12.7607011"><ele>48.0</ele><time>2026-04-04T09:24:01.835Z</time></trkpt><trkpt lat="41.948847" lon="12.7607385"><ele>48.0</ele><time>2026-04-04T09:24:02.835Z</time></trkpt><trkpt lat="41.9489738" lon="12.7607795"><ele>48.0</ele><time>2026-04-04T09:24:03.835Z</time></trkpt><trkpt lat="41.9490935" lon="12.7608155"><ele>48.0</ele><time>2026-04-04T09:24:04.835Z</time></trkpt><trkpt lat="41.9492115" lon="12.7608513"><ele>47.75</ele><time>2026-04-04T09:24:05.835Z</time></trkpt><trkpt lat="41.9493234" lon="12.7608812"><ele>47.5</ele><time>2026-04-04T09:24:06.835Z</time></trkpt><trkpt lat="41.9494377" lon="12.7609132"><ele>47.25</ele><time>2026-04-04T09:24:07.835Z</time></trkpt><trkpt lat="41.9495538" lon="12.7609487"><ele>47.0</ele><time>2026-04-04T09:24:08.834Z</time></trkpt><trkpt lat="41.9496709" lon="12.760983"><ele>47.0</ele><time>2026-04-04T09:24:09.835Z</time></trkpt><trkpt lat="41.9497897" lon="12.7610177"><ele>47.0</ele><time>2026-04-04T09:24:10.835Z</time></trkpt><trkpt lat="41.949902" lon="12.7610522"><ele>47.0</ele><time>2026-04-04T09:24:11.835Z</time></trkpt><trkpt lat="41.9500185" lon="12.7610837"><ele>47.0</ele><time>2026-04-04T09:24:12.835Z</time></trkpt><trkpt lat="41.950134" lon="12.7611159"><ele>47.25</ele><time>2026-04-04T09:24:13.834Z</time></trkpt><trkpt lat="41.9502487" lon="12.7611515"><ele>47.5</ele><time>2026-04-04T09:24:14.835Z</time></trkpt><trkpt lat="41.9503593" lon="12.7611841"><ele>47.75</ele><time>2026-04-04T09:24:15.835Z</time></trkpt><trkpt lat="41.9504677" lon="12.7612157"><ele>48.0</ele><time>2026-04-04T09:24:16.835Z</time></trkpt><trkpt lat="41.9505795" lon="12.7612421"><ele>48.0</ele><time>2026-04-04T09:24:17.835Z</time></trkpt><trkpt lat="41.9506962" lon="12.761269"><ele>48.0</ele><time>2026-04-04T09:24:18.835Z</time></trkpt><trkpt lat="41.9508061" lon="12.7613004"><ele>48.0</ele><time>2026-04-04T09:24:19.835Z</time></trkpt><trkpt lat="41.9509246" lon="12.7613405"><ele>48.0</ele><time>2026-04-04T09:24:20.835Z</time></trkpt><trkpt lat="41.9510385" lon="12.761391"><ele>47.75</ele><time>2026-04-04T09:24:21.835Z</time></trkpt><trkpt lat="41.9511509" lon="12.7614489"><ele>47.5</ele><time>2026-04-04T09:24:22.835Z</time></trkpt><trkpt lat="41.9512564" lon="12.7615082"><ele>47.25</ele><time>2026-04-04T09:24:23.835Z</time></trkpt><trkpt lat="41.951359" lon="12.7615681"><ele>47.0</ele><time>2026-04-04T09:24:24.835Z</time></trkpt><trkpt lat="41.9514752" lon="12.7616337"><ele>47.0</ele><time>2026-04-04T09:24:25.835Z</time></trkpt><trkpt lat="41.9515974" lon="12.7616929"><ele>47.0</ele><time>2026-04-04T09:24:26.835Z</time></trkpt><trkpt lat="41.9517232" lon="12.7617413"><ele>47.0</ele><time>2026-04-04T09:24:27.834Z</time></trkpt><trkpt lat="41.951851" lon="12.7617869"><ele>47.0</ele><time>2026-04-04T09:24:28.835Z</time></trkpt><trkpt lat="41.9519744" lon="12.7618229"><ele>47.25</ele><time>2026-04-04T09:24:29.835Z</time></trkpt><trkpt lat="41.9521049" lon="12.7618497"><ele>47.5</ele><time>2026-04-04T09:24:30.835Z</time></trkpt><trkpt lat="41.9522373" lon="12.7618758"><ele>47.75</ele><time>2026-04-04T09:24:31.835Z</time></trkpt><trkpt lat="41.9523692" lon="12.7618959"><ele>48.0</ele><time>2026-04-04T09:24:32.835Z</time></trkpt><trkpt lat="41.9524991" lon="12.7619109"><ele>48.0</ele><time>2026-04-04T09:24:33.835Z</time></trkpt><trkpt lat="41.9526285" lon="12.7619523"><ele>48.0</ele><time>2026-04-04T09:24:34.835Z</time></trkpt><trkpt lat="41.9527637" lon="12.7620182"><ele>48.0</ele><time>2026-04-04T09:24:35.835Z</time></trkpt><trkpt lat="41.9529016" lon="12.7620832"><ele>48.0</ele><time>2026-04-04T09:24:36.835Z</time></trkpt><trkpt lat="41.9530355" lon="12.7621461"><ele>48.0</ele><time>2026-04-04T09:24:37.835Z</time></trkpt><trkpt lat="41.953168" lon="12.762216"><ele>48.0</ele><time>2026-04-04T09:24:38.835Z</time></trkpt><trkpt lat="41.9532938" lon="12.7622803"><ele>48.0</ele><time>2026-04-04T09:24:39.835Z</time></trkpt><trkpt lat="41.9534145" lon="12.7623437"><ele>48.0</ele><time>2026-04-04T09:24:40.835Z</time></trkpt><trkpt lat="41.9535374" lon="12.7624114"><ele>48.0</ele><time>2026-04-04T09:24:41.835Z</time></trkpt><trkpt lat="41.95365" lon="12.7624754"><ele>48.0</ele><time>2026-04-04T09:24:42.834Z</time></trkpt><trkpt lat="41.953759" lon="12.7625295"><ele>48.0</ele><time>2026-04-04T09:24:43.835Z</time></trkpt><trkpt lat="41.9538548" lon="12.7625761"><ele>48.0</ele><time>2026-04-04T09:24:44.835Z</time></trkpt><trkpt lat="41.953958" lon="12.7626244"><ele>48.0</ele><time>2026-04-04T09:24:45.835Z</time></trkpt><trkpt lat="41.9540551" lon="12.7626712"><ele>48.0</ele><time>2026-04-04T09:24:46.835Z</time></trkpt><trkpt lat="41.9541469" lon="12.7627161"><ele>48.0</ele><time>2026-04-04T09:24:47.835Z</time></trkpt><trkpt lat="41.9542327" lon="12.7627682"><ele>48.0</ele><time>2026-04-04T09:24:48.835Z</time></trkpt><trkpt lat="41.9543067" lon="12.762842"><ele>48.0</ele><time>2026-04-04T09:24:49.835Z</time></trkpt><trkpt lat="41.9543689" lon="12.7629222"><ele>48.8</ele><time>2026-04-04T09:24:50.835Z</time></trkpt><trkpt lat="41.9544181" lon="12.7630101"><ele>49.599999999999994</ele><time>2026-04-04T09:24:51.835Z</time></trkpt><trkpt lat="41.9544533" lon="12.7631109"><ele>50.400000000000006</ele><time>2026-04-04T09:24:52.835Z</time></trkpt><trkpt lat="41.9544868" lon="12.7632173"><ele>51.2</ele><time>2026-04-04T09:24:53.835Z</time></trkpt><trkpt lat="41.9545178" lon="12.7633444"><ele>52.0</ele><time>2026-04-04T09:24:54.835Z</time></trkpt><trkpt lat="41.9545522" lon="12.7634926"><ele>52.75</ele><time>2026-04-04T09:24:55.835Z</time></trkpt><trkpt lat="41.9545904" lon="12.7636504"><ele>53.5</ele><time>2026-04-04T09:24:56.834Z</time></trkpt><trkpt lat="41.9546231" lon="12.7637925"><ele>54.25</ele><time>2026-04-04T09:24:57.835Z</time></trkpt><trkpt lat="41.9546563" lon="12.7639352"><ele>55.0</ele><time>2026-04-04T09:24:58.835Z</time></trkpt><trkpt lat="41.9546897" lon="12.7640754"><ele>55.0</ele><time>2026-04-04T09:24:59.835Z</time></trkpt><trkpt lat="41.9547222" lon="12.7642053"><ele>55.0</ele><time>2026-04-04T09:25:00.835Z</time></trkpt><trkpt lat="41.9547509" lon="12.764325"><ele>55.0</ele><time>2026-04-04T09:25:01.835Z</time></trkpt><trkpt lat="41.9547775" lon="12.7644364"><ele>55.0</ele><time>2026-04-04T09:25:02.835Z</time></trkpt><trkpt lat="41.9548057" lon="12.7645583"><ele>55.0</ele><time>2026-04-04T09:25:03.835Z</time></trkpt><trkpt lat="41.9548344" lon="12.764683"><ele>55.166666666666664</ele><time>2026-04-04T09:25:04.835Z</time></trkpt><trkpt lat="41.9548609" lon="12.7647918"><ele>55.33333333333333</ele><time>2026-04-04T09:25:05.835Z</time></trkpt><trkpt lat="41.9548866" lon="12.764894"><ele>55.5</ele><time>2026-04-04T09:25:06.835Z</time></trkpt><trkpt lat="41.9549149" lon="12.7650082"><ele>55.66666666666667</ele><time>2026-04-04T09:25:07.835Z</time></trkpt><trkpt lat="41.9549361" lon="12.7651008"><ele>55.833333333333336</ele><time>2026-04-04T09:25:08.835Z</time></trkpt><trkpt lat="41.9549602" lon="12.7652106"><ele>56.0</ele><time>2026-04-04T09:25:10.835Z</time></trkpt><trkpt lat="41.9550289" lon="12.7652512"><ele>57.75</ele><time>2026-04-04T09:25:13.835Z</time></trkpt><trkpt lat="41.9550688" lon="12.7651139"><ele>59.5</ele><time>2026-04-04T09:25:15.835Z</time></trkpt><trkpt lat="41.9551035" lon="12.7649555"><ele>61.25</ele><time>2026-04-04T09:25:16.835Z</time></trkpt><trkpt lat="41.9551564" lon="12.76473"><ele>63.0</ele><time>2026-04-04T09:25:17.835Z</time></trkpt><trkpt lat="41.9552135" lon="12.7644784"><ele>61.33333333333333</ele><time>2026-04-04T09:25:18.835Z</time></trkpt><trkpt lat="41.9552842" lon="12.764252"><ele>59.666666666666664</ele><time>2026-04-04T09:25:19.835Z</time></trkpt><trkpt lat="41.9553575" lon="12.7640393"><ele>58.0</ele><time>2026-04-04T09:25:20.835Z</time></trkpt><trkpt lat="41.9554384" lon="12.7638471"><ele>58.0</ele><time>2026-04-04T09:25:21.835Z</time></trkpt><trkpt lat="41.9555214" lon="12.7636661"><ele>58.0</ele><time>2026-04-04T09:25:22.835Z</time></trkpt><trkpt lat="41.9556261" lon="12.7634713"><ele>58.0</ele><time>2026-04-04T09:25:23.835Z</time></trkpt><trkpt lat="41.9557266" lon="12.7632819"><ele>57.75</ele><time>2026-04-04T09:25:24.835Z</time></trkpt><trkpt lat="41.9558197" lon="12.7631156"><ele>57.5</ele><time>2026-04-04T09:25:25.834Z</time></trkpt><trkpt lat="41.9559001" lon="12.7629726"><ele>57.25</ele><time>2026-04-04T09:25:26.835Z</time></trkpt><trkpt lat="41.9559739" lon="12.7628427"><ele>57.0</ele><time>2026-04-04T09:25:27.835Z</time></trkpt><trkpt lat="41.9560476" lon="12.7627098"><ele>56.75</ele><time>2026-04-04T09:25:28.834Z</time></trkpt><trkpt lat="41.9561263" lon="12.762574"><ele>56.5</ele><time>2026-04-04T09:25:29.835Z</time></trkpt><trkpt lat="41.9562006" lon="12.7624419"><ele>56.25</ele><time>2026-04-04T09:25:30.835Z</time></trkpt><trkpt lat="41.9562696" lon="12.7623124"><ele>56.0</ele><time>2026-04-04T09:25:31.835Z</time></trkpt><trkpt lat="41.956335" lon="12.7621934"><ele>56.0</ele><time>2026-04-04T09:25:32.835Z</time></trkpt><trkpt lat="41.9563942" lon="12.7620869"><ele>55.99999999999999</ele><time>2026-04-04T09:25:33.835Z</time></trkpt><trkpt lat="41.9564646" lon="12.7619992"><ele>55.99999999999999</ele><time>2026-04-04T09:25:34.835Z</time></trkpt><trkpt lat="41.956548" lon="12.7619407"><ele>56.0</ele><time>2026-04-04T09:25:35.835Z</time></trkpt><trkpt lat="41.9566462" lon="12.7619221"><ele>56.0</ele><time>2026-04-04T09:25:36.835Z</time></trkpt><trkpt lat="41.9567659" lon="12.7619366"><ele>56.0</ele><time>2026-04-04T09:25:37.835Z</time></trkpt><trkpt lat="41.9568957" lon="12.7620036"><ele>56.0</ele><time>2026-04-04T09:25:38.835Z</time></trkpt><trkpt lat="41.9570422" lon="12.7620831"><ele>56.0</ele><time>2026-04-04T09:25:39.835Z</time></trkpt><trkpt lat="41.9571638" lon="12.7621364"><ele>56.0</ele><time>2026-04-04T09:25:40.835Z</time></trkpt><trkpt lat="41.957269" lon="12.7621664"><ele>56.00000000000001</ele><time>2026-04-04T09:25:41.835Z</time></trkpt><trkpt lat="41.957357" lon="12.7621747"><ele>56.0</ele><time>2026-04-04T09:25:42.835Z</time></trkpt><trkpt lat="41.9574306" lon="12.7621613"><ele>56.0</ele><time>2026-04-04T09:25:43.835Z</time></trkpt><trkpt lat="41.9575009" lon="12.7621532"><ele>56.0</ele><time>2026-04-04T09:25:44.835Z</time></trkpt><trkpt lat="41.9575821" lon="12.76217"><ele>56.00000000000001</ele><time>2026-04-04T09:25:45.834Z</time></trkpt><trkpt lat="41.9576837" lon="12.7621826"><ele>56.0</ele><time>2026-04-04T09:25:46.835Z</time></trkpt><trkpt lat="41.9577992" lon="12.7621603"><ele>56.5</ele><time>2026-04-04T09:25:47.835Z</time></trkpt><trkpt lat="41.9579083" lon="12.7621072"><ele>57.0</ele><time>2026-04-04T09:25:48.835Z</time></trkpt><trkpt lat="41.9580333" lon="12.7620617"><ele>57.5</ele><time>2026-04-04T09:25:49.835Z</time></trkpt><trkpt lat="41.9581657" lon="12.76202"><ele>58.0</ele><time>2026-04-04T09:25:50.835Z</time></trkpt><trkpt lat="41.9582921" lon="12.7619406"><ele>59.0</ele><time>2026-04-04T09:25:51.835Z</time></trkpt><trkpt lat="41.9584095" lon="12.7618414"><ele>60.0</ele><time>2026-04-04T09:25:52.835Z</time></trkpt><trkpt lat="41.9585196" lon="12.7617512"><ele>61.0</ele><time>2026-04-04T09:25:53.835Z</time></trkpt><trkpt lat="41.9586227" lon="12.7616767"><ele>62.0</ele><time>2026-04-04T09:25:54.835Z</time></trkpt><trkpt lat="41.9587338" lon="12.7616216"><ele>62.0</ele><time>2026-04-04T09:25:55.835Z</time></trkpt><trkpt lat="41.9588473" lon="12.7615784"><ele>62.0</ele><time>2026-04-04T09:25:56.835Z</time></trkpt><trkpt lat="41.9589603" lon="12.7615373"><ele>62.0</ele><time>2026-04-04T09:25:57.835Z</time></trkpt><trkpt lat="41.9590824" lon="12.7615"><ele>62.0</ele><time>2026-04-04T09:25:58.835Z</time></trkpt><trkpt lat="41.9592207" lon="12.761464"><ele>62.333333333333336</ele><time>2026-04-04T09:25:59.835Z</time></trkpt><trkpt lat="41.9593715" lon="12.761431"><ele>62.66666666666667</ele><time>2026-04-04T09:26:00.835Z</time></trkpt><trkpt lat="41.9595192" lon="12.7614069"><ele>63.0</ele><time>2026-04-04T09:26:01.835Z</time></trkpt><trkpt lat="41.9596691" lon="12.7613844"><ele>63.0</ele><time>2026-04-04T09:26:02.835Z</time></trkpt><trkpt lat="41.9598193" lon="12.761366"><ele>63.0</ele><time>2026-04-04T09:26:03.835Z</time></trkpt><trkpt lat="41.9599705" lon="12.7613516"><ele>63.0</ele><time>2026-04-04T09:26:04.835Z</time></trkpt><trkpt lat="41.9601271" lon="12.7613397"><ele>62.66666666666667</ele><time>2026-04-04T09:26:05.834Z</time></trkpt><trkpt lat="41.9602821" lon="12.7613359"><ele>62.333333333333336</ele><time>2026-04-04T09:26:06.835Z</time></trkpt><trkpt lat="41.9604339" lon="12.7613308"><ele>62.0</ele><time>2026-04-04T09:26:07.835Z</time></trkpt><trkpt lat="41.9605912" lon="12.7613259"><ele>62.0</ele><time>2026-04-04T09:26:08.835Z</time></trkpt><trkpt lat="41.960747" lon="12.761329"><ele>62.0</ele><time>2026-04-04T09:26:09.835Z</time></trkpt><trkpt lat="41.9609031" lon="12.7613387"><ele>62.0</ele><time>2026-04-04T09:26:10.835Z</time></trkpt><trkpt lat="41.9610613" lon="12.7613427"><ele>63.333333333333336</ele><time>2026-04-04T09:26:11.835Z</time></trkpt><trkpt lat="41.9612237" lon="12.7613271"><ele>64.66666666666667</ele><time>2026-04-04T09:26:12.835Z</time></trkpt><trkpt lat="41.9613789" lon="12.7612939"><ele>66.0</ele><time>2026-04-04T09:26:13.835Z</time></trkpt><trkpt lat="41.9615309" lon="12.7612497"><ele>66.0</ele><time>2026-04-04T09:26:14.835Z</time></trkpt><trkpt lat="41.9616739" lon="12.7611846"><ele>66.0</ele><time>2026-04-04T09:26:15.835Z</time></trkpt><trkpt lat="41.9618115" lon="12.7611087"><ele>66.0</ele><time>2026-04-04T09:26:16.834Z</time></trkpt><trkpt lat="41.96195" lon="12.7610346"><ele>66.0</ele><time>2026-04-04T09:26:17.835Z</time></trkpt><trkpt lat="41.9620888" lon="12.7609701"><ele>66.25</ele><time>2026-04-04T09:26:18.835Z</time></trkpt><trkpt lat="41.9622345" lon="12.7609283"><ele>66.5</ele><time>2026-04-04T09:26:19.835Z</time></trkpt><trkpt lat="41.9623821" lon="12.7609058"><ele>66.75</ele><time>2026-04-04T09:26:20.835Z</time></trkpt><trkpt lat="41.9625178" lon="12.7608986"><ele>67.0</ele><time>2026-04-04T09:26:21.835Z</time></trkpt><trkpt lat="41.9626353" lon="12.7608971"><ele>67.0</ele><time>2026-04-04T09:26:22.835Z</time></trkpt><trkpt lat="41.9627317" lon="12.7608941"><ele>67.0</ele><time>2026-04-04T09:26:23.835Z</time></trkpt><trkpt lat="41.962819" lon="12.7608862"><ele>67.0</ele><time>2026-04-04T09:26:24.835Z</time></trkpt><trkpt lat="41.9629035" lon="12.7608762"><ele>67.0</ele><time>2026-04-04T09:26:25.835Z</time></trkpt><trkpt lat="41.9629961" lon="12.7608716"><ele>67.0</ele><time>2026-04-04T09:26:26.835Z</time></trkpt><trkpt lat="41.9631005" lon="12.7608662"><ele>67.0</ele><time>2026-04-04T09:26:27.835Z</time></trkpt><trkpt lat="41.9632084" lon="12.760875"><ele>67.0</ele><time>2026-04-04T09:26:28.835Z</time></trkpt><trkpt lat="41.9633204" lon="12.7609039"><ele>67.0</ele><time>2026-04-04T09:26:29.835Z</time></trkpt><trkpt lat="41.9634367" lon="12.7609467"><ele>67.0</ele><time>2026-04-04T09:26:30.835Z</time></trkpt><trkpt lat="41.9635625" lon="12.7609718"><ele>67.25</ele><time>2026-04-04T09:26:31.835Z</time></trkpt><trkpt lat="41.9636882" lon="12.7609932"><ele>67.5</ele><time>2026-04-04T09:26:32.835Z</time></trkpt><trkpt lat="41.9638402" lon="12.7609795"><ele>67.75</ele><time>2026-04-04T09:26:33.835Z</time></trkpt><trkpt lat="41.9639907" lon="12.7609744"><ele>68.0</ele><time>2026-04-04T09:26:34.835Z</time></trkpt><trkpt lat="41.9641454" lon="12.7609718"><ele>68.75</ele><time>2026-04-04T09:26:35.835Z</time></trkpt><trkpt lat="41.9642976" lon="12.760965"><ele>69.5</ele><time>2026-04-04T09:26:36.835Z</time></trkpt><trkpt lat="41.9644437" lon="12.7609612"><ele>70.25</ele><time>2026-04-04T09:26:37.835Z</time></trkpt><trkpt lat="41.9645847" lon="12.7609577"><ele>71.0</ele><time>2026-04-04T09:26:38.835Z</time></trkpt><trkpt lat="41.9647179" lon="12.7609526"><ele>71.0</ele><time>2026-04-04T09:26:39.835Z</time></trkpt><trkpt lat="41.9648501" lon="12.7609497"><ele>71.0</ele><time>2026-04-04T09:26:40.835Z</time></trkpt><trkpt lat="41.9649736" lon="12.7609452"><ele>71.0</ele><time>2026-04-04T09:26:41.835Z</time></trkpt><trkpt lat="41.9650853" lon="12.760942"><ele>71.0</ele><time>2026-04-04T09:26:42.835Z</time></trkpt><trkpt lat="41.9651851" lon="12.7609449"><ele>71.8</ele><time>2026-04-04T09:26:43.835Z</time></trkpt><trkpt lat="41.965272" lon="12.7609513"><ele>72.6</ele><time>2026-04-04T09:26:44.835Z</time></trkpt><trkpt lat="41.9653469" lon="12.7609498"><ele>73.4</ele><time>2026-04-04T09:26:46.834Z</time></trkpt><trkpt lat="41.965436" lon="12.760948"><ele>74.2</ele><time>2026-04-04T09:26:49.835Z</time></trkpt><trkpt lat="41.9655544" lon="12.7609495"><ele>75.0</ele><time>2026-04-04T09:26:51.835Z</time></trkpt><trkpt lat="41.9656384" lon="12.7609474"><ele>75.0</ele><time>2026-04-04T09:26:52.835Z</time></trkpt><trkpt lat="41.9657316" lon="12.7609473"><ele>75.0</ele><time>2026-04-04T09:26:53.835Z</time></trkpt><trkpt lat="41.965833" lon="12.7609415"><ele>75.0</ele><time>2026-04-04T09:26:54.835Z</time></trkpt><trkpt lat="41.9659509" lon="12.760933"><ele>75.0</ele><time>2026-04-04T09:26:55.835Z</time></trkpt><trkpt lat="41.9660754" lon="12.7609379"><ele>75.0</ele><time>2026-04-04T09:26:56.835Z</time></trkpt><trkpt lat="41.9662109" lon="12.760925"><ele>74.5</ele><time>2026-04-04T09:26:57.835Z</time></trkpt><trkpt lat="41.9663442" lon="12.7609184"><ele>74.0</ele><time>2026-04-04T09:26:58.835Z</time></trkpt><trkpt lat="41.9664696" lon="12.760916"><ele>73.5</ele><time>2026-04-04T09:26:59.835Z</time></trkpt><trkpt lat="41.966572" lon="12.7609155"><ele>73.0</ele><time>2026-04-04T09:27:00.835Z</time></trkpt><trkpt lat="41.9666711" lon="12.7609106"><ele>73.2</ele><time>2026-04-04T09:27:01.835Z</time></trkpt><trkpt lat="41.9667758" lon="12.7609038"><ele>73.4</ele><time>2026-04-04T09:27:02.835Z</time></trkpt><trkpt lat="41.9668868" lon="12.7608935"><ele>73.60000000000001</ele><time>2026-04-04T09:27:03.834Z</time></trkpt><trkpt lat="41.9669925" lon="12.7608834"><ele>73.8</ele><time>2026-04-04T09:27:04.834Z</time></trkpt><trkpt lat="41.9671012" lon="12.76087"><ele>74.0</ele><time>2026-04-04T09:27:05.835Z</time></trkpt><trkpt lat="41.9672087" lon="12.7608641"><ele>74.0</ele><time>2026-04-04T09:27:06.835Z</time></trkpt><trkpt lat="41.9673236" lon="12.7608544"><ele>74.0</ele><time>2026-04-04T09:27:07.834Z</time></trkpt><trkpt lat="41.9674422" lon="12.7608443"><ele>74.0</ele><time>2026-04-04T09:27:08.835Z</time></trkpt><trkpt lat="41.9675692" lon="12.7608429"><ele>74.0</ele><time>2026-04-04T09:27:09.835Z</time></trkpt><trkpt lat="41.9676929" lon="12.7608525"><ele>74.0</ele><time>2026-04-04T09:27:10.835Z</time></trkpt><trkpt lat="41.9678161" lon="12.7608718"><ele>74.0</ele><time>2026-04-04T09:27:11.835Z</time></trkpt><trkpt lat="41.9679438" lon="12.7609015"><ele>74.0</ele><time>2026-04-04T09:27:12.835Z</time></trkpt><trkpt lat="41.9680664" lon="12.760929"><ele>74.0</ele><time>2026-04-04T09:27:13.835Z</time></trkpt><trkpt lat="41.9681592" lon="12.7609643"><ele>74.0</ele><time>2026-04-04T09:27:14.835Z</time></trkpt><trkpt lat="41.9682344" lon="12.7609899"><ele>74.0</ele><time>2026-04-04T09:27:15.835Z</time></trkpt><trkpt lat="41.9683116" lon="12.7610118"><ele>74.0</ele><time>2026-04-04T09:27:16.834Z</time></trkpt><trkpt lat="41.9683875" lon="12.761031"><ele>74.0</ele><time>2026-04-04T09:27:17.835Z</time></trkpt><trkpt lat="41.9684839" lon="12.7610515"><ele>74.0</ele><time>2026-04-04T09:27:18.835Z</time></trkpt><trkpt lat="41.9685664" lon="12.7610687"><ele>74.0</ele><time>2026-04-04T09:27:19.835Z</time></trkpt><trkpt lat="41.9686452" lon="12.7610916"><ele>74.0</ele><time>2026-04-04T09:27:20.835Z</time></trkpt><trkpt lat="41.9687199" lon="12.7611099"><ele>74.0</ele><time>2026-04-04T09:27:21.835Z</time></trkpt><trkpt lat="41.9688088" lon="12.7611421"><ele>74.0</ele><time>2026-04-04T09:27:23.835Z</time></trkpt><trkpt lat="41.9688763" lon="12.7611674"><ele>74.0</ele><time>2026-04-04T09:27:25.835Z</time></trkpt><trkpt lat="41.968961" lon="12.7612005"><ele>74.0</ele><time>2026-04-04T09:27:27.835Z</time></trkpt><trkpt lat="41.9690703" lon="12.761245"><ele>74.0</ele><time>2026-04-04T09:27:30.835Z</time></trkpt><trkpt lat="41.969198" lon="12.7612999"><ele>74.0</ele><time>2026-04-04T09:27:32.835Z</time></trkpt><trkpt lat="41.9692784" lon="12.7613389"><ele>74.0</ele><time>2026-04-04T09:27:33.835Z</time></trkpt><trkpt lat="41.9693631" lon="12.7613752"><ele>74.0</ele><time>2026-04-04T09:27:34.835Z</time></trkpt><trkpt lat="41.9694555" lon="12.7614192"><ele>74.0</ele><time>2026-04-04T09:27:35.835Z</time></trkpt><trkpt lat="41.969552" lon="12.7614644"><ele>74.0</ele><time>2026-04-04T09:27:36.835Z</time></trkpt><trkpt lat="41.9696558" lon="12.7615139"><ele>74.0</ele><time>2026-04-04T09:27:37.835Z</time></trkpt><trkpt lat="41.9697583" lon="12.7615556"><ele>74.0</ele><time>2026-04-04T09:27:38.835Z</time></trkpt><trkpt lat="41.9698652" lon="12.7615889"><ele>74.0</ele><time>2026-04-04T09:27:39.835Z</time></trkpt><trkpt lat="41.9699602" lon="12.7616207"><ele>74.0</ele><time>2026-04-04T09:27:40.835Z</time></trkpt><trkpt lat="41.9700434" lon="12.7616402"><ele>74.0</ele><time>2026-04-04T09:27:41.835Z</time></trkpt><trkpt lat="41.9701092" lon="12.7616523"><ele>73.83333333333334</ele><time>2026-04-04T09:27:42.835Z</time></trkpt><trkpt lat="41.9701715" lon="12.7616671"><ele>73.66666666666667</ele><time>2026-04-04T09:27:43.835Z</time></trkpt><trkpt lat="41.9703034" lon="12.7616705"><ele>73.5</ele><time>2026-04-04T09:27:45.835Z</time></trkpt><trkpt lat="41.9703805" lon="12.7616764"><ele>73.33333333333333</ele><time>2026-04-04T09:27:46.834Z</time></trkpt><trkpt lat="41.9704598" lon="12.7616808"><ele>73.16666666666666</ele><time>2026-04-04T09:27:47.835Z</time></trkpt><trkpt lat="41.970537" lon="12.7616842"><ele>73.0</ele><time>2026-04-04T09:27:48.834Z</time></trkpt><trkpt lat="41.9706182" lon="12.7616874"><ele>73.0</ele><time>2026-04-04T09:27:49.835Z</time></trkpt><trkpt lat="41.9706896" lon="12.7616931"><ele>73.0</ele><time>2026-04-04T09:27:50.835Z</time></trkpt><trkpt lat="41.9707521" lon="12.7617044"><ele>73.0</ele><time>2026-04-04T09:27:51.835Z</time></trkpt><trkpt lat="41.9708515" lon="12.7617415"><ele>73.0</ele><time>2026-04-04T09:27:53.835Z</time></trkpt><trkpt lat="41.9709506" lon="12.7617793"><ele>73.0</ele><time>2026-04-04T09:27:56.835Z</time></trkpt><trkpt lat="41.9710685" lon="12.7618381"><ele>72.83333333333333</ele><time>2026-04-04T09:27:58.835Z</time></trkpt><trkpt lat="41.9711456" lon="12.7618771"><ele>72.66666666666666</ele><time>2026-04-04T09:27:59.835Z</time></trkpt><trkpt lat="41.9712288" lon="12.7619205"><ele>72.5</ele><time>2026-04-04T09:28:00.835Z</time></trkpt><trkpt lat="41.9713053" lon="12.7619629"><ele>72.33333333333333</ele><time>2026-04-04T09:28:01.835Z</time></trkpt><trkpt lat="41.9713888" lon="12.7619887"><ele>72.16666666666667</ele><time>2026-04-04T09:28:02.834Z</time></trkpt><trkpt lat="41.9714711" lon="12.7620183"><ele>72.0</ele><time>2026-04-04T09:28:03.834Z</time></trkpt><trkpt lat="41.9715423" lon="12.7620383"><ele>72.0</ele><time>2026-04-04T09:28:04.835Z</time></trkpt><trkpt lat="41.9716678" lon="12.7620819"><ele>72.0</ele><time>2026-04-04T09:28:06.835Z</time></trkpt><trkpt lat="41.9717898" lon="12.7621432"><ele>72.0</ele><time>2026-04-04T09:28:08.835Z</time></trkpt><trkpt lat="41.9718965" lon="12.7621787"><ele>72.0</ele><time>2026-04-04T09:28:10.835Z</time></trkpt><trkpt lat="41.9720112" lon="12.7622125"><ele>71.83333333333333</ele><time>2026-04-04T09:28:12.835Z</time></trkpt><trkpt lat="41.972092" lon="12.7622411"><ele>71.66666666666667</ele><time>2026-04-04T09:28:14.835Z</time></trkpt><trkpt lat="41.9721765" lon="12.7622658"><ele>71.5</ele><time>2026-04-04T09:28:17.835Z</time></trkpt><trkpt lat="41.9722525" lon="12.7622883"><ele>71.33333333333334</ele><time>2026-04-04T09:28:19.835Z</time></trkpt><trkpt lat="41.9723432" lon="12.7622915"><ele>71.16666666666667</ele><time>2026-04-04T09:28:22.835Z</time></trkpt><trkpt lat="41.9724195" lon="12.7623045"><ele>71.0</ele><time>2026-04-04T09:28:24.835Z</time></trkpt><trkpt lat="41.9725271" lon="12.7622098"><ele>70.75</ele><time>2026-04-04T09:28:27.835Z</time></trkpt><trkpt lat="41.9725919" lon="12.7620969"><ele>70.5</ele><time>2026-04-04T09:28:28.835Z</time></trkpt><trkpt lat="41.972665" lon="12.761967"><ele>70.25</ele><time>2026-04-04T09:28:29.835Z</time></trkpt><trkpt lat="41.9727454" lon="12.7618121"><ele>70.0</ele><time>2026-04-04T09:28:30.835Z</time></trkpt><trkpt lat="41.9728289" lon="12.7616738"><ele>70.0</ele><time>2026-04-04T09:28:31.835Z</time></trkpt><trkpt lat="41.9729065" lon="12.7615403"><ele>70.0</ele><time>2026-04-04T09:28:32.835Z</time></trkpt><trkpt lat="41.9729818" lon="12.7614188"><ele>70.0</ele><time>2026-04-04T09:28:33.834Z</time></trkpt><trkpt lat="41.9730489" lon="12.761308"><ele>70.0</ele><time>2026-04-04T09:28:34.835Z</time></trkpt><trkpt lat="41.9731152" lon="12.7612094"><ele>70.0</ele><time>2026-04-04T09:28:35.835Z</time></trkpt><trkpt lat="41.9731778" lon="12.761125"><ele>70.0</ele><time>2026-04-04T09:28:36.835Z</time></trkpt><trkpt lat="41.9732345" lon="12.7610389"><ele>70.0</ele><time>2026-04-04T09:28:37.835Z</time></trkpt><trkpt lat="41.9732918" lon="12.7609659"><ele>70.0</ele><time>2026-04-04T09:28:38.835Z</time></trkpt><trkpt lat="41.9733523" lon="12.7608948"><ele>70.0</ele><time>2026-04-04T09:28:39.835Z</time></trkpt><trkpt lat="41.9734188" lon="12.7608429"><ele>70.0</ele><time>2026-04-04T09:28:40.834Z</time></trkpt><trkpt lat="41.9734874" lon="12.7608184"><ele>70.0</ele><time>2026-04-04T09:28:41.835Z</time></trkpt><trkpt lat="41.9735677" lon="12.7608085"><ele>70.0</ele><time>2026-04-04T09:28:43.835Z</time></trkpt><trkpt lat="41.9736388" lon="12.760842"><ele>70.0</ele><time>2026-04-04T09:28:49.834Z</time></trkpt><trkpt lat="41.9737086" lon="12.7609726"><ele>70.0</ele><time>2026-04-04T09:28:51.835Z</time></trkpt><trkpt lat="41.9737779" lon="12.7610693"><ele>70.0</ele><time>2026-04-04T09:28:52.835Z</time></trkpt><trkpt lat="41.9738578" lon="12.76119"><ele>70.0</ele><time>2026-04-04T09:28:53.835Z</time></trkpt><trkpt lat="41.9739585" lon="12.7613437"><ele>69.66666666666666</ele><time>2026-04-04T09:28:54.835Z</time></trkpt><trkpt lat="41.9740588" lon="12.7614992"><ele>69.33333333333333</ele><time>2026-04-04T09:28:55.835Z</time></trkpt><trkpt lat="41.9741611" lon="12.7616596"><ele>69.0</ele><time>2026-04-04T09:28:56.835Z</time></trkpt><trkpt lat="41.9742677" lon="12.7618219"><ele>69.66666666666667</ele><time>2026-04-04T09:28:57.835Z</time></trkpt><trkpt lat="41.9743677" lon="12.7619832"><ele>70.33333333333334</ele><time>2026-04-04T09:28:58.835Z</time></trkpt><trkpt lat="41.9744669" lon="12.7621406"><ele>71.0</ele><time>2026-04-04T09:28:59.835Z</time></trkpt><trkpt lat="41.9745674" lon="12.7622954"><ele>71.0</ele><time>2026-04-04T09:29:00.835Z</time></trkpt><trkpt lat="41.9746682" lon="12.7624466"><ele>71.0</ele><time>2026-04-04T09:29:01.835Z</time></trkpt><trkpt lat="41.9747687" lon="12.7625959"><ele>71.0</ele><time>2026-04-04T09:29:02.835Z</time></trkpt><trkpt lat="41.9748698" lon="12.7627418"><ele>71.0</ele><time>2026-04-04T09:29:03.835Z</time></trkpt><trkpt lat="41.9749698" lon="12.762888"><ele>71.0</ele><time>2026-04-04T09:29:04.835Z</time></trkpt><trkpt lat="41.9750728" lon="12.7630357"><ele>71.0</ele><time>2026-04-04T09:29:05.834Z</time></trkpt><trkpt lat="41.9751755" lon="12.7631837"><ele>71.0</ele><time>2026-04-04T09:29:06.835Z</time></trkpt><trkpt lat="41.9752745" lon="12.7633353"><ele>71.0</ele><time>2026-04-04T09:29:07.835Z</time></trkpt><trkpt lat="41.9753727" lon="12.7634918"><ele>71.0</ele><time>2026-04-04T09:29:08.835Z</time></trkpt><trkpt lat="41.9754681" lon="12.7636501"><ele>71.0</ele><time>2026-04-04T09:29:09.835Z</time></trkpt><trkpt lat="41.9755669" lon="12.7638065"><ele>71.0</ele><time>2026-04-04T09:29:10.835Z</time></trkpt><trkpt lat="41.9756705" lon="12.763962"><ele>71.0</ele><time>2026-04-04T09:29:11.835Z</time></trkpt><trkpt lat="41.9757706" lon="12.7641131"><ele>71.0</ele><time>2026-04-04T09:29:12.835Z</time></trkpt><trkpt lat="41.9758685" lon="12.7642663"><ele>71.25</ele><time>2026-04-04T09:29:13.835Z</time></trkpt><trkpt lat="41.9759653" lon="12.7644194"><ele>71.5</ele><time>2026-04-04T09:29:14.835Z</time></trkpt><trkpt lat="41.9760622" lon="12.7645701"><ele>71.75</ele><time>2026-04-04T09:29:15.835Z</time></trkpt><trkpt lat="41.9761539" lon="12.7647272"><ele>72.0</ele><time>2026-04-04T09:29:16.835Z</time></trkpt><trkpt lat="41.9762433" lon="12.7648833"><ele>72.0</ele><time>2026-04-04T09:29:17.835Z</time></trkpt><trkpt lat="41.9763336" lon="12.7650345"><ele>72.0</ele><time>2026-04-04T09:29:18.835Z</time></trkpt><trkpt lat="41.9764267" lon="12.7651848"><ele>72.0</ele><time>2026-04-04T09:29:19.835Z</time></trkpt><trkpt lat="41.9765233" lon="12.7653236"><ele>72.0</ele><time>2026-04-04T09:29:20.835Z</time></trkpt><trkpt lat="41.9766289" lon="12.7654472"><ele>71.75</ele><time>2026-04-04T09:29:21.835Z</time></trkpt><trkpt lat="41.9767405" lon="12.7655551"><ele>71.5</ele><time>2026-04-04T09:29:22.835Z</time></trkpt><trkpt lat="41.9768576" lon="12.7656529"><ele>71.25</ele><time>2026-04-04T09:29:23.835Z</time></trkpt><trkpt lat="41.9769783" lon="12.7657429"><ele>71.0</ele><time>2026-04-04T09:29:24.835Z</time></trkpt><trkpt lat="41.9771" lon="12.7658334"><ele>71.0</ele><time>2026-04-04T09:29:25.835Z</time></trkpt><trkpt lat="41.9772183" lon="12.7659188"><ele>71.0</ele><time>2026-04-04T09:29:26.835Z</time></trkpt><trkpt lat="41.9773359" lon="12.7660024"><ele>71.0</ele><time>2026-04-04T09:29:27.835Z</time></trkpt><trkpt lat="41.9774492" lon="12.7660768"><ele>71.0</ele><time>2026-04-04T09:29:28.835Z</time></trkpt><trkpt lat="41.97757" lon="12.7661517"><ele>71.0</ele><time>2026-04-04T09:29:29.835Z</time></trkpt><trkpt lat="41.9776984" lon="12.7662373"><ele>71.0</ele><time>2026-04-04T09:29:30.835Z</time></trkpt><trkpt lat="41.9778384" lon="12.7663357"><ele>71.0</ele><time>2026-04-04T09:29:31.835Z</time></trkpt><trkpt lat="41.9779853" lon="12.7664491"><ele>71.0</ele><time>2026-04-04T09:29:32.835Z</time></trkpt><trkpt lat="41.9781243" lon="12.7665518"><ele>71.0</ele><time>2026-04-04T09:29:33.835Z</time></trkpt><trkpt lat="41.9782698" lon="12.7666532"><ele>71.0</ele><time>2026-04-04T09:29:34.835Z</time></trkpt><trkpt lat="41.9784219" lon="12.7667419"><ele>71.25</ele><time>2026-04-04T09:29:35.835Z</time></trkpt><trkpt lat="41.9785725" lon="12.7668163"><ele>71.5</ele><time>2026-04-04T09:29:36.835Z</time></trkpt><trkpt lat="41.9787174" lon="12.7668692"><ele>71.75</ele><time>2026-04-04T09:29:37.835Z</time></trkpt><trkpt lat="41.9788514" lon="12.7669105"><ele>72.0</ele><time>2026-04-04T09:29:38.835Z</time></trkpt><trkpt lat="41.978976" lon="12.7669416"><ele>72.4</ele><time>2026-04-04T09:29:39.835Z</time></trkpt><trkpt lat="41.9790895" lon="12.7669598"><ele>72.80000000000001</ele><time>2026-04-04T09:29:40.835Z</time></trkpt><trkpt lat="41.9791762" lon="12.7669736"><ele>73.2</ele><time>2026-04-04T09:29:41.835Z</time></trkpt><trkpt lat="41.9792383" lon="12.7669943"><ele>73.60000000000001</ele><time>2026-04-04T09:29:42.835Z</time></trkpt><trkpt lat="41.9793031" lon="12.7670765"><ele>74.0</ele><time>2026-04-04T09:29:44.835Z</time></trkpt><trkpt lat="41.9793846" lon="12.7671448"><ele>74.0</ele><time>2026-04-04T09:29:46.835Z</time></trkpt><trkpt lat="41.9794638" lon="12.7671474"><ele>74.0</ele><time>2026-04-04T09:29:48.835Z</time></trkpt><trkpt lat="41.9795667" lon="12.7670875"><ele>74.0</ele><time>2026-04-04T09:29:50.835Z</time></trkpt><trkpt lat="41.9796372" lon="12.767034"><ele>74.0</ele><time>2026-04-04T09:29:51.835Z</time></trkpt><trkpt lat="41.9797177" lon="12.766986"><ele>74.0</ele><time>2026-04-04T09:29:52.835Z</time></trkpt><trkpt lat="41.9797924" lon="12.7669466"><ele>74.0</ele><time>2026-04-04T09:29:53.835Z</time></trkpt><trkpt lat="41.979856" lon="12.7669161"><ele>74.0</ele><time>2026-04-04T09:29:54.835Z</time></trkpt><trkpt lat="41.9799159" lon="12.7668899"><ele>74.0</ele><time>2026-04-04T09:29:55.835Z</time></trkpt><trkpt lat="41.9800241" lon="12.7668487"><ele>74.0</ele><time>2026-04-04T09:29:57.835Z</time></trkpt><trkpt lat="41.9800893" lon="12.7668227"><ele>74.0</ele><time>2026-04-04T09:29:58.835Z</time></trkpt><trkpt lat="41.9801543" lon="12.7668147"><ele>74.0</ele><time>2026-04-04T09:29:59.835Z</time></trkpt><trkpt lat="41.9802309" lon="12.7668018"><ele>74.0</ele><time>2026-04-04T09:30:00.835Z</time></trkpt><trkpt lat="41.9803096" lon="12.7667858"><ele>74.16666666666667</ele><time>2026-04-04T09:30:01.835Z</time></trkpt><trkpt lat="41.980388" lon="12.7667681"><ele>74.33333333333334</ele><time>2026-04-04T09:30:02.835Z</time></trkpt><trkpt lat="41.9804681" lon="12.766755"><ele>74.5</ele><time>2026-04-04T09:30:03.835Z</time></trkpt><trkpt lat="41.9805509" lon="12.7667398"><ele>74.66666666666667</ele><time>2026-04-04T09:30:04.835Z</time></trkpt><trkpt lat="41.9806339" lon="12.7667271"><ele>74.83333333333333</ele><time>2026-04-04T09:30:05.835Z</time></trkpt><trkpt lat="41.9807096" lon="12.7667148"><ele>75.0</ele><time>2026-04-04T09:30:06.835Z</time></trkpt><trkpt lat="41.9807846" lon="12.7667056"><ele>75.0</ele><time>2026-04-04T09:30:07.835Z</time></trkpt><trkpt lat="41.980909" lon="12.7666921"><ele>75.0</ele><time>2026-04-04T09:30:09.835Z</time></trkpt><trkpt lat="41.9810302" lon="12.7666758"><ele>75.0</ele><time>2026-04-04T09:30:11.835Z</time></trkpt><trkpt lat="41.9811387" lon="12.766652"><ele>75.0</ele><time>2026-04-04T09:30:13.835Z</time></trkpt><trkpt lat="41.9812403" lon="12.7666291"><ele>75.0</ele><time>2026-04-04T09:30:15.835Z</time></trkpt><trkpt lat="41.9813259" lon="12.766601"><ele>75.0</ele><time>2026-04-04T09:30:17.835Z</time></trkpt><trkpt lat="41.9814046" lon="12.7665787"><ele>75.0</ele><time>2026-04-04T09:30:19.835Z</time></trkpt><trkpt lat="41.9814847" lon="12.7665607"><ele>75.0</ele><time>2026-04-04T09:30:21.835Z</time></trkpt><trkpt lat="41.9815673" lon="12.7665451"><ele>75.0</ele><time>2026-04-04T09:30:23.835Z</time></trkpt><trkpt lat="41.9816416" lon="12.7665234"><ele>75.0</ele><time>2026-04-04T09:30:25.835Z</time></trkpt><trkpt lat="41.9817094" lon="12.7665032"><ele>75.16666666666667</ele><time>2026-04-04T09:30:27.834Z</time></trkpt><trkpt lat="41.9818013" lon="12.7664861"><ele>75.33333333333333</ele><time>2026-04-04T09:30:30.835Z</time></trkpt><trkpt lat="41.9818718" lon="12.7664717"><ele>75.5</ele><time>2026-04-04T09:30:32.835Z</time></trkpt><trkpt lat="41.981973" lon="12.7664522"><ele>75.66666666666666</ele><time>2026-04-04T09:30:34.834Z</time></trkpt><trkpt lat="41.9820419" lon="12.7664452"><ele>75.83333333333333</ele><time>2026-04-04T09:30:35.835Z</time></trkpt><trkpt lat="41.982115" lon="12.7664338"><ele>76.0</ele><time>2026-04-04T09:30:36.835Z</time></trkpt><trkpt lat="41.9821982" lon="12.7664226"><ele>76.0</ele><time>2026-04-04T09:30:37.835Z</time></trkpt><trkpt lat="41.9822788" lon="12.766414"><ele>76.0</ele><time>2026-04-04T09:30:38.835Z</time></trkpt><trkpt lat="41.9823609" lon="12.7664073"><ele>76.0</ele><time>2026-04-04T09:30:39.835Z</time></trkpt><trkpt lat="41.9824399" lon="12.7664017"><ele>76.0</ele><time>2026-04-04T09:30:40.835Z</time></trkpt><trkpt lat="41.9825282" lon="12.7663965"><ele>76.0</ele><time>2026-04-04T09:30:41.835Z</time></trkpt><trkpt lat="41.9826103" lon="12.7663928"><ele>76.0</ele><time>2026-04-04T09:30:42.835Z</time></trkpt><trkpt lat="41.9826929" lon="12.7663891"><ele>76.39999999999999</ele><time>2026-04-04T09:30:43.835Z</time></trkpt><trkpt lat="41.9827829" lon="12.7663777"><ele>76.8</ele><time>2026-04-04T09:30:44.835Z</time></trkpt><trkpt lat="41.9828716" lon="12.7663744"><ele>77.19999999999999</ele><time>2026-04-04T09:30:45.835Z</time></trkpt><trkpt lat="41.9829618" lon="12.7663645"><ele>77.6</ele><time>2026-04-04T09:30:46.835Z</time></trkpt><trkpt lat="41.9830527" lon="12.7663537"><ele>78.0</ele><time>2026-04-04T09:30:47.835Z</time></trkpt><trkpt lat="41.9831461" lon="12.7663404"><ele>78.0</ele><time>2026-04-04T09:30:48.835Z</time></trkpt><trkpt lat="41.983244" lon="12.766322"><ele>78.0</ele><time>2026-04-04T09:30:49.835Z</time></trkpt><trkpt lat="41.9833476" lon="12.7663063"><ele>78.0</ele><time>2026-04-04T09:30:50.835Z</time></trkpt><trkpt lat="41.9834572" lon="12.7662884"><ele>78.0</ele><time>2026-04-04T09:30:51.835Z</time></trkpt><trkpt lat="41.9835549" lon="12.7662791"><ele>78.0</ele><time>2026-04-04T09:30:52.835Z</time></trkpt><trkpt lat="41.9836476" lon="12.7662677"><ele>78.25</ele><time>2026-04-04T09:30:53.835Z</time></trkpt><trkpt lat="41.9837595" lon="12.7662491"><ele>78.5</ele><time>2026-04-04T09:30:54.835Z</time></trkpt><trkpt lat="41.9838929" lon="12.7662292"><ele>78.75</ele><time>2026-04-04T09:30:55.835Z</time></trkpt><trkpt lat="41.9840184" lon="12.7662107"><ele>79.0</ele><time>2026-04-04T09:30:56.834Z</time></trkpt><trkpt lat="41.9841375" lon="12.766193"><ele>79.0</ele><time>2026-04-04T09:30:57.835Z</time></trkpt><trkpt lat="41.984261" lon="12.766178"><ele>79.0</ele><time>2026-04-04T09:30:58.835Z</time></trkpt><trkpt lat="41.9843876" lon="12.7661675"><ele>79.0</ele><time>2026-04-04T09:30:59.835Z</time></trkpt><trkpt lat="41.9845119" lon="12.766164"><ele>79.0</ele><time>2026-04-04T09:31:00.835Z</time></trkpt><trkpt lat="41.9846366" lon="12.766163"><ele>79.0</ele><time>2026-04-04T09:31:01.835Z</time></trkpt><trkpt lat="41.9847587" lon="12.7661675"><ele>79.0</ele><time>2026-04-04T09:31:02.835Z</time></trkpt><trkpt lat="41.984873" lon="12.7661713"><ele>79.0</ele><time>2026-04-04T09:31:03.834Z</time></trkpt><trkpt lat="41.9849841" lon="12.7661753"><ele>79.0</ele><time>2026-04-04T09:31:04.835Z</time></trkpt><trkpt lat="41.9850866" lon="12.7661783"><ele>79.16666666666666</ele><time>2026-04-04T09:31:05.835Z</time></trkpt><trkpt lat="41.9851779" lon="12.7661784"><ele>79.33333333333333</ele><time>2026-04-04T09:31:06.835Z</time></trkpt><trkpt lat="41.9852642" lon="12.7661783"><ele>79.5</ele><time>2026-04-04T09:31:07.835Z</time></trkpt><trkpt lat="41.9853418" lon="12.7661804"><ele>79.66666666666667</ele><time>2026-04-04T09:31:08.835Z</time></trkpt><trkpt lat="41.9854114" lon="12.7661798"><ele>79.83333333333334</ele><time>2026-04-04T09:31:09.835Z</time></trkpt><trkpt lat="41.9855187" lon="12.766177"><ele>80.0</ele><time>2026-04-04T09:31:11.835Z</time></trkpt><trkpt lat="41.9855874" lon="12.766181"><ele>80.0</ele><time>2026-04-04T09:31:32.835Z</time></trkpt><trkpt lat="41.9854283" lon="12.7661475"><ele>80.0</ele><time>2026-04-04T09:31:40.835Z</time></trkpt><trkpt lat="41.9853217" lon="12.7661573"><ele>80.0</ele><time>2026-04-04T09:31:41.835Z</time></trkpt><trkpt lat="41.9851899" lon="12.766157"><ele>80.0</ele><time>2026-04-04T09:31:42.835Z</time></trkpt><trkpt lat="41.985055" lon="12.7661523"><ele>79.75</ele><time>2026-04-04T09:31:43.835Z</time></trkpt><trkpt lat="41.9849188" lon="12.766147"><ele>79.5</ele><time>2026-04-04T09:31:44.835Z</time></trkpt><trkpt lat="41.9847818" lon="12.7661434"><ele>79.25</ele><time>2026-04-04T09:31:45.835Z</time></trkpt><trkpt lat="41.9846372" lon="12.7661396"><ele>79.0</ele><time>2026-04-04T09:31:46.835Z</time></trkpt><trkpt lat="41.984484" lon="12.7661372"><ele>79.0</ele><time>2026-04-04T09:31:47.835Z</time></trkpt><trkpt lat="41.9843256" lon="12.7661447"><ele>79.0</ele><time>2026-04-04T09:31:48.835Z</time></trkpt><trkpt lat="41.9841649" lon="12.7661662"><ele>79.0</ele><time>2026-04-04T09:31:49.835Z</time></trkpt><trkpt lat="41.9839995" lon="12.7661899"><ele>79.0</ele><time>2026-04-04T09:31:50.835Z</time></trkpt><trkpt lat="41.983837" lon="12.7662112"><ele>79.0</ele><time>2026-04-04T09:31:51.835Z</time></trkpt><trkpt lat="41.9836691" lon="12.7662364"><ele>79.0</ele><time>2026-04-04T09:31:52.835Z</time></trkpt><trkpt lat="41.9834966" lon="12.7662641"><ele>78.66666666666666</ele><time>2026-04-04T09:31:53.835Z</time></trkpt><trkpt lat="41.9833249" lon="12.7662912"><ele>78.33333333333333</ele><time>2026-04-04T09:31:54.835Z</time></trkpt><trkpt lat="41.9831558" lon="12.7663173"><ele>78.0</ele><time>2026-04-04T09:31:55.835Z</time></trkpt><trkpt lat="41.9829927" lon="12.7663414"><ele>78.0</ele><time>2026-04-04T09:31:56.835Z</time></trkpt><trkpt lat="41.9828398" lon="12.766358"><ele>78.0</ele><time>2026-04-04T09:31:57.835Z</time></trkpt><trkpt lat="41.9826897" lon="12.7663711"><ele>78.0</ele><time>2026-04-04T09:31:58.835Z</time></trkpt><trkpt lat="41.9825372" lon="12.7663824"><ele>77.33333333333333</ele><time>2026-04-04T09:31:59.835Z</time></trkpt><trkpt lat="41.9823794" lon="12.7663946"><ele>76.66666666666666</ele><time>2026-04-04T09:32:00.835Z</time></trkpt><trkpt lat="41.9822242" lon="12.7664083"><ele>76.0</ele><time>2026-04-04T09:32:01.835Z</time></trkpt><trkpt lat="41.9820742" lon="12.7664228"><ele>76.0</ele><time>2026-04-04T09:32:02.835Z</time></trkpt><trkpt lat="41.9819261" lon="12.7664363"><ele>76.0</ele><time>2026-04-04T09:32:03.835Z</time></trkpt><trkpt lat="41.9817724" lon="12.7664553"><ele>76.0</ele><time>2026-04-04T09:32:04.835Z</time></trkpt><trkpt lat="41.9816184" lon="12.7664859"><ele>75.75</ele><time>2026-04-04T09:32:05.835Z</time></trkpt><trkpt lat="41.9814801" lon="12.7665212"><ele>75.5</ele><time>2026-04-04T09:32:06.835Z</time></trkpt><trkpt lat="41.9813509" lon="12.7665545"><ele>75.25</ele><time>2026-04-04T09:32:07.835Z</time></trkpt><trkpt lat="41.981244" lon="12.7665946"><ele>75.0</ele><time>2026-04-04T09:32:08.835Z</time></trkpt><trkpt lat="41.9811175" lon="12.7666308"><ele>75.0</ele><time>2026-04-04T09:32:09.834Z</time></trkpt><trkpt lat="41.9809782" lon="12.7666569"><ele>75.0</ele><time>2026-04-04T09:32:10.835Z</time></trkpt><trkpt lat="41.9808297" lon="12.7666735"><ele>75.0</ele><time>2026-04-04T09:32:11.835Z</time></trkpt><trkpt lat="41.9806878" lon="12.7666903"><ele>75.0</ele><time>2026-04-04T09:32:12.835Z</time></trkpt><trkpt lat="41.9805539" lon="12.7667107"><ele>75.0</ele><time>2026-04-04T09:32:13.835Z</time></trkpt><trkpt lat="41.9804254" lon="12.7667378"><ele>75.0</ele><time>2026-04-04T09:32:14.835Z</time></trkpt><trkpt lat="41.9803007" lon="12.7667612"><ele>75.0</ele><time>2026-04-04T09:32:15.835Z</time></trkpt><trkpt lat="41.9801728" lon="12.7667871"><ele>75.0</ele><time>2026-04-04T09:32:16.835Z</time></trkpt><trkpt lat="41.9800426" lon="12.7668189"><ele>74.75</ele><time>2026-04-04T09:32:17.835Z</time></trkpt><trkpt lat="41.9799133" lon="12.7668614"><ele>74.5</ele><time>2026-04-04T09:32:18.835Z</time></trkpt><trkpt lat="41.9797975" lon="12.7668919"><ele>74.25</ele><time>2026-04-04T09:32:19.835Z</time></trkpt><trkpt lat="41.9796912" lon="12.7669148"><ele>74.0</ele><time>2026-04-04T09:32:20.835Z</time></trkpt><trkpt lat="41.9795972" lon="12.7669291"><ele>74.0</ele><time>2026-04-04T09:32:21.835Z</time></trkpt><trkpt lat="41.9795121" lon="12.7669313"><ele>74.0</ele><time>2026-04-04T09:32:22.835Z</time></trkpt><trkpt lat="41.9794323" lon="12.7669394"><ele>74.0</ele><time>2026-04-04T09:32:23.834Z</time></trkpt><trkpt lat="41.9793548" lon="12.7669485"><ele>74.0</ele><time>2026-04-04T09:32:24.835Z</time></trkpt><trkpt lat="41.9792841" lon="12.7669496"><ele>74.0</ele><time>2026-04-04T09:32:25.835Z</time></trkpt><trkpt lat="41.9791724" lon="12.7669408"><ele>74.0</ele><time>2026-04-04T09:32:27.835Z</time></trkpt><trkpt lat="41.9790611" lon="12.7669261"><ele>74.2</ele><time>2026-04-04T09:32:29.835Z</time></trkpt><trkpt lat="41.9789684" lon="12.7669156"><ele>74.4</ele><time>2026-04-04T09:32:31.835Z</time></trkpt><trkpt lat="41.9788654" lon="12.7668932"><ele>74.6</ele><time>2026-04-04T09:32:33.835Z</time></trkpt><trkpt lat="41.9787432" lon="12.7668626"><ele>74.8</ele><time>2026-04-04T09:32:35.835Z</time></trkpt><trkpt lat="41.9786678" lon="12.7668385"><ele>75.0</ele><time>2026-04-04T09:32:36.834Z</time></trkpt><trkpt lat="41.9785789" lon="12.7668007"><ele>74.25</ele><time>2026-04-04T09:32:37.835Z</time></trkpt><trkpt lat="41.978479" lon="12.7667488"><ele>73.5</ele><time>2026-04-04T09:32:38.834Z</time></trkpt><trkpt lat="41.9783777" lon="12.7666942"><ele>72.75</ele><time>2026-04-04T09:32:39.835Z</time></trkpt><trkpt lat="41.9782636" lon="12.7666294"><ele>72.0</ele><time>2026-04-04T09:32:40.835Z</time></trkpt><trkpt lat="41.9781297" lon="12.7665451"><ele>71.66666666666667</ele><time>2026-04-04T09:32:41.835Z</time></trkpt><trkpt lat="41.9779654" lon="12.7664364"><ele>71.33333333333334</ele><time>2026-04-04T09:32:42.835Z</time></trkpt><trkpt lat="41.9778024" lon="12.7663219"><ele>71.0</ele><time>2026-04-04T09:32:43.835Z</time></trkpt><trkpt lat="41.9776399" lon="12.7662051"><ele>71.0</ele><time>2026-04-04T09:32:44.835Z</time></trkpt><trkpt lat="41.9774695" lon="12.7660723"><ele>71.0</ele><time>2026-04-04T09:32:45.835Z</time></trkpt><trkpt lat="41.9772971" lon="12.7659383"><ele>71.0</ele><time>2026-04-04T09:32:46.835Z</time></trkpt><trkpt lat="41.9771358" lon="12.7658205"><ele>71.0</ele><time>2026-04-04T09:32:47.835Z</time></trkpt><trkpt lat="41.9769722" lon="12.7657036"><ele>71.0</ele><time>2026-04-04T09:32:48.834Z</time></trkpt><trkpt lat="41.9768076" lon="12.7655729"><ele>71.0</ele><time>2026-04-04T09:32:49.835Z</time></trkpt><trkpt lat="41.9766493" lon="12.7654101"><ele>70.66666666666667</ele><time>2026-04-04T09:32:50.835Z</time></trkpt><trkpt lat="41.9764959" lon="12.7652127"><ele>70.33333333333333</ele><time>2026-04-04T09:32:51.835Z</time></trkpt><trkpt lat="41.9763626" lon="12.7650033"><ele>70.0</ele><time>2026-04-04T09:32:52.835Z</time></trkpt><trkpt lat="41.9762371" lon="12.7647947"><ele>70.33333333333333</ele><time>2026-04-04T09:32:53.835Z</time></trkpt><trkpt lat="41.9761108" lon="12.7645847"><ele>70.66666666666667</ele><time>2026-04-04T09:32:54.835Z</time></trkpt><trkpt lat="41.9759832" lon="12.7643781"><ele>71.0</ele><time>2026-04-04T09:32:55.835Z</time></trkpt><trkpt lat="41.9758535" lon="12.7641759"><ele>71.0</ele><time>2026-04-04T09:32:56.835Z</time></trkpt><trkpt lat="41.9757247" lon="12.7639863"><ele>71.0</ele><time>2026-04-04T09:32:57.835Z</time></trkpt><trkpt lat="41.9755998" lon="12.7637947"><ele>71.0</ele><time>2026-04-04T09:32:58.835Z</time></trkpt><trkpt lat="41.9754701" lon="12.7636067"><ele>71.0</ele><time>2026-04-04T09:32:59.835Z</time></trkpt><trkpt lat="41.9753444" lon="12.7634132"><ele>71.0</ele><time>2026-04-04T09:33:00.835Z</time></trkpt><trkpt lat="41.9752118" lon="12.7632224"><ele>71.0</ele><time>2026-04-04T09:33:01.835Z</time></trkpt><trkpt lat="41.9750836" lon="12.7630359"><ele>71.0</ele><time>2026-04-04T09:33:02.835Z</time></trkpt><trkpt lat="41.9749602" lon="12.7628491"><ele>71.0</ele><time>2026-04-04T09:33:03.835Z</time></trkpt><trkpt lat="41.974838" lon="12.762663"><ele>71.0</ele><time>2026-04-04T09:33:04.835Z</time></trkpt><trkpt lat="41.974714" lon="12.7624783"><ele>71.0</ele><time>2026-04-04T09:33:05.834Z</time></trkpt><trkpt lat="41.9745928" lon="12.762295"><ele>71.0</ele><time>2026-04-04T09:33:06.835Z</time></trkpt><trkpt lat="41.9744752" lon="12.762115"><ele>71.0</ele><time>2026-04-04T09:33:07.835Z</time></trkpt><trkpt lat="41.9743646" lon="12.7619328"><ele>71.0</ele><time>2026-04-04T09:33:08.835Z</time></trkpt><trkpt lat="41.9742559" lon="12.7617598"><ele>71.0</ele><time>2026-04-04T09:33:09.835Z</time></trkpt><trkpt lat="41.9741523" lon="12.7615983"><ele>71.0</ele><time>2026-04-04T09:33:10.835Z</time></trkpt><trkpt lat="41.9740566" lon="12.7614427"><ele>70.75</ele><time>2026-04-04T09:33:11.835Z</time></trkpt><trkpt lat="41.9739652" lon="12.7613004"><ele>70.5</ele><time>2026-04-04T09:33:12.835Z</time></trkpt><trkpt lat="41.9738803" lon="12.7611614"><ele>70.25</ele><time>2026-04-04T09:33:13.835Z</time></trkpt><trkpt lat="41.9737981" lon="12.7610323"><ele>70.0</ele><time>2026-04-04T09:33:14.834Z</time></trkpt><trkpt lat="41.9737239" lon="12.7609086"><ele>70.0</ele><time>2026-04-04T09:33:15.834Z</time></trkpt><trkpt lat="41.9736545" lon="12.760791"><ele>70.0</ele><time>2026-04-04T09:33:16.835Z</time></trkpt><trkpt lat="41.9736048" lon="12.7606762"><ele>70.0</ele><time>2026-04-04T09:33:17.835Z</time></trkpt><trkpt lat="41.9735754" lon="12.7605717"><ele>70.0</ele><time>2026-04-04T09:33:18.835Z</time></trkpt><trkpt lat="41.9735569" lon="12.760424"><ele>70.0</ele><time>2026-04-04T09:33:20.835Z</time></trkpt><trkpt lat="41.9735724" lon="12.7602713"><ele>70.2</ele><time>2026-04-04T09:33:22.835Z</time></trkpt><trkpt lat="41.9736019" lon="12.7601611"><ele>70.4</ele><time>2026-04-04T09:33:23.835Z</time></trkpt><trkpt lat="41.9736552" lon="12.7600229"><ele>70.6</ele><time>2026-04-04T09:33:24.835Z</time></trkpt><trkpt lat="41.9737148" lon="12.7598941"><ele>70.8</ele><time>2026-04-04T09:33:25.835Z</time></trkpt><trkpt lat="41.9737734" lon="12.7597749"><ele>71.0</ele><time>2026-04-04T09:33:26.835Z</time></trkpt><trkpt lat="41.9738294" lon="12.7596626"><ele>71.0</ele><time>2026-04-04T09:33:27.835Z</time></trkpt><trkpt lat="41.9738808" lon="12.759571"><ele>71.0</ele><time>2026-04-04T09:33:28.835Z</time></trkpt><trkpt lat="41.9739381" lon="12.7594981"><ele>71.0</ele><time>2026-04-04T09:33:29.834Z</time></trkpt><trkpt lat="41.9740009" lon="12.7594434"><ele>71.0</ele><time>2026-04-04T09:33:30.835Z</time></trkpt><trkpt lat="41.974061" lon="12.7593877"><ele>71.0</ele><time>2026-04-04T09:33:31.835Z</time></trkpt><trkpt lat="41.9741472" lon="12.7592979"><ele>71.0</ele><time>2026-04-04T09:33:33.835Z</time></trkpt><trkpt lat="41.9741895" lon="12.759199"><ele>71.0</ele><time>2026-04-04T09:33:36.835Z</time></trkpt><trkpt lat="41.9742096" lon="12.7591163"><ele>71.0</ele><time>2026-04-04T09:34:55.835Z</time></trkpt><trkpt lat="41.9742664" lon="12.7590685"><ele>71.0</ele><time>2026-04-04T09:42:05.835Z</time></trkpt><trkpt lat="41.9742599" lon="12.7589216"><ele>71.0</ele><time>2026-04-04T09:42:08.834Z</time></trkpt><trkpt lat="41.9741876" lon="12.7587648"><ele>71.0</ele><time>2026-04-04T09:42:10.835Z</time></trkpt><trkpt lat="41.9741353" lon="12.7586723"><ele>70.83333333333334</ele><time>2026-04-04T09:42:12.835Z</time></trkpt><trkpt lat="41.9740501" lon="12.7587743"><ele>70.66666666666667</ele><time>2026-04-04T09:42:16.835Z</time></trkpt><trkpt lat="41.9740166" lon="12.758885"><ele>70.5</ele><time>2026-04-04T09:42:17.835Z</time></trkpt><trkpt lat="41.9739827" lon="12.7589935"><ele>70.33333333333333</ele><time>2026-04-04T09:42:18.835Z</time></trkpt><trkpt lat="41.9739575" lon="12.7590919"><ele>70.16666666666666</ele><time>2026-04-04T09:42:19.835Z</time></trkpt><trkpt lat="41.9739347" lon="12.7591762"><ele>70.0</ele><time>2026-04-04T09:42:20.835Z</time></trkpt><trkpt lat="41.9738982" lon="12.7593083"><ele>70.25</ele><time>2026-04-04T09:42:22.835Z</time></trkpt><trkpt lat="41.9738682" lon="12.7594191"><ele>70.5</ele><time>2026-04-04T09:42:23.835Z</time></trkpt><trkpt lat="41.9738145" lon="12.7595564"><ele>70.75</ele><time>2026-04-04T09:42:24.835Z</time></trkpt><trkpt lat="41.9737487" lon="12.759728"><ele>71.0</ele><time>2026-04-04T09:42:25.835Z</time></trkpt><trkpt lat="41.973682" lon="12.7599014"><ele>71.0</ele><time>2026-04-04T09:42:26.835Z</time></trkpt><trkpt lat="41.9736198" lon="12.7600677"><ele>71.0</ele><time>2026-04-04T09:42:27.834Z</time></trkpt><trkpt lat="41.9735588" lon="12.7602186"><ele>71.0</ele><time>2026-04-04T09:42:28.835Z</time></trkpt><trkpt lat="41.9735086" lon="12.7603527"><ele>71.0</ele><time>2026-04-04T09:42:29.835Z</time></trkpt><trkpt lat="41.9734749" lon="12.7604676"><ele>70.8</ele><time>2026-04-04T09:42:30.835Z</time></trkpt><trkpt lat="41.9734654" lon="12.7605761"><ele>70.6</ele><time>2026-04-04T09:42:31.835Z</time></trkpt><trkpt lat="41.9734885" lon="12.7606819"><ele>70.4</ele><time>2026-04-04T09:42:32.835Z</time></trkpt><trkpt lat="41.9735437" lon="12.7607536"><ele>70.2</ele><time>2026-04-04T09:42:33.835Z</time></trkpt><trkpt lat="41.9736279" lon="12.7608309"><ele>70.0</ele><time>2026-04-04T09:42:34.835Z</time></trkpt><trkpt lat="41.9737176" lon="12.7609505"><ele>69.75</ele><time>2026-04-04T09:42:35.835Z</time></trkpt><trkpt lat="41.9738047" lon="12.761087"><ele>69.5</ele><time>2026-04-04T09:42:36.835Z</time></trkpt><trkpt lat="41.9738987" lon="12.7612296"><ele>69.25</ele><time>2026-04-04T09:42:37.835Z</time></trkpt><trkpt lat="41.9739923" lon="12.7613763"><ele>69.0</ele><time>2026-04-04T09:42:38.835Z</time></trkpt><trkpt lat="41.9740813" lon="12.7615215"><ele>69.0</ele><time>2026-04-04T09:42:39.835Z</time></trkpt><trkpt lat="41.9741689" lon="12.7616638"><ele>69.0</ele><time>2026-04-04T09:42:40.835Z</time></trkpt><trkpt lat="41.9742565" lon="12.7617991"><ele>69.0</ele><time>2026-04-04T09:42:41.835Z</time></trkpt><trkpt lat="41.9743468" lon="12.7619413"><ele>69.0</ele><time>2026-04-04T09:42:42.835Z</time></trkpt><trkpt lat="41.9744329" lon="12.7620773"><ele>69.5</ele><time>2026-04-04T09:42:43.835Z</time></trkpt><trkpt lat="41.974521" lon="12.7622097"><ele>70.0</ele><time>2026-04-04T09:42:44.835Z</time></trkpt><trkpt lat="41.9746042" lon="12.7623429"><ele>70.5</ele><time>2026-04-04T09:42:45.834Z</time></trkpt><trkpt lat="41.9746907" lon="12.7624734"><ele>71.0</ele><time>2026-04-04T09:42:46.835Z</time></trkpt><trkpt lat="41.9747702" lon="12.7626015"><ele>71.0</ele><time>2026-04-04T09:42:47.835Z</time></trkpt><trkpt lat="41.9748512" lon="12.7627229"><ele>71.0</ele><time>2026-04-04T09:42:48.835Z</time></trkpt><trkpt lat="41.9749311" lon="12.7628425"><ele>71.0</ele><time>2026-04-04T09:42:49.835Z</time></trkpt><trkpt lat="41.9750084" lon="12.7629591"><ele>71.0</ele><time>2026-04-04T09:42:50.835Z</time></trkpt><trkpt lat="41.9750866" lon="12.7630846"><ele>71.0</ele><time>2026-04-04T09:42:51.834Z</time></trkpt><trkpt lat="41.9751819" lon="12.7632184"><ele>71.0</ele><time>2026-04-04T09:42:52.835Z</time></trkpt><trkpt lat="41.9752947" lon="12.7633668"><ele>71.0</ele><time>2026-04-04T09:42:53.835Z</time></trkpt><trkpt lat="41.975416" lon="12.7635432"><ele>71.0</ele><time>2026-04-04T09:42:54.835Z</time></trkpt><trkpt lat="41.975535" lon="12.7637311"><ele>71.0</ele><time>2026-04-04T09:42:55.835Z</time></trkpt><trkpt lat="41.975657" lon="12.7639145"><ele>71.0</ele><time>2026-04-04T09:42:56.835Z</time></trkpt><trkpt lat="41.9757804" lon="12.7640981"><ele>71.0</ele><time>2026-04-04T09:42:57.835Z</time></trkpt><trkpt lat="41.975905" lon="12.7642824"><ele>71.0</ele><time>2026-04-04T09:42:58.835Z</time></trkpt><trkpt lat="41.9760162" lon="12.764478"><ele>71.0</ele><time>2026-04-04T09:42:59.835Z</time></trkpt><trkpt lat="41.976131" lon="12.7646675"><ele>71.33333333333334</ele><time>2026-04-04T09:43:00.835Z</time></trkpt><trkpt lat="41.9762439" lon="12.7648582"><ele>71.66666666666667</ele><time>2026-04-04T09:43:01.835Z</time></trkpt><trkpt lat="41.9763527" lon="12.7650368"><ele>72.0</ele><time>2026-04-04T09:43:02.835Z</time></trkpt><trkpt lat="41.9764645" lon="12.7652078"><ele>71.66666666666667</ele><time>2026-04-04T09:43:03.835Z</time></trkpt><trkpt lat="41.976578" lon="12.7653709"><ele>71.33333333333334</ele><time>2026-04-04T09:43:04.835Z</time></trkpt><trkpt lat="41.9767013" lon="12.7655075"><ele>71.0</ele><time>2026-04-04T09:43:05.835Z</time></trkpt><trkpt lat="41.9768416" lon="12.765627"><ele>71.0</ele><time>2026-04-04T09:43:06.835Z</time></trkpt><trkpt lat="41.9770027" lon="12.7657498"><ele>71.0</ele><time>2026-04-04T09:43:07.835Z</time></trkpt><trkpt lat="41.9771607" lon="12.7658641"><ele>71.0</ele><time>2026-04-04T09:43:08.835Z</time></trkpt><trkpt lat="41.9773099" lon="12.7659719"><ele>71.0</ele><time>2026-04-04T09:43:09.835Z</time></trkpt><trkpt lat="41.9774514" lon="12.7660708"><ele>71.0</ele><time>2026-04-04T09:43:10.835Z</time></trkpt><trkpt lat="41.9775818" lon="12.7661642"><ele>71.0</ele><time>2026-04-04T09:43:11.835Z</time></trkpt><trkpt lat="41.9777049" lon="12.7662532"><ele>71.0</ele><time>2026-04-04T09:43:12.835Z</time></trkpt><trkpt lat="41.9778197" lon="12.766335"><ele>71.0</ele><time>2026-04-04T09:43:13.835Z</time></trkpt><trkpt lat="41.9779287" lon="12.7664092"><ele>71.0</ele><time>2026-04-04T09:43:14.835Z</time></trkpt><trkpt lat="41.9780307" lon="12.7664818"><ele>71.0</ele><time>2026-04-04T09:43:15.835Z</time></trkpt><trkpt lat="41.9781296" lon="12.7665495"><ele>71.0</ele><time>2026-04-04T09:43:16.835Z</time></trkpt><trkpt lat="41.9782204" lon="12.7666131"><ele>71.0</ele><time>2026-04-04T09:43:17.835Z</time></trkpt><trkpt lat="41.9783178" lon="12.7666767"><ele>71.0</ele><time>2026-04-04T09:43:18.835Z</time></trkpt><trkpt lat="41.9784232" lon="12.7667423"><ele>71.0</ele><time>2026-04-04T09:43:19.835Z</time></trkpt><trkpt lat="41.9785386" lon="12.7667979"><ele>71.0</ele><time>2026-04-04T09:43:20.835Z</time></trkpt><trkpt lat="41.9786585" lon="12.7668447"><ele>72.0</ele><time>2026-04-04T09:43:21.835Z</time></trkpt><trkpt lat="41.9787815" lon="12.7668886"><ele>73.0</ele><time>2026-04-04T09:43:22.834Z</time></trkpt><trkpt lat="41.9788996" lon="12.7669214"><ele>74.0</ele><time>2026-04-04T09:43:23.835Z</time></trkpt><trkpt lat="41.9790096" lon="12.7669424"><ele>75.0</ele><time>2026-04-04T09:43:24.835Z</time></trkpt><trkpt lat="41.9791085" lon="12.7669636"><ele>74.8</ele><time>2026-04-04T09:43:25.835Z</time></trkpt><trkpt lat="41.9791924" lon="12.766983"><ele>74.6</ele><time>2026-04-04T09:43:26.835Z</time></trkpt><trkpt lat="41.9792633" lon="12.7670091"><ele>74.4</ele><time>2026-04-04T09:43:27.835Z</time></trkpt><trkpt lat="41.9793233" lon="12.7671115"><ele>74.2</ele><time>2026-04-04T09:43:29.835Z</time></trkpt><trkpt lat="41.9792895" lon="12.7672533"><ele>74.0</ele><time>2026-04-04T09:43:31.835Z</time></trkpt><trkpt lat="41.9792341" lon="12.7673555"><ele>74.25</ele><time>2026-04-04T09:43:32.835Z</time></trkpt><trkpt lat="41.9791647" lon="12.7674759"><ele>74.5</ele><time>2026-04-04T09:43:33.835Z</time></trkpt><trkpt lat="41.9790884" lon="12.7675961"><ele>74.75</ele><time>2026-04-04T09:43:34.835Z</time></trkpt><trkpt lat="41.9790003" lon="12.7677178"><ele>75.0</ele><time>2026-04-04T09:43:35.835Z</time></trkpt><trkpt lat="41.9789041" lon="12.7678283"><ele>77.0</ele><time>2026-04-04T09:43:36.835Z</time></trkpt><trkpt lat="41.9787958" lon="12.7679304"><ele>79.0</ele><time>2026-04-04T09:43:37.835Z</time></trkpt><trkpt lat="41.9786894" lon="12.7680302"><ele>81.0</ele><time>2026-04-04T09:43:38.835Z</time></trkpt><trkpt lat="41.9785919" lon="12.7681276"><ele>83.0</ele><time>2026-04-04T09:43:39.835Z</time></trkpt><trkpt lat="41.9785132" lon="12.7682215"><ele>83.0</ele><time>2026-04-04T09:43:40.834Z</time></trkpt><trkpt lat="41.9784615" lon="12.7683309"><ele>83.0</ele><time>2026-04-04T09:43:41.835Z</time></trkpt><trkpt lat="41.9784071" lon="12.7684503"><ele>83.0</ele><time>2026-04-04T09:43:42.835Z</time></trkpt><trkpt lat="41.9783752" lon="12.7685888"><ele>83.0</ele><time>2026-04-04T09:43:43.835Z</time></trkpt><trkpt lat="41.9783477" lon="12.7687116"><ele>83.0</ele><time>2026-04-04T09:43:44.834Z</time></trkpt><trkpt lat="41.9783274" lon="12.7688446"><ele>82.75</ele><time>2026-04-04T09:43:45.835Z</time></trkpt><trkpt lat="41.9782939" lon="12.7689821"><ele>82.5</ele><time>2026-04-04T09:43:46.835Z</time></trkpt><trkpt lat="41.9782683" lon="12.7691339"><ele>82.25</ele><time>2026-04-04T09:43:47.834Z</time></trkpt><trkpt lat="41.9782488" lon="12.7692951"><ele>82.0</ele><time>2026-04-04T09:43:48.835Z</time></trkpt><trkpt lat="41.9782347" lon="12.769459"><ele>82.5</ele><time>2026-04-04T09:43:49.835Z</time></trkpt><trkpt lat="41.9782189" lon="12.7696234"><ele>83.0</ele><time>2026-04-04T09:43:50.834Z</time></trkpt><trkpt lat="41.9781996" lon="12.7697953"><ele>83.5</ele><time>2026-04-04T09:43:51.834Z</time></trkpt><trkpt lat="41.9781855" lon="12.7699777"><ele>84.0</ele><time>2026-04-04T09:43:52.834Z</time></trkpt><trkpt lat="41.9781694" lon="12.7701605"><ele>84.25</ele><time>2026-04-04T09:43:53.835Z</time></trkpt><trkpt lat="41.9781547" lon="12.7703383"><ele>84.5</ele><time>2026-04-04T09:43:54.835Z</time></trkpt><trkpt lat="41.9781431" lon="12.7705097"><ele>84.75</ele><time>2026-04-04T09:43:55.835Z</time></trkpt><trkpt lat="41.9781276" lon="12.7706821"><ele>85.0</ele><time>2026-04-04T09:43:56.835Z</time></trkpt><trkpt lat="41.9781075" lon="12.7708561"><ele>85.5</ele><time>2026-04-04T09:43:57.835Z</time></trkpt><trkpt lat="41.9780825" lon="12.7710292"><ele>86.0</ele><time>2026-04-04T09:43:58.835Z</time></trkpt><trkpt lat="41.9780586" lon="12.7711939"><ele>86.5</ele><time>2026-04-04T09:43:59.835Z</time></trkpt><trkpt lat="41.978029" lon="12.7713501"><ele>87.0</ele><time>2026-04-04T09:44:00.835Z</time></trkpt><trkpt lat="41.9779978" lon="12.7714973"><ele>87.0</ele><time>2026-04-04T09:44:01.835Z</time></trkpt><trkpt lat="41.9779704" lon="12.7716354"><ele>87.0</ele><time>2026-04-04T09:44:02.835Z</time></trkpt><trkpt lat="41.9779342" lon="12.7717451"><ele>87.0</ele><time>2026-04-04T09:44:03.835Z</time></trkpt><trkpt lat="41.9779014" lon="12.7718324"><ele>87.0</ele><time>2026-04-04T09:44:04.835Z</time></trkpt><trkpt lat="41.9778568" lon="12.7719411"><ele>87.0</ele><time>2026-04-04T09:44:06.835Z</time></trkpt><trkpt lat="41.9778241" lon="12.7720233"><ele>87.0</ele><time>2026-04-04T09:44:10.835Z</time></trkpt><trkpt lat="41.9777594" lon="12.7721495"><ele>86.8</ele><time>2026-04-04T09:44:12.835Z</time></trkpt><trkpt lat="41.9777258" lon="12.7722436"><ele>86.6</ele><time>2026-04-04T09:44:13.835Z</time></trkpt><trkpt lat="41.9776698" lon="12.7723461"><ele>86.39999999999999</ele><time>2026-04-04T09:44:14.835Z</time></trkpt><trkpt lat="41.9776042" lon="12.7724885"><ele>86.19999999999999</ele><time>2026-04-04T09:44:15.835Z</time></trkpt><trkpt lat="41.9775359" lon="12.772632"><ele>86.0</ele><time>2026-04-04T09:44:16.835Z</time></trkpt><trkpt lat="41.9774726" lon="12.7727734"><ele>85.0</ele><time>2026-04-04T09:44:17.835Z</time></trkpt><trkpt lat="41.9774055" lon="12.7729083"><ele>84.0</ele><time>2026-04-04T09:44:18.835Z</time></trkpt><trkpt lat="41.9773287" lon="12.7730469"><ele>83.0</ele><time>2026-04-04T09:44:19.834Z</time></trkpt><trkpt lat="41.9772639" lon="12.7731789"><ele>82.0</ele><time>2026-04-04T09:44:20.835Z</time></trkpt><trkpt lat="41.9772091" lon="12.7732986"><ele>82.0</ele><time>2026-04-04T09:44:21.835Z</time></trkpt><trkpt lat="41.9771616" lon="12.7734009"><ele>82.0</ele><time>2026-04-04T09:44:22.835Z</time></trkpt><trkpt lat="41.9771154" lon="12.7735142"><ele>82.0</ele><time>2026-04-04T09:44:23.835Z</time></trkpt><trkpt lat="41.9770751" lon="12.7736128"><ele>82.0</ele><time>2026-04-04T09:44:24.835Z</time></trkpt><trkpt lat="41.9770339" lon="12.7737143"><ele>82.0</ele><time>2026-04-04T09:44:25.835Z</time></trkpt><trkpt lat="41.9769974" lon="12.7738235"><ele>82.0</ele><time>2026-04-04T09:44:26.835Z</time></trkpt><trkpt lat="41.9769566" lon="12.7739601"><ele>82.28571428571428</ele><time>2026-04-04T09:44:27.835Z</time></trkpt><trkpt lat="41.9769173" lon="12.7740802"><ele>82.57142857142857</ele><time>2026-04-04T09:44:28.835Z</time></trkpt><trkpt lat="41.9768936" lon="12.7741669"><ele>82.85714285714286</ele><time>2026-04-04T09:44:29.835Z</time></trkpt><trkpt lat="41.9768591" lon="12.7742405"><ele>83.14285714285714</ele><time>2026-04-04T09:44:31.835Z</time></trkpt><trkpt lat="41.9768978" lon="12.7743154"><ele>83.42857142857143</ele><time>2026-04-04T09:44:38.835Z</time></trkpt><trkpt lat="41.9769386" lon="12.7742412"><ele>83.71428571428571</ele><time>2026-04-04T09:44:46.835Z</time></trkpt><trkpt lat="41.9770035" lon="12.7742463"><ele>84.0</ele><time>2026-04-04T09:44:49.835Z</time></trkpt><trkpt lat="41.9770788" lon="12.7742436"><ele>84.0</ele><time>2026-04-04T09:44:50.835Z</time></trkpt><trkpt lat="41.9771616" lon="12.7742556"><ele>84.0</ele><time>2026-04-04T09:44:51.835Z</time></trkpt><trkpt lat="41.9772643" lon="12.7742702"><ele>84.0</ele><time>2026-04-04T09:44:52.835Z</time></trkpt><trkpt lat="41.97738" lon="12.7742864"><ele>84.0</ele><time>2026-04-04T09:44:53.835Z</time></trkpt><trkpt lat="41.9774995" lon="12.7743039"><ele>84.0</ele><time>2026-04-04T09:44:54.835Z</time></trkpt><trkpt lat="41.97762" lon="12.7743224"><ele>85.2</ele><time>2026-04-04T09:44:55.835Z</time></trkpt><trkpt lat="41.9777433" lon="12.7743392"><ele>86.4</ele><time>2026-04-04T09:44:56.835Z</time></trkpt><trkpt lat="41.9778475" lon="12.7743606"><ele>87.6</ele><time>2026-04-04T09:44:57.835Z</time></trkpt><trkpt lat="41.977952" lon="12.7743851"><ele>88.8</ele><time>2026-04-04T09:44:58.835Z</time></trkpt><trkpt lat="41.9780455" lon="12.7744065"><ele>90.0</ele><time>2026-04-04T09:44:59.835Z</time></trkpt><trkpt lat="41.9781211" lon="12.7744219"><ele>90.16666666666667</ele><time>2026-04-04T09:45:00.835Z</time></trkpt><trkpt lat="41.9782057" lon="12.7744301"><ele>90.33333333333333</ele><time>2026-04-04T09:45:01.835Z</time></trkpt><trkpt lat="41.9782722" lon="12.7744369"><ele>90.5</ele><time>2026-04-04T09:45:02.835Z</time></trkpt><trkpt lat="41.9783361" lon="12.774451"><ele>90.66666666666666</ele><time>2026-04-04T09:45:03.835Z</time></trkpt><trkpt lat="41.978419" lon="12.7744703"><ele>90.83333333333333</ele><time>2026-04-04T09:45:04.835Z</time></trkpt><trkpt lat="41.9785008" lon="12.7745002"><ele>91.0</ele><time>2026-04-04T09:45:05.835Z</time></trkpt><trkpt lat="41.9785825" lon="12.7745193"><ele>93.0</ele><time>2026-04-04T09:45:06.835Z</time></trkpt><trkpt lat="41.9786523" lon="12.7745224"><ele>95.0</ele><time>2026-04-04T09:45:07.835Z</time></trkpt><trkpt lat="41.9787422" lon="12.7744097"><ele>97.0</ele><time>2026-04-04T09:45:09.835Z</time></trkpt><trkpt lat="41.9787735" lon="12.7743176"><ele>99.0</ele><time>2026-04-04T09:45:10.835Z</time></trkpt><trkpt lat="41.97884" lon="12.7741744"><ele>101.0</ele><time>2026-04-04T09:45:12.835Z</time></trkpt><trkpt lat="41.9789484" lon="12.7741389"><ele>100.99999999999999</ele><time>2026-04-04T09:45:14.835Z</time></trkpt><trkpt lat="41.9790221" lon="12.7741486"><ele>101.0</ele><time>2026-04-04T09:45:15.835Z</time></trkpt><trkpt lat="41.9791105" lon="12.7741794"><ele>101.0</ele><time>2026-04-04T09:45:16.835Z</time></trkpt><trkpt lat="41.9791939" lon="12.774207"><ele>101.0</ele><time>2026-04-04T09:45:17.835Z</time></trkpt><trkpt lat="41.9792704" lon="12.7742547"><ele>100.99999999999999</ele><time>2026-04-04T09:45:18.835Z</time></trkpt><trkpt lat="41.9793469" lon="12.7743234"><ele>101.0</ele><time>2026-04-04T09:45:19.835Z</time></trkpt><trkpt lat="41.9794286" lon="12.774387"><ele>103.16666666666666</ele><time>2026-04-04T09:45:20.834Z</time></trkpt><trkpt lat="41.9795115" lon="12.7744432"><ele>105.33333333333333</ele><time>2026-04-04T09:45:21.835Z</time></trkpt><trkpt lat="41.9795908" lon="12.7745013"><ele>107.5</ele><time>2026-04-04T09:45:22.835Z</time></trkpt><trkpt lat="41.9796628" lon="12.7745249"><ele>109.66666666666666</ele><time>2026-04-04T09:45:23.835Z</time></trkpt><trkpt lat="41.9797365" lon="12.7745211"><ele>111.83333333333333</ele><time>2026-04-04T09:45:24.835Z</time></trkpt><trkpt lat="41.9798084" lon="12.7744673"><ele>114.0</ele><time>2026-04-04T09:45:25.835Z</time></trkpt><trkpt lat="41.979883" lon="12.7743893"><ele>113.2</ele><time>2026-04-04T09:45:26.835Z</time></trkpt><trkpt lat="41.9799401" lon="12.7742911"><ele>112.4</ele><time>2026-04-04T09:45:27.835Z</time></trkpt><trkpt lat="41.9799688" lon="12.7741644"><ele>111.6</ele><time>2026-04-04T09:45:28.834Z</time></trkpt><trkpt lat="41.9799963" lon="12.7740267"><ele>110.8</ele><time>2026-04-04T09:45:29.835Z</time></trkpt><trkpt lat="41.9800349" lon="12.7738943"><ele>110.0</ele><time>2026-04-04T09:45:30.835Z</time></trkpt><trkpt lat="41.9800731" lon="12.7737794"><ele>112.4</ele><time>2026-04-04T09:45:31.835Z</time></trkpt><trkpt lat="41.9801152" lon="12.7736878"><ele>114.8</ele><time>2026-04-04T09:45:32.835Z</time></trkpt><trkpt lat="41.9801848" lon="12.7735988"><ele>117.19999999999999</ele><time>2026-04-04T09:45:33.835Z</time></trkpt><trkpt lat="41.9802663" lon="12.7735087"><ele>119.6</ele><time>2026-04-04T09:45:34.835Z</time></trkpt><trkpt lat="41.9803452" lon="12.7734241"><ele>122.0</ele><time>2026-04-04T09:45:35.835Z</time></trkpt><trkpt lat="41.9804275" lon="12.773326"><ele>122.33333333333333</ele><time>2026-04-04T09:45:36.835Z</time></trkpt><trkpt lat="41.9805022" lon="12.77324"><ele>122.66666666666666</ele><time>2026-04-04T09:45:37.835Z</time></trkpt><trkpt lat="41.9805547" lon="12.7731595"><ele>123.0</ele><time>2026-04-04T09:45:38.835Z</time></trkpt><trkpt lat="41.9806026" lon="12.7730941"><ele>123.33333333333334</ele><time>2026-04-04T09:45:39.835Z</time></trkpt><trkpt lat="41.9806636" lon="12.7730515"><ele>123.66666666666667</ele><time>2026-04-04T09:45:40.835Z</time></trkpt><trkpt lat="41.9807866" lon="12.7730714"><ele>124.0</ele><time>2026-04-04T09:45:42.835Z</time></trkpt><trkpt lat="41.9808749" lon="12.7731496"><ele>125.2</ele><time>2026-04-04T09:45:43.835Z</time></trkpt><trkpt lat="41.9809698" lon="12.7732011"><ele>126.4</ele><time>2026-04-04T09:45:44.835Z</time></trkpt><trkpt lat="41.9810741" lon="12.7732375"><ele>127.6</ele><time>2026-04-04T09:45:45.835Z</time></trkpt><trkpt lat="41.9811888" lon="12.7732533"><ele>128.8</ele><time>2026-04-04T09:45:46.835Z</time></trkpt><trkpt lat="41.9813002" lon="12.7732684"><ele>130.0</ele><time>2026-04-04T09:45:47.834Z</time></trkpt><trkpt lat="41.981397" lon="12.7732839"><ele>130.0</ele><time>2026-04-04T09:45:48.835Z</time></trkpt><trkpt lat="41.9814953" lon="12.7732967"><ele>130.0</ele><time>2026-04-04T09:45:49.835Z</time></trkpt><trkpt lat="41.981595" lon="12.7733052"><ele>130.0</ele><time>2026-04-04T09:45:50.835Z</time></trkpt><trkpt lat="41.9816851" lon="12.7733168"><ele>130.0</ele><time>2026-04-04T09:45:51.835Z</time></trkpt><trkpt lat="41.9817751" lon="12.7733456"><ele>130.0</ele><time>2026-04-04T09:45:52.835Z</time></trkpt><trkpt lat="41.981862" lon="12.773407"><ele>131.5</ele><time>2026-04-04T09:45:53.835Z</time></trkpt><trkpt lat="41.9819615" lon="12.7734862"><ele>133.0</ele><time>2026-04-04T09:45:54.835Z</time></trkpt><trkpt lat="41.9820704" lon="12.7735629"><ele>134.5</ele><time>2026-04-04T09:45:55.835Z</time></trkpt><trkpt lat="41.9821949" lon="12.773653"><ele>136.0</ele><time>2026-04-04T09:45:56.835Z</time></trkpt><trkpt lat="41.9822949" lon="12.7737405"><ele>136.6</ele><time>2026-04-04T09:45:57.835Z</time></trkpt><trkpt lat="41.9823918" lon="12.7738122"><ele>137.2</ele><time>2026-04-04T09:45:58.835Z</time></trkpt><trkpt lat="41.9824867" lon="12.7738823"><ele>137.8</ele><time>2026-04-04T09:45:59.834Z</time></trkpt><trkpt lat="41.9825635" lon="12.7739397"><ele>138.4</ele><time>2026-04-04T09:46:00.835Z</time></trkpt><trkpt lat="41.9826283" lon="12.7739887"><ele>139.0</ele><time>2026-04-04T09:46:01.835Z</time></trkpt><trkpt lat="41.9826886" lon="12.7740523"><ele>140.2</ele><time>2026-04-04T09:46:02.834Z</time></trkpt><trkpt lat="41.9827421" lon="12.7741213"><ele>141.4</ele><time>2026-04-04T09:46:03.835Z</time></trkpt><trkpt lat="41.9828105" lon="12.7741859"><ele>142.6</ele><time>2026-04-04T09:46:04.835Z</time></trkpt><trkpt lat="41.9828917" lon="12.7742523"><ele>143.8</ele><time>2026-04-04T09:46:05.835Z</time></trkpt><trkpt lat="41.9829908" lon="12.7743235"><ele>145.0</ele><time>2026-04-04T09:46:06.835Z</time></trkpt><trkpt lat="41.9830841" lon="12.7743879"><ele>145.16666666666669</ele><time>2026-04-04T09:46:07.835Z</time></trkpt><trkpt lat="41.9831769" lon="12.7744511"><ele>145.33333333333334</ele><time>2026-04-04T09:46:08.835Z</time></trkpt><trkpt lat="41.9832582" lon="12.7744978"><ele>145.5</ele><time>2026-04-04T09:46:09.835Z</time></trkpt><trkpt lat="41.9833297" lon="12.7745388"><ele>145.66666666666666</ele><time>2026-04-04T09:46:10.835Z</time></trkpt><trkpt lat="41.9834067" lon="12.7745763"><ele>145.83333333333331</ele><time>2026-04-04T09:46:11.835Z</time></trkpt><trkpt lat="41.9834891" lon="12.7745942"><ele>146.0</ele><time>2026-04-04T09:46:12.834Z</time></trkpt><trkpt lat="41.983576" lon="12.7746128"><ele>146.0</ele><time>2026-04-04T09:46:13.835Z</time></trkpt><trkpt lat="41.983665" lon="12.7746352"><ele>146.0</ele><time>2026-04-04T09:46:14.835Z</time></trkpt><trkpt lat="41.9837455" lon="12.7746689"><ele>146.0</ele><time>2026-04-04T09:46:15.835Z</time></trkpt><trkpt lat="41.9838227" lon="12.774703"><ele>146.0</ele><time>2026-04-04T09:46:16.835Z</time></trkpt><trkpt lat="41.9838917" lon="12.7747178"><ele>146.0</ele><time>2026-04-04T09:46:17.835Z</time></trkpt><trkpt lat="41.9839608" lon="12.7747234"><ele>146.0</ele><time>2026-04-04T09:46:18.835Z</time></trkpt><trkpt lat="41.9840389" lon="12.7747055"><ele>146.0</ele><time>2026-04-04T09:46:19.835Z</time></trkpt><trkpt lat="41.9841313" lon="12.7746773"><ele>146.0</ele><time>2026-04-04T09:46:20.834Z</time></trkpt><trkpt lat="41.984229" lon="12.7746487"><ele>146.0</ele><time>2026-04-04T09:46:21.835Z</time></trkpt><trkpt lat="41.9843167" lon="12.7746304"><ele>146.0</ele><time>2026-04-04T09:46:22.835Z</time></trkpt><trkpt lat="41.9844125" lon="12.7746144"><ele>146.0</ele><time>2026-04-04T09:46:23.835Z</time></trkpt><trkpt lat="41.9845019" lon="12.7746049"><ele>145.5</ele><time>2026-04-04T09:46:24.835Z</time></trkpt><trkpt lat="41.9845848" lon="12.7745905"><ele>145.0</ele><time>2026-04-04T09:46:25.835Z</time></trkpt><trkpt lat="41.9846608" lon="12.7745849"><ele>144.5</ele><time>2026-04-04T09:46:26.835Z</time></trkpt><trkpt lat="41.9847429" lon="12.7745815"><ele>144.0</ele><time>2026-04-04T09:46:27.835Z</time></trkpt><trkpt lat="41.9848227" lon="12.7745691"><ele>143.5</ele><time>2026-04-04T09:46:28.835Z</time></trkpt><trkpt lat="41.9849124" lon="12.7745598"><ele>143.0</ele><time>2026-04-04T09:46:29.835Z</time></trkpt><trkpt lat="41.9849931" lon="12.774553"><ele>141.5</ele><time>2026-04-04T09:46:30.835Z</time></trkpt><trkpt lat="41.9850857" lon="12.7745535"><ele>140.0</ele><time>2026-04-04T09:46:31.835Z</time></trkpt><trkpt lat="41.9851746" lon="12.7745527"><ele>138.5</ele><time>2026-04-04T09:46:32.835Z</time></trkpt><trkpt lat="41.9852613" lon="12.774553"><ele>137.0</ele><time>2026-04-04T09:46:33.835Z</time></trkpt><trkpt lat="41.9853454" lon="12.7745471"><ele>135.5</ele><time>2026-04-04T09:46:34.835Z</time></trkpt><trkpt lat="41.9854245" lon="12.7745399"><ele>134.0</ele><time>2026-04-04T09:46:35.835Z</time></trkpt><trkpt lat="41.9854953" lon="12.7745388"><ele>134.0</ele><time>2026-04-04T09:46:36.835Z</time></trkpt><trkpt lat="41.9855597" lon="12.7745389"><ele>134.0</ele><time>2026-04-04T09:46:37.835Z</time></trkpt><trkpt lat="41.9856766" lon="12.7745071"><ele>134.0</ele><time>2026-04-04T09:46:39.835Z</time></trkpt><trkpt lat="41.9857332" lon="12.7744647"><ele>134.0</ele><time>2026-04-04T09:46:40.835Z</time></trkpt><trkpt lat="41.985796" lon="12.774404"><ele>134.0</ele><time>2026-04-04T09:46:41.835Z</time></trkpt><trkpt lat="41.9858505" lon="12.7743445"><ele>134.0</ele><time>2026-04-04T09:46:42.835Z</time></trkpt><trkpt lat="41.9859005" lon="12.7742887"><ele>132.5</ele><time>2026-04-04T09:46:43.835Z</time></trkpt><trkpt lat="41.9859815" lon="12.7741848"><ele>131.0</ele><time>2026-04-04T09:46:45.835Z</time></trkpt><trkpt lat="41.9860335" lon="12.7741321"><ele>129.5</ele><time>2026-04-04T09:46:47.835Z</time></trkpt><trkpt lat="41.9860937" lon="12.7740943"><ele>128.0</ele><time>2026-04-04T09:46:51.835Z</time></trkpt><trkpt lat="41.9861524" lon="12.7740548"><ele>126.49999999999999</ele><time>2026-04-04T09:46:54.835Z</time></trkpt><trkpt lat="41.9862241" lon="12.7739974"><ele>125.0</ele><time>2026-04-04T09:46:56.835Z</time></trkpt><trkpt lat="41.9862843" lon="12.7739408"><ele>124.99999999999999</ele><time>2026-04-04T09:46:58.835Z</time></trkpt><trkpt lat="41.9863726" lon="12.7739429"><ele>125.0</ele><time>2026-04-04T09:47:01.835Z</time></trkpt><trkpt lat="41.9864577" lon="12.7739538"><ele>125.0</ele><time>2026-04-04T09:47:04.835Z</time></trkpt><trkpt lat="41.9865147" lon="12.7739117"><ele>125.0</ele><time>2026-04-04T09:47:06.835Z</time></trkpt><trkpt lat="41.9865927" lon="12.7738498"><ele>124.99999999999999</ele><time>2026-04-04T09:47:09.834Z</time></trkpt><trkpt lat="41.9866562" lon="12.7738314"><ele>125.0</ele><time>2026-04-04T09:47:11.834Z</time></trkpt><trkpt lat="41.9867279" lon="12.7738225"><ele>125.2</ele><time>2026-04-04T09:47:13.835Z</time></trkpt><trkpt lat="41.986812" lon="12.773794"><ele>125.4</ele><time>2026-04-04T09:47:15.835Z</time></trkpt><trkpt lat="41.9868909" lon="12.773751"><ele>125.6</ele><time>2026-04-04T09:47:17.835Z</time></trkpt><trkpt lat="41.9869756" lon="12.7737673"><ele>125.8</ele><time>2026-04-04T09:47:20.835Z</time></trkpt><trkpt lat="41.987083" lon="12.7738952"><ele>126.0</ele><time>2026-04-04T09:47:22.834Z</time></trkpt><trkpt lat="41.9871511" lon="12.7739646"><ele>126.0</ele><time>2026-04-04T09:47:23.835Z</time></trkpt><trkpt lat="41.9872112" lon="12.7740312"><ele>126.0</ele><time>2026-04-04T09:47:24.835Z</time></trkpt><trkpt lat="41.987283" lon="12.7741014"><ele>126.0</ele><time>2026-04-04T09:47:25.834Z</time></trkpt><trkpt lat="41.9873412" lon="12.7741702"><ele>126.0</ele><time>2026-04-04T09:47:26.835Z</time></trkpt><trkpt lat="41.9874182" lon="12.7742713"><ele>126.0</ele><time>2026-04-04T09:47:28.835Z</time></trkpt><trkpt lat="41.9874323" lon="12.7743829"><ele>126.0</ele><time>2026-04-04T09:47:31.835Z</time></trkpt><trkpt lat="41.9873375" lon="12.7745302"><ele>128.5</ele><time>2026-04-04T09:47:33.835Z</time></trkpt><trkpt lat="41.98727" lon="12.7746404"><ele>131.0</ele><time>2026-04-04T09:47:34.835Z</time></trkpt><trkpt lat="41.9872077" lon="12.7747581"><ele>133.5</ele><time>2026-04-04T09:47:35.834Z</time></trkpt><trkpt lat="41.9871263" lon="12.7749117"><ele>136.0</ele><time>2026-04-04T09:47:36.835Z</time></trkpt><trkpt lat="41.9870484" lon="12.7750519"><ele>136.0</ele><time>2026-04-04T09:47:37.835Z</time></trkpt><trkpt lat="41.9869797" lon="12.7751761"><ele>136.0</ele><time>2026-04-04T09:47:38.835Z</time></trkpt><trkpt lat="41.9869148" lon="12.7752855"><ele>136.0</ele><time>2026-04-04T09:47:39.835Z</time></trkpt><trkpt lat="41.9868559" lon="12.7753638"><ele>136.0</ele><time>2026-04-04T09:47:40.835Z</time></trkpt><trkpt lat="41.9868137" lon="12.7754304"><ele>136.0</ele><time>2026-04-04T09:47:41.835Z</time></trkpt><trkpt lat="41.9867923" lon="12.7755117"><ele>136.0</ele><time>2026-04-04T09:47:43.835Z</time></trkpt><trkpt lat="41.9868735" lon="12.7753817"><ele>136.0</ele><time>2026-04-04T09:48:34.835Z</time></trkpt><trkpt lat="41.9869162" lon="12.7753074"><ele>136.0</ele><time>2026-04-04T09:48:35.834Z</time></trkpt><trkpt lat="41.9869678" lon="12.775226"><ele>136.0</ele><time>2026-04-04T09:48:36.835Z</time></trkpt><trkpt lat="41.9870185" lon="12.7751414"><ele>136.0</ele><time>2026-04-04T09:48:37.835Z</time></trkpt><trkpt lat="41.987069" lon="12.7750379"><ele>136.0</ele><time>2026-04-04T09:48:38.835Z</time></trkpt><trkpt lat="41.9871214" lon="12.7749309"><ele>136.0</ele><time>2026-04-04T09:48:39.835Z</time></trkpt><trkpt lat="41.9871783" lon="12.7748239"><ele>136.0</ele><time>2026-04-04T09:48:40.835Z</time></trkpt><trkpt lat="41.9872343" lon="12.7747151"><ele>136.0</ele><time>2026-04-04T09:48:41.835Z</time></trkpt><trkpt lat="41.9873028" lon="12.7745847"><ele>136.0</ele><time>2026-04-04T09:48:42.835Z</time></trkpt><trkpt lat="41.9873842" lon="12.7744618"><ele>136.0</ele><time>2026-04-04T09:48:43.835Z</time></trkpt><trkpt lat="41.9874576" lon="12.7743539"><ele>136.0</ele><time>2026-04-04T09:48:44.835Z</time></trkpt><trkpt lat="41.9875302" lon="12.774223"><ele>136.2</ele><time>2026-04-04T09:48:45.835Z</time></trkpt><trkpt lat="41.9875924" lon="12.7741005"><ele>136.39999999999998</ele><time>2026-04-04T09:48:46.835Z</time></trkpt><trkpt lat="41.9876467" lon="12.7739806"><ele>136.6</ele><time>2026-04-04T09:48:47.835Z</time></trkpt><trkpt lat="41.9876973" lon="12.7738606"><ele>136.79999999999998</ele><time>2026-04-04T09:48:48.835Z</time></trkpt><trkpt lat="41.9877423" lon="12.7737535"><ele>137.0</ele><time>2026-04-04T09:48:49.835Z</time></trkpt><trkpt lat="41.9877998" lon="12.7736462"><ele>137.0</ele><time>2026-04-04T09:48:50.835Z</time></trkpt><trkpt lat="41.9878594" lon="12.773536"><ele>137.0</ele><time>2026-04-04T09:48:51.835Z</time></trkpt><trkpt lat="41.9879117" lon="12.7734147"><ele>137.0</ele><time>2026-04-04T09:48:52.835Z</time></trkpt><trkpt lat="41.9879686" lon="12.7732892"><ele>137.0</ele><time>2026-04-04T09:48:53.835Z</time></trkpt><trkpt lat="41.988024" lon="12.7731657"><ele>137.0</ele><time>2026-04-04T09:48:54.835Z</time></trkpt><trkpt lat="41.9880825" lon="12.7730327"><ele>133.75</ele><time>2026-04-04T09:48:55.835Z</time></trkpt><trkpt lat="41.9881475" lon="12.7728989"><ele>130.5</ele><time>2026-04-04T09:48:56.835Z</time></trkpt><trkpt lat="41.9882154" lon="12.7727704"><ele>127.25</ele><time>2026-04-04T09:48:57.834Z</time></trkpt><trkpt lat="41.9882831" lon="12.7726417"><ele>124.0</ele><time>2026-04-04T09:48:58.835Z</time></trkpt><trkpt lat="41.9883473" lon="12.7725318"><ele>123.2</ele><time>2026-04-04T09:48:59.835Z</time></trkpt><trkpt lat="41.9884035" lon="12.7724246"><ele>122.4</ele><time>2026-04-04T09:49:00.834Z</time></trkpt><trkpt lat="41.9884621" lon="12.7723202"><ele>121.6</ele><time>2026-04-04T09:49:01.835Z</time></trkpt><trkpt lat="41.9885219" lon="12.772219"><ele>120.8</ele><time>2026-04-04T09:49:02.835Z</time></trkpt><trkpt lat="41.988584" lon="12.7721215"><ele>120.0</ele><time>2026-04-04T09:49:03.835Z</time></trkpt><trkpt lat="41.9886461" lon="12.7720155"><ele>120.0</ele><time>2026-04-04T09:49:04.834Z</time></trkpt><trkpt lat="41.9887067" lon="12.7719123"><ele>120.0</ele><time>2026-04-04T09:49:05.835Z</time></trkpt><trkpt lat="41.988781" lon="12.7718034"><ele>120.0</ele><time>2026-04-04T09:49:06.835Z</time></trkpt><trkpt lat="41.9888572" lon="12.771689"><ele>120.0</ele><time>2026-04-04T09:49:07.835Z</time></trkpt><trkpt lat="41.9889304" lon="12.7715784"><ele>120.0</ele><time>2026-04-04T09:49:08.835Z</time></trkpt><trkpt lat="41.9890059" lon="12.7714635"><ele>121.0</ele><time>2026-04-04T09:49:09.835Z</time></trkpt><trkpt lat="41.9890721" lon="12.7713579"><ele>122.0</ele><time>2026-04-04T09:49:10.835Z</time></trkpt><trkpt lat="41.9891286" lon="12.7712764"><ele>123.0</ele><time>2026-04-04T09:49:11.835Z</time></trkpt><trkpt lat="41.9891816" lon="12.7712044"><ele>124.0</ele><time>2026-04-04T09:49:12.835Z</time></trkpt><trkpt lat="41.9892283" lon="12.7711421"><ele>125.0</ele><time>2026-04-04T09:49:13.834Z</time></trkpt><trkpt lat="41.9892868" lon="12.771062"><ele>126.0</ele><time>2026-04-04T09:49:15.835Z</time></trkpt><trkpt lat="41.989334" lon="12.7710013"><ele>126.5</ele><time>2026-04-04T09:49:26.835Z</time></trkpt><trkpt lat="41.9893409" lon="12.7710906"><ele>127.0</ele><time>2026-04-04T09:49:33.835Z</time></trkpt><trkpt lat="41.989355" lon="12.7711768"><ele>127.5</ele><time>2026-04-04T09:49:35.835Z</time></trkpt><trkpt lat="41.9893776" lon="12.7712817"><ele>128.0</ele><time>2026-04-04T09:49:37.835Z</time></trkpt><trkpt lat="41.9894089" lon="12.7713808"><ele>128.5</ele><time>2026-04-04T09:49:39.835Z</time></trkpt><trkpt lat="41.9894348" lon="12.7714873"><ele>129.0</ele><time>2026-04-04T09:49:41.835Z</time></trkpt><trkpt lat="41.9894736" lon="12.771593"><ele>129.0</ele><time>2026-04-04T09:49:43.835Z</time></trkpt><trkpt lat="41.9895086" lon="12.7717092"><ele>129.0</ele><time>2026-04-04T09:49:45.835Z</time></trkpt><trkpt lat="41.9895415" lon="12.7718423"><ele>129.0</ele><time>2026-04-04T09:49:47.835Z</time></trkpt><trkpt lat="41.9895935" lon="12.7719306"><ele>129.0</ele><time>2026-04-04T09:49:49.835Z</time></trkpt><trkpt lat="41.989648" lon="12.7720276"><ele>129.0</ele><time>2026-04-04T09:49:51.835Z</time></trkpt><trkpt lat="41.9897333" lon="12.7721636"><ele>128.83333333333334</ele><time>2026-04-04T09:49:53.835Z</time></trkpt><trkpt lat="41.9897802" lon="12.7722455"><ele>128.66666666666666</ele><time>2026-04-04T09:49:54.835Z</time></trkpt><trkpt lat="41.9898303" lon="12.7723185"><ele>128.5</ele><time>2026-04-04T09:49:55.835Z</time></trkpt><trkpt lat="41.9898786" lon="12.7723823"><ele>128.33333333333331</ele><time>2026-04-04T09:49:56.835Z</time></trkpt><trkpt lat="41.989929" lon="12.7724453"><ele>128.16666666666666</ele><time>2026-04-04T09:49:57.835Z</time></trkpt><trkpt lat="41.9900204" lon="12.7725477"><ele>128.0</ele><time>2026-04-04T09:49:59.835Z</time></trkpt><trkpt lat="41.9901174" lon="12.772604"><ele>131.16666666666666</ele><time>2026-04-04T09:50:01.835Z</time></trkpt><trkpt lat="41.9902122" lon="12.7726534"><ele>134.33333333333331</ele><time>2026-04-04T09:50:03.835Z</time></trkpt><trkpt lat="41.9902914" lon="12.7726871"><ele>137.5</ele><time>2026-04-04T09:50:05.835Z</time></trkpt><trkpt lat="41.9903666" lon="12.7727206"><ele>140.66666666666666</ele><time>2026-04-04T09:50:07.835Z</time></trkpt><trkpt lat="41.9904338" lon="12.7727474"><ele>143.83333333333334</ele><time>2026-04-04T09:50:09.835Z</time></trkpt><trkpt lat="41.9905208" lon="12.7727738"><ele>147.0</ele><time>2026-04-04T09:50:11.835Z</time></trkpt><trkpt lat="41.9906331" lon="12.772831"><ele>147.5</ele><time>2026-04-04T09:50:13.835Z</time></trkpt><trkpt lat="41.9907421" lon="12.7728795"><ele>148.0</ele><time>2026-04-04T09:50:15.835Z</time></trkpt><trkpt lat="41.9908071" lon="12.7729093"><ele>148.5</ele><time>2026-04-04T09:50:16.835Z</time></trkpt><trkpt lat="41.9908729" lon="12.7729388"><ele>149.0</ele><time>2026-04-04T09:50:17.835Z</time></trkpt><trkpt lat="41.9909391" lon="12.7729737"><ele>149.5</ele><time>2026-04-04T09:50:18.835Z</time></trkpt><trkpt lat="41.9910117" lon="12.7730096"><ele>150.0</ele><time>2026-04-04T09:50:19.835Z</time></trkpt><trkpt lat="41.9910715" lon="12.7730416"><ele>151.33333333333334</ele><time>2026-04-04T09:50:20.835Z</time></trkpt><trkpt lat="41.9911429" lon="12.7730812"><ele>152.66666666666666</ele><time>2026-04-04T09:50:21.835Z</time></trkpt><trkpt lat="41.991209" lon="12.7731168"><ele>154.0</ele><time>2026-04-04T09:50:22.835Z</time></trkpt><trkpt lat="41.9912815" lon="12.7731469"><ele>155.33333333333331</ele><time>2026-04-04T09:50:23.834Z</time></trkpt><trkpt lat="41.9913588" lon="12.7731754"><ele>156.66666666666666</ele><time>2026-04-04T09:50:24.835Z</time></trkpt><trkpt lat="41.9914297" lon="12.7732019"><ele>158.0</ele><time>2026-04-04T09:50:25.835Z</time></trkpt><trkpt lat="41.9915097" lon="12.7732238"><ele>158.0</ele><time>2026-04-04T09:50:26.834Z</time></trkpt><trkpt lat="41.9915793" lon="12.7732494"><ele>158.0</ele><time>2026-04-04T09:50:27.835Z</time></trkpt><trkpt lat="41.9916409" lon="12.7732695"><ele>158.0</ele><time>2026-04-04T09:50:28.835Z</time></trkpt><trkpt lat="41.9917463" lon="12.7732644"><ele>158.0</ele><time>2026-04-04T09:50:30.835Z</time></trkpt><trkpt lat="41.9918293" lon="12.7732606"><ele>158.0</ele><time>2026-04-04T09:50:32.835Z</time></trkpt><trkpt lat="41.9918822" lon="12.7733399"><ele>158.0</ele><time>2026-04-04T09:50:35.835Z</time></trkpt><trkpt lat="41.9918684" lon="12.7734292"><ele>157.83333333333331</ele><time>2026-04-04T09:50:38.835Z</time></trkpt><trkpt lat="41.9918556" lon="12.7735208"><ele>157.66666666666666</ele><time>2026-04-04T09:50:40.835Z</time></trkpt><trkpt lat="41.9918531" lon="12.7736644"><ele>157.5</ele><time>2026-04-04T09:50:42.834Z</time></trkpt><trkpt lat="41.9918503" lon="12.7737601"><ele>157.33333333333334</ele><time>2026-04-04T09:50:43.835Z</time></trkpt><trkpt lat="41.9918425" lon="12.7738629"><ele>157.16666666666669</ele><time>2026-04-04T09:50:44.835Z</time></trkpt><trkpt lat="41.991836" lon="12.7739591"><ele>157.0</ele><time>2026-04-04T09:50:45.835Z</time></trkpt><trkpt lat="41.9918312" lon="12.7740576"><ele>157.0</ele><time>2026-04-04T09:50:46.835Z</time></trkpt><trkpt lat="41.9918215" lon="12.7742318"><ele>157.0</ele><time>2026-04-04T09:50:48.835Z</time></trkpt><trkpt lat="41.9918166" lon="12.774323"><ele>157.0</ele><time>2026-04-04T09:50:49.834Z</time></trkpt><trkpt lat="41.9918133" lon="12.7744079"><ele>157.0</ele><time>2026-04-04T09:50:50.835Z</time></trkpt><trkpt lat="41.9918111" lon="12.7745177"><ele>157.0</ele><time>2026-04-04T09:50:51.835Z</time></trkpt><trkpt lat="41.9918046" lon="12.7746325"><ele>157.0</ele><time>2026-04-04T09:50:52.834Z</time></trkpt><trkpt lat="41.9917937" lon="12.7747497"><ele>157.5</ele><time>2026-04-04T09:50:53.835Z</time></trkpt><trkpt lat="41.9917899" lon="12.7748695"><ele>158.0</ele><time>2026-04-04T09:50:54.835Z</time></trkpt><trkpt lat="41.9917842" lon="12.7749742"><ele>158.5</ele><time>2026-04-04T09:50:55.835Z</time></trkpt><trkpt lat="41.9917763" lon="12.7750847"><ele>159.0</ele><time>2026-04-04T09:50:56.835Z</time></trkpt><trkpt lat="41.9917709" lon="12.7751954"><ele>159.5</ele><time>2026-04-04T09:50:57.834Z</time></trkpt><trkpt lat="41.9917627" lon="12.7752827"><ele>160.0</ele><time>2026-04-04T09:50:58.835Z</time></trkpt><trkpt lat="41.9917561" lon="12.775421"><ele>161.0</ele><time>2026-04-04T09:51:00.835Z</time></trkpt><trkpt lat="41.9917551" lon="12.7755102"><ele>162.0</ele><time>2026-04-04T09:51:19.835Z</time></trkpt><trkpt lat="41.9917619" lon="12.7756379"><ele>163.0</ele><time>2026-04-04T09:51:22.835Z</time></trkpt><trkpt lat="41.9917589" lon="12.7757321"><ele>164.0</ele><time>2026-04-04T09:51:23.835Z</time></trkpt><trkpt lat="41.9917543" lon="12.7758382"><ele>165.0</ele><time>2026-04-04T09:51:24.835Z</time></trkpt><trkpt lat="41.9917453" lon="12.7759469"><ele>166.0</ele><time>2026-04-04T09:51:25.835Z</time></trkpt><trkpt lat="41.9917402" lon="12.7760656"><ele>167.5</ele><time>2026-04-04T09:51:26.835Z</time></trkpt><trkpt lat="41.9917324" lon="12.7761854"><ele>169.0</ele><time>2026-04-04T09:51:27.835Z</time></trkpt><trkpt lat="41.9917312" lon="12.7762964"><ele>170.5</ele><time>2026-04-04T09:51:28.835Z</time></trkpt><trkpt lat="41.9917317" lon="12.7763941"><ele>172.0</ele><time>2026-04-04T09:51:29.835Z</time></trkpt><trkpt lat="41.9917302" lon="12.7765507"><ele>173.5</ele><time>2026-04-04T09:51:31.835Z</time></trkpt><trkpt lat="41.9917394" lon="12.7766548"><ele>175.0</ele><time>2026-04-04T09:51:33.835Z</time></trkpt><trkpt lat="41.9917821" lon="12.7767191"><ele>175.0</ele><time>2026-04-04T09:51:35.835Z</time></trkpt><trkpt lat="41.9918583" lon="12.7767385"><ele>175.0</ele><time>2026-04-04T09:51:37.835Z</time></trkpt><trkpt lat="41.9919569" lon="12.7767356"><ele>175.0</ele><time>2026-04-04T09:51:39.835Z</time></trkpt><trkpt lat="41.9920361" lon="12.7767563"><ele>175.0</ele><time>2026-04-04T09:51:41.835Z</time></trkpt><trkpt lat="41.9921234" lon="12.7767784"><ele>175.0</ele><time>2026-04-04T09:51:43.835Z</time></trkpt><trkpt lat="41.9922185" lon="12.7767979"><ele>175.0</ele><time>2026-04-04T09:51:45.835Z</time></trkpt><trkpt lat="41.9923255" lon="12.7768346"><ele>174.83333333333334</ele><time>2026-04-04T09:51:47.834Z</time></trkpt><trkpt lat="41.9923935" lon="12.776853"><ele>174.66666666666669</ele><time>2026-04-04T09:51:48.835Z</time></trkpt><trkpt lat="41.9924613" lon="12.7768777"><ele>174.5</ele><time>2026-04-04T09:51:49.834Z</time></trkpt><trkpt lat="41.992533" lon="12.7769069"><ele>174.33333333333334</ele><time>2026-04-04T09:51:50.835Z</time></trkpt><trkpt lat="41.9926254" lon="12.7769473"><ele>174.16666666666666</ele><time>2026-04-04T09:51:51.834Z</time></trkpt><trkpt lat="41.9927105" lon="12.7769831"><ele>174.0</ele><time>2026-04-04T09:51:52.834Z</time></trkpt><trkpt lat="41.9927947" lon="12.7770213"><ele>174.0</ele><time>2026-04-04T09:51:53.835Z</time></trkpt><trkpt lat="41.992867" lon="12.7770577"><ele>174.0</ele><time>2026-04-04T09:51:54.835Z</time></trkpt><trkpt lat="41.9929324" lon="12.7771084"><ele>174.0</ele><time>2026-04-04T09:51:55.835Z</time></trkpt><trkpt lat="41.9929976" lon="12.7771663"><ele>174.0</ele><time>2026-04-04T09:51:56.835Z</time></trkpt><trkpt lat="41.9930545" lon="12.7772274"><ele>174.0</ele><time>2026-04-04T09:51:57.835Z</time></trkpt><trkpt lat="41.9931148" lon="12.777291"><ele>174.0</ele><time>2026-04-04T09:51:58.835Z</time></trkpt><trkpt lat="41.9931767" lon="12.7773495"><ele>174.0</ele><time>2026-04-04T09:51:59.835Z</time></trkpt><trkpt lat="41.9932389" lon="12.7773964"><ele>174.0</ele><time>2026-04-04T09:52:00.835Z</time></trkpt><trkpt lat="41.9933121" lon="12.7774351"><ele>174.0</ele><time>2026-04-04T09:52:01.835Z</time></trkpt><trkpt lat="41.9933806" lon="12.7774599"><ele>174.0</ele><time>2026-04-04T09:52:02.835Z</time></trkpt><trkpt lat="41.9934436" lon="12.7774812"><ele>174.0</ele><time>2026-04-04T09:52:03.835Z</time></trkpt><trkpt lat="41.9935104" lon="12.7774962"><ele>174.0</ele><time>2026-04-04T09:52:04.835Z</time></trkpt><trkpt lat="41.9935758" lon="12.7775015"><ele>174.0</ele><time>2026-04-04T09:52:05.835Z</time></trkpt><trkpt lat="41.9936419" lon="12.7775048"><ele>173.83333333333334</ele><time>2026-04-04T09:52:06.835Z</time></trkpt><trkpt lat="41.9937205" lon="12.777507"><ele>173.66666666666666</ele><time>2026-04-04T09:52:07.835Z</time></trkpt><trkpt lat="41.9937956" lon="12.7775056"><ele>173.5</ele><time>2026-04-04T09:52:08.835Z</time></trkpt><trkpt lat="41.9938781" lon="12.7775016"><ele>173.33333333333331</ele><time>2026-04-04T09:52:09.835Z</time></trkpt><trkpt lat="41.9939642" lon="12.7775011"><ele>173.16666666666666</ele><time>2026-04-04T09:52:10.835Z</time></trkpt><trkpt lat="41.99405" lon="12.7775036"><ele>173.0</ele><time>2026-04-04T09:52:11.835Z</time></trkpt><trkpt lat="41.9941366" lon="12.7775028"><ele>174.0</ele><time>2026-04-04T09:52:12.835Z</time></trkpt><trkpt lat="41.9942185" lon="12.7775073"><ele>175.0</ele><time>2026-04-04T09:52:13.835Z</time></trkpt><trkpt lat="41.9942959" lon="12.7775091"><ele>176.0</ele><time>2026-04-04T09:52:14.835Z</time></trkpt><trkpt lat="41.9943771" lon="12.7775044"><ele>177.0</ele><time>2026-04-04T09:52:15.835Z</time></trkpt><trkpt lat="41.9944554" lon="12.7775116"><ele>178.0</ele><time>2026-04-04T09:52:16.835Z</time></trkpt><trkpt lat="41.9945329" lon="12.777532"><ele>179.0</ele><time>2026-04-04T09:52:17.835Z</time></trkpt><trkpt lat="41.9946214" lon="12.7775686"><ele>179.0</ele><time>2026-04-04T09:52:18.834Z</time></trkpt><trkpt lat="41.9947017" lon="12.7776076"><ele>179.0</ele><time>2026-04-04T09:52:19.835Z</time></trkpt><trkpt lat="41.9947972" lon="12.7776514"><ele>179.0</ele><time>2026-04-04T09:52:20.835Z</time></trkpt><trkpt lat="41.9948886" lon="12.7777017"><ele>179.0</ele><time>2026-04-04T09:52:21.835Z</time></trkpt><trkpt lat="41.9949852" lon="12.7777553"><ele>179.0</ele><time>2026-04-04T09:52:22.835Z</time></trkpt><trkpt lat="41.9950735" lon="12.7778165"><ele>180.0</ele><time>2026-04-04T09:52:23.835Z</time></trkpt><trkpt lat="41.9951637" lon="12.7778766"><ele>181.0</ele><time>2026-04-04T09:52:24.835Z</time></trkpt><trkpt lat="41.9952476" lon="12.7779341"><ele>182.0</ele><time>2026-04-04T09:52:25.835Z</time></trkpt><trkpt lat="41.9953318" lon="12.7779951"><ele>183.0</ele><time>2026-04-04T09:52:26.835Z</time></trkpt><trkpt lat="41.9954116" lon="12.7780548"><ele>184.0</ele><time>2026-04-04T09:52:27.835Z</time></trkpt><trkpt lat="41.9954852" lon="12.7781166"><ele>184.0</ele><time>2026-04-04T09:52:28.834Z</time></trkpt><trkpt lat="41.9955541" lon="12.7781865"><ele>184.0</ele><time>2026-04-04T09:52:29.835Z</time></trkpt><trkpt lat="41.9956334" lon="12.7782541"><ele>184.0</ele><time>2026-04-04T09:52:30.835Z</time></trkpt><trkpt lat="41.9957286" lon="12.778341"><ele>184.0</ele><time>2026-04-04T09:52:31.835Z</time></trkpt><trkpt lat="41.9958289" lon="12.7784319"><ele>184.0</ele><time>2026-04-04T09:52:32.835Z</time></trkpt><trkpt lat="41.9959303" lon="12.77852"><ele>185.0</ele><time>2026-04-04T09:52:33.835Z</time></trkpt><trkpt lat="41.9960269" lon="12.7786121"><ele>186.0</ele><time>2026-04-04T09:52:34.835Z</time></trkpt><trkpt lat="41.9961147" lon="12.7786913"><ele>187.0</ele><time>2026-04-04T09:52:35.835Z</time></trkpt><trkpt lat="41.9961996" lon="12.7787712"><ele>188.0</ele><time>2026-04-04T09:52:36.835Z</time></trkpt><trkpt lat="41.9962789" lon="12.7788491"><ele>189.0</ele><time>2026-04-04T09:52:37.835Z</time></trkpt><trkpt lat="41.9963573" lon="12.778927"><ele>189.0</ele><time>2026-04-04T09:52:38.835Z</time></trkpt><trkpt lat="41.9964398" lon="12.7790021"><ele>189.0</ele><time>2026-04-04T09:52:39.835Z</time></trkpt><trkpt lat="41.9965164" lon="12.7790708"><ele>189.0</ele><time>2026-04-04T09:52:40.835Z</time></trkpt><trkpt lat="41.9965859" lon="12.7791409"><ele>189.0</ele><time>2026-04-04T09:52:41.835Z</time></trkpt><trkpt lat="41.9966471" lon="12.7791947"><ele>189.0</ele><time>2026-04-04T09:52:42.835Z</time></trkpt><trkpt lat="41.9967243" lon="12.7792685"><ele>189.0</ele><time>2026-04-04T09:52:44.835Z</time></trkpt><trkpt lat="41.996787" lon="12.7793301"><ele>189.16666666666666</ele><time>2026-04-04T09:52:47.835Z</time></trkpt><trkpt lat="41.9968276" lon="12.7794102"><ele>189.33333333333334</ele><time>2026-04-04T09:52:49.835Z</time></trkpt><trkpt lat="41.9968664" lon="12.7795251"><ele>189.5</ele><time>2026-04-04T09:52:51.835Z</time></trkpt><trkpt lat="41.9968925" lon="12.7796168"><ele>189.66666666666669</ele><time>2026-04-04T09:52:53.835Z</time></trkpt><trkpt lat="41.9969406" lon="12.7797163"><ele>189.83333333333334</ele><time>2026-04-04T09:53:08.835Z</time></trkpt><trkpt lat="41.9968971" lon="12.779622"><ele>190.0</ele><time>2026-04-04T09:53:23.835Z</time></trkpt><trkpt lat="41.9968537" lon="12.7794821"><ele>190.0</ele><time>2026-04-04T09:53:25.835Z</time></trkpt><trkpt lat="41.996818" lon="12.7793637"><ele>190.0</ele><time>2026-04-04T09:53:27.835Z</time></trkpt><trkpt lat="41.996803" lon="12.779274"><ele>190.0</ele><time>2026-04-04T09:53:28.835Z</time></trkpt><trkpt lat="41.9967873" lon="12.779149"><ele>190.0</ele><time>2026-04-04T09:53:29.835Z</time></trkpt><trkpt lat="41.9967705" lon="12.7790126"><ele>190.0</ele><time>2026-04-04T09:53:30.835Z</time></trkpt><trkpt lat="41.9967555" lon="12.7788742"><ele>189.0</ele><time>2026-04-04T09:53:31.835Z</time></trkpt><trkpt lat="41.9967485" lon="12.7787459"><ele>188.0</ele><time>2026-04-04T09:53:32.835Z</time></trkpt><trkpt lat="41.9967378" lon="12.7786027"><ele>187.0</ele><time>2026-04-04T09:53:33.834Z</time></trkpt><trkpt lat="41.9967217" lon="12.7784686"><ele>186.0</ele><time>2026-04-04T09:53:34.835Z</time></trkpt><trkpt lat="41.9966992" lon="12.7783258"><ele>185.0</ele><time>2026-04-04T09:53:35.835Z</time></trkpt><trkpt lat="41.9966815" lon="12.7781754"><ele>186.75</ele><time>2026-04-04T09:53:36.835Z</time></trkpt><trkpt lat="41.9966629" lon="12.7780033"><ele>188.5</ele><time>2026-04-04T09:53:37.835Z</time></trkpt><trkpt lat="41.9966468" lon="12.7778224"><ele>190.25</ele><time>2026-04-04T09:53:38.835Z</time></trkpt><trkpt lat="41.9966332" lon="12.7776807"><ele>192.0</ele><time>2026-04-04T09:53:39.835Z</time></trkpt><trkpt lat="41.9966222" lon="12.7775585"><ele>192.39999999999998</ele><time>2026-04-04T09:53:40.835Z</time></trkpt><trkpt lat="41.9966107" lon="12.7774448"><ele>192.79999999999998</ele><time>2026-04-04T09:53:41.835Z</time></trkpt><trkpt lat="41.9966015" lon="12.7773307"><ele>193.2</ele><time>2026-04-04T09:53:42.835Z</time></trkpt><trkpt lat="41.996592" lon="12.777195"><ele>193.6</ele><time>2026-04-04T09:53:43.835Z</time></trkpt><trkpt lat="41.9965786" lon="12.7770378"><ele>194.0</ele><time>2026-04-04T09:53:44.835Z</time></trkpt><trkpt lat="41.996565" lon="12.7768788"><ele>193.0</ele><time>2026-04-04T09:53:45.835Z</time></trkpt><trkpt lat="41.9965531" lon="12.7767362"><ele>192.0</ele><time>2026-04-04T09:53:46.835Z</time></trkpt><trkpt lat="41.996542" lon="12.77661"><ele>191.0</ele><time>2026-04-04T09:53:47.835Z</time></trkpt><trkpt lat="41.9965325" lon="12.7764854"><ele>190.0</ele><time>2026-04-04T09:53:48.835Z</time></trkpt><trkpt lat="41.9965231" lon="12.776353"><ele>189.0</ele><time>2026-04-04T09:53:49.835Z</time></trkpt><trkpt lat="41.996513" lon="12.7762211"><ele>189.0</ele><time>2026-04-04T09:53:50.835Z</time></trkpt><trkpt lat="41.996503" lon="12.7761019"><ele>189.0</ele><time>2026-04-04T09:53:51.835Z</time></trkpt><trkpt lat="41.9965035" lon="12.7759925"><ele>189.0</ele><time>2026-04-04T09:53:52.835Z</time></trkpt><trkpt lat="41.9965072" lon="12.7758836"><ele>189.0</ele><time>2026-04-04T09:53:53.835Z</time></trkpt><trkpt lat="41.9965248" lon="12.7757889"><ele>189.0</ele><time>2026-04-04T09:53:54.835Z</time></trkpt><trkpt lat="41.9965481" lon="12.7757002"><ele>189.0</ele><time>2026-04-04T09:53:55.835Z</time></trkpt><trkpt lat="41.9965804" lon="12.7756177"><ele>188.5</ele><time>2026-04-04T09:53:56.835Z</time></trkpt><trkpt lat="41.9966192" lon="12.7755299"><ele>188.0</ele><time>2026-04-04T09:53:57.835Z</time></trkpt><trkpt lat="41.9966592" lon="12.7754457"><ele>187.5</ele><time>2026-04-04T09:53:58.835Z</time></trkpt><trkpt lat="41.9967104" lon="12.7753573"><ele>187.0</ele><time>2026-04-04T09:53:59.835Z</time></trkpt><trkpt lat="41.9967631" lon="12.7752627"><ele>186.5</ele><time>2026-04-04T09:54:00.835Z</time></trkpt><trkpt lat="41.9968144" lon="12.7751717"><ele>186.0</ele><time>2026-04-04T09:54:01.835Z</time></trkpt><trkpt lat="41.9968735" lon="12.7750851"><ele>184.60000000000002</ele><time>2026-04-04T09:54:02.835Z</time></trkpt><trkpt lat="41.9969392" lon="12.7749856"><ele>183.2</ele><time>2026-04-04T09:54:03.834Z</time></trkpt><trkpt lat="41.9970011" lon="12.7748865"><ele>181.8</ele><time>2026-04-04T09:54:04.835Z</time></trkpt><trkpt lat="41.9970565" lon="12.7747913"><ele>180.39999999999998</ele><time>2026-04-04T09:54:05.835Z</time></trkpt><trkpt lat="41.9971118" lon="12.7747075"><ele>179.0</ele><time>2026-04-04T09:54:06.835Z</time></trkpt><trkpt lat="41.997169" lon="12.7746191"><ele>179.0</ele><time>2026-04-04T09:54:07.835Z</time></trkpt><trkpt lat="41.9972247" lon="12.7745304"><ele>179.0</ele><time>2026-04-04T09:54:08.835Z</time></trkpt><trkpt lat="41.997281" lon="12.7744297"><ele>179.0</ele><time>2026-04-04T09:54:09.835Z</time></trkpt><trkpt lat="41.9973432" lon="12.7743281"><ele>179.0</ele><time>2026-04-04T09:54:10.835Z</time></trkpt><trkpt lat="41.9974063" lon="12.7742228"><ele>179.0</ele><time>2026-04-04T09:54:11.835Z</time></trkpt><trkpt lat="41.9974634" lon="12.7741052"><ele>176.83333333333331</ele><time>2026-04-04T09:54:12.835Z</time></trkpt><trkpt lat="41.9975085" lon="12.7739936"><ele>174.66666666666666</ele><time>2026-04-04T09:54:13.835Z</time></trkpt><trkpt lat="41.9975392" lon="12.7738911"><ele>172.5</ele><time>2026-04-04T09:54:14.835Z</time></trkpt><trkpt lat="41.9975661" lon="12.7737769"><ele>170.33333333333334</ele><time>2026-04-04T09:54:15.835Z</time></trkpt><trkpt lat="41.9975949" lon="12.7736801"><ele>168.16666666666669</ele><time>2026-04-04T09:54:16.835Z</time></trkpt><trkpt lat="41.9976201" lon="12.7736002"><ele>166.0</ele><time>2026-04-04T09:54:17.835Z</time></trkpt><trkpt lat="41.997666" lon="12.7734695"><ele>166.0</ele><time>2026-04-04T09:54:19.835Z</time></trkpt><trkpt lat="41.9977216" lon="12.7733487"><ele>166.0</ele><time>2026-04-04T09:54:21.835Z</time></trkpt><trkpt lat="41.9977751" lon="12.7732296"><ele>166.0</ele><time>2026-04-04T09:54:23.835Z</time></trkpt><trkpt lat="41.9978292" lon="12.7730984"><ele>166.0</ele><time>2026-04-04T09:54:25.835Z</time></trkpt><trkpt lat="41.9978843" lon="12.7729724"><ele>166.0</ele><time>2026-04-04T09:54:27.835Z</time></trkpt><trkpt lat="41.9979415" lon="12.7728541"><ele>166.0</ele><time>2026-04-04T09:54:29.835Z</time></trkpt><trkpt lat="41.9979889" lon="12.7727266"><ele>166.0</ele><time>2026-04-04T09:54:31.835Z</time></trkpt><trkpt lat="41.9980513" lon="12.7725958"><ele>166.0</ele><time>2026-04-04T09:54:33.835Z</time></trkpt><trkpt lat="41.9981092" lon="12.7724713"><ele>166.0</ele><time>2026-04-04T09:54:35.835Z</time></trkpt><trkpt lat="41.9981516" lon="12.7723581"><ele>166.0</ele><time>2026-04-04T09:54:37.835Z</time></trkpt><trkpt lat="41.998202" lon="12.7722438"><ele>165.14285714285714</ele><time>2026-04-04T09:54:39.835Z</time></trkpt><trkpt lat="41.9982501" lon="12.7721461"><ele>164.2857142857143</ele><time>2026-04-04T09:54:41.835Z</time></trkpt><trkpt lat="41.9982932" lon="12.772056"><ele>163.42857142857144</ele><time>2026-04-04T09:54:43.835Z</time></trkpt><trkpt lat="41.9983322" lon="12.7719765"><ele>162.57142857142856</ele><time>2026-04-04T09:54:45.835Z</time></trkpt><trkpt lat="41.9983684" lon="12.7719064"><ele>161.71428571428572</ele><time>2026-04-04T09:54:47.835Z</time></trkpt><trkpt lat="41.9983999" lon="12.7718169"><ele>160.85714285714286</ele><time>2026-04-04T09:54:51.835Z</time></trkpt><trkpt lat="41.998468" lon="12.7718394"><ele>160.0</ele><time>2026-04-04T09:55:18.835Z</time></trkpt><trkpt lat="41.998416" lon="12.7719172"><ele>160.0</ele><time>2026-04-04T09:55:22.835Z</time></trkpt><trkpt lat="41.9983537" lon="12.771957"><ele>160.0</ele><time>2026-04-04T09:55:24.835Z</time></trkpt><trkpt lat="41.9982944" lon="12.7720495"><ele>160.0</ele><time>2026-04-04T09:55:26.835Z</time></trkpt><trkpt lat="41.9982306" lon="12.772189"><ele>160.0</ele><time>2026-04-04T09:55:28.835Z</time></trkpt><trkpt lat="41.9981637" lon="12.7723288"><ele>160.0</ele><time>2026-04-04T09:55:30.835Z</time></trkpt><trkpt lat="41.9981328" lon="12.7724059"><ele>160.0</ele><time>2026-04-04T09:55:31.835Z</time></trkpt><trkpt lat="41.9980698" lon="12.7725496"><ele>160.0</ele><time>2026-04-04T09:55:33.835Z</time></trkpt><trkpt lat="41.9980183" lon="12.7726841"><ele>160.0</ele><time>2026-04-04T09:55:35.835Z</time></trkpt><trkpt lat="41.9979565" lon="12.772801"><ele>160.0</ele><time>2026-04-04T09:55:37.835Z</time></trkpt><trkpt lat="41.9978959" lon="12.772925"><ele>161.5</ele><time>2026-04-04T09:55:39.835Z</time></trkpt><trkpt lat="41.9978423" lon="12.773062"><ele>163.0</ele><time>2026-04-04T09:55:41.835Z</time></trkpt><trkpt lat="41.9977813" lon="12.7731986"><ele>164.5</ele><time>2026-04-04T09:55:43.834Z</time></trkpt><trkpt lat="41.9977254" lon="12.7733291"><ele>166.0</ele><time>2026-04-04T09:55:45.835Z</time></trkpt><trkpt lat="41.9976664" lon="12.773467"><ele>166.0</ele><time>2026-04-04T09:55:47.835Z</time></trkpt><trkpt lat="41.9976375" lon="12.7735431"><ele>166.0</ele><time>2026-04-04T09:55:48.834Z</time></trkpt><trkpt lat="41.9975868" lon="12.7736889"><ele>166.0</ele><time>2026-04-04T09:55:50.835Z</time></trkpt><trkpt lat="41.9975466" lon="12.7738549"><ele>166.0</ele><time>2026-04-04T09:55:52.835Z</time></trkpt><trkpt lat="41.9974984" lon="12.7739984"><ele>166.0</ele><time>2026-04-04T09:55:54.835Z</time></trkpt><trkpt lat="41.9974663" lon="12.7740794"><ele>168.16666666666669</ele><time>2026-04-04T09:55:55.835Z</time></trkpt><trkpt lat="41.9974098" lon="12.7742051"><ele>170.33333333333334</ele><time>2026-04-04T09:55:57.835Z</time></trkpt><trkpt lat="41.9973656" lon="12.774297"><ele>172.5</ele><time>2026-04-04T09:55:59.835Z</time></trkpt><trkpt lat="41.997319" lon="12.7743819"><ele>174.66666666666666</ele><time>2026-04-04T09:56:01.835Z</time></trkpt><trkpt lat="41.9972652" lon="12.774472"><ele>176.83333333333331</ele><time>2026-04-04T09:56:03.835Z</time></trkpt><trkpt lat="41.9972188" lon="12.7745615"><ele>179.0</ele><time>2026-04-04T09:56:05.834Z</time></trkpt><trkpt lat="41.9971626" lon="12.7746455"><ele>179.0</ele><time>2026-04-04T09:56:07.835Z</time></trkpt><trkpt lat="41.9970951" lon="12.7747491"><ele>179.0</ele><time>2026-04-04T09:56:09.835Z</time></trkpt><trkpt lat="41.9970152" lon="12.7748656"><ele>179.0</ele><time>2026-04-04T09:56:11.835Z</time></trkpt><trkpt lat="41.9969736" lon="12.7749319"><ele>179.0</ele><time>2026-04-04T09:56:12.834Z</time></trkpt><trkpt lat="41.9969325" lon="12.7750002"><ele>179.0</ele><time>2026-04-04T09:56:13.835Z</time></trkpt><trkpt lat="41.9968816" lon="12.7750824"><ele>179.0</ele><time>2026-04-04T09:56:14.835Z</time></trkpt><trkpt lat="41.9968263" lon="12.7751587"><ele>178.33333333333331</ele><time>2026-04-04T09:56:15.835Z</time></trkpt><trkpt lat="41.9967696" lon="12.7752533"><ele>177.66666666666666</ele><time>2026-04-04T09:56:16.835Z</time></trkpt><trkpt lat="41.9967229" lon="12.7753314"><ele>177.0</ele><time>2026-04-04T09:56:17.835Z</time></trkpt><trkpt lat="41.9966717" lon="12.7754145"><ele>176.33333333333334</ele><time>2026-04-04T09:56:18.835Z</time></trkpt><trkpt lat="41.9966222" lon="12.7755166"><ele>175.66666666666669</ele><time>2026-04-04T09:56:19.835Z</time></trkpt><trkpt lat="41.9965813" lon="12.7756176"><ele>175.0</ele><time>2026-04-04T09:56:20.835Z</time></trkpt><trkpt lat="41.9965442" lon="12.7757088"><ele>176.83333333333334</ele><time>2026-04-04T09:56:21.834Z</time></trkpt><trkpt lat="41.9965198" lon="12.7758069"><ele>178.66666666666669</ele><time>2026-04-04T09:56:22.835Z</time></trkpt><trkpt lat="41.9965059" lon="12.7759102"><ele>180.5</ele><time>2026-04-04T09:56:23.835Z</time></trkpt><trkpt lat="41.9965027" lon="12.7760296"><ele>182.33333333333334</ele><time>2026-04-04T09:56:24.835Z</time></trkpt><trkpt lat="41.9965046" lon="12.7761442"><ele>184.16666666666666</ele><time>2026-04-04T09:56:25.835Z</time></trkpt><trkpt lat="41.9965106" lon="12.7762592"><ele>186.0</ele><time>2026-04-04T09:56:26.834Z</time></trkpt><trkpt lat="41.9965215" lon="12.776384"><ele>186.60000000000002</ele><time>2026-04-04T09:56:27.835Z</time></trkpt><trkpt lat="41.996525" lon="12.7764731"><ele>187.2</ele><time>2026-04-04T09:56:28.835Z</time></trkpt><trkpt lat="41.9965452" lon="12.7766565"><ele>187.8</ele><time>2026-04-04T09:56:30.835Z</time></trkpt><trkpt lat="41.9965626" lon="12.7767768"><ele>188.39999999999998</ele><time>2026-04-04T09:56:31.835Z</time></trkpt><trkpt lat="41.9965714" lon="12.7769095"><ele>189.0</ele><time>2026-04-04T09:56:32.835Z</time></trkpt><trkpt lat="41.9965784" lon="12.7770279"><ele>190.0</ele><time>2026-04-04T09:56:33.835Z</time></trkpt><trkpt lat="41.996588" lon="12.7771621"><ele>191.0</ele><time>2026-04-04T09:56:34.835Z</time></trkpt><trkpt lat="41.9965935" lon="12.7772792"><ele>192.0</ele><time>2026-04-04T09:56:35.835Z</time></trkpt><trkpt lat="41.996606" lon="12.7773879"><ele>193.0</ele><time>2026-04-04T09:56:36.835Z</time></trkpt><trkpt lat="41.996618" lon="12.7775268"><ele>194.0</ele><time>2026-04-04T09:56:37.835Z</time></trkpt><trkpt lat="41.9966309" lon="12.7776735"><ele>193.66666666666669</ele><time>2026-04-04T09:56:38.835Z</time></trkpt><trkpt lat="41.996638" lon="12.7778011"><ele>193.33333333333334</ele><time>2026-04-04T09:56:39.835Z</time></trkpt><trkpt lat="41.9966524" lon="12.777927"><ele>193.0</ele><time>2026-04-04T09:56:40.835Z</time></trkpt><trkpt lat="41.9966632" lon="12.7780281"><ele>192.66666666666669</ele><time>2026-04-04T09:56:41.835Z</time></trkpt><trkpt lat="41.9966724" lon="12.7781388"><ele>192.33333333333334</ele><time>2026-04-04T09:56:42.835Z</time></trkpt><trkpt lat="41.9966905" lon="12.778256"><ele>192.0</ele><time>2026-04-04T09:56:43.835Z</time></trkpt><trkpt lat="41.996706" lon="12.7783678"><ele>190.83333333333334</ele><time>2026-04-04T09:56:44.835Z</time></trkpt><trkpt lat="41.996723" lon="12.7784924"><ele>189.66666666666666</ele><time>2026-04-04T09:56:45.835Z</time></trkpt><trkpt lat="41.9967322" lon="12.7786189"><ele>188.5</ele><time>2026-04-04T09:56:46.835Z</time></trkpt><trkpt lat="41.9967368" lon="12.7787313"><ele>187.33333333333331</ele><time>2026-04-04T09:56:47.835Z</time></trkpt><trkpt lat="41.996745" lon="12.778852"><ele>186.16666666666666</ele><time>2026-04-04T09:56:48.835Z</time></trkpt><trkpt lat="41.9967585" lon="12.7789554"><ele>185.0</ele><time>2026-04-04T09:56:49.835Z</time></trkpt><trkpt lat="41.9967874" lon="12.7791194"><ele>185.0</ele><time>2026-04-04T09:56:51.835Z</time></trkpt><trkpt lat="41.9968025" lon="12.7792612"><ele>185.0</ele><time>2026-04-04T09:56:53.835Z</time></trkpt><trkpt lat="41.996819" lon="12.7793836"><ele>185.0</ele><time>2026-04-04T09:56:55.835Z</time></trkpt><trkpt lat="41.9968658" lon="12.7795261"><ele>185.0</ele><time>2026-04-04T09:56:57.835Z</time></trkpt><trkpt lat="41.9968988" lon="12.7796208"><ele>185.0</ele><time>2026-04-04T09:56:58.835Z</time></trkpt><trkpt lat="41.9969298" lon="12.7797165"><ele>185.83333333333331</ele><time>2026-04-04T09:56:59.835Z</time></trkpt><trkpt lat="41.996962" lon="12.7798048"><ele>186.66666666666666</ele><time>2026-04-04T09:57:00.835Z</time></trkpt><trkpt lat="41.9969921" lon="12.7798922"><ele>187.5</ele><time>2026-04-04T09:57:01.835Z</time></trkpt><trkpt lat="41.9970368" lon="12.7799769"><ele>188.33333333333334</ele><time>2026-04-04T09:57:02.835Z</time></trkpt><trkpt lat="41.9970758" lon="12.7800691"><ele>189.16666666666669</ele><time>2026-04-04T09:57:03.835Z</time></trkpt><trkpt lat="41.997132" lon="12.7802136"><ele>190.0</ele><time>2026-04-04T09:57:05.835Z</time></trkpt><trkpt lat="41.9971689" lon="12.7803157"><ele>191.33333333333334</ele><time>2026-04-04T09:57:06.835Z</time></trkpt><trkpt lat="41.9972053" lon="12.7804097"><ele>192.66666666666669</ele><time>2026-04-04T09:57:07.835Z</time></trkpt><trkpt lat="41.9972406" lon="12.780503"><ele>194.0</ele><time>2026-04-04T09:57:08.835Z</time></trkpt><trkpt lat="41.9972794" lon="12.7805968"><ele>195.33333333333334</ele><time>2026-04-04T09:57:09.835Z</time></trkpt><trkpt lat="41.997319" lon="12.7806887"><ele>196.66666666666666</ele><time>2026-04-04T09:57:10.835Z</time></trkpt><trkpt lat="41.9973598" lon="12.7807778"><ele>198.0</ele><time>2026-04-04T09:57:11.835Z</time></trkpt><trkpt lat="41.9973989" lon="12.7808678"><ele>198.0</ele><time>2026-04-04T09:57:12.835Z</time></trkpt><trkpt lat="41.9974388" lon="12.7809607"><ele>198.0</ele><time>2026-04-04T09:57:13.835Z</time></trkpt><trkpt lat="41.9974807" lon="12.7810545"><ele>198.0</ele><time>2026-04-04T09:57:14.834Z</time></trkpt><trkpt lat="41.9975286" lon="12.7811511"><ele>198.0</ele><time>2026-04-04T09:57:15.835Z</time></trkpt><trkpt lat="41.997583" lon="12.7812622"><ele>198.0</ele><time>2026-04-04T09:57:16.835Z</time></trkpt><trkpt lat="41.9976361" lon="12.7813693"><ele>198.0</ele><time>2026-04-04T09:57:17.835Z</time></trkpt><trkpt lat="41.9976907" lon="12.7814833"><ele>198.5</ele><time>2026-04-04T09:57:18.835Z</time></trkpt><trkpt lat="41.9977395" lon="12.7815871"><ele>199.0</ele><time>2026-04-04T09:57:19.835Z</time></trkpt><trkpt lat="41.9977861" lon="12.7816905"><ele>199.5</ele><time>2026-04-04T09:57:20.835Z</time></trkpt><trkpt lat="41.9978224" lon="12.7817902"><ele>200.0</ele><time>2026-04-04T09:57:21.835Z</time></trkpt><trkpt lat="41.9978654" lon="12.7818949"><ele>200.5</ele><time>2026-04-04T09:57:22.835Z</time></trkpt><trkpt lat="41.9979167" lon="12.7819909"><ele>201.0</ele><time>2026-04-04T09:57:23.835Z</time></trkpt><trkpt lat="41.9979677" lon="12.7820898"><ele>201.60000000000002</ele><time>2026-04-04T09:57:24.835Z</time></trkpt><trkpt lat="41.9980246" lon="12.7821838"><ele>202.2</ele><time>2026-04-04T09:57:25.835Z</time></trkpt><trkpt lat="41.9980751" lon="12.7822899"><ele>202.8</ele><time>2026-04-04T09:57:26.835Z</time></trkpt><trkpt lat="41.9981303" lon="12.7824092"><ele>203.39999999999998</ele><time>2026-04-04T09:57:27.835Z</time></trkpt><trkpt lat="41.9981973" lon="12.7825442"><ele>204.0</ele><time>2026-04-04T09:57:28.835Z</time></trkpt><trkpt lat="41.9982696" lon="12.7826899"><ele>204.0</ele><time>2026-04-04T09:57:29.834Z</time></trkpt><trkpt lat="41.9983319" lon="12.782816"><ele>204.0</ele><time>2026-04-04T09:57:30.835Z</time></trkpt><trkpt lat="41.9983933" lon="12.7829336"><ele>204.0</ele><time>2026-04-04T09:57:31.835Z</time></trkpt><trkpt lat="41.9984475" lon="12.7830348"><ele>204.0</ele><time>2026-04-04T09:57:32.835Z</time></trkpt><trkpt lat="41.9984977" lon="12.7831321"><ele>204.0</ele><time>2026-04-04T09:57:33.835Z</time></trkpt><trkpt lat="41.9985508" lon="12.7832305"><ele>204.0</ele><time>2026-04-04T09:57:34.835Z</time></trkpt><trkpt lat="41.9986015" lon="12.7833307"><ele>204.0</ele><time>2026-04-04T09:57:35.835Z</time></trkpt><trkpt lat="41.9986574" lon="12.7834341"><ele>204.0</ele><time>2026-04-04T09:57:36.835Z</time></trkpt><trkpt lat="41.99871" lon="12.7835427"><ele>204.0</ele><time>2026-04-04T09:57:37.835Z</time></trkpt><trkpt lat="41.9987696" lon="12.7836552"><ele>204.0</ele><time>2026-04-04T09:57:38.834Z</time></trkpt><trkpt lat="41.9988238" lon="12.783776"><ele>204.33333333333334</ele><time>2026-04-04T09:57:39.835Z</time></trkpt><trkpt lat="41.9988673" lon="12.7838861"><ele>204.66666666666669</ele><time>2026-04-04T09:57:40.835Z</time></trkpt><trkpt lat="41.9989092" lon="12.7839872"><ele>205.0</ele><time>2026-04-04T09:57:41.835Z</time></trkpt><trkpt lat="41.9989574" lon="12.7840885"><ele>205.33333333333334</ele><time>2026-04-04T09:57:42.835Z</time></trkpt><trkpt lat="41.99901" lon="12.7841915"><ele>205.66666666666669</ele><time>2026-04-04T09:57:43.835Z</time></trkpt><trkpt lat="41.9990559" lon="12.7842897"><ele>206.0</ele><time>2026-04-04T09:57:44.835Z</time></trkpt><trkpt lat="41.9991076" lon="12.7844006"><ele>206.00000000000003</ele><time>2026-04-04T09:57:45.835Z</time></trkpt><trkpt lat="41.999143" lon="12.7844888"><ele>206.0</ele><time>2026-04-04T09:57:46.834Z</time></trkpt><trkpt lat="41.9991793" lon="12.7845934"><ele>206.0</ele><time>2026-04-04T09:57:47.835Z</time></trkpt><trkpt lat="41.9991989" lon="12.7847022"><ele>206.0</ele><time>2026-04-04T09:57:48.835Z</time></trkpt><trkpt lat="41.9992248" lon="12.7848146"><ele>206.00000000000003</ele><time>2026-04-04T09:57:49.835Z</time></trkpt><trkpt lat="41.9992406" lon="12.7849329"><ele>206.0</ele><time>2026-04-04T09:57:50.835Z</time></trkpt><trkpt lat="41.9992613" lon="12.785056"><ele>205.8</ele><time>2026-04-04T09:57:51.835Z</time></trkpt><trkpt lat="41.9992848" lon="12.7851812"><ele>205.60000000000002</ele><time>2026-04-04T09:57:52.835Z</time></trkpt><trkpt lat="41.9993075" lon="12.7853092"><ele>205.4</ele><time>2026-04-04T09:57:53.835Z</time></trkpt><trkpt lat="41.9993332" lon="12.7854403"><ele>205.2</ele><time>2026-04-04T09:57:54.835Z</time></trkpt><trkpt lat="41.9993488" lon="12.7855722"><ele>205.0</ele><time>2026-04-04T09:57:55.835Z</time></trkpt><trkpt lat="41.999369" lon="12.7856933"><ele>204.99999999999997</ele><time>2026-04-04T09:57:56.835Z</time></trkpt><trkpt lat="41.9993891" lon="12.7858032"><ele>205.0</ele><time>2026-04-04T09:57:57.835Z</time></trkpt><trkpt lat="41.999408" lon="12.785911"><ele>205.0</ele><time>2026-04-04T09:57:58.835Z</time></trkpt><trkpt lat="41.9994238" lon="12.7860052"><ele>205.0</ele><time>2026-04-04T09:57:59.835Z</time></trkpt><trkpt lat="41.9994264" lon="12.7860916"><ele>204.99999999999997</ele><time>2026-04-04T09:58:00.835Z</time></trkpt><trkpt lat="41.999411" lon="12.7861871"><ele>205.0</ele><time>2026-04-04T09:58:01.835Z</time></trkpt><trkpt lat="41.9993683" lon="12.7862729"><ele>204.6</ele><time>2026-04-04T09:58:02.835Z</time></trkpt><trkpt lat="41.9993047" lon="12.7863397"><ele>204.2</ele><time>2026-04-04T09:58:03.835Z</time></trkpt><trkpt lat="41.9992228" lon="12.7864135"><ele>203.8</ele><time>2026-04-04T09:58:04.834Z</time></trkpt><trkpt lat="41.999135" lon="12.7864924"><ele>203.4</ele><time>2026-04-04T09:58:05.835Z</time></trkpt><trkpt lat="41.9990417" lon="12.786571"><ele>203.0</ele><time>2026-04-04T09:58:06.835Z</time></trkpt><trkpt lat="41.9989501" lon="12.7866534"><ele>203.0</ele><time>2026-04-04T09:58:07.835Z</time></trkpt><trkpt lat="41.9988602" lon="12.7867409"><ele>203.0</ele><time>2026-04-04T09:58:08.835Z</time></trkpt><trkpt lat="41.9987692" lon="12.7868258"><ele>203.0</ele><time>2026-04-04T09:58:09.835Z</time></trkpt><trkpt lat="41.9986719" lon="12.786905"><ele>203.0</ele><time>2026-04-04T09:58:10.835Z</time></trkpt><trkpt lat="41.9985772" lon="12.7869824"><ele>203.0</ele><time>2026-04-04T09:58:11.835Z</time></trkpt><trkpt lat="41.9984824" lon="12.7870592"><ele>202.0</ele><time>2026-04-04T09:58:12.835Z</time></trkpt><trkpt lat="41.9983911" lon="12.7871335"><ele>201.0</ele><time>2026-04-04T09:58:13.835Z</time></trkpt><trkpt lat="41.9983073" lon="12.7872072"><ele>200.0</ele><time>2026-04-04T09:58:14.835Z</time></trkpt><trkpt lat="41.9982275" lon="12.7872769"><ele>199.0</ele><time>2026-04-04T09:58:15.835Z</time></trkpt><trkpt lat="41.99815" lon="12.7873437"><ele>198.0</ele><time>2026-04-04T09:58:16.835Z</time></trkpt><trkpt lat="41.9980822" lon="12.7874029"><ele>197.33333333333334</ele><time>2026-04-04T09:58:17.834Z</time></trkpt><trkpt lat="41.9980213" lon="12.7874614"><ele>196.66666666666669</ele><time>2026-04-04T09:58:18.835Z</time></trkpt><trkpt lat="41.9979665" lon="12.7875152"><ele>196.0</ele><time>2026-04-04T09:58:19.835Z</time></trkpt><trkpt lat="41.997856" lon="12.7875507"><ele>195.33333333333334</ele><time>2026-04-04T09:58:21.834Z</time></trkpt><trkpt lat="41.9977903" lon="12.7875176"><ele>194.66666666666669</ele><time>2026-04-04T09:58:22.835Z</time></trkpt><trkpt lat="41.9977201" lon="12.7874463"><ele>194.0</ele><time>2026-04-04T09:58:23.835Z</time></trkpt><trkpt lat="41.9976453" lon="12.7873599"><ele>194.0</ele><time>2026-04-04T09:58:24.834Z</time></trkpt><trkpt lat="41.9975576" lon="12.7872772"><ele>194.0</ele><time>2026-04-04T09:58:25.835Z</time></trkpt><trkpt lat="41.9974657" lon="12.7872054"><ele>194.0</ele><time>2026-04-04T09:58:26.835Z</time></trkpt><trkpt lat="41.9973843" lon="12.7871411"><ele>194.0</ele><time>2026-04-04T09:58:27.835Z</time></trkpt><trkpt lat="41.9973074" lon="12.7871007"><ele>194.0</ele><time>2026-04-04T09:58:28.835Z</time></trkpt><trkpt lat="41.9972351" lon="12.7870777"><ele>193.00000000000003</ele><time>2026-04-04T09:58:29.834Z</time></trkpt><trkpt lat="41.9971543" lon="12.787079"><ele>192.0</ele><time>2026-04-04T09:58:30.835Z</time></trkpt><trkpt lat="41.9970674" lon="12.7870916"><ele>191.0</ele><time>2026-04-04T09:58:31.835Z</time></trkpt><trkpt lat="41.9969812" lon="12.7871202"><ele>190.0</ele><time>2026-04-04T09:58:32.835Z</time></trkpt><trkpt lat="41.996902" lon="12.7871514"><ele>189.0</ele><time>2026-04-04T09:58:33.835Z</time></trkpt><trkpt lat="41.99683" lon="12.7871859"><ele>188.0</ele><time>2026-04-04T09:58:34.835Z</time></trkpt><trkpt lat="41.9967589" lon="12.7872283"><ele>186.5</ele><time>2026-04-04T09:58:35.835Z</time></trkpt><trkpt lat="41.9966629" lon="12.7873309"><ele>185.0</ele><time>2026-04-04T09:58:37.834Z</time></trkpt><trkpt lat="41.9966257" lon="12.7874868"><ele>183.5</ele><time>2026-04-04T09:58:39.835Z</time></trkpt><trkpt lat="41.9966065" lon="12.7876484"><ele>182.0</ele><time>2026-04-04T09:58:41.835Z</time></trkpt><trkpt lat="41.9965758" lon="12.7877854"><ele>182.0</ele><time>2026-04-04T09:58:43.835Z</time></trkpt><trkpt lat="41.9965685" lon="12.7878841"><ele>182.0</ele><time>2026-04-04T09:58:45.835Z</time></trkpt><trkpt lat="41.9965669" lon="12.7879765"><ele>182.0</ele><time>2026-04-04T09:59:32.835Z</time></trkpt><trkpt lat="41.996621" lon="12.7880253"><ele>182.0</ele><time>2026-04-04T09:59:33.835Z</time></trkpt><trkpt lat="41.996687" lon="12.7880873"><ele>182.0</ele><time>2026-04-04T09:59:34.835Z</time></trkpt><trkpt lat="41.9967653" lon="12.7881504"><ele>182.0</ele><time>2026-04-04T09:59:35.835Z</time></trkpt><trkpt lat="41.9968566" lon="12.7882319"><ele>182.0</ele><time>2026-04-04T09:59:36.835Z</time></trkpt><trkpt lat="41.9969604" lon="12.7883293"><ele>182.0</ele><time>2026-04-04T09:59:37.835Z</time></trkpt><trkpt lat="41.9970666" lon="12.7884321"><ele>182.0</ele><time>2026-04-04T09:59:38.835Z</time></trkpt><trkpt lat="41.9971561" lon="12.7885235"><ele>182.0</ele><time>2026-04-04T09:59:39.835Z</time></trkpt><trkpt lat="41.9972493" lon="12.7886145"><ele>181.25</ele><time>2026-04-04T09:59:40.835Z</time></trkpt><trkpt lat="41.9973441" lon="12.7887066"><ele>180.5</ele><time>2026-04-04T09:59:41.835Z</time></trkpt><trkpt lat="41.9974465" lon="12.7888115"><ele>179.75</ele><time>2026-04-04T09:59:42.835Z</time></trkpt><trkpt lat="41.997542" lon="12.7889055"><ele>179.0</ele><time>2026-04-04T09:59:43.835Z</time></trkpt><trkpt lat="41.9976318" lon="12.7889958"><ele>178.75</ele><time>2026-04-04T09:59:44.834Z</time></trkpt><trkpt lat="41.9977223" lon="12.7890857"><ele>178.5</ele><time>2026-04-04T09:59:45.835Z</time></trkpt><trkpt lat="41.9978161" lon="12.7891703"><ele>178.25</ele><time>2026-04-04T09:59:46.835Z</time></trkpt><trkpt lat="41.9979113" lon="12.7892634"><ele>178.0</ele><time>2026-04-04T09:59:47.835Z</time></trkpt><trkpt lat="41.9980041" lon="12.7893527"><ele>177.8</ele><time>2026-04-04T09:59:48.835Z</time></trkpt><trkpt lat="41.9980923" lon="12.7894466"><ele>177.60000000000002</ele><time>2026-04-04T09:59:49.835Z</time></trkpt><trkpt lat="41.9981736" lon="12.7895348"><ele>177.39999999999998</ele><time>2026-04-04T09:59:50.835Z</time></trkpt><trkpt lat="41.9982471" lon="12.7896129"><ele>177.2</ele><time>2026-04-04T09:59:51.834Z</time></trkpt><trkpt lat="41.9983152" lon="12.7896811"><ele>177.0</ele><time>2026-04-04T09:59:52.835Z</time></trkpt><trkpt lat="41.9983757" lon="12.789744"><ele>177.0</ele><time>2026-04-04T09:59:53.834Z</time></trkpt><trkpt lat="41.99843" lon="12.7897965"><ele>177.0</ele><time>2026-04-04T09:59:54.835Z</time></trkpt><trkpt lat="41.9985074" lon="12.7898493"><ele>177.0</ele><time>2026-04-04T09:59:56.835Z</time></trkpt><trkpt lat="41.9986129" lon="12.7898428"><ele>177.0</ele><time>2026-04-04T09:59:58.835Z</time></trkpt><trkpt lat="41.9987163" lon="12.7898209"><ele>177.0</ele><time>2026-04-04T10:00:00.835Z</time></trkpt><trkpt lat="41.9987782" lon="12.7898436"><ele>177.0</ele><time>2026-04-04T10:00:01.835Z</time></trkpt><trkpt lat="41.9988538" lon="12.7898924"><ele>177.0</ele><time>2026-04-04T10:00:02.835Z</time></trkpt><trkpt lat="41.9989523" lon="12.7899586"><ele>177.0</ele><time>2026-04-04T10:00:03.834Z</time></trkpt><trkpt lat="41.9990348" lon="12.7900174"><ele>177.0</ele><time>2026-04-04T10:00:04.835Z</time></trkpt><trkpt lat="41.9991012" lon="12.7900759"><ele>177.0</ele><time>2026-04-04T10:00:05.835Z</time></trkpt><trkpt lat="41.9991801" lon="12.7901486"><ele>177.0</ele><time>2026-04-04T10:00:07.835Z</time></trkpt><trkpt lat="41.9992632" lon="12.7900998"><ele>176.6</ele><time>2026-04-04T10:00:12.835Z</time></trkpt><trkpt lat="41.9993076" lon="12.7900033"><ele>176.2</ele><time>2026-04-04T10:00:13.834Z</time></trkpt><trkpt lat="41.9993728" lon="12.78987"><ele>175.8</ele><time>2026-04-04T10:00:14.835Z</time></trkpt><trkpt lat="41.9994393" lon="12.7897259"><ele>175.4</ele><time>2026-04-04T10:00:15.835Z</time></trkpt><trkpt lat="41.9994941" lon="12.7896283"><ele>175.0</ele><time>2026-04-04T10:00:16.835Z</time></trkpt><trkpt lat="41.9995516" lon="12.7895487"><ele>175.0</ele><time>2026-04-04T10:00:17.835Z</time></trkpt><trkpt lat="41.9996707" lon="12.7895327"><ele>175.0</ele><time>2026-04-04T10:00:19.835Z</time></trkpt><trkpt lat="41.9997449" lon="12.7895803"><ele>175.0</ele><time>2026-04-04T10:00:20.835Z</time></trkpt><trkpt lat="41.999836" lon="12.7896443"><ele>175.0</ele><time>2026-04-04T10:00:21.835Z</time></trkpt><trkpt lat="41.9999112" lon="12.7896968"><ele>175.0</ele><time>2026-04-04T10:00:22.835Z</time></trkpt><trkpt lat="41.9999761" lon="12.7897355"><ele>175.0</ele><time>2026-04-04T10:00:23.835Z</time></trkpt><trkpt lat="42.0001058" lon="12.7896818"><ele>175.0</ele><time>2026-04-04T10:00:25.835Z</time></trkpt><trkpt lat="42.0001861" lon="12.7896186"><ele>175.0</ele><time>2026-04-04T10:00:26.835Z</time></trkpt><trkpt lat="42.0002753" lon="12.7895356"><ele>175.0</ele><time>2026-04-04T10:00:27.835Z</time></trkpt><trkpt lat="42.0003677" lon="12.7894482"><ele>175.0</ele><time>2026-04-04T10:00:28.835Z</time></trkpt><trkpt lat="42.0004601" lon="12.789361"><ele>175.0</ele><time>2026-04-04T10:00:29.835Z</time></trkpt><trkpt lat="42.000555" lon="12.7892674"><ele>175.0</ele><time>2026-04-04T10:00:30.835Z</time></trkpt><trkpt lat="42.0006458" lon="12.7891796"><ele>175.0</ele><time>2026-04-04T10:00:31.835Z</time></trkpt><trkpt lat="42.0007202" lon="12.7891023"><ele>175.0</ele><time>2026-04-04T10:00:32.835Z</time></trkpt><trkpt lat="42.0007835" lon="12.7890265"><ele>175.28571428571428</ele><time>2026-04-04T10:00:33.835Z</time></trkpt><trkpt lat="42.0008349" lon="12.7889511"><ele>175.57142857142856</ele><time>2026-04-04T10:00:34.835Z</time></trkpt><trkpt lat="42.0008651" lon="12.7888616"><ele>175.85714285714286</ele><time>2026-04-04T10:00:35.835Z</time></trkpt><trkpt lat="42.0008936" lon="12.788761"><ele>176.14285714285714</ele><time>2026-04-04T10:00:36.835Z</time></trkpt><trkpt lat="42.0009243" lon="12.7886617"><ele>176.42857142857142</ele><time>2026-04-04T10:00:37.835Z</time></trkpt><trkpt lat="42.0009576" lon="12.7885811"><ele>176.71428571428572</ele><time>2026-04-04T10:00:38.835Z</time></trkpt><trkpt lat="42.0009995" lon="12.7885063"><ele>177.0</ele><time>2026-04-04T10:00:40.834Z</time></trkpt><trkpt lat="42.0010389" lon="12.7884329"><ele>177.66666666666666</ele><time>2026-04-04T10:01:18.835Z</time></trkpt><trkpt lat="42.0010914" lon="12.7883766"><ele>178.33333333333334</ele><time>2026-04-04T10:01:20.835Z</time></trkpt><trkpt lat="42.0011598" lon="12.7883037"><ele>179.0</ele><time>2026-04-04T10:01:22.835Z</time></trkpt><trkpt lat="42.0012267" lon="12.7882286"><ele>179.66666666666669</ele><time>2026-04-04T10:01:24.835Z</time></trkpt><trkpt lat="42.0012937" lon="12.788147"><ele>180.33333333333334</ele><time>2026-04-04T10:01:26.835Z</time></trkpt><trkpt lat="42.0013615" lon="12.7880689"><ele>181.0</ele><time>2026-04-04T10:01:28.835Z</time></trkpt><trkpt lat="42.0014222" lon="12.7879918"><ele>181.0</ele><time>2026-04-04T10:01:30.835Z</time></trkpt><trkpt lat="42.0014846" lon="12.7879169"><ele>181.0</ele><time>2026-04-04T10:01:32.835Z</time></trkpt><trkpt lat="42.0015477" lon="12.7878285"><ele>181.0</ele><time>2026-04-04T10:01:34.835Z</time></trkpt><trkpt lat="42.0016012" lon="12.7877425"><ele>181.0</ele><time>2026-04-04T10:01:36.835Z</time></trkpt><trkpt lat="42.0016409" lon="12.7876688"><ele>181.0</ele><time>2026-04-04T10:01:38.835Z</time></trkpt><trkpt lat="42.001674" lon="12.78759"><ele>181.0</ele><time>2026-04-04T10:01:40.835Z</time></trkpt><trkpt lat="42.0016973" lon="12.787506"><ele>180.4</ele><time>2026-04-04T10:01:42.835Z</time></trkpt><trkpt lat="42.0017208" lon="12.7874065"><ele>179.8</ele><time>2026-04-04T10:01:44.835Z</time></trkpt><trkpt lat="42.0017477" lon="12.7872897"><ele>179.20000000000002</ele><time>2026-04-04T10:01:46.835Z</time></trkpt><trkpt lat="42.0017833" lon="12.7871573"><ele>178.60000000000002</ele><time>2026-04-04T10:01:48.835Z</time></trkpt><trkpt lat="42.0018177" lon="12.7870163"><ele>178.0</ele><time>2026-04-04T10:01:50.835Z</time></trkpt><trkpt lat="42.0018508" lon="12.786871"><ele>177.4</ele><time>2026-04-04T10:01:52.835Z</time></trkpt><trkpt lat="42.0018844" lon="12.7867505"><ele>176.8</ele><time>2026-04-04T10:01:54.835Z</time></trkpt><trkpt lat="42.0019085" lon="12.7866344"><ele>176.2</ele><time>2026-04-04T10:01:57.835Z</time></trkpt><trkpt lat="42.0019169" lon="12.7865008"><ele>175.6</ele><time>2026-04-04T10:02:00.835Z</time></trkpt><trkpt lat="42.0019189" lon="12.7863349"><ele>175.0</ele><time>2026-04-04T10:02:02.835Z</time></trkpt><trkpt lat="42.0019488" lon="12.7861933"><ele>175.0</ele><time>2026-04-04T10:02:04.835Z</time></trkpt><trkpt lat="42.002006" lon="12.7861091"><ele>175.0</ele><time>2026-04-04T10:02:06.835Z</time></trkpt><trkpt lat="42.0020922" lon="12.7860265"><ele>175.0</ele><time>2026-04-04T10:02:08.835Z</time></trkpt><trkpt lat="42.0021946" lon="12.7859254"><ele>175.0</ele><time>2026-04-04T10:02:10.835Z</time></trkpt><trkpt lat="42.0022466" lon="12.7858708"><ele>175.0</ele><time>2026-04-04T10:02:11.835Z</time></trkpt><trkpt lat="42.0022969" lon="12.7858085"><ele>174.5</ele><time>2026-04-04T10:02:12.835Z</time></trkpt><trkpt lat="42.002335" lon="12.7857342"><ele>174.0</ele><time>2026-04-04T10:02:13.835Z</time></trkpt><trkpt lat="42.0023622" lon="12.7856384"><ele>173.5</ele><time>2026-04-04T10:02:14.835Z</time></trkpt><trkpt lat="42.0023882" lon="12.785513"><ele>173.0</ele><time>2026-04-04T10:02:15.835Z</time></trkpt><trkpt lat="42.0024117" lon="12.7853847"><ele>172.5</ele><time>2026-04-04T10:02:16.835Z</time></trkpt><trkpt lat="42.0024383" lon="12.7852495"><ele>172.0</ele><time>2026-04-04T10:02:17.835Z</time></trkpt><trkpt lat="42.0024643" lon="12.7851274"><ele>171.39999999999998</ele><time>2026-04-04T10:02:18.835Z</time></trkpt><trkpt lat="42.0024856" lon="12.7849994"><ele>170.79999999999998</ele><time>2026-04-04T10:02:19.835Z</time></trkpt><trkpt lat="42.0025038" lon="12.7848798"><ele>170.2</ele><time>2026-04-04T10:02:20.835Z</time></trkpt><trkpt lat="42.0025201" lon="12.7847708"><ele>169.6</ele><time>2026-04-04T10:02:21.835Z</time></trkpt><trkpt lat="42.0025351" lon="12.7846787"><ele>169.0</ele><time>2026-04-04T10:02:22.834Z</time></trkpt><trkpt lat="42.0025606" lon="12.7845357"><ele>169.16666666666669</ele><time>2026-04-04T10:02:24.835Z</time></trkpt><trkpt lat="42.0025785" lon="12.7844433"><ele>169.33333333333334</ele><time>2026-04-04T10:02:26.835Z</time></trkpt><trkpt lat="42.0025511" lon="12.7843249"><ele>169.5</ele><time>2026-04-04T10:02:29.835Z</time></trkpt><trkpt lat="42.0025095" lon="12.7841933"><ele>169.66666666666666</ele><time>2026-04-04T10:02:31.835Z</time></trkpt><trkpt lat="42.0025005" lon="12.7841078"><ele>169.83333333333331</ele><time>2026-04-04T10:02:32.835Z</time></trkpt><trkpt lat="42.0025022" lon="12.7839971"><ele>170.0</ele><time>2026-04-04T10:02:33.835Z</time></trkpt><trkpt lat="42.0025141" lon="12.783877"><ele>170.0</ele><time>2026-04-04T10:02:34.835Z</time></trkpt><trkpt lat="42.0025313" lon="12.7837464"><ele>170.0</ele><time>2026-04-04T10:02:35.835Z</time></trkpt><trkpt lat="42.0025508" lon="12.7836077"><ele>170.0</ele><time>2026-04-04T10:02:36.835Z</time></trkpt><trkpt lat="42.0025686" lon="12.783483"><ele>170.0</ele><time>2026-04-04T10:02:37.835Z</time></trkpt><trkpt lat="42.002588" lon="12.783365"><ele>170.0</ele><time>2026-04-04T10:02:38.835Z</time></trkpt><trkpt lat="42.0025974" lon="12.7832445"><ele>168.83333333333331</ele><time>2026-04-04T10:02:39.835Z</time></trkpt><trkpt lat="42.0026015" lon="12.7831266"><ele>167.66666666666666</ele><time>2026-04-04T10:02:40.835Z</time></trkpt><trkpt lat="42.0026065" lon="12.7830107"><ele>166.5</ele><time>2026-04-04T10:02:41.835Z</time></trkpt><trkpt lat="42.0026107" lon="12.7828869"><ele>165.33333333333334</ele><time>2026-04-04T10:02:42.835Z</time></trkpt><trkpt lat="42.00261" lon="12.7827602"><ele>164.16666666666669</ele><time>2026-04-04T10:02:43.835Z</time></trkpt><trkpt lat="42.0026125" lon="12.7826409"><ele>163.0</ele><time>2026-04-04T10:02:44.835Z</time></trkpt><trkpt lat="42.0026203" lon="12.7825276"><ele>162.33333333333334</ele><time>2026-04-04T10:02:45.835Z</time></trkpt><trkpt lat="42.0026326" lon="12.782425"><ele>161.66666666666669</ele><time>2026-04-04T10:02:46.834Z</time></trkpt><trkpt lat="42.0026502" lon="12.7823222"><ele>161.0</ele><time>2026-04-04T10:02:47.835Z</time></trkpt><trkpt lat="42.0026756" lon="12.7822177"><ele>160.33333333333334</ele><time>2026-04-04T10:02:48.835Z</time></trkpt><trkpt lat="42.0027077" lon="12.7820957"><ele>159.66666666666666</ele><time>2026-04-04T10:02:49.835Z</time></trkpt><trkpt lat="42.0027371" lon="12.7819777"><ele>159.0</ele><time>2026-04-04T10:02:50.835Z</time></trkpt><trkpt lat="42.0027677" lon="12.7818675"><ele>157.83333333333334</ele><time>2026-04-04T10:02:51.835Z</time></trkpt><trkpt lat="42.0027975" lon="12.7817553"><ele>156.66666666666666</ele><time>2026-04-04T10:02:52.835Z</time></trkpt><trkpt lat="42.0028282" lon="12.7816451"><ele>155.5</ele><time>2026-04-04T10:02:53.835Z</time></trkpt><trkpt lat="42.0028526" lon="12.7815398"><ele>154.33333333333331</ele><time>2026-04-04T10:02:54.835Z</time></trkpt><trkpt lat="42.002876" lon="12.7814431"><ele>153.16666666666666</ele><time>2026-04-04T10:02:55.835Z</time></trkpt><trkpt lat="42.0028938" lon="12.7813599"><ele>152.0</ele><time>2026-04-04T10:02:56.835Z</time></trkpt><trkpt lat="42.0029334" lon="12.781216"><ele>152.0</ele><time>2026-04-04T10:02:58.835Z</time></trkpt><trkpt lat="42.0029372" lon="12.7810646"><ele>152.0</ele><time>2026-04-04T10:03:00.835Z</time></trkpt><trkpt lat="42.0029255" lon="12.7809687"><ele>152.0</ele><time>2026-04-04T10:03:01.835Z</time></trkpt><trkpt lat="42.0029364" lon="12.7808037"><ele>152.0</ele><time>2026-04-04T10:03:03.835Z</time></trkpt><trkpt lat="42.002961" lon="12.7807079"><ele>152.0</ele><time>2026-04-04T10:03:04.835Z</time></trkpt><trkpt lat="42.0030019" lon="12.7805803"><ele>152.0</ele><time>2026-04-04T10:03:05.835Z</time></trkpt><trkpt lat="42.0030494" lon="12.7804459"><ele>152.0</ele><time>2026-04-04T10:03:06.835Z</time></trkpt><trkpt lat="42.0030976" lon="12.7803167"><ele>152.0</ele><time>2026-04-04T10:03:07.835Z</time></trkpt><trkpt lat="42.0031497" lon="12.7801822"><ele>152.0</ele><time>2026-04-04T10:03:08.835Z</time></trkpt><trkpt lat="42.0032001" lon="12.7800556"><ele>152.0</ele><time>2026-04-04T10:03:09.835Z</time></trkpt><trkpt lat="42.0032443" lon="12.7799282"><ele>152.0</ele><time>2026-04-04T10:03:10.835Z</time></trkpt><trkpt lat="42.0032874" lon="12.7798026"><ele>152.0</ele><time>2026-04-04T10:03:11.835Z</time></trkpt><trkpt lat="42.0033355" lon="12.7796837"><ele>152.0</ele><time>2026-04-04T10:03:12.835Z</time></trkpt><trkpt lat="42.0033763" lon="12.7795784"><ele>152.0</ele><time>2026-04-04T10:03:13.835Z</time></trkpt><trkpt lat="42.003412" lon="12.7794866"><ele>152.0</ele><time>2026-04-04T10:03:14.835Z</time></trkpt><trkpt lat="42.0034501" lon="12.7794087"><ele>152.0</ele><time>2026-04-04T10:03:15.835Z</time></trkpt><trkpt lat="42.0034842" lon="12.7793271"><ele>150.0</ele><time>2026-04-04T10:03:16.835Z</time></trkpt><trkpt lat="42.0035488" lon="12.7791938"><ele>148.0</ele><time>2026-04-04T10:03:18.834Z</time></trkpt><trkpt lat="42.0036375" lon="12.7790675"><ele>146.0</ele><time>2026-04-04T10:03:20.835Z</time></trkpt><trkpt lat="42.0037023" lon="12.7789871"><ele>144.0</ele><time>2026-04-04T10:03:21.835Z</time></trkpt><trkpt lat="42.0037478" lon="12.7789031"><ele>142.0</ele><time>2026-04-04T10:03:22.835Z</time></trkpt><trkpt lat="42.0037966" lon="12.7788077"><ele>142.0</ele><time>2026-04-04T10:03:23.835Z</time></trkpt><trkpt lat="42.0038146" lon="12.7787103"><ele>142.0</ele><time>2026-04-04T10:03:24.835Z</time></trkpt><trkpt lat="42.0038241" lon="12.778612"><ele>142.0</ele><time>2026-04-04T10:03:25.835Z</time></trkpt><trkpt lat="42.0038287" lon="12.7785135"><ele>142.0</ele><time>2026-04-04T10:03:26.835Z</time></trkpt><trkpt lat="42.0038311" lon="12.7784233"><ele>142.0</ele><time>2026-04-04T10:03:27.835Z</time></trkpt><trkpt lat="42.0038447" lon="12.7783281"><ele>142.0</ele><time>2026-04-04T10:03:28.835Z</time></trkpt><trkpt lat="42.0038684" lon="12.7782292"><ele>142.0</ele><time>2026-04-04T10:03:29.835Z</time></trkpt><trkpt lat="42.0038934" lon="12.7781474"><ele>141.79999999999998</ele><time>2026-04-04T10:03:30.835Z</time></trkpt><trkpt lat="42.0039258" lon="12.7779908"><ele>141.6</ele><time>2026-04-04T10:03:32.835Z</time></trkpt><trkpt lat="42.0039837" lon="12.7778663"><ele>141.39999999999998</ele><time>2026-04-04T10:03:34.835Z</time></trkpt><trkpt lat="42.0040937" lon="12.777816"><ele>141.2</ele><time>2026-04-04T10:03:36.835Z</time></trkpt><trkpt lat="42.0041633" lon="12.7778272"><ele>141.0</ele><time>2026-04-04T10:03:37.835Z</time></trkpt><trkpt lat="42.0042421" lon="12.7778795"><ele>141.0</ele><time>2026-04-04T10:03:38.835Z</time></trkpt><trkpt lat="42.0043234" lon="12.7779329"><ele>141.0</ele><time>2026-04-04T10:03:39.835Z</time></trkpt><trkpt lat="42.0044023" lon="12.777997"><ele>141.0</ele><time>2026-04-04T10:03:40.834Z</time></trkpt><trkpt lat="42.0044723" lon="12.7780593"><ele>141.0</ele><time>2026-04-04T10:03:41.835Z</time></trkpt><trkpt lat="42.0045429" lon="12.7781217"><ele>141.0</ele><time>2026-04-04T10:03:42.835Z</time></trkpt><trkpt lat="42.0046034" lon="12.7781829"><ele>141.0</ele><time>2026-04-04T10:03:43.835Z</time></trkpt><trkpt lat="42.0046623" lon="12.7782391"><ele>141.0</ele><time>2026-04-04T10:03:44.835Z</time></trkpt><trkpt lat="42.004748" lon="12.778352"><ele>141.0</ele><time>2026-04-04T10:03:46.835Z</time></trkpt><trkpt lat="42.0047906" lon="12.7784169"><ele>141.0</ele><time>2026-04-04T10:03:47.835Z</time></trkpt><trkpt lat="42.0048724" lon="12.7785497"><ele>141.0</ele><time>2026-04-04T10:03:49.835Z</time></trkpt><trkpt lat="42.0049228" lon="12.778606"><ele>141.0</ele><time>2026-04-04T10:03:50.834Z</time></trkpt><trkpt lat="42.0049866" lon="12.7786541"><ele>141.66666666666666</ele><time>2026-04-04T10:03:51.834Z</time></trkpt><trkpt lat="42.0050626" lon="12.7787133"><ele>142.33333333333334</ele><time>2026-04-04T10:03:52.835Z</time></trkpt><trkpt lat="42.0051467" lon="12.7787655"><ele>143.0</ele><time>2026-04-04T10:03:53.835Z</time></trkpt><trkpt lat="42.0052297" lon="12.778819"><ele>143.66666666666669</ele><time>2026-04-04T10:03:54.835Z</time></trkpt><trkpt lat="42.0053134" lon="12.7788679"><ele>144.33333333333334</ele><time>2026-04-04T10:03:55.835Z</time></trkpt><trkpt lat="42.0053936" lon="12.7789088"><ele>145.0</ele><time>2026-04-04T10:03:56.834Z</time></trkpt><trkpt lat="42.0054734" lon="12.7789454"><ele>145.0</ele><time>2026-04-04T10:03:57.835Z</time></trkpt><trkpt lat="42.0055425" lon="12.7789746"><ele>145.0</ele><time>2026-04-04T10:03:58.835Z</time></trkpt><trkpt lat="42.0056053" lon="12.7790035"><ele>145.0</ele><time>2026-04-04T10:03:59.835Z</time></trkpt><trkpt lat="42.0056769" lon="12.7790255"><ele>145.0</ele><time>2026-04-04T10:04:00.835Z</time></trkpt><trkpt lat="42.005739" lon="12.7790439"><ele>145.0</ele><time>2026-04-04T10:04:01.835Z</time></trkpt><trkpt lat="42.0058378" lon="12.779072"><ele>145.0</ele><time>2026-04-04T10:04:03.835Z</time></trkpt><trkpt lat="42.0059082" lon="12.7790605"><ele>145.0</ele><time>2026-04-04T10:04:05.835Z</time></trkpt><trkpt lat="42.0059816" lon="12.7790941"><ele>143.33333333333334</ele><time>2026-04-04T10:04:08.835Z</time></trkpt><trkpt lat="42.0060429" lon="12.7791607"><ele>141.66666666666669</ele><time>2026-04-04T10:04:10.835Z</time></trkpt><trkpt lat="42.0061067" lon="12.7792074"><ele>140.0</ele><time>2026-04-04T10:04:12.835Z</time></trkpt><trkpt lat="42.0062068" lon="12.7792716"><ele>138.33333333333334</ele><time>2026-04-04T10:04:14.835Z</time></trkpt><trkpt lat="42.006313" lon="12.7793291"><ele>136.66666666666666</ele><time>2026-04-04T10:04:16.835Z</time></trkpt><trkpt lat="42.0063768" lon="12.779353"><ele>135.0</ele><time>2026-04-04T10:04:17.835Z</time></trkpt><trkpt lat="42.0064454" lon="12.7793962"><ele>135.0</ele><time>2026-04-04T10:04:18.835Z</time></trkpt><trkpt lat="42.0065124" lon="12.7794395"><ele>135.0</ele><time>2026-04-04T10:04:19.835Z</time></trkpt><trkpt lat="42.0065709" lon="12.7794784"><ele>135.0</ele><time>2026-04-04T10:04:20.835Z</time></trkpt><trkpt lat="42.0067008" lon="12.7795456"><ele>135.0</ele><time>2026-04-04T10:04:22.835Z</time></trkpt><trkpt lat="42.0067765" lon="12.77959"><ele>135.0</ele><time>2026-04-04T10:04:23.835Z</time></trkpt><trkpt lat="42.00686" lon="12.779637"><ele>132.8</ele><time>2026-04-04T10:04:24.835Z</time></trkpt><trkpt lat="42.0069502" lon="12.7796893"><ele>130.6</ele><time>2026-04-04T10:04:25.834Z</time></trkpt><trkpt lat="42.0070307" lon="12.779734"><ele>128.4</ele><time>2026-04-04T10:04:26.834Z</time></trkpt><trkpt lat="42.0071322" lon="12.779787"><ele>126.2</ele><time>2026-04-04T10:04:28.834Z</time></trkpt><trkpt lat="42.0071921" lon="12.7798779"><ele>124.0</ele><time>2026-04-04T10:04:30.835Z</time></trkpt><trkpt lat="42.0072082" lon="12.7799849"><ele>124.0</ele><time>2026-04-04T10:04:31.835Z</time></trkpt><trkpt lat="42.0072525" lon="12.7801492"><ele>124.0</ele><time>2026-04-04T10:04:33.835Z</time></trkpt><trkpt lat="42.0072998" lon="12.7803"><ele>124.0</ele><time>2026-04-04T10:04:35.835Z</time></trkpt><trkpt lat="42.0073526" lon="12.7803473"><ele>124.0</ele><time>2026-04-04T10:04:36.835Z</time></trkpt><trkpt lat="42.007458" lon="12.780413"><ele>124.0</ele><time>2026-04-04T10:04:38.835Z</time></trkpt><trkpt lat="42.0075565" lon="12.7803834"><ele>124.6</ele><time>2026-04-04T10:04:40.835Z</time></trkpt><trkpt lat="42.0076559" lon="12.7803365"><ele>125.2</ele><time>2026-04-04T10:04:42.835Z</time></trkpt><trkpt lat="42.0077667" lon="12.7803327"><ele>125.79999999999998</ele><time>2026-04-04T10:04:44.835Z</time></trkpt><trkpt lat="42.0078764" lon="12.7803336"><ele>126.39999999999999</ele><time>2026-04-04T10:04:46.835Z</time></trkpt><trkpt lat="42.007993" lon="12.7803018"><ele>127.0</ele><time>2026-04-04T10:04:48.835Z</time></trkpt><trkpt lat="42.0080582" lon="12.7802865"><ele>127.00000000000001</ele><time>2026-04-04T10:04:49.835Z</time></trkpt><trkpt lat="42.008127" lon="12.7802741"><ele>127.0</ele><time>2026-04-04T10:04:50.835Z</time></trkpt><trkpt lat="42.0081935" lon="12.780267"><ele>127.0</ele><time>2026-04-04T10:04:51.835Z</time></trkpt><trkpt lat="42.0083316" lon="12.7802964"><ele>127.0</ele><time>2026-04-04T10:04:53.835Z</time></trkpt><trkpt lat="42.0084069" lon="12.7803174"><ele>127.00000000000001</ele><time>2026-04-04T10:04:54.835Z</time></trkpt><trkpt lat="42.0084827" lon="12.7803224"><ele>127.0</ele><time>2026-04-04T10:04:55.835Z</time></trkpt><trkpt lat="42.0085654" lon="12.7803324"><ele>127.71428571428572</ele><time>2026-04-04T10:04:56.835Z</time></trkpt><trkpt lat="42.0086385" lon="12.7803289"><ele>128.42857142857142</ele><time>2026-04-04T10:04:57.835Z</time></trkpt><trkpt lat="42.0087093" lon="12.7803285"><ele>129.14285714285714</ele><time>2026-04-04T10:04:58.835Z</time></trkpt><trkpt lat="42.0087731" lon="12.7803366"><ele>129.85714285714286</ele><time>2026-04-04T10:04:59.835Z</time></trkpt><trkpt lat="42.0088452" lon="12.7803535"><ele>130.57142857142858</ele><time>2026-04-04T10:05:00.835Z</time></trkpt><trkpt lat="42.0089237" lon="12.7803812"><ele>131.28571428571428</ele><time>2026-04-04T10:05:01.835Z</time></trkpt><trkpt lat="42.0089957" lon="12.7804056"><ele>132.0</ele><time>2026-04-04T10:05:02.835Z</time></trkpt><trkpt lat="42.0090653" lon="12.7804227"><ele>132.0</ele><time>2026-04-04T10:05:03.835Z</time></trkpt><trkpt lat="42.0091344" lon="12.7804477"><ele>132.0</ele><time>2026-04-04T10:05:04.835Z</time></trkpt><trkpt lat="42.0092044" lon="12.7804788"><ele>132.0</ele><time>2026-04-04T10:05:05.835Z</time></trkpt><trkpt lat="42.0092976" lon="12.7805624"><ele>132.0</ele><time>2026-04-04T10:05:07.835Z</time></trkpt><trkpt lat="42.0093717" lon="12.780694"><ele>132.0</ele><time>2026-04-04T10:05:09.835Z</time></trkpt><trkpt lat="42.0094457" lon="12.7808022"><ele>134.2</ele><time>2026-04-04T10:05:11.835Z</time></trkpt><trkpt lat="42.0095394" lon="12.7808517"><ele>136.39999999999998</ele><time>2026-04-04T10:05:13.834Z</time></trkpt><trkpt lat="42.0096591" lon="12.7808347"><ele>138.60000000000002</ele><time>2026-04-04T10:05:15.835Z</time></trkpt><trkpt lat="42.0097686" lon="12.7808435"><ele>140.8</ele><time>2026-04-04T10:05:17.835Z</time></trkpt><trkpt lat="42.0098543" lon="12.7809358"><ele>143.0</ele><time>2026-04-04T10:05:19.835Z</time></trkpt><trkpt lat="42.0098942" lon="12.7810021"><ele>142.16666666666666</ele><time>2026-04-04T10:05:20.835Z</time></trkpt><trkpt lat="42.0099348" lon="12.7810826"><ele>141.33333333333331</ele><time>2026-04-04T10:05:21.835Z</time></trkpt><trkpt lat="42.0099524" lon="12.7811722"><ele>140.5</ele><time>2026-04-04T10:05:22.835Z</time></trkpt><trkpt lat="42.0099906" lon="12.7812454"><ele>139.66666666666666</ele><time>2026-04-04T10:05:23.835Z</time></trkpt><trkpt lat="42.0100364" lon="12.7813144"><ele>138.83333333333334</ele><time>2026-04-04T10:05:24.835Z</time></trkpt><trkpt lat="42.0101361" lon="12.781371"><ele>138.0</ele><time>2026-04-04T10:05:25.835Z</time></trkpt><trkpt lat="42.0102266" lon="12.7814302"><ele>140.20000000000002</ele><time>2026-04-04T10:05:26.835Z</time></trkpt><trkpt lat="42.0103059" lon="12.7814759"><ele>142.4</ele><time>2026-04-04T10:05:27.835Z</time></trkpt><trkpt lat="42.0103991" lon="12.7815267"><ele>144.60000000000002</ele><time>2026-04-04T10:05:28.835Z</time></trkpt><trkpt lat="42.0104896" lon="12.7815874"><ele>146.8</ele><time>2026-04-04T10:05:29.835Z</time></trkpt><trkpt lat="42.0105725" lon="12.7816425"><ele>149.0</ele><time>2026-04-04T10:05:30.835Z</time></trkpt><trkpt lat="42.0106637" lon="12.7816975"><ele>149.0</ele><time>2026-04-04T10:05:31.835Z</time></trkpt><trkpt lat="42.0107664" lon="12.7817493"><ele>149.0</ele><time>2026-04-04T10:05:32.835Z</time></trkpt><trkpt lat="42.0108673" lon="12.7818001"><ele>149.0</ele><time>2026-04-04T10:05:33.835Z</time></trkpt><trkpt lat="42.0109698" lon="12.7818517"><ele>149.0</ele><time>2026-04-04T10:05:34.835Z</time></trkpt><trkpt lat="42.0110698" lon="12.7818934"><ele>149.0</ele><time>2026-04-04T10:05:35.834Z</time></trkpt><trkpt lat="42.0111618" lon="12.7819404"><ele>148.2</ele><time>2026-04-04T10:05:36.835Z</time></trkpt><trkpt lat="42.0112539" lon="12.7819869"><ele>147.4</ele><time>2026-04-04T10:05:37.835Z</time></trkpt><trkpt lat="42.0113479" lon="12.7820389"><ele>146.6</ele><time>2026-04-04T10:05:38.835Z</time></trkpt><trkpt lat="42.0114515" lon="12.7820847"><ele>145.8</ele><time>2026-04-04T10:05:39.835Z</time></trkpt><trkpt lat="42.0115622" lon="12.7821285"><ele>145.0</ele><time>2026-04-04T10:05:40.835Z</time></trkpt><trkpt lat="42.011673" lon="12.7821705"><ele>145.0</ele><time>2026-04-04T10:05:41.835Z</time></trkpt><trkpt lat="42.0117852" lon="12.7822173"><ele>145.0</ele><time>2026-04-04T10:05:42.834Z</time></trkpt><trkpt lat="42.0118969" lon="12.7822679"><ele>145.0</ele><time>2026-04-04T10:05:43.835Z</time></trkpt><trkpt lat="42.0120034" lon="12.7823272"><ele>145.0</ele><time>2026-04-04T10:05:44.835Z</time></trkpt><trkpt lat="42.0121188" lon="12.782391"><ele>145.0</ele><time>2026-04-04T10:05:45.835Z</time></trkpt><trkpt lat="42.0122337" lon="12.7824526"><ele>145.0</ele><time>2026-04-04T10:05:46.835Z</time></trkpt><trkpt lat="42.0123446" lon="12.7825143"><ele>145.0</ele><time>2026-04-04T10:05:47.835Z</time></trkpt><trkpt lat="42.0124471" lon="12.7825691"><ele>145.0</ele><time>2026-04-04T10:05:48.835Z</time></trkpt><trkpt lat="42.0125436" lon="12.7826265"><ele>146.0</ele><time>2026-04-04T10:05:49.835Z</time></trkpt><trkpt lat="42.012638" lon="12.7826786"><ele>147.0</ele><time>2026-04-04T10:05:50.835Z</time></trkpt><trkpt lat="42.0127325" lon="12.7827152"><ele>148.0</ele><time>2026-04-04T10:05:51.835Z</time></trkpt><trkpt lat="42.0128227" lon="12.7827495"><ele>149.0</ele><time>2026-04-04T10:05:52.835Z</time></trkpt><trkpt lat="42.0129012" lon="12.7827695"><ele>150.0</ele><time>2026-04-04T10:05:53.835Z</time></trkpt><trkpt lat="42.0129884" lon="12.7827806"><ele>150.0</ele><time>2026-04-04T10:05:54.835Z</time></trkpt><trkpt lat="42.0130936" lon="12.7827865"><ele>150.0</ele><time>2026-04-04T10:05:55.835Z</time></trkpt><trkpt lat="42.0131994" lon="12.7827805"><ele>150.0</ele><time>2026-04-04T10:05:56.835Z</time></trkpt><trkpt lat="42.0133005" lon="12.7827693"><ele>150.0</ele><time>2026-04-04T10:05:57.834Z</time></trkpt><trkpt lat="42.0134046" lon="12.7827693"><ele>150.0</ele><time>2026-04-04T10:05:58.835Z</time></trkpt><trkpt lat="42.0135007" lon="12.7827651"><ele>150.2</ele><time>2026-04-04T10:05:59.835Z</time></trkpt><trkpt lat="42.0135913" lon="12.7827831"><ele>150.4</ele><time>2026-04-04T10:06:00.835Z</time></trkpt><trkpt lat="42.0136962" lon="12.7828158"><ele>150.6</ele><time>2026-04-04T10:06:01.835Z</time></trkpt><trkpt lat="42.0137916" lon="12.7828416"><ele>150.8</ele><time>2026-04-04T10:06:02.835Z</time></trkpt><trkpt lat="42.0138758" lon="12.7828548"><ele>151.0</ele><time>2026-04-04T10:06:03.835Z</time></trkpt><trkpt lat="42.0139613" lon="12.7828516"><ele>151.0</ele><time>2026-04-04T10:06:04.835Z</time></trkpt><trkpt lat="42.0140492" lon="12.7828386"><ele>151.0</ele><time>2026-04-04T10:06:05.835Z</time></trkpt><trkpt lat="42.014149" lon="12.7828164"><ele>151.0</ele><time>2026-04-04T10:06:06.835Z</time></trkpt><trkpt lat="42.0142591" lon="12.7827824"><ele>151.0</ele><time>2026-04-04T10:06:07.834Z</time></trkpt><trkpt lat="42.0143601" lon="12.7827388"><ele>151.0</ele><time>2026-04-04T10:06:08.835Z</time></trkpt><trkpt lat="42.0144744" lon="12.7826997"><ele>154.6</ele><time>2026-04-04T10:06:09.835Z</time></trkpt><trkpt lat="42.0145889" lon="12.7826608"><ele>158.2</ele><time>2026-04-04T10:06:10.835Z</time></trkpt><trkpt lat="42.0146929" lon="12.7826276"><ele>161.79999999999998</ele><time>2026-04-04T10:06:11.835Z</time></trkpt><trkpt lat="42.0147918" lon="12.7825962"><ele>165.39999999999998</ele><time>2026-04-04T10:06:12.835Z</time></trkpt><trkpt lat="42.0148774" lon="12.7825686"><ele>169.0</ele><time>2026-04-04T10:06:13.835Z</time></trkpt><trkpt lat="42.0149761" lon="12.7825373"><ele>169.33333333333334</ele><time>2026-04-04T10:06:14.835Z</time></trkpt><trkpt lat="42.015075" lon="12.782498"><ele>169.66666666666669</ele><time>2026-04-04T10:06:15.835Z</time></trkpt><trkpt lat="42.0151565" lon="12.7824619"><ele>170.0</ele><time>2026-04-04T10:06:16.835Z</time></trkpt><trkpt lat="42.01524" lon="12.7824232"><ele>170.33333333333334</ele><time>2026-04-04T10:06:17.835Z</time></trkpt><trkpt lat="42.0153031" lon="12.7823965"><ele>170.66666666666666</ele><time>2026-04-04T10:06:18.835Z</time></trkpt><trkpt lat="42.0153744" lon="12.782368"><ele>171.0</ele><time>2026-04-04T10:06:20.835Z</time></trkpt><trkpt lat="42.0154396" lon="12.7823728"><ele>171.0</ele><time>2026-04-04T10:06:30.835Z</time></trkpt><trkpt lat="42.0155043" lon="12.7823959"><ele>171.0</ele><time>2026-04-04T10:06:32.835Z</time></trkpt><trkpt lat="42.0156153" lon="12.7823532"><ele>171.0</ele><time>2026-04-04T10:06:34.835Z</time></trkpt><trkpt lat="42.01569" lon="12.7823174"><ele>171.0</ele><time>2026-04-04T10:06:35.835Z</time></trkpt><trkpt lat="42.0157659" lon="12.7822791"><ele>171.0</ele><time>2026-04-04T10:06:36.835Z</time></trkpt><trkpt lat="42.0158429" lon="12.7822371"><ele>171.0</ele><time>2026-04-04T10:06:37.835Z</time></trkpt><trkpt lat="42.0159124" lon="12.7821963"><ele>171.33333333333334</ele><time>2026-04-04T10:06:38.835Z</time></trkpt><trkpt lat="42.0159777" lon="12.7821457"><ele>171.66666666666666</ele><time>2026-04-04T10:06:39.835Z</time></trkpt><trkpt lat="42.0160287" lon="12.7820833"><ele>172.0</ele><time>2026-04-04T10:06:40.834Z</time></trkpt><trkpt lat="42.016076" lon="12.7820209"><ele>172.33333333333331</ele><time>2026-04-04T10:06:41.835Z</time></trkpt><trkpt lat="42.0161175" lon="12.7819073"><ele>172.66666666666666</ele><time>2026-04-04T10:06:42.835Z</time></trkpt><trkpt lat="42.0161624" lon="12.7817804"><ele>173.0</ele><time>2026-04-04T10:06:43.834Z</time></trkpt><trkpt lat="42.0162092" lon="12.7816222"><ele>173.0</ele><time>2026-04-04T10:06:44.834Z</time></trkpt><trkpt lat="42.0162464" lon="12.7814788"><ele>173.0</ele><time>2026-04-04T10:06:45.835Z</time></trkpt><trkpt lat="42.0162867" lon="12.7813359"><ele>173.0</ele><time>2026-04-04T10:06:46.835Z</time></trkpt><trkpt lat="42.0163205" lon="12.7811972"><ele>173.0</ele><time>2026-04-04T10:06:47.835Z</time></trkpt><trkpt lat="42.0163472" lon="12.7810578"><ele>173.0</ele><time>2026-04-04T10:06:48.835Z</time></trkpt><trkpt lat="42.0163678" lon="12.7809242"><ele>172.33333333333331</ele><time>2026-04-04T10:06:49.835Z</time></trkpt><trkpt lat="42.0163859" lon="12.7808028"><ele>171.66666666666666</ele><time>2026-04-04T10:06:50.834Z</time></trkpt><trkpt lat="42.0164025" lon="12.7806869"><ele>171.0</ele><time>2026-04-04T10:06:51.835Z</time></trkpt><trkpt lat="42.0164204" lon="12.7805787"><ele>170.33333333333334</ele><time>2026-04-04T10:06:52.835Z</time></trkpt><trkpt lat="42.0164455" lon="12.780489"><ele>169.66666666666669</ele><time>2026-04-04T10:06:53.835Z</time></trkpt><trkpt lat="42.0164731" lon="12.780395"><ele>169.0</ele><time>2026-04-04T10:06:54.835Z</time></trkpt><trkpt lat="42.016512" lon="12.7802763"><ele>168.16666666666669</ele><time>2026-04-04T10:06:55.835Z</time></trkpt><trkpt lat="42.0165504" lon="12.7801628"><ele>167.33333333333334</ele><time>2026-04-04T10:06:56.835Z</time></trkpt><trkpt lat="42.0165885" lon="12.7800563"><ele>166.5</ele><time>2026-04-04T10:06:57.835Z</time></trkpt><trkpt lat="42.0166179" lon="12.7799398"><ele>165.66666666666666</ele><time>2026-04-04T10:06:58.835Z</time></trkpt><trkpt lat="42.0166358" lon="12.7798247"><ele>164.83333333333331</ele><time>2026-04-04T10:06:59.835Z</time></trkpt><trkpt lat="42.0166471" lon="12.779741"><ele>164.0</ele><time>2026-04-04T10:07:00.835Z</time></trkpt><trkpt lat="42.0166609" lon="12.7796178"><ele>163.39999999999998</ele><time>2026-04-04T10:07:57.835Z</time></trkpt><trkpt lat="42.0166784" lon="12.7794602"><ele>162.8</ele><time>2026-04-04T10:07:59.834Z</time></trkpt><trkpt lat="42.0166954" lon="12.7793442"><ele>162.2</ele><time>2026-04-04T10:08:00.835Z</time></trkpt><trkpt lat="42.0167117" lon="12.7792205"><ele>161.60000000000002</ele><time>2026-04-04T10:08:01.835Z</time></trkpt><trkpt lat="42.0167278" lon="12.779101"><ele>161.0</ele><time>2026-04-04T10:08:02.835Z</time></trkpt><trkpt lat="42.0167438" lon="12.7789862"><ele>160.4</ele><time>2026-04-04T10:08:03.835Z</time></trkpt><trkpt lat="42.0167545" lon="12.7788836"><ele>159.8</ele><time>2026-04-04T10:08:04.835Z</time></trkpt><trkpt lat="42.0167721" lon="12.7787961"><ele>159.20000000000002</ele><time>2026-04-04T10:08:05.835Z</time></trkpt><trkpt lat="42.0167951" lon="12.778679"><ele>158.60000000000002</ele><time>2026-04-04T10:08:07.835Z</time></trkpt><trkpt lat="42.0168044" lon="12.7785542"><ele>158.0</ele><time>2026-04-04T10:08:30.835Z</time></trkpt><trkpt lat="42.0168458" lon="12.7783822"><ele>157.33333333333331</ele><time>2026-04-04T10:08:32.835Z</time></trkpt><trkpt lat="42.016871" lon="12.778265"><ele>156.66666666666666</ele><time>2026-04-04T10:08:33.835Z</time></trkpt><trkpt lat="42.0168955" lon="12.7781641"><ele>156.0</ele><time>2026-04-04T10:08:34.835Z</time></trkpt><trkpt lat="42.0169265" lon="12.7780527"><ele>155.33333333333334</ele><time>2026-04-04T10:08:35.835Z</time></trkpt><trkpt lat="42.016961" lon="12.7779538"><ele>154.66666666666669</ele><time>2026-04-04T10:08:36.835Z</time></trkpt><trkpt lat="42.0169935" lon="12.7778717"><ele>154.0</ele><time>2026-04-04T10:08:37.835Z</time></trkpt><trkpt lat="42.0170343" lon="12.777794"><ele>154.0</ele><time>2026-04-04T10:08:38.834Z</time></trkpt><trkpt lat="42.0170719" lon="12.7777163"><ele>154.0</ele><time>2026-04-04T10:08:39.835Z</time></trkpt><trkpt lat="42.0170973" lon="12.7776286"><ele>154.0</ele><time>2026-04-04T10:08:40.835Z</time></trkpt><trkpt lat="42.0171245" lon="12.7775296"><ele>154.0</ele><time>2026-04-04T10:08:41.834Z</time></trkpt><trkpt lat="42.0171536" lon="12.777446"><ele>154.0</ele><time>2026-04-04T10:08:42.835Z</time></trkpt><trkpt lat="42.0171617" lon="12.7773237"><ele>154.0</ele><time>2026-04-04T10:08:43.835Z</time></trkpt><trkpt lat="42.017186" lon="12.7772277"><ele>153.14285714285714</ele><time>2026-04-04T10:08:44.835Z</time></trkpt><trkpt lat="42.0172114" lon="12.7771321"><ele>152.28571428571428</ele><time>2026-04-04T10:08:45.835Z</time></trkpt><trkpt lat="42.0172159" lon="12.7770307"><ele>151.42857142857144</ele><time>2026-04-04T10:08:46.835Z</time></trkpt><trkpt lat="42.0172024" lon="12.7769349"><ele>150.57142857142856</ele><time>2026-04-04T10:08:47.835Z</time></trkpt><trkpt lat="42.0171815" lon="12.7768348"><ele>149.71428571428572</ele><time>2026-04-04T10:08:48.835Z</time></trkpt><trkpt lat="42.017155" lon="12.7767368"><ele>148.85714285714286</ele><time>2026-04-04T10:08:49.835Z</time></trkpt><trkpt lat="42.0171429" lon="12.7766506"><ele>148.0</ele><time>2026-04-04T10:08:50.835Z</time></trkpt><trkpt lat="42.0171671" lon="12.7765376"><ele>147.0</ele><time>2026-04-04T10:08:52.835Z</time></trkpt><trkpt lat="42.0172123" lon="12.7764486"><ele>146.0</ele><time>2026-04-04T10:08:53.835Z</time></trkpt><trkpt lat="42.0172629" lon="12.7763796"><ele>145.0</ele><time>2026-04-04T10:08:54.835Z</time></trkpt><trkpt lat="42.0173288" lon="12.7763249"><ele>144.0</ele><time>2026-04-04T10:08:56.835Z</time></trkpt><trkpt lat="42.0173963" lon="12.7763926"><ele>143.0</ele><time>2026-04-04T10:09:05.835Z</time></trkpt><trkpt lat="42.0174255" lon="12.7764752"><ele>142.0</ele><time>2026-04-04T10:09:06.835Z</time></trkpt><trkpt lat="42.0174666" lon="12.7765884"><ele>142.0</ele><time>2026-04-04T10:09:07.835Z</time></trkpt><trkpt lat="42.0175237" lon="12.7767168"><ele>142.0</ele><time>2026-04-04T10:09:08.835Z</time></trkpt><trkpt lat="42.017584" lon="12.7768589"><ele>142.0</ele><time>2026-04-04T10:09:09.835Z</time></trkpt><trkpt lat="42.0176548" lon="12.7770103"><ele>142.0</ele><time>2026-04-04T10:09:10.835Z</time></trkpt><trkpt lat="42.0177305" lon="12.7771685"><ele>142.0</ele><time>2026-04-04T10:09:11.835Z</time></trkpt><trkpt lat="42.0178114" lon="12.7773228"><ele>142.0</ele><time>2026-04-04T10:09:12.835Z</time></trkpt><trkpt lat="42.0179022" lon="12.7774698"><ele>142.0</ele><time>2026-04-04T10:09:13.835Z</time></trkpt><trkpt lat="42.0180035" lon="12.7776023"><ele>142.0</ele><time>2026-04-04T10:09:14.835Z</time></trkpt><trkpt lat="42.0181222" lon="12.7777248"><ele>144.33333333333334</ele><time>2026-04-04T10:09:15.835Z</time></trkpt><trkpt lat="42.0182552" lon="12.7778261"><ele>146.66666666666666</ele><time>2026-04-04T10:09:16.835Z</time></trkpt><trkpt lat="42.0183938" lon="12.7779157"><ele>149.0</ele><time>2026-04-04T10:09:17.835Z</time></trkpt><trkpt lat="42.0185329" lon="12.7779999"><ele>149.25</ele><time>2026-04-04T10:09:18.834Z</time></trkpt><trkpt lat="42.0186644" lon="12.7780724"><ele>149.5</ele><time>2026-04-04T10:09:19.835Z</time></trkpt><trkpt lat="42.0187913" lon="12.7781359"><ele>149.75</ele><time>2026-04-04T10:09:20.835Z</time></trkpt><trkpt lat="42.0189254" lon="12.7781899"><ele>150.0</ele><time>2026-04-04T10:09:21.835Z</time></trkpt><trkpt lat="42.0190605" lon="12.7782204"><ele>150.0</ele><time>2026-04-04T10:09:22.835Z</time></trkpt><trkpt lat="42.0192049" lon="12.7782228"><ele>150.0</ele><time>2026-04-04T10:09:23.835Z</time></trkpt><trkpt lat="42.0193509" lon="12.7782003"><ele>150.0</ele><time>2026-04-04T10:09:24.835Z</time></trkpt><trkpt lat="42.0195017" lon="12.7781768"><ele>150.0</ele><time>2026-04-04T10:09:25.835Z</time></trkpt><trkpt lat="42.0196456" lon="12.7781566"><ele>150.0</ele><time>2026-04-04T10:09:26.835Z</time></trkpt><trkpt lat="42.0197929" lon="12.7781413"><ele>150.0</ele><time>2026-04-04T10:09:27.835Z</time></trkpt><trkpt lat="42.0199389" lon="12.778136"><ele>150.0</ele><time>2026-04-04T10:09:28.835Z</time></trkpt><trkpt lat="42.020081" lon="12.7781434"><ele>150.0</ele><time>2026-04-04T10:09:29.834Z</time></trkpt><trkpt lat="42.020219" lon="12.7781876"><ele>150.0</ele><time>2026-04-04T10:09:30.835Z</time></trkpt><trkpt lat="42.020351" lon="12.7782615"><ele>150.0</ele><time>2026-04-04T10:09:31.835Z</time></trkpt><trkpt lat="42.0204791" lon="12.7783653"><ele>150.0</ele><time>2026-04-04T10:09:32.835Z</time></trkpt><trkpt lat="42.0206101" lon="12.7784969"><ele>150.66666666666666</ele><time>2026-04-04T10:09:33.835Z</time></trkpt><trkpt lat="42.020743" lon="12.7786476"><ele>151.33333333333331</ele><time>2026-04-04T10:09:34.835Z</time></trkpt><trkpt lat="42.0208712" lon="12.7787916"><ele>152.0</ele><time>2026-04-04T10:09:35.835Z</time></trkpt><trkpt lat="42.0210049" lon="12.7789249"><ele>152.33333333333331</ele><time>2026-04-04T10:09:36.835Z</time></trkpt><trkpt lat="42.0211373" lon="12.7790427"><ele>152.66666666666666</ele><time>2026-04-04T10:09:37.835Z</time></trkpt><trkpt lat="42.0212753" lon="12.7791378"><ele>153.0</ele><time>2026-04-04T10:09:38.835Z</time></trkpt><trkpt lat="42.0214225" lon="12.7792076"><ele>153.0</ele><time>2026-04-04T10:09:39.835Z</time></trkpt><trkpt lat="42.0215728" lon="12.7792684"><ele>153.0</ele><time>2026-04-04T10:09:40.835Z</time></trkpt><trkpt lat="42.0217272" lon="12.779328"><ele>153.0</ele><time>2026-04-04T10:09:41.835Z</time></trkpt><trkpt lat="42.0218692" lon="12.7793886"><ele>154.20000000000002</ele><time>2026-04-04T10:09:42.835Z</time></trkpt><trkpt lat="42.0219862" lon="12.7794415"><ele>155.4</ele><time>2026-04-04T10:09:43.835Z</time></trkpt><trkpt lat="42.0220851" lon="12.7794842"><ele>156.60000000000002</ele><time>2026-04-04T10:09:44.835Z</time></trkpt><trkpt lat="42.0221616" lon="12.779521"><ele>157.8</ele><time>2026-04-04T10:09:45.834Z</time></trkpt><trkpt lat="42.0222625" lon="12.7795289"><ele>159.0</ele><time>2026-04-04T10:09:47.835Z</time></trkpt><trkpt lat="42.0223365" lon="12.7794048"><ele>159.42857142857142</ele><time>2026-04-04T10:09:49.835Z</time></trkpt><trkpt lat="42.0223797" lon="12.7793348"><ele>159.85714285714286</ele><time>2026-04-04T10:09:50.835Z</time></trkpt><trkpt lat="42.0224448" lon="12.7792631"><ele>160.28571428571428</ele><time>2026-04-04T10:09:51.835Z</time></trkpt><trkpt lat="42.0224987" lon="12.7791956"><ele>160.71428571428572</ele><time>2026-04-04T10:09:52.835Z</time></trkpt><trkpt lat="42.0225502" lon="12.7791304"><ele>161.14285714285714</ele><time>2026-04-04T10:09:53.835Z</time></trkpt><trkpt lat="42.0226084" lon="12.7790516"><ele>161.57142857142858</ele><time>2026-04-04T10:09:54.835Z</time></trkpt><trkpt lat="42.0226538" lon="12.7789833"><ele>162.0</ele><time>2026-04-04T10:09:55.835Z</time></trkpt><trkpt lat="42.022684" lon="12.7789009"><ele>162.83333333333334</ele><time>2026-04-04T10:09:56.834Z</time></trkpt><trkpt lat="42.0227127" lon="12.7787993"><ele>163.66666666666666</ele><time>2026-04-04T10:09:57.835Z</time></trkpt><trkpt lat="42.0227405" lon="12.7786945"><ele>164.5</ele><time>2026-04-04T10:09:58.835Z</time></trkpt><trkpt lat="42.0227644" lon="12.7785865"><ele>165.33333333333331</ele><time>2026-04-04T10:09:59.835Z</time></trkpt><trkpt lat="42.0227886" lon="12.7784918"><ele>166.16666666666666</ele><time>2026-04-04T10:10:00.835Z</time></trkpt><trkpt lat="42.0228157" lon="12.7784104"><ele>167.0</ele><time>2026-04-04T10:10:01.835Z</time></trkpt><trkpt lat="42.022855" lon="12.7783409"><ele>169.33333333333331</ele><time>2026-04-04T10:10:02.835Z</time></trkpt><trkpt lat="42.022897" lon="12.7782749"><ele>171.66666666666666</ele><time>2026-04-04T10:10:03.835Z</time></trkpt><trkpt lat="42.0229589" lon="12.7782435"><ele>174.0</ele><time>2026-04-04T10:10:04.835Z</time></trkpt><trkpt lat="42.0230181" lon="12.7782032"><ele>176.33333333333334</ele><time>2026-04-04T10:10:05.835Z</time></trkpt><trkpt lat="42.0230808" lon="12.7781664"><ele>178.66666666666669</ele><time>2026-04-04T10:10:06.834Z</time></trkpt><trkpt lat="42.0231394" lon="12.7781276"><ele>181.0</ele><time>2026-04-04T10:10:07.835Z</time></trkpt><trkpt lat="42.0232628" lon="12.7780996"><ele>182.0</ele><time>2026-04-04T10:10:09.835Z</time></trkpt><trkpt lat="42.0233473" lon="12.7780988"><ele>183.0</ele><time>2026-04-04T10:10:10.835Z</time></trkpt><trkpt lat="42.0234491" lon="12.7780969"><ele>184.0</ele><time>2026-04-04T10:10:11.835Z</time></trkpt><trkpt lat="42.0235274" lon="12.77809"><ele>185.0</ele><time>2026-04-04T10:10:12.835Z</time></trkpt><trkpt lat="42.0236017" lon="12.7780738"><ele>186.0</ele><time>2026-04-04T10:10:13.835Z</time></trkpt><trkpt lat="42.02366" lon="12.7780208"><ele>187.0</ele><time>2026-04-04T10:10:15.835Z</time></trkpt><trkpt lat="42.0236543" lon="12.7779307"><ele>187.0</ele><time>2026-04-04T10:10:17.834Z</time></trkpt><trkpt lat="42.0236058" lon="12.7778748"><ele>187.0</ele><time>2026-04-04T10:10:18.835Z</time></trkpt><trkpt lat="42.0235522" lon="12.7777356"><ele>187.0</ele><time>2026-04-04T10:10:20.835Z</time></trkpt><trkpt lat="42.0235319" lon="12.7775932"><ele>187.0</ele><time>2026-04-04T10:10:22.835Z</time></trkpt><trkpt lat="42.0234985" lon="12.7774602"><ele>187.0</ele><time>2026-04-04T10:10:24.835Z</time></trkpt><trkpt lat="42.023475" lon="12.7773224"><ele>190.2</ele><time>2026-04-04T10:10:26.835Z</time></trkpt><trkpt lat="42.0234535" lon="12.7771582"><ele>193.39999999999998</ele><time>2026-04-04T10:10:28.835Z</time></trkpt><trkpt lat="42.0234556" lon="12.7769664"><ele>196.60000000000002</ele><time>2026-04-04T10:10:30.835Z</time></trkpt><trkpt lat="42.0234601" lon="12.7768647"><ele>199.8</ele><time>2026-04-04T10:10:31.835Z</time></trkpt><trkpt lat="42.0234689" lon="12.7767703"><ele>203.0</ele><time>2026-04-04T10:10:32.835Z</time></trkpt><trkpt lat="42.0234812" lon="12.7766538"><ele>205.50000000000003</ele><time>2026-04-04T10:10:33.835Z</time></trkpt><trkpt lat="42.0234917" lon="12.7765332"><ele>208.0</ele><time>2026-04-04T10:10:34.835Z</time></trkpt><trkpt lat="42.0234918" lon="12.7764459"><ele>210.5</ele><time>2026-04-04T10:10:35.835Z</time></trkpt><trkpt lat="42.0234865" lon="12.7763582"><ele>213.0</ele><time>2026-04-04T10:10:36.835Z</time></trkpt><trkpt lat="42.0234721" lon="12.7762258"><ele>215.50000000000003</ele><time>2026-04-04T10:10:38.835Z</time></trkpt><trkpt lat="42.0234925" lon="12.7760534"><ele>218.0</ele><time>2026-04-04T10:10:40.835Z</time></trkpt><trkpt lat="42.0235138" lon="12.7759558"><ele>218.16666666666669</ele><time>2026-04-04T10:10:41.835Z</time></trkpt><trkpt lat="42.0235449" lon="12.7758691"><ele>218.33333333333334</ele><time>2026-04-04T10:10:42.835Z</time></trkpt><trkpt lat="42.0235749" lon="12.7757748"><ele>218.5</ele><time>2026-04-04T10:10:43.835Z</time></trkpt><trkpt lat="42.0236165" lon="12.7756705"><ele>218.66666666666669</ele><time>2026-04-04T10:10:44.835Z</time></trkpt><trkpt lat="42.0236611" lon="12.7755749"><ele>218.83333333333334</ele><time>2026-04-04T10:10:45.835Z</time></trkpt><trkpt lat="42.0237011" lon="12.7754947"><ele>219.0</ele><time>2026-04-04T10:10:46.835Z</time></trkpt><trkpt lat="42.02374" lon="12.7754209"><ele>219.0</ele><time>2026-04-04T10:10:47.835Z</time></trkpt><trkpt lat="42.0237955" lon="12.7753085"><ele>219.0</ele><time>2026-04-04T10:10:49.835Z</time></trkpt><trkpt lat="42.0238444" lon="12.7752499"><ele>219.0</ele><time>2026-04-04T10:11:01.835Z</time></trkpt><trkpt lat="42.0239021" lon="12.7753731"><ele>219.0</ele><time>2026-04-04T10:11:04.835Z</time></trkpt><trkpt lat="42.0239293" lon="12.7754572"><ele>219.0</ele><time>2026-04-04T10:11:05.835Z</time></trkpt><trkpt lat="42.0239657" lon="12.7755476"><ele>219.0</ele><time>2026-04-04T10:11:06.835Z</time></trkpt><trkpt lat="42.0240011" lon="12.7756403"><ele>219.0</ele><time>2026-04-04T10:11:07.835Z</time></trkpt><trkpt lat="42.0240401" lon="12.7757377"><ele>218.99999999999997</ele><time>2026-04-04T10:11:08.835Z</time></trkpt><trkpt lat="42.0240855" lon="12.7758338"><ele>218.99999999999997</ele><time>2026-04-04T10:11:09.835Z</time></trkpt><trkpt lat="42.0241428" lon="12.7759333"><ele>219.0</ele><time>2026-04-04T10:11:10.834Z</time></trkpt><trkpt lat="42.0242123" lon="12.7760358"><ele>219.0</ele><time>2026-04-04T10:11:11.835Z</time></trkpt><trkpt lat="42.0242794" lon="12.7761369"><ele>219.0</ele><time>2026-04-04T10:11:12.835Z</time></trkpt><trkpt lat="42.024347" lon="12.7762491"><ele>218.99999999999997</ele><time>2026-04-04T10:11:13.835Z</time></trkpt><trkpt lat="42.0244144" lon="12.7763702"><ele>218.99999999999997</ele><time>2026-04-04T10:11:14.834Z</time></trkpt><trkpt lat="42.0244718" lon="12.7764968"><ele>219.0</ele><time>2026-04-04T10:11:15.835Z</time></trkpt><trkpt lat="42.0245267" lon="12.7766127"><ele>219.0</ele><time>2026-04-04T10:11:16.835Z</time></trkpt><trkpt lat="42.0245856" lon="12.7767288"><ele>219.0</ele><time>2026-04-04T10:11:17.835Z</time></trkpt><trkpt lat="42.0246588" lon="12.7768363"><ele>219.0</ele><time>2026-04-04T10:11:18.835Z</time></trkpt><trkpt lat="42.0247502" lon="12.7769259"><ele>219.0</ele><time>2026-04-04T10:11:19.835Z</time></trkpt><trkpt lat="42.0248504" lon="12.7770111"><ele>219.0</ele><time>2026-04-04T10:11:20.835Z</time></trkpt><trkpt lat="42.0249481" lon="12.7770896"><ele>218.0</ele><time>2026-04-04T10:11:21.835Z</time></trkpt><trkpt lat="42.0250331" lon="12.77716"><ele>216.99999999999997</ele><time>2026-04-04T10:11:22.835Z</time></trkpt><trkpt lat="42.0251083" lon="12.7772226"><ele>215.99999999999997</ele><time>2026-04-04T10:11:23.835Z</time></trkpt><trkpt lat="42.0251649" lon="12.7772812"><ele>215.0</ele><time>2026-04-04T10:11:24.835Z</time></trkpt><trkpt lat="42.0252339" lon="12.7773735"><ele>214.0</ele><time>2026-04-04T10:11:26.835Z</time></trkpt><trkpt lat="42.025309" lon="12.7774719"><ele>214.0</ele><time>2026-04-04T10:11:35.835Z</time></trkpt><trkpt lat="42.025361" lon="12.7776243"><ele>213.99999999999997</ele><time>2026-04-04T10:11:37.835Z</time></trkpt><trkpt lat="42.0254061" lon="12.7777593"><ele>213.99999999999997</ele><time>2026-04-04T10:11:39.835Z</time></trkpt><trkpt lat="42.0254427" lon="12.7778493"><ele>214.0</ele><time>2026-04-04T10:11:45.835Z</time></trkpt><trkpt lat="42.0254917" lon="12.7779377"><ele>214.0</ele><time>2026-04-04T10:11:48.835Z</time></trkpt><trkpt lat="42.0255488" lon="12.7780385"><ele>213.66666666666666</ele><time>2026-04-04T10:11:50.835Z</time></trkpt><trkpt lat="42.025619" lon="12.7781548"><ele>213.33333333333331</ele><time>2026-04-04T10:11:52.835Z</time></trkpt><trkpt lat="42.0256904" lon="12.7782275"><ele>213.0</ele><time>2026-04-04T10:11:54.835Z</time></trkpt><trkpt lat="42.0257523" lon="12.7781677"><ele>212.66666666666669</ele><time>2026-04-04T10:11:58.835Z</time></trkpt><trkpt lat="42.0258124" lon="12.7780505"><ele>212.33333333333334</ele><time>2026-04-04T10:12:00.835Z</time></trkpt><trkpt lat="42.0258633" lon="12.7779932"><ele>212.0</ele><time>2026-04-04T10:12:01.835Z</time></trkpt><trkpt lat="42.0259268" lon="12.7779278"><ele>212.0</ele><time>2026-04-04T10:12:02.835Z</time></trkpt><trkpt lat="42.026001" lon="12.7778835"><ele>212.0</ele><time>2026-04-04T10:12:03.835Z</time></trkpt><trkpt lat="42.0260697" lon="12.7778503"><ele>212.0</ele><time>2026-04-04T10:12:04.835Z</time></trkpt><trkpt lat="42.0261818" lon="12.7778324"><ele>212.0</ele><time>2026-04-04T10:12:06.835Z</time></trkpt><trkpt lat="42.0262483" lon="12.7777633"><ele>212.0</ele><time>2026-04-04T10:12:08.835Z</time></trkpt><trkpt lat="42.0262642" lon="12.7776187"><ele>213.25</ele><time>2026-04-04T10:12:10.835Z</time></trkpt><trkpt lat="42.0262862" lon="12.7774898"><ele>214.5</ele><time>2026-04-04T10:12:12.835Z</time></trkpt><trkpt lat="42.0263122" lon="12.7773473"><ele>215.75</ele><time>2026-04-04T10:12:14.835Z</time></trkpt><trkpt lat="42.0263468" lon="12.7771882"><ele>217.0</ele><time>2026-04-04T10:12:16.835Z</time></trkpt><trkpt lat="42.0263669" lon="12.7770216"><ele>216.99999999999997</ele><time>2026-04-04T10:12:18.835Z</time></trkpt><trkpt lat="42.0263841" lon="12.776938"><ele>217.0</ele><time>2026-04-04T10:12:19.835Z</time></trkpt><trkpt lat="42.0264026" lon="12.7768536"><ele>217.0</ele><time>2026-04-04T10:12:20.835Z</time></trkpt><trkpt lat="42.0264336" lon="12.7767699"><ele>217.0</ele><time>2026-04-04T10:12:21.835Z</time></trkpt><trkpt lat="42.0264758" lon="12.7766715"><ele>216.99999999999997</ele><time>2026-04-04T10:12:22.835Z</time></trkpt><trkpt lat="42.0265329" lon="12.7765681"><ele>217.0</ele><time>2026-04-04T10:12:23.835Z</time></trkpt><trkpt lat="42.0265885" lon="12.7764638"><ele>216.33333333333331</ele><time>2026-04-04T10:12:24.835Z</time></trkpt><trkpt lat="42.0266349" lon="12.7763618"><ele>215.66666666666666</ele><time>2026-04-04T10:12:25.835Z</time></trkpt><trkpt lat="42.0266743" lon="12.7762748"><ele>215.0</ele><time>2026-04-04T10:12:26.835Z</time></trkpt><trkpt lat="42.0266999" lon="12.7761693"><ele>214.33333333333331</ele><time>2026-04-04T10:12:27.835Z</time></trkpt><trkpt lat="42.0267331" lon="12.7760707"><ele>213.66666666666666</ele><time>2026-04-04T10:12:28.835Z</time></trkpt><trkpt lat="42.0267575" lon="12.7759702"><ele>213.0</ele><time>2026-04-04T10:12:29.835Z</time></trkpt><trkpt lat="42.0267848" lon="12.7758694"><ele>209.4</ele><time>2026-04-04T10:12:30.835Z</time></trkpt><trkpt lat="42.0268231" lon="12.775765"><ele>205.8</ele><time>2026-04-04T10:12:31.835Z</time></trkpt><trkpt lat="42.0268652" lon="12.7756561"><ele>202.2</ele><time>2026-04-04T10:12:32.835Z</time></trkpt><trkpt lat="42.0268956" lon="12.7755457"><ele>198.6</ele><time>2026-04-04T10:12:33.835Z</time></trkpt><trkpt lat="42.0269373" lon="12.7754407"><ele>195.0</ele><time>2026-04-04T10:12:34.834Z</time></trkpt><trkpt lat="42.0269725" lon="12.775285"><ele>193.0</ele><time>2026-04-04T10:12:36.835Z</time></trkpt><trkpt lat="42.0270014" lon="12.775145"><ele>191.0</ele><time>2026-04-04T10:12:38.835Z</time></trkpt><trkpt lat="42.0270098" lon="12.7750093"><ele>189.0</ele><time>2026-04-04T10:12:40.835Z</time></trkpt><trkpt lat="42.0269769" lon="12.7748954"><ele>187.0</ele><time>2026-04-04T10:12:42.835Z</time></trkpt><trkpt lat="42.026881" lon="12.7748042"><ele>185.0</ele><time>2026-04-04T10:12:44.835Z</time></trkpt><trkpt lat="42.026812" lon="12.774762"><ele>185.0</ele><time>2026-04-04T10:12:45.834Z</time></trkpt><trkpt lat="42.0267525" lon="12.7747247"><ele>185.0</ele><time>2026-04-04T10:12:46.835Z</time></trkpt><trkpt lat="42.0266555" lon="12.7746152"><ele>185.0</ele><time>2026-04-04T10:12:48.835Z</time></trkpt><trkpt lat="42.0266149" lon="12.7745466"><ele>185.0</ele><time>2026-04-04T10:12:49.835Z</time></trkpt><trkpt lat="42.026568" lon="12.7744186"><ele>185.0</ele><time>2026-04-04T10:12:51.835Z</time></trkpt><trkpt lat="42.0264821" lon="12.7743437"><ele>183.42857142857142</ele><time>2026-04-04T10:12:53.835Z</time></trkpt><trkpt lat="42.0264194" lon="12.7743257"><ele>181.85714285714286</ele><time>2026-04-04T10:12:54.835Z</time></trkpt><trkpt lat="42.0263505" lon="12.7743059"><ele>180.28571428571428</ele><time>2026-04-04T10:12:55.835Z</time></trkpt><trkpt lat="42.0262824" lon="12.7742875"><ele>178.71428571428572</ele><time>2026-04-04T10:12:56.834Z</time></trkpt><trkpt lat="42.0262087" lon="12.7742694"><ele>177.14285714285714</ele><time>2026-04-04T10:12:57.835Z</time></trkpt><trkpt lat="42.0261361" lon="12.7742617"><ele>175.57142857142856</ele><time>2026-04-04T10:12:58.835Z</time></trkpt><trkpt lat="42.0260615" lon="12.7742495"><ele>174.0</ele><time>2026-04-04T10:12:59.835Z</time></trkpt><trkpt lat="42.0259434" lon="12.7741851"><ele>174.0</ele><time>2026-04-04T10:13:01.835Z</time></trkpt><trkpt lat="42.0259162" lon="12.7740581"><ele>174.0</ele><time>2026-04-04T10:13:03.835Z</time></trkpt><trkpt lat="42.0259392" lon="12.7738924"><ele>174.0</ele><time>2026-04-04T10:13:05.835Z</time></trkpt><trkpt lat="42.0259575" lon="12.7737977"><ele>174.0</ele><time>2026-04-04T10:13:06.835Z</time></trkpt><trkpt lat="42.0259723" lon="12.7736963"><ele>174.0</ele><time>2026-04-04T10:13:07.835Z</time></trkpt><trkpt lat="42.0259916" lon="12.7736079"><ele>174.0</ele><time>2026-04-04T10:13:08.835Z</time></trkpt><trkpt lat="42.0260069" lon="12.7735235"><ele>172.66666666666666</ele><time>2026-04-04T10:13:09.835Z</time></trkpt><trkpt lat="42.0260231" lon="12.7734402"><ele>171.33333333333334</ele><time>2026-04-04T10:13:10.835Z</time></trkpt><trkpt lat="42.0260709" lon="12.7732903"><ele>170.0</ele><time>2026-04-04T10:13:12.835Z</time></trkpt><trkpt lat="42.0261111" lon="12.7732172"><ele>168.66666666666669</ele><time>2026-04-04T10:13:13.835Z</time></trkpt><trkpt lat="42.0261677" lon="12.7731409"><ele>167.33333333333334</ele><time>2026-04-04T10:13:14.835Z</time></trkpt><trkpt lat="42.0262225" lon="12.7730628"><ele>166.0</ele><time>2026-04-04T10:13:15.835Z</time></trkpt><trkpt lat="42.0262764" lon="12.7729931"><ele>166.0</ele><time>2026-04-04T10:13:16.835Z</time></trkpt><trkpt lat="42.026326" lon="12.7729233"><ele>166.0</ele><time>2026-04-04T10:13:17.835Z</time></trkpt><trkpt lat="42.0263598" lon="12.7727763"><ele>166.0</ele><time>2026-04-04T10:13:19.835Z</time></trkpt><trkpt lat="42.0263276" lon="12.772627"><ele>166.0</ele><time>2026-04-04T10:13:21.835Z</time></trkpt><trkpt lat="42.0263073" lon="12.7725173"><ele>166.0</ele><time>2026-04-04T10:13:23.835Z</time></trkpt><trkpt lat="42.0263386" lon="12.7724315"><ele>165.5</ele><time>2026-04-04T10:13:25.835Z</time></trkpt><trkpt lat="42.0264253" lon="12.7723583"><ele>165.0</ele><time>2026-04-04T10:13:27.835Z</time></trkpt><trkpt lat="42.0265383" lon="12.7722933"><ele>164.5</ele><time>2026-04-04T10:13:29.835Z</time></trkpt><trkpt lat="42.026601" lon="12.7722542"><ele>164.0</ele><time>2026-04-04T10:13:30.835Z</time></trkpt><trkpt lat="42.0266561" lon="12.7722066"><ele>163.5</ele><time>2026-04-04T10:13:31.835Z</time></trkpt><trkpt lat="42.0267066" lon="12.772147"><ele>163.0</ele><time>2026-04-04T10:13:32.835Z</time></trkpt><trkpt lat="42.0267564" lon="12.7720922"><ele>160.8</ele><time>2026-04-04T10:13:33.835Z</time></trkpt><trkpt lat="42.0268576" lon="12.7720127"><ele>158.60000000000002</ele><time>2026-04-04T10:13:35.835Z</time></trkpt><trkpt lat="42.0269652" lon="12.7719912"><ele>156.39999999999998</ele><time>2026-04-04T10:13:37.835Z</time></trkpt><trkpt lat="42.0270252" lon="12.771951"><ele>154.2</ele><time>2026-04-04T10:13:39.835Z</time></trkpt><trkpt lat="42.0270262" lon="12.771844"><ele>152.0</ele><time>2026-04-04T10:13:41.835Z</time></trkpt><trkpt lat="42.0269501" lon="12.7717333"><ele>150.2</ele><time>2026-04-04T10:13:43.835Z</time></trkpt><trkpt lat="42.026892" lon="12.7716799"><ele>148.39999999999998</ele><time>2026-04-04T10:13:44.834Z</time></trkpt><trkpt lat="42.0268258" lon="12.7715841"><ele>146.60000000000002</ele><time>2026-04-04T10:13:46.835Z</time></trkpt><trkpt lat="42.0268458" lon="12.7714683"><ele>144.8</ele><time>2026-04-04T10:13:48.835Z</time></trkpt><trkpt lat="42.0269295" lon="12.7713379"><ele>143.0</ele><time>2026-04-04T10:13:50.835Z</time></trkpt><trkpt lat="42.0269935" lon="12.7712791"><ele>143.0</ele><time>2026-04-04T10:13:51.835Z</time></trkpt><trkpt lat="42.0270449" lon="12.7712263"><ele>143.0</ele><time>2026-04-04T10:13:52.835Z</time></trkpt><trkpt lat="42.0271113" lon="12.7711696"><ele>143.0</ele><time>2026-04-04T10:13:53.835Z</time></trkpt><trkpt lat="42.0271749" lon="12.7711227"><ele>143.0</ele><time>2026-04-04T10:13:54.835Z</time></trkpt><trkpt lat="42.0272389" lon="12.771073"><ele>143.0</ele><time>2026-04-04T10:13:55.835Z</time></trkpt><trkpt lat="42.027352" lon="12.7710325"><ele>143.0</ele><time>2026-04-04T10:13:57.835Z</time></trkpt><trkpt lat="42.0274669" lon="12.7710952"><ele>142.5</ele><time>2026-04-04T10:13:59.835Z</time></trkpt><trkpt lat="42.027531" lon="12.7711407"><ele>142.0</ele><time>2026-04-04T10:14:00.835Z</time></trkpt><trkpt lat="42.0275937" lon="12.7711868"><ele>141.5</ele><time>2026-04-04T10:14:01.834Z</time></trkpt><trkpt lat="42.0276976" lon="12.7712534"><ele>141.0</ele><time>2026-04-04T10:14:03.835Z</time></trkpt><trkpt lat="42.02778" lon="12.7712779"><ele>140.5</ele><time>2026-04-04T10:14:05.835Z</time></trkpt><trkpt lat="42.0278517" lon="12.7712327"><ele>140.0</ele><time>2026-04-04T10:14:07.835Z</time></trkpt><trkpt lat="42.0279111" lon="12.7711422"><ele>140.5</ele><time>2026-04-04T10:14:09.835Z</time></trkpt><trkpt lat="42.0279858" lon="12.7710047"><ele>141.0</ele><time>2026-04-04T10:14:11.835Z</time></trkpt><trkpt lat="42.0280241" lon="12.770931"><ele>141.5</ele><time>2026-04-04T10:14:12.835Z</time></trkpt><trkpt lat="42.0280757" lon="12.7708462"><ele>142.0</ele><time>2026-04-04T10:14:13.835Z</time></trkpt><trkpt lat="42.0281189" lon="12.7707706"><ele>142.5</ele><time>2026-04-04T10:14:14.835Z</time></trkpt><trkpt lat="42.0281696" lon="12.770688"><ele>143.0</ele><time>2026-04-04T10:14:15.835Z</time></trkpt><trkpt lat="42.0282173" lon="12.7706149"><ele>142.99999999999997</ele><time>2026-04-04T10:14:16.835Z</time></trkpt><trkpt lat="42.0282666" lon="12.7705433"><ele>143.0</ele><time>2026-04-04T10:14:17.835Z</time></trkpt><trkpt lat="42.0283118" lon="12.7704809"><ele>143.0</ele><time>2026-04-04T10:14:18.835Z</time></trkpt><trkpt lat="42.0283583" lon="12.7704172"><ele>143.0</ele><time>2026-04-04T10:14:19.835Z</time></trkpt><trkpt lat="42.0284076" lon="12.7703506"><ele>143.0</ele><time>2026-04-04T10:14:20.835Z</time></trkpt><trkpt lat="42.0284486" lon="12.7702856"><ele>142.99999999999997</ele><time>2026-04-04T10:14:21.835Z</time></trkpt><trkpt lat="42.028522" lon="12.7701731"><ele>143.0</ele><time>2026-04-04T10:14:23.835Z</time></trkpt><trkpt lat="42.0286023" lon="12.7700792"><ele>146.4</ele><time>2026-04-04T10:14:25.835Z</time></trkpt><trkpt lat="42.0286712" lon="12.7699879"><ele>149.8</ele><time>2026-04-04T10:14:27.835Z</time></trkpt><trkpt lat="42.0287355" lon="12.7698936"><ele>153.2</ele><time>2026-04-04T10:14:29.835Z</time></trkpt><trkpt lat="42.0288065" lon="12.7698023"><ele>156.6</ele><time>2026-04-04T10:14:31.835Z</time></trkpt><trkpt lat="42.0288832" lon="12.7697479"><ele>160.0</ele><time>2026-04-04T10:14:33.835Z</time></trkpt><trkpt lat="42.0289681" lon="12.7696928"><ele>160.0</ele><time>2026-04-04T10:14:35.835Z</time></trkpt><trkpt lat="42.0290454" lon="12.7696092"><ele>160.0</ele><time>2026-04-04T10:14:37.835Z</time></trkpt><trkpt lat="42.0291218" lon="12.7695215"><ele>160.0</ele><time>2026-04-04T10:14:39.835Z</time></trkpt><trkpt lat="42.0291862" lon="12.7694666"><ele>160.0</ele><time>2026-04-04T10:14:41.835Z</time></trkpt><trkpt lat="42.029259" lon="12.7693987"><ele>160.0</ele><time>2026-04-04T10:14:43.835Z</time></trkpt><trkpt lat="42.0293185" lon="12.7693409"><ele>160.0</ele><time>2026-04-04T10:14:46.835Z</time></trkpt><trkpt lat="42.0293714" lon="12.7692938"><ele>163.16666666666669</ele><time>2026-04-04T10:14:49.835Z</time></trkpt><trkpt lat="42.0294299" lon="12.7692509"><ele>166.33333333333334</ele><time>2026-04-04T10:14:53.834Z</time></trkpt><trkpt lat="42.0294967" lon="12.7692543"><ele>169.5</ele><time>2026-04-04T10:14:55.835Z</time></trkpt><trkpt lat="42.0295758" lon="12.7692436"><ele>172.66666666666666</ele><time>2026-04-04T10:14:57.835Z</time></trkpt><trkpt lat="42.0296563" lon="12.7692224"><ele>175.83333333333331</ele><time>2026-04-04T10:15:00.835Z</time></trkpt><trkpt lat="42.0297472" lon="12.769197"><ele>179.0</ele><time>2026-04-04T10:15:56.835Z</time></trkpt><trkpt lat="42.0298591" lon="12.7691744"><ele>179.0</ele><time>2026-04-04T10:15:58.835Z</time></trkpt><trkpt lat="42.0299562" lon="12.76915"><ele>179.0</ele><time>2026-04-04T10:16:00.835Z</time></trkpt><trkpt lat="42.0300348" lon="12.7691156"><ele>179.0</ele><time>2026-04-04T10:16:02.835Z</time></trkpt><trkpt lat="42.0301044" lon="12.7690654"><ele>179.0</ele><time>2026-04-04T10:16:04.835Z</time></trkpt><trkpt lat="42.0301905" lon="12.7690161"><ele>179.0</ele><time>2026-04-04T10:16:06.835Z</time></trkpt><trkpt lat="42.0303084" lon="12.7689257"><ele>181.0</ele><time>2026-04-04T10:16:08.834Z</time></trkpt><trkpt lat="42.0304113" lon="12.768865"><ele>183.0</ele><time>2026-04-04T10:16:10.835Z</time></trkpt><trkpt lat="42.0304719" lon="12.7688146"><ele>185.0</ele><time>2026-04-04T10:16:12.835Z</time></trkpt><trkpt lat="42.0305057" lon="12.7687306"><ele>187.0</ele><time>2026-04-04T10:16:14.835Z</time></trkpt><trkpt lat="42.0305043" lon="12.768615"><ele>189.0</ele><time>2026-04-04T10:16:16.835Z</time></trkpt><trkpt lat="42.0304485" lon="12.768514"><ele>191.0</ele><time>2026-04-04T10:16:18.835Z</time></trkpt><trkpt lat="42.0303908" lon="12.7683937"><ele>193.33333333333331</ele><time>2026-04-04T10:16:20.835Z</time></trkpt><trkpt lat="42.0303115" lon="12.7683086"><ele>195.66666666666666</ele><time>2026-04-04T10:16:22.835Z</time></trkpt><trkpt lat="42.0302718" lon="12.7682248"><ele>198.0</ele><time>2026-04-04T10:16:24.835Z</time></trkpt><trkpt lat="42.0303112" lon="12.7683028"><ele>200.33333333333331</ele><time>2026-04-04T10:20:44.835Z</time></trkpt><trkpt lat="42.0303674" lon="12.7683636"><ele>202.66666666666666</ele><time>2026-04-04T10:21:31.835Z</time></trkpt><trkpt lat="42.0304064" lon="12.7684458"><ele>205.0</ele><time>2026-04-04T10:22:00.835Z</time></trkpt><trkpt lat="42.0304504" lon="12.7685146"><ele>203.0</ele><time>2026-04-04T10:22:03.835Z</time></trkpt><trkpt lat="42.0304982" lon="12.7686031"><ele>201.0</ele><time>2026-04-04T10:22:06.835Z</time></trkpt><trkpt lat="42.030514" lon="12.7686963"><ele>199.0</ele><time>2026-04-04T10:22:58.835Z</time></trkpt><trkpt lat="42.0304938" lon="12.7687799"><ele>197.0</ele><time>2026-04-04T10:24:00.835Z</time></trkpt><trkpt lat="42.0304432" lon="12.7688305"><ele>195.0</ele><time>2026-04-04T10:24:15.835Z</time></trkpt><trkpt lat="42.030384" lon="12.7688624"><ele>193.0</ele><time>2026-04-04T10:24:19.835Z</time></trkpt><trkpt lat="42.0303226" lon="12.7689031"><ele>191.0</ele><time>2026-04-04T10:24:23.835Z</time></trkpt><trkpt lat="42.0302513" lon="12.7689515"><ele>191.0</ele><time>2026-04-04T10:24:27.835Z</time></trkpt><trkpt lat="42.0302005" lon="12.7690049"><ele>191.0</ele><time>2026-04-04T10:24:32.835Z</time></trkpt><trkpt lat="42.0302528" lon="12.7690819"><ele>191.0</ele><time>2026-04-04T10:24:53.834Z</time></trkpt><trkpt lat="42.030305" lon="12.7691369"><ele>191.0</ele><time>2026-04-04T10:25:10.834Z</time></trkpt><trkpt lat="42.0303688" lon="12.7692296"><ele>191.0</ele><time>2026-04-04T10:25:13.835Z</time></trkpt><trkpt lat="42.0304058" lon="12.7693465"><ele>191.0</ele><time>2026-04-04T10:25:15.835Z</time></trkpt><trkpt lat="42.0304538" lon="12.7694582"><ele>191.4</ele><time>2026-04-04T10:25:17.835Z</time></trkpt><trkpt lat="42.0305164" lon="12.7695499"><ele>191.8</ele><time>2026-04-04T10:25:19.835Z</time></trkpt><trkpt lat="42.0305803" lon="12.7696487"><ele>192.20000000000002</ele><time>2026-04-04T10:25:21.834Z</time></trkpt><trkpt lat="42.0306395" lon="12.7697438"><ele>192.60000000000002</ele><time>2026-04-04T10:25:23.835Z</time></trkpt><trkpt lat="42.0307053" lon="12.7698221"><ele>193.0</ele><time>2026-04-04T10:25:25.835Z</time></trkpt><trkpt lat="42.0307347" lon="12.7699293"><ele>193.00000000000003</ele><time>2026-04-04T10:25:28.835Z</time></trkpt><trkpt lat="42.0307997" lon="12.7699842"><ele>193.0</ele><time>2026-04-04T10:25:31.835Z</time></trkpt><trkpt lat="42.0308673" lon="12.769971"><ele>193.0</ele><time>2026-04-04T10:25:33.835Z</time></trkpt><trkpt lat="42.0309367" lon="12.7699652"><ele>193.0</ele><time>2026-04-04T10:25:42.835Z</time></trkpt><trkpt lat="42.0309876" lon="12.7700195"><ele>193.0</ele><time>2026-04-04T10:25:44.835Z</time></trkpt><trkpt lat="42.0310374" lon="12.7700861"><ele>193.00000000000003</ele><time>2026-04-04T10:26:13.835Z</time></trkpt><trkpt lat="42.0310991" lon="12.7701201"><ele>193.0</ele><time>2026-04-04T10:26:15.835Z</time></trkpt><trkpt lat="42.0312124" lon="12.7701229"><ele>197.4</ele><time>2026-04-04T10:26:18.835Z</time></trkpt><trkpt lat="42.03127" lon="12.7700868"><ele>201.8</ele><time>2026-04-04T10:26:19.835Z</time></trkpt><trkpt lat="42.0313599" lon="12.7700661"><ele>206.2</ele><time>2026-04-04T10:26:21.835Z</time></trkpt><trkpt lat="42.0314476" lon="12.7700305"><ele>210.6</ele><time>2026-04-04T10:26:23.835Z</time></trkpt><trkpt lat="42.0315538" lon="12.7699829"><ele>215.0</ele><time>2026-04-04T10:26:25.835Z</time></trkpt><trkpt lat="42.0316441" lon="12.7699493"><ele>216.50000000000003</ele><time>2026-04-04T10:26:27.835Z</time></trkpt><trkpt lat="42.0317197" lon="12.7699123"><ele>218.0</ele><time>2026-04-04T10:26:29.835Z</time></trkpt><trkpt lat="42.0317961" lon="12.7698592"><ele>219.5</ele><time>2026-04-04T10:26:32.835Z</time></trkpt><trkpt lat="42.0318652" lon="12.7698058"><ele>221.0</ele><time>2026-04-04T10:26:34.835Z</time></trkpt><trkpt lat="42.031924" lon="12.7697202"><ele>222.50000000000003</ele><time>2026-04-04T10:26:37.835Z</time></trkpt><trkpt lat="42.0319506" lon="12.7696098"><ele>224.0</ele><time>2026-04-04T10:26:40.835Z</time></trkpt><trkpt lat="42.031952" lon="12.7695091"><ele>224.0</ele><time>2026-04-04T10:26:42.835Z</time></trkpt><trkpt lat="42.031974" lon="12.7693742"><ele>223.99999999999997</ele><time>2026-04-04T10:26:44.835Z</time></trkpt><trkpt lat="42.0319939" lon="12.7692192"><ele>223.99999999999997</ele><time>2026-04-04T10:26:46.835Z</time></trkpt><trkpt lat="42.0320107" lon="12.769059"><ele>224.0</ele><time>2026-04-04T10:26:48.835Z</time></trkpt><trkpt lat="42.0320185" lon="12.7689725"><ele>224.0</ele><time>2026-04-04T10:26:49.835Z</time></trkpt><trkpt lat="42.0320293" lon="12.7688878"><ele>224.2</ele><time>2026-04-04T10:26:50.835Z</time></trkpt><trkpt lat="42.0320541" lon="12.7687154"><ele>224.39999999999998</ele><time>2026-04-04T10:26:52.835Z</time></trkpt><trkpt lat="42.0320794" lon="12.7686179"><ele>224.6</ele><time>2026-04-04T10:26:53.835Z</time></trkpt><trkpt lat="42.0320934" lon="12.7685141"><ele>224.8</ele><time>2026-04-04T10:26:54.835Z</time></trkpt><trkpt lat="42.0321133" lon="12.7683967"><ele>225.0</ele><time>2026-04-04T10:26:55.835Z</time></trkpt><trkpt lat="42.0321227" lon="12.7682881"><ele>225.0</ele><time>2026-04-04T10:26:56.835Z</time></trkpt><trkpt lat="42.0321359" lon="12.7681846"><ele>225.0</ele><time>2026-04-04T10:26:57.835Z</time></trkpt><trkpt lat="42.0321477" lon="12.7680945"><ele>225.0</ele><time>2026-04-04T10:26:58.835Z</time></trkpt><trkpt lat="42.0321578" lon="12.7679873"><ele>225.0</ele><time>2026-04-04T10:26:59.835Z</time></trkpt><trkpt lat="42.0321687" lon="12.7678912"><ele>225.0</ele><time>2026-04-04T10:27:00.835Z</time></trkpt><trkpt lat="42.0321839" lon="12.7678078"><ele>225.0</ele><time>2026-04-04T10:27:01.835Z</time></trkpt><trkpt lat="42.0322164" lon="12.7676968"><ele>225.0</ele><time>2026-04-04T10:27:03.835Z</time></trkpt><trkpt lat="42.032297" lon="12.767701"><ele>225.0</ele><time>2026-04-04T10:27:06.835Z</time></trkpt><trkpt lat="42.03243" lon="12.7677825"><ele>225.0</ele><time>2026-04-04T10:27:08.835Z</time></trkpt><trkpt lat="42.0325004" lon="12.7678135"><ele>225.0</ele><time>2026-04-04T10:27:09.834Z</time></trkpt><trkpt lat="42.0325657" lon="12.7678393"><ele>225.0</ele><time>2026-04-04T10:27:10.834Z</time></trkpt><trkpt lat="42.0326884" lon="12.7678716"><ele>226.6</ele><time>2026-04-04T10:27:12.835Z</time></trkpt><trkpt lat="42.032754" lon="12.7678715"><ele>228.2</ele><time>2026-04-04T10:27:13.835Z</time></trkpt><trkpt lat="42.0328823" lon="12.7678279"><ele>229.8</ele><time>2026-04-04T10:27:15.835Z</time></trkpt><trkpt lat="42.0330043" lon="12.7677748"><ele>231.4</ele><time>2026-04-04T10:27:17.835Z</time></trkpt><trkpt lat="42.0330656" lon="12.7677441"><ele>233.0</ele><time>2026-04-04T10:27:18.835Z</time></trkpt><trkpt lat="42.0331181" lon="12.7676955"><ele>232.33333333333334</ele><time>2026-04-04T10:27:19.835Z</time></trkpt><trkpt lat="42.0331729" lon="12.7676332"><ele>231.66666666666669</ele><time>2026-04-04T10:27:20.835Z</time></trkpt><trkpt lat="42.0332246" lon="12.7675514"><ele>231.0</ele><time>2026-04-04T10:27:21.835Z</time></trkpt><trkpt lat="42.0332809" lon="12.7674752"><ele>230.33333333333331</ele><time>2026-04-04T10:27:22.835Z</time></trkpt><trkpt lat="42.0333353" lon="12.7673981"><ele>229.66666666666666</ele><time>2026-04-04T10:27:23.835Z</time></trkpt><trkpt lat="42.0333877" lon="12.767326"><ele>229.0</ele><time>2026-04-04T10:27:24.835Z</time></trkpt><trkpt lat="42.0334503" lon="12.7672463"><ele>228.83333333333331</ele><time>2026-04-04T10:27:25.835Z</time></trkpt><trkpt lat="42.0335088" lon="12.7671643"><ele>228.66666666666666</ele><time>2026-04-04T10:27:26.835Z</time></trkpt><trkpt lat="42.0335656" lon="12.7670857"><ele>228.5</ele><time>2026-04-04T10:27:27.835Z</time></trkpt><trkpt lat="42.0336232" lon="12.7670177"><ele>228.33333333333331</ele><time>2026-04-04T10:27:28.835Z</time></trkpt><trkpt lat="42.0336785" lon="12.7669662"><ele>228.16666666666666</ele><time>2026-04-04T10:27:29.835Z</time></trkpt><trkpt lat="42.033731" lon="12.7669191"><ele>228.0</ele><time>2026-04-04T10:27:30.835Z</time></trkpt><trkpt lat="42.033862" lon="12.7668772"><ele>228.0</ele><time>2026-04-04T10:27:32.835Z</time></trkpt><trkpt lat="42.0339255" lon="12.766869"><ele>228.0</ele><time>2026-04-04T10:27:33.835Z</time></trkpt><trkpt lat="42.0339977" lon="12.7668746"><ele>228.0</ele><time>2026-04-04T10:27:34.835Z</time></trkpt><trkpt lat="42.0341187" lon="12.7668886"><ele>228.0</ele><time>2026-04-04T10:27:36.835Z</time></trkpt><trkpt lat="42.0341913" lon="12.7668692"><ele>228.0</ele><time>2026-04-04T10:27:37.835Z</time></trkpt><trkpt lat="42.0343073" lon="12.7668203"><ele>225.60000000000002</ele><time>2026-04-04T10:27:39.835Z</time></trkpt><trkpt lat="42.0343684" lon="12.7667879"><ele>223.20000000000002</ele><time>2026-04-04T10:27:40.835Z</time></trkpt><trkpt lat="42.0344304" lon="12.7667518"><ele>220.8</ele><time>2026-04-04T10:27:41.835Z</time></trkpt><trkpt lat="42.0345301" lon="12.7666973"><ele>218.4</ele><time>2026-04-04T10:27:43.835Z</time></trkpt><trkpt lat="42.0346478" lon="12.7666619"><ele>216.0</ele><time>2026-04-04T10:27:45.835Z</time></trkpt><trkpt lat="42.0347787" lon="12.7666627"><ele>216.0</ele><time>2026-04-04T10:27:47.835Z</time></trkpt><trkpt lat="42.0348527" lon="12.7666699"><ele>216.0</ele><time>2026-04-04T10:27:48.835Z</time></trkpt><trkpt lat="42.0349196" lon="12.7666884"><ele>216.0</ele><time>2026-04-04T10:27:49.835Z</time></trkpt><trkpt lat="42.0349838" lon="12.7667034"><ele>216.0</ele><time>2026-04-04T10:27:50.835Z</time></trkpt><trkpt lat="42.0350785" lon="12.7667306"><ele>216.0</ele><time>2026-04-04T10:27:52.835Z</time></trkpt><trkpt lat="42.0351753" lon="12.7667727"><ele>216.0</ele><time>2026-04-04T10:27:54.835Z</time></trkpt><trkpt lat="42.0352824" lon="12.7667778"><ele>215.83333333333334</ele><time>2026-04-04T10:27:56.835Z</time></trkpt><trkpt lat="42.03538" lon="12.7667481"><ele>215.66666666666669</ele><time>2026-04-04T10:27:58.835Z</time></trkpt><trkpt lat="42.03547" lon="12.7667281"><ele>215.5</ele><time>2026-04-04T10:28:00.835Z</time></trkpt><trkpt lat="42.035549" lon="12.7667024"><ele>215.33333333333334</ele><time>2026-04-04T10:28:01.835Z</time></trkpt><trkpt lat="42.0356258" lon="12.766684"><ele>215.16666666666669</ele><time>2026-04-04T10:28:02.834Z</time></trkpt><trkpt lat="42.0357152" lon="12.7666683"><ele>215.0</ele><time>2026-04-04T10:28:03.835Z</time></trkpt><trkpt lat="42.0358093" lon="12.7666508"><ele>216.00000000000003</ele><time>2026-04-04T10:28:04.835Z</time></trkpt><trkpt lat="42.035899" lon="12.7666381"><ele>217.0</ele><time>2026-04-04T10:28:05.835Z</time></trkpt><trkpt lat="42.0359908" lon="12.7666226"><ele>218.0</ele><time>2026-04-04T10:28:06.835Z</time></trkpt><trkpt lat="42.0360748" lon="12.7666126"><ele>219.0</ele><time>2026-04-04T10:28:07.835Z</time></trkpt><trkpt lat="42.0361607" lon="12.7666001"><ele>220.00000000000003</ele><time>2026-04-04T10:28:08.835Z</time></trkpt><trkpt lat="42.0362467" lon="12.7665968"><ele>221.0</ele><time>2026-04-04T10:28:09.835Z</time></trkpt><trkpt lat="42.0363394" lon="12.7665808"><ele>221.00000000000003</ele><time>2026-04-04T10:28:10.835Z</time></trkpt><trkpt lat="42.0364334" lon="12.7665688"><ele>221.0</ele><time>2026-04-04T10:28:11.835Z</time></trkpt><trkpt lat="42.0365054" lon="12.7665612"><ele>221.0</ele><time>2026-04-04T10:28:12.834Z</time></trkpt><trkpt lat="42.0365809" lon="12.7665523"><ele>221.0</ele><time>2026-04-04T10:28:13.835Z</time></trkpt><trkpt lat="42.0366546" lon="12.7665628"><ele>221.00000000000003</ele><time>2026-04-04T10:28:14.835Z</time></trkpt><trkpt lat="42.0367367" lon="12.7665863"><ele>221.0</ele><time>2026-04-04T10:28:15.835Z</time></trkpt><trkpt lat="42.0368192" lon="12.7665954"><ele>222.50000000000003</ele><time>2026-04-04T10:28:16.835Z</time></trkpt><trkpt lat="42.0369099" lon="12.7665913"><ele>224.0</ele><time>2026-04-04T10:28:17.835Z</time></trkpt><trkpt lat="42.0369962" lon="12.7665881"><ele>225.5</ele><time>2026-04-04T10:28:18.835Z</time></trkpt><trkpt lat="42.0370768" lon="12.7665634"><ele>227.0</ele><time>2026-04-04T10:28:19.835Z</time></trkpt><trkpt lat="42.0371589" lon="12.7665447"><ele>228.50000000000003</ele><time>2026-04-04T10:28:20.835Z</time></trkpt><trkpt lat="42.0372349" lon="12.766526"><ele>230.0</ele><time>2026-04-04T10:28:21.835Z</time></trkpt><trkpt lat="42.0373148" lon="12.7665086"><ele>230.00000000000003</ele><time>2026-04-04T10:28:22.835Z</time></trkpt><trkpt lat="42.0373937" lon="12.7664905"><ele>230.0</ele><time>2026-04-04T10:28:23.835Z</time></trkpt><trkpt lat="42.037467" lon="12.7664674"><ele>230.0</ele><time>2026-04-04T10:28:24.835Z</time></trkpt><trkpt lat="42.037544" lon="12.7664476"><ele>230.0</ele><time>2026-04-04T10:28:25.835Z</time></trkpt><trkpt lat="42.0376333" lon="12.766414"><ele>230.00000000000003</ele><time>2026-04-04T10:28:26.835Z</time></trkpt><trkpt lat="42.0377149" lon="12.7663897"><ele>230.0</ele><time>2026-04-04T10:28:27.835Z</time></trkpt><trkpt lat="42.0377986" lon="12.7663657"><ele>229.8</ele><time>2026-04-04T10:28:28.835Z</time></trkpt><trkpt lat="42.0378859" lon="12.7663527"><ele>229.6</ele><time>2026-04-04T10:28:29.835Z</time></trkpt><trkpt lat="42.0379821" lon="12.7663497"><ele>229.39999999999998</ele><time>2026-04-04T10:28:30.835Z</time></trkpt><trkpt lat="42.038075" lon="12.7663441"><ele>229.2</ele><time>2026-04-04T10:28:31.835Z</time></trkpt><trkpt lat="42.0381769" lon="12.7663467"><ele>229.0</ele><time>2026-04-04T10:28:32.835Z</time></trkpt><trkpt lat="42.0382781" lon="12.7663517"><ele>228.83333333333331</ele><time>2026-04-04T10:28:33.835Z</time></trkpt><trkpt lat="42.0383828" lon="12.7663545"><ele>228.66666666666666</ele><time>2026-04-04T10:28:34.835Z</time></trkpt><trkpt lat="42.0384811" lon="12.7663511"><ele>228.5</ele><time>2026-04-04T10:28:35.835Z</time></trkpt><trkpt lat="42.0385757" lon="12.7663429"><ele>228.33333333333331</ele><time>2026-04-04T10:28:36.835Z</time></trkpt><trkpt lat="42.0386555" lon="12.7663405"><ele>228.16666666666666</ele><time>2026-04-04T10:28:37.835Z</time></trkpt><trkpt lat="42.0387195" lon="12.7663465"><ele>228.0</ele><time>2026-04-04T10:28:38.835Z</time></trkpt><trkpt lat="42.0388453" lon="12.766359"><ele>228.0</ele><time>2026-04-04T10:28:40.835Z</time></trkpt><trkpt lat="42.0389179" lon="12.7663609"><ele>227.99999999999997</ele><time>2026-04-04T10:28:41.835Z</time></trkpt><trkpt lat="42.0389883" lon="12.7663691"><ele>228.0</ele><time>2026-04-04T10:28:42.834Z</time></trkpt><trkpt lat="42.0390546" lon="12.7663863"><ele>228.0</ele><time>2026-04-04T10:28:43.835Z</time></trkpt><trkpt lat="42.0391245" lon="12.7664003"><ele>227.99999999999997</ele><time>2026-04-04T10:28:44.835Z</time></trkpt><trkpt lat="42.0391966" lon="12.7664217"><ele>228.0</ele><time>2026-04-04T10:28:45.835Z</time></trkpt><trkpt lat="42.039282" lon="12.766426"><ele>228.0</ele><time>2026-04-04T10:28:46.835Z</time></trkpt><trkpt lat="42.0393526" lon="12.7664454"><ele>228.83333333333334</ele><time>2026-04-04T10:28:47.835Z</time></trkpt><trkpt lat="42.0394226" lon="12.7664594"><ele>229.66666666666669</ele><time>2026-04-04T10:28:48.835Z</time></trkpt><trkpt lat="42.0394973" lon="12.7664602"><ele>230.5</ele><time>2026-04-04T10:28:49.835Z</time></trkpt><trkpt lat="42.0395688" lon="12.7664525"><ele>231.33333333333334</ele><time>2026-04-04T10:28:50.835Z</time></trkpt><trkpt lat="42.0396535" lon="12.766444"><ele>232.16666666666669</ele><time>2026-04-04T10:28:51.835Z</time></trkpt><trkpt lat="42.0397361" lon="12.7664557"><ele>233.0</ele><time>2026-04-04T10:28:52.835Z</time></trkpt><trkpt lat="42.0398175" lon="12.7664694"><ele>233.0</ele><time>2026-04-04T10:28:53.835Z</time></trkpt><trkpt lat="42.0398977" lon="12.7664797"><ele>233.0</ele><time>2026-04-04T10:28:54.835Z</time></trkpt><trkpt lat="42.0399859" lon="12.7664859"><ele>233.0</ele><time>2026-04-04T10:28:55.835Z</time></trkpt><trkpt lat="42.0400778" lon="12.7664917"><ele>233.0</ele><time>2026-04-04T10:28:56.835Z</time></trkpt><trkpt lat="42.0401824" lon="12.7664902"><ele>233.0</ele><time>2026-04-04T10:28:57.835Z</time></trkpt><trkpt lat="42.0402935" lon="12.7664972"><ele>233.66666666666669</ele><time>2026-04-04T10:28:58.835Z</time></trkpt><trkpt lat="42.0403872" lon="12.7664993"><ele>234.33333333333334</ele><time>2026-04-04T10:28:59.835Z</time></trkpt><trkpt lat="42.0404851" lon="12.7665012"><ele>235.0</ele><time>2026-04-04T10:29:00.835Z</time></trkpt><trkpt lat="42.0405759" lon="12.766505"><ele>235.66666666666669</ele><time>2026-04-04T10:29:01.835Z</time></trkpt><trkpt lat="42.0406644" lon="12.7665225"><ele>236.33333333333334</ele><time>2026-04-04T10:29:02.835Z</time></trkpt><trkpt lat="42.0407414" lon="12.7665352"><ele>237.0</ele><time>2026-04-04T10:29:03.835Z</time></trkpt><trkpt lat="42.0408123" lon="12.7665492"><ele>237.83333333333334</ele><time>2026-04-04T10:29:04.835Z</time></trkpt><trkpt lat="42.0408785" lon="12.7665621"><ele>238.66666666666669</ele><time>2026-04-04T10:29:05.835Z</time></trkpt><trkpt lat="42.040949" lon="12.7665613"><ele>239.5</ele><time>2026-04-04T10:29:06.835Z</time></trkpt><trkpt lat="42.0410554" lon="12.7665263"><ele>240.33333333333334</ele><time>2026-04-04T10:29:08.835Z</time></trkpt><trkpt lat="42.0411408" lon="12.766523"><ele>241.16666666666669</ele><time>2026-04-04T10:29:10.835Z</time></trkpt><trkpt lat="42.041238" lon="12.7665563"><ele>242.0</ele><time>2026-04-04T10:29:12.835Z</time></trkpt><trkpt lat="42.0413426" lon="12.7666073"><ele>242.0</ele><time>2026-04-04T10:29:14.835Z</time></trkpt><trkpt lat="42.0414816" lon="12.7666027"><ele>242.0</ele><time>2026-04-04T10:29:16.834Z</time></trkpt><trkpt lat="42.0416201" lon="12.766622"><ele>242.0</ele><time>2026-04-04T10:29:18.835Z</time></trkpt><trkpt lat="42.0417303" lon="12.7666413"><ele>242.0</ele><time>2026-04-04T10:29:19.835Z</time></trkpt><trkpt lat="42.0418247" lon="12.7666558"><ele>241.83333333333334</ele><time>2026-04-04T10:29:20.835Z</time></trkpt><trkpt lat="42.0419134" lon="12.7666644"><ele>241.66666666666669</ele><time>2026-04-04T10:29:21.835Z</time></trkpt><trkpt lat="42.0419999" lon="12.7666674"><ele>241.5</ele><time>2026-04-04T10:29:22.835Z</time></trkpt><trkpt lat="42.0420809" lon="12.7666666"><ele>241.33333333333331</ele><time>2026-04-04T10:29:23.835Z</time></trkpt><trkpt lat="42.0421582" lon="12.7666649"><ele>241.16666666666666</ele><time>2026-04-04T10:29:24.835Z</time></trkpt><trkpt lat="42.0422353" lon="12.7666756"><ele>241.0</ele><time>2026-04-04T10:29:25.835Z</time></trkpt><trkpt lat="42.0423168" lon="12.7666922"><ele>240.99999999999997</ele><time>2026-04-04T10:29:26.835Z</time></trkpt><trkpt lat="42.0423975" lon="12.7667104"><ele>241.0</ele><time>2026-04-04T10:29:27.835Z</time></trkpt><trkpt lat="42.0424926" lon="12.7667333"><ele>241.0</ele><time>2026-04-04T10:29:28.835Z</time></trkpt><trkpt lat="42.0425902" lon="12.7667611"><ele>241.0</ele><time>2026-04-04T10:29:29.835Z</time></trkpt><trkpt lat="42.0426606" lon="12.7667867"><ele>240.99999999999997</ele><time>2026-04-04T10:29:30.835Z</time></trkpt><trkpt lat="42.042727" lon="12.7668184"><ele>241.0</ele><time>2026-04-04T10:29:31.835Z</time></trkpt><trkpt lat="42.0428128" lon="12.7669473"><ele>242.33333333333331</ele><time>2026-04-04T10:29:33.835Z</time></trkpt><trkpt lat="42.0428665" lon="12.767017"><ele>243.66666666666666</ele><time>2026-04-04T10:29:34.835Z</time></trkpt><trkpt lat="42.0429258" lon="12.7670547"><ele>245.0</ele><time>2026-04-04T10:29:35.835Z</time></trkpt><trkpt lat="42.0430039" lon="12.7670722"><ele>246.33333333333331</ele><time>2026-04-04T10:29:36.834Z</time></trkpt><trkpt lat="42.0431081" lon="12.7670707"><ele>247.66666666666666</ele><time>2026-04-04T10:29:37.835Z</time></trkpt><trkpt lat="42.0432125" lon="12.7670523"><ele>249.0</ele><time>2026-04-04T10:29:38.835Z</time></trkpt><trkpt lat="42.0433052" lon="12.7670254"><ele>251.16666666666666</ele><time>2026-04-04T10:29:39.835Z</time></trkpt><trkpt lat="42.0433831" lon="12.7670137"><ele>253.33333333333331</ele><time>2026-04-04T10:29:40.835Z</time></trkpt><trkpt lat="42.0434508" lon="12.7670002"><ele>255.5</ele><time>2026-04-04T10:29:41.835Z</time></trkpt><trkpt lat="42.0435143" lon="12.7669731"><ele>257.66666666666663</ele><time>2026-04-04T10:29:42.835Z</time></trkpt><trkpt lat="42.0435832" lon="12.7669601"><ele>259.8333333333333</ele><time>2026-04-04T10:29:43.835Z</time></trkpt><trkpt lat="42.0436877" lon="12.7669646"><ele>262.0</ele><time>2026-04-04T10:29:44.834Z</time></trkpt><trkpt lat="42.0437858" lon="12.7669639"><ele>262.0</ele><time>2026-04-04T10:29:45.835Z</time></trkpt><trkpt lat="42.0438665" lon="12.7669681"><ele>262.0</ele><time>2026-04-04T10:29:46.835Z</time></trkpt><trkpt lat="42.0439547" lon="12.7669699"><ele>262.0</ele><time>2026-04-04T10:29:47.835Z</time></trkpt><trkpt lat="42.0440332" lon="12.7669909"><ele>262.0</ele><time>2026-04-04T10:29:48.835Z</time></trkpt><trkpt lat="42.0441043" lon="12.7670042"><ele>262.0</ele><time>2026-04-04T10:29:49.835Z</time></trkpt><trkpt lat="42.0441773" lon="12.767001"><ele>262.0</ele><time>2026-04-04T10:29:50.835Z</time></trkpt><trkpt lat="42.0442351" lon="12.7669638"><ele>262.0</ele><time>2026-04-04T10:29:51.835Z</time></trkpt><trkpt lat="42.0443001" lon="12.7668965"><ele>262.0</ele><time>2026-04-04T10:29:52.835Z</time></trkpt><trkpt lat="42.0443709" lon="12.7668154"><ele>262.0</ele><time>2026-04-04T10:29:53.834Z</time></trkpt><trkpt lat="42.0444441" lon="12.7667638"><ele>262.0</ele><time>2026-04-04T10:29:54.835Z</time></trkpt><trkpt lat="42.0445262" lon="12.7667079"><ele>262.0</ele><time>2026-04-04T10:29:55.835Z</time></trkpt><trkpt lat="42.0446268" lon="12.7666636"><ele>262.0</ele><time>2026-04-04T10:29:56.835Z</time></trkpt><trkpt lat="42.0447255" lon="12.7666167"><ele>262.0</ele><time>2026-04-04T10:29:57.835Z</time></trkpt><trkpt lat="42.0448271" lon="12.7665574"><ele>262.0</ele><time>2026-04-04T10:29:58.834Z</time></trkpt><trkpt lat="42.0449242" lon="12.7664944"><ele>262.0</ele><time>2026-04-04T10:29:59.835Z</time></trkpt><trkpt lat="42.0450264" lon="12.7664334"><ele>262.0</ele><time>2026-04-04T10:30:00.835Z</time></trkpt><trkpt lat="42.0451278" lon="12.7663709"><ele>263.3333333333333</ele><time>2026-04-04T10:30:01.835Z</time></trkpt><trkpt lat="42.045214" lon="12.7663171"><ele>264.66666666666663</ele><time>2026-04-04T10:30:02.835Z</time></trkpt><trkpt lat="42.0452913" lon="12.7662697"><ele>266.0</ele><time>2026-04-04T10:30:03.835Z</time></trkpt><trkpt lat="42.0453636" lon="12.766219"><ele>267.3333333333333</ele><time>2026-04-04T10:30:04.835Z</time></trkpt><trkpt lat="42.0454279" lon="12.7661937"><ele>268.6666666666667</ele><time>2026-04-04T10:30:05.835Z</time></trkpt><trkpt lat="42.0454861" lon="12.7661353"><ele>270.0</ele><time>2026-04-04T10:30:06.834Z</time></trkpt><trkpt lat="42.0455301" lon="12.7660416"><ele>269.6666666666667</ele><time>2026-04-04T10:30:07.835Z</time></trkpt><trkpt lat="42.0455672" lon="12.7659637"><ele>269.3333333333333</ele><time>2026-04-04T10:30:08.835Z</time></trkpt><trkpt lat="42.0456428" lon="12.7658728"><ele>269.0</ele><time>2026-04-04T10:30:10.835Z</time></trkpt><trkpt lat="42.045713" lon="12.7658386"><ele>268.66666666666663</ele><time>2026-04-04T10:30:11.835Z</time></trkpt><trkpt lat="42.0457851" lon="12.7658283"><ele>268.3333333333333</ele><time>2026-04-04T10:30:12.835Z</time></trkpt><trkpt lat="42.045892" lon="12.7658229"><ele>268.0</ele><time>2026-04-04T10:30:14.835Z</time></trkpt><trkpt lat="42.0460058" lon="12.765814"><ele>268.0</ele><time>2026-04-04T10:30:17.835Z</time></trkpt><trkpt lat="42.0460937" lon="12.7658207"><ele>268.0</ele><time>2026-04-04T10:30:18.835Z</time></trkpt><trkpt lat="42.0462067" lon="12.765829"><ele>268.0</ele><time>2026-04-04T10:30:19.835Z</time></trkpt><trkpt lat="42.04634" lon="12.7658323"><ele>268.0</ele><time>2026-04-04T10:30:20.835Z</time></trkpt><trkpt lat="42.0464794" lon="12.7658325"><ele>268.0</ele><time>2026-04-04T10:30:21.835Z</time></trkpt><trkpt lat="42.0466238" lon="12.7658157"><ele>268.0</ele><time>2026-04-04T10:30:22.835Z</time></trkpt><trkpt lat="42.0467469" lon="12.7658078"><ele>268.0</ele><time>2026-04-04T10:30:23.835Z</time></trkpt><trkpt lat="42.0468612" lon="12.7658106"><ele>268.0</ele><time>2026-04-04T10:30:24.835Z</time></trkpt><trkpt lat="42.0469741" lon="12.7658494"><ele>266.75</ele><time>2026-04-04T10:30:25.835Z</time></trkpt><trkpt lat="42.0470835" lon="12.7659361"><ele>265.5</ele><time>2026-04-04T10:30:26.835Z</time></trkpt><trkpt lat="42.0471986" lon="12.7660624"><ele>264.25</ele><time>2026-04-04T10:30:27.835Z</time></trkpt><trkpt lat="42.047322" lon="12.7662023"><ele>263.0</ele><time>2026-04-04T10:30:28.835Z</time></trkpt><trkpt lat="42.0474352" lon="12.7663289"><ele>262.0</ele><time>2026-04-04T10:30:29.835Z</time></trkpt><trkpt lat="42.0475368" lon="12.76645"><ele>261.0</ele><time>2026-04-04T10:30:30.835Z</time></trkpt><trkpt lat="42.0476231" lon="12.7665576"><ele>260.0</ele><time>2026-04-04T10:30:31.835Z</time></trkpt><trkpt lat="42.047695" lon="12.7666351"><ele>259.0</ele><time>2026-04-04T10:30:32.835Z</time></trkpt><trkpt lat="42.0477623" lon="12.7667019"><ele>258.0</ele><time>2026-04-04T10:30:33.835Z</time></trkpt><trkpt lat="42.0478333" lon="12.7667599"><ele>258.0</ele><time>2026-04-04T10:30:34.835Z</time></trkpt><trkpt lat="42.0479039" lon="12.7668148"><ele>258.0</ele><time>2026-04-04T10:30:35.835Z</time></trkpt><trkpt lat="42.0479729" lon="12.7668701"><ele>258.0</ele><time>2026-04-04T10:30:36.835Z</time></trkpt><trkpt lat="42.0480417" lon="12.7669225"><ele>258.0</ele><time>2026-04-04T10:30:37.835Z</time></trkpt><trkpt lat="42.0481104" lon="12.7669783"><ele>258.0</ele><time>2026-04-04T10:30:38.835Z</time></trkpt><trkpt lat="42.0481788" lon="12.7670288"><ele>258.0</ele><time>2026-04-04T10:30:39.835Z</time></trkpt><trkpt lat="42.0482464" lon="12.7670806"><ele>257.0</ele><time>2026-04-04T10:30:40.835Z</time></trkpt><trkpt lat="42.0483313" lon="12.7671488"><ele>256.0</ele><time>2026-04-04T10:30:41.834Z</time></trkpt><trkpt lat="42.0484295" lon="12.7672278"><ele>255.0</ele><time>2026-04-04T10:30:42.835Z</time></trkpt><trkpt lat="42.0485393" lon="12.767318"><ele>254.0</ele><time>2026-04-04T10:30:43.834Z</time></trkpt><trkpt lat="42.0486478" lon="12.7674042"><ele>254.0</ele><time>2026-04-04T10:30:44.835Z</time></trkpt><trkpt lat="42.0487518" lon="12.7674925"><ele>253.99999999999997</ele><time>2026-04-04T10:30:45.835Z</time></trkpt><trkpt lat="42.0488464" lon="12.7675761"><ele>253.99999999999997</ele><time>2026-04-04T10:30:46.834Z</time></trkpt><trkpt lat="42.0489244" lon="12.7676494"><ele>254.0</ele><time>2026-04-04T10:30:47.835Z</time></trkpt><trkpt lat="42.048978" lon="12.7677025"><ele>254.0</ele><time>2026-04-04T10:30:48.835Z</time></trkpt><trkpt lat="42.0490662" lon="12.7677835"><ele>256.8</ele><time>2026-04-04T10:30:50.835Z</time></trkpt><trkpt lat="42.0491588" lon="12.7678822"><ele>259.59999999999997</ele><time>2026-04-04T10:30:52.835Z</time></trkpt><trkpt lat="42.049223" lon="12.7679471"><ele>262.4</ele><time>2026-04-04T10:30:53.835Z</time></trkpt><trkpt lat="42.0493044" lon="12.768026"><ele>265.2</ele><time>2026-04-04T10:30:54.835Z</time></trkpt><trkpt lat="42.0493778" lon="12.7680964"><ele>268.0</ele><time>2026-04-04T10:30:55.835Z</time></trkpt><trkpt lat="42.0494342" lon="12.7681433"><ele>268.0</ele><time>2026-04-04T10:30:56.835Z</time></trkpt><trkpt lat="42.0495182" lon="12.7682344"><ele>268.0</ele><time>2026-04-04T10:30:58.835Z</time></trkpt><trkpt lat="42.0496001" lon="12.7683103"><ele>268.0</ele><time>2026-04-04T10:31:00.835Z</time></trkpt><trkpt lat="42.0497089" lon="12.7683972"><ele>268.0</ele><time>2026-04-04T10:31:02.835Z</time></trkpt><trkpt lat="42.0497689" lon="12.7684406"><ele>268.0</ele><time>2026-04-04T10:31:03.835Z</time></trkpt><trkpt lat="42.0498309" lon="12.7684864"><ele>268.0</ele><time>2026-04-04T10:31:04.835Z</time></trkpt><trkpt lat="42.0499137" lon="12.7685228"><ele>268.0</ele><time>2026-04-04T10:31:05.834Z</time></trkpt><trkpt lat="42.0500008" lon="12.7685652"><ele>268.0</ele><time>2026-04-04T10:31:06.835Z</time></trkpt><trkpt lat="42.050112" lon="12.7686083"><ele>268.0</ele><time>2026-04-04T10:31:07.835Z</time></trkpt><trkpt lat="42.0502229" lon="12.7686369"><ele>268.0</ele><time>2026-04-04T10:31:08.835Z</time></trkpt><trkpt lat="42.0503408" lon="12.768671"><ele>269.0</ele><time>2026-04-04T10:31:09.835Z</time></trkpt><trkpt lat="42.0504671" lon="12.7687355"><ele>270.0</ele><time>2026-04-04T10:31:10.835Z</time></trkpt><trkpt lat="42.0506067" lon="12.7688477"><ele>271.0</ele><time>2026-04-04T10:31:11.835Z</time></trkpt><trkpt lat="42.0507223" lon="12.7689639"><ele>272.0</ele><time>2026-04-04T10:31:12.835Z</time></trkpt><trkpt lat="42.0508185" lon="12.769071"><ele>272.0</ele><time>2026-04-04T10:31:13.835Z</time></trkpt><trkpt lat="42.0509115" lon="12.7691871"><ele>272.0</ele><time>2026-04-04T10:31:14.835Z</time></trkpt><trkpt lat="42.0509733" lon="12.7692771"><ele>272.0</ele><time>2026-04-04T10:31:15.835Z</time></trkpt><trkpt lat="42.0510676" lon="12.769355"><ele>272.0</ele><time>2026-04-04T10:31:16.835Z</time></trkpt><trkpt lat="42.051181" lon="12.7694117"><ele>272.0</ele><time>2026-04-04T10:31:17.835Z</time></trkpt><trkpt lat="42.0512917" lon="12.7694631"><ele>270.5</ele><time>2026-04-04T10:31:18.835Z</time></trkpt><trkpt lat="42.0514147" lon="12.7695039"><ele>269.0</ele><time>2026-04-04T10:31:19.835Z</time></trkpt><trkpt lat="42.0515378" lon="12.7695421"><ele>267.5</ele><time>2026-04-04T10:31:20.835Z</time></trkpt><trkpt lat="42.0516571" lon="12.7695754"><ele>266.0</ele><time>2026-04-04T10:31:21.835Z</time></trkpt><trkpt lat="42.0517875" lon="12.7696016"><ele>266.0</ele><time>2026-04-04T10:31:22.834Z</time></trkpt><trkpt lat="42.0519139" lon="12.7696324"><ele>266.0</ele><time>2026-04-04T10:31:23.835Z</time></trkpt><trkpt lat="42.0520425" lon="12.7696571"><ele>266.0</ele><time>2026-04-04T10:31:24.835Z</time></trkpt><trkpt lat="42.0521699" lon="12.7696917"><ele>266.0</ele><time>2026-04-04T10:31:25.835Z</time></trkpt><trkpt lat="42.0523046" lon="12.7697234"><ele>266.0</ele><time>2026-04-04T10:31:26.835Z</time></trkpt><trkpt lat="42.0524288" lon="12.769751"><ele>266.0</ele><time>2026-04-04T10:31:27.835Z</time></trkpt><trkpt lat="42.0525514" lon="12.7697751"><ele>266.0</ele><time>2026-04-04T10:31:28.835Z</time></trkpt><trkpt lat="42.0526701" lon="12.7697983"><ele>266.0</ele><time>2026-04-04T10:31:29.835Z</time></trkpt><trkpt lat="42.0527878" lon="12.7698227"><ele>266.0</ele><time>2026-04-04T10:31:30.834Z</time></trkpt><trkpt lat="42.0529038" lon="12.769842"><ele>266.0</ele><time>2026-04-04T10:31:31.835Z</time></trkpt><trkpt lat="42.0530177" lon="12.7698599"><ele>266.0</ele><time>2026-04-04T10:31:32.835Z</time></trkpt><trkpt lat="42.0531207" lon="12.7698779"><ele>266.0</ele><time>2026-04-04T10:31:33.835Z</time></trkpt><trkpt lat="42.0532291" lon="12.7699022"><ele>266.0</ele><time>2026-04-04T10:31:34.835Z</time></trkpt><trkpt lat="42.053337" lon="12.7699426"><ele>262.75</ele><time>2026-04-04T10:31:35.834Z</time></trkpt><trkpt lat="42.0534475" lon="12.7699969"><ele>259.5</ele><time>2026-04-04T10:31:36.835Z</time></trkpt><trkpt lat="42.0535641" lon="12.7700558"><ele>256.25</ele><time>2026-04-04T10:31:37.835Z</time></trkpt><trkpt lat="42.0536809" lon="12.7701133"><ele>253.0</ele><time>2026-04-04T10:31:38.835Z</time></trkpt><trkpt lat="42.0537968" lon="12.770174"><ele>253.5</ele><time>2026-04-04T10:31:39.835Z</time></trkpt><trkpt lat="42.0539163" lon="12.7702287"><ele>254.0</ele><time>2026-04-04T10:31:40.835Z</time></trkpt><trkpt lat="42.0540323" lon="12.7702879"><ele>254.5</ele><time>2026-04-04T10:31:41.835Z</time></trkpt><trkpt lat="42.0541504" lon="12.770342"><ele>255.0</ele><time>2026-04-04T10:31:42.835Z</time></trkpt><trkpt lat="42.0542652" lon="12.7703925"><ele>251.25</ele><time>2026-04-04T10:31:43.835Z</time></trkpt><trkpt lat="42.0543852" lon="12.7704324"><ele>247.5</ele><time>2026-04-04T10:31:44.835Z</time></trkpt><trkpt lat="42.0545156" lon="12.7704533"><ele>243.75</ele><time>2026-04-04T10:31:45.835Z</time></trkpt><trkpt lat="42.0546484" lon="12.7704505"><ele>240.0</ele><time>2026-04-04T10:31:46.835Z</time></trkpt><trkpt lat="42.0547799" lon="12.7704188"><ele>240.0</ele><time>2026-04-04T10:31:47.835Z</time></trkpt><trkpt lat="42.054907" lon="12.7703667"><ele>240.0</ele><time>2026-04-04T10:31:48.835Z</time></trkpt><trkpt lat="42.05503" lon="12.7703"><ele>240.0</ele><time>2026-04-04T10:31:49.835Z</time></trkpt><trkpt lat="42.0551501" lon="12.7702262"><ele>240.0</ele><time>2026-04-04T10:31:50.835Z</time></trkpt><trkpt lat="42.055267" lon="12.7701561"><ele>238.5</ele><time>2026-04-04T10:31:51.835Z</time></trkpt><trkpt lat="42.0553811" lon="12.7700836"><ele>237.0</ele><time>2026-04-04T10:31:52.835Z</time></trkpt><trkpt lat="42.0554903" lon="12.7700086"><ele>235.5</ele><time>2026-04-04T10:31:53.835Z</time></trkpt><trkpt lat="42.0555955" lon="12.769936"><ele>234.0</ele><time>2026-04-04T10:31:54.835Z</time></trkpt><trkpt lat="42.0557007" lon="12.7698689"><ele>237.25</ele><time>2026-04-04T10:31:55.835Z</time></trkpt><trkpt lat="42.0558032" lon="12.7697966"><ele>240.5</ele><time>2026-04-04T10:31:56.834Z</time></trkpt><trkpt lat="42.0559071" lon="12.7697236"><ele>243.75</ele><time>2026-04-04T10:31:57.835Z</time></trkpt><trkpt lat="42.0560141" lon="12.7696582"><ele>247.0</ele><time>2026-04-04T10:31:58.835Z</time></trkpt><trkpt lat="42.0561232" lon="12.7695947"><ele>247.0</ele><time>2026-04-04T10:31:59.834Z</time></trkpt><trkpt lat="42.0562287" lon="12.7695309"><ele>247.0</ele><time>2026-04-04T10:32:00.835Z</time></trkpt><trkpt lat="42.0563264" lon="12.7694734"><ele>247.0</ele><time>2026-04-04T10:32:01.835Z</time></trkpt><trkpt lat="42.0564215" lon="12.7694125"><ele>247.0</ele><time>2026-04-04T10:32:02.835Z</time></trkpt><trkpt lat="42.056511" lon="12.7693545"><ele>247.0</ele><time>2026-04-04T10:32:03.835Z</time></trkpt><trkpt lat="42.0565964" lon="12.7692975"><ele>246.8</ele><time>2026-04-04T10:32:04.835Z</time></trkpt><trkpt lat="42.0566885" lon="12.7692376"><ele>246.6</ele><time>2026-04-04T10:32:05.834Z</time></trkpt><trkpt lat="42.0567851" lon="12.7691764"><ele>246.40000000000003</ele><time>2026-04-04T10:32:06.835Z</time></trkpt><trkpt lat="42.0568902" lon="12.7691081"><ele>246.20000000000002</ele><time>2026-04-04T10:32:07.835Z</time></trkpt><trkpt lat="42.0569907" lon="12.7690449"><ele>246.0</ele><time>2026-04-04T10:32:08.835Z</time></trkpt><trkpt lat="42.0570906" lon="12.7689821"><ele>246.0</ele><time>2026-04-04T10:32:09.835Z</time></trkpt><trkpt lat="42.0571829" lon="12.7689188"><ele>246.00000000000003</ele><time>2026-04-04T10:32:10.835Z</time></trkpt><trkpt lat="42.0572666" lon="12.7688608"><ele>246.00000000000003</ele><time>2026-04-04T10:32:11.835Z</time></trkpt><trkpt lat="42.0573461" lon="12.7688152"><ele>246.0</ele><time>2026-04-04T10:32:12.835Z</time></trkpt><trkpt lat="42.0574224" lon="12.768774"><ele>246.0</ele><time>2026-04-04T10:32:13.835Z</time></trkpt><trkpt lat="42.057499" lon="12.7687197"><ele>245.8</ele><time>2026-04-04T10:32:14.835Z</time></trkpt><trkpt lat="42.0575784" lon="12.7686646"><ele>245.60000000000002</ele><time>2026-04-04T10:32:15.835Z</time></trkpt><trkpt lat="42.0576633" lon="12.7686074"><ele>245.4</ele><time>2026-04-04T10:32:16.835Z</time></trkpt><trkpt lat="42.0577478" lon="12.768554"><ele>245.2</ele><time>2026-04-04T10:32:17.835Z</time></trkpt><trkpt lat="42.0578389" lon="12.768492"><ele>245.0</ele><time>2026-04-04T10:32:18.835Z</time></trkpt><trkpt lat="42.0579379" lon="12.7684208"><ele>245.0</ele><time>2026-04-04T10:32:19.835Z</time></trkpt><trkpt lat="42.0580457" lon="12.7683447"><ele>245.0</ele><time>2026-04-04T10:32:20.835Z</time></trkpt><trkpt lat="42.0581521" lon="12.7682692"><ele>245.0</ele><time>2026-04-04T10:32:21.835Z</time></trkpt><trkpt lat="42.0582562" lon="12.7681946"><ele>245.0</ele><time>2026-04-04T10:32:22.835Z</time></trkpt><trkpt lat="42.0583683" lon="12.7681149"><ele>246.0</ele><time>2026-04-04T10:32:23.835Z</time></trkpt><trkpt lat="42.0584786" lon="12.7680349"><ele>247.0</ele><time>2026-04-04T10:32:24.834Z</time></trkpt><trkpt lat="42.0585862" lon="12.7679583"><ele>248.0</ele><time>2026-04-04T10:32:25.835Z</time></trkpt><trkpt lat="42.0587002" lon="12.7678725"><ele>249.0</ele><time>2026-04-04T10:32:26.834Z</time></trkpt><trkpt lat="42.0588212" lon="12.767778"><ele>248.25</ele><time>2026-04-04T10:32:27.834Z</time></trkpt><trkpt lat="42.0589363" lon="12.7676865"><ele>247.5</ele><time>2026-04-04T10:32:28.835Z</time></trkpt><trkpt lat="42.0590489" lon="12.767593"><ele>246.75</ele><time>2026-04-04T10:32:29.835Z</time></trkpt><trkpt lat="42.0591584" lon="12.7675011"><ele>246.0</ele><time>2026-04-04T10:32:30.835Z</time></trkpt><trkpt lat="42.0592673" lon="12.7674153"><ele>246.0</ele><time>2026-04-04T10:32:31.835Z</time></trkpt><trkpt lat="42.0593794" lon="12.7673295"><ele>246.0</ele><time>2026-04-04T10:32:32.835Z</time></trkpt><trkpt lat="42.059501" lon="12.7672556"><ele>246.0</ele><time>2026-04-04T10:32:33.835Z</time></trkpt><trkpt lat="42.0596275" lon="12.7671922"><ele>246.0</ele><time>2026-04-04T10:32:34.835Z</time></trkpt><trkpt lat="42.0597595" lon="12.7671258"><ele>246.0</ele><time>2026-04-04T10:32:35.835Z</time></trkpt><trkpt lat="42.0598874" lon="12.7670651"><ele>246.0</ele><time>2026-04-04T10:32:36.835Z</time></trkpt><trkpt lat="42.0600185" lon="12.7670055"><ele>246.0</ele><time>2026-04-04T10:32:37.835Z</time></trkpt><trkpt lat="42.060144" lon="12.7669742"><ele>246.0</ele><time>2026-04-04T10:32:38.835Z</time></trkpt><trkpt lat="42.0602649" lon="12.7669852"><ele>246.25</ele><time>2026-04-04T10:32:39.835Z</time></trkpt><trkpt lat="42.0603852" lon="12.7670264"><ele>246.5</ele><time>2026-04-04T10:32:40.835Z</time></trkpt><trkpt lat="42.0605067" lon="12.7670883"><ele>246.75</ele><time>2026-04-04T10:32:41.835Z</time></trkpt><trkpt lat="42.0606299" lon="12.7671519"><ele>247.0</ele><time>2026-04-04T10:32:42.835Z</time></trkpt><trkpt lat="42.0607582" lon="12.7672186"><ele>248.25</ele><time>2026-04-04T10:32:43.835Z</time></trkpt><trkpt lat="42.0608828" lon="12.7672863"><ele>249.5</ele><time>2026-04-04T10:32:44.835Z</time></trkpt><trkpt lat="42.0610066" lon="12.7673562"><ele>250.75</ele><time>2026-04-04T10:32:45.835Z</time></trkpt><trkpt lat="42.0611322" lon="12.7674297"><ele>252.0</ele><time>2026-04-04T10:32:46.835Z</time></trkpt><trkpt lat="42.0612491" lon="12.767484"><ele>252.0</ele><time>2026-04-04T10:32:47.835Z</time></trkpt><trkpt lat="42.0613648" lon="12.7675206"><ele>252.0</ele><time>2026-04-04T10:32:48.835Z</time></trkpt><trkpt lat="42.0614791" lon="12.767544"><ele>252.0</ele><time>2026-04-04T10:32:49.835Z</time></trkpt><trkpt lat="42.0616292" lon="12.7674922"><ele>252.0</ele><time>2026-04-04T10:32:50.835Z</time></trkpt><trkpt lat="42.0617816" lon="12.7674544"><ele>254.33333333333331</ele><time>2026-04-04T10:32:51.835Z</time></trkpt><trkpt lat="42.0619393" lon="12.767397"><ele>256.66666666666663</ele><time>2026-04-04T10:32:52.835Z</time></trkpt><trkpt lat="42.0620841" lon="12.7673376"><ele>259.0</ele><time>2026-04-04T10:32:53.834Z</time></trkpt><trkpt lat="42.0622198" lon="12.7672806"><ele>259.0</ele><time>2026-04-04T10:32:54.835Z</time></trkpt><trkpt lat="42.0623513" lon="12.7672176"><ele>259.0</ele><time>2026-04-04T10:32:55.835Z</time></trkpt><trkpt lat="42.0624427" lon="12.7671581"><ele>259.0</ele><time>2026-04-04T10:32:56.835Z</time></trkpt><trkpt lat="42.0625386" lon="12.7671063"><ele>259.0</ele><time>2026-04-04T10:32:57.835Z</time></trkpt><trkpt lat="42.0626344" lon="12.76706"><ele>259.0</ele><time>2026-04-04T10:32:58.835Z</time></trkpt><trkpt lat="42.0627227" lon="12.7670192"><ele>259.66666666666663</ele><time>2026-04-04T10:32:59.835Z</time></trkpt><trkpt lat="42.0628034" lon="12.7670138"><ele>260.3333333333333</ele><time>2026-04-04T10:33:00.835Z</time></trkpt><trkpt lat="42.0628972" lon="12.7670354"><ele>261.0</ele><time>2026-04-04T10:33:02.835Z</time></trkpt><trkpt lat="42.0629558" lon="12.7670944"><ele>261.6666666666667</ele><time>2026-04-04T10:33:05.834Z</time></trkpt><trkpt lat="42.0630036" lon="12.7672056"><ele>262.33333333333337</ele><time>2026-04-04T10:33:10.835Z</time></trkpt><trkpt lat="42.0630119" lon="12.7672939"><ele>263.0</ele><time>2026-04-04T10:33:11.835Z</time></trkpt><trkpt lat="42.0630173" lon="12.7673914"><ele>263.0</ele><time>2026-04-04T10:33:12.834Z</time></trkpt><trkpt lat="42.0630226" lon="12.7675202"><ele>263.0</ele><time>2026-04-04T10:33:13.835Z</time></trkpt><trkpt lat="42.0630349" lon="12.7676626"><ele>263.0</ele><time>2026-04-04T10:33:14.835Z</time></trkpt><trkpt lat="42.0630405" lon="12.7677981"><ele>263.0</ele><time>2026-04-04T10:33:15.835Z</time></trkpt><trkpt lat="42.063041" lon="12.7679361"><ele>263.0</ele><time>2026-04-04T10:33:16.835Z</time></trkpt><trkpt lat="42.0630425" lon="12.7680833"><ele>262.8</ele><time>2026-04-04T10:33:17.835Z</time></trkpt><trkpt lat="42.0630489" lon="12.7682409"><ele>262.6</ele><time>2026-04-04T10:33:18.835Z</time></trkpt><trkpt lat="42.0630554" lon="12.7683932"><ele>262.4</ele><time>2026-04-04T10:33:19.835Z</time></trkpt><trkpt lat="42.0630591" lon="12.7685409"><ele>262.2</ele><time>2026-04-04T10:33:20.835Z</time></trkpt><trkpt lat="42.0630609" lon="12.7686714"><ele>262.0</ele><time>2026-04-04T10:33:21.835Z</time></trkpt><trkpt lat="42.0630632" lon="12.7687861"><ele>262.3333333333333</ele><time>2026-04-04T10:33:22.835Z</time></trkpt><trkpt lat="42.0630692" lon="12.768878"><ele>262.66666666666663</ele><time>2026-04-04T10:33:23.835Z</time></trkpt><trkpt lat="42.063077" lon="12.7690251"><ele>263.0</ele><time>2026-04-04T10:33:25.835Z</time></trkpt><trkpt lat="42.0630795" lon="12.7691165"><ele>263.3333333333333</ele><time>2026-04-04T10:33:27.835Z</time></trkpt><trkpt lat="42.0631528" lon="12.769183"><ele>263.6666666666667</ele><time>2026-04-04T10:33:30.835Z</time></trkpt><trkpt lat="42.0632285" lon="12.7692186"><ele>264.0</ele><time>2026-04-04T10:33:32.835Z</time></trkpt><trkpt lat="42.0633233" lon="12.7692677"><ele>264.57142857142856</ele><time>2026-04-04T10:33:34.835Z</time></trkpt><trkpt lat="42.0634186" lon="12.7692954"><ele>265.14285714285717</ele><time>2026-04-04T10:33:36.835Z</time></trkpt><trkpt lat="42.063479" lon="12.7692587"><ele>265.7142857142857</ele><time>2026-04-04T10:33:38.835Z</time></trkpt><trkpt lat="42.0635159" lon="12.7691709"><ele>266.2857142857143</ele><time>2026-04-04T10:33:42.834Z</time></trkpt><trkpt lat="42.0635352" lon="12.7690746"><ele>266.85714285714283</ele><time>2026-04-04T10:33:50.835Z</time></trkpt><trkpt lat="42.0635373" lon="12.768982"><ele>267.42857142857144</ele><time>2026-04-04T10:33:54.835Z</time></trkpt><trkpt lat="42.0636005" lon="12.7689942"><ele>268.0</ele><time>2026-04-04T10:35:48.84Z</time></trkpt><trkpt lat="42.0635701" lon="12.769071"><ele>268.0</ele><time>2026-04-04T10:35:52.84Z</time></trkpt><trkpt lat="42.0636245" lon="12.7691866"><ele>268.0</ele><time>2026-04-04T10:36:40.84Z</time></trkpt><trkpt lat="42.0636872" lon="12.7691367"><ele>268.0</ele><time>2026-04-04T10:36:50.743Z</time></trkpt><trkpt lat="42.0637421" lon="12.7690914"><ele>268.0</ele><time>2026-04-04T10:36:56.84Z</time></trkpt><trkpt lat="42.06378" lon="12.7691623"><ele>268.0</ele><time>2026-04-04T10:38:17.835Z</time></trkpt><trkpt lat="42.0637461" lon="12.7692433"><ele>268.0</ele><time>2026-04-04T10:38:20.819Z</time></trkpt><trkpt lat="42.0638108" lon="12.7692608"><ele>268.0</ele><time>2026-04-04T10:38:34.758Z</time></trkpt><trkpt lat="42.0638306" lon="12.7691779"><ele>268.0</ele><time>2026-04-04T10:38:48.835Z</time></trkpt><trkpt lat="42.0638176" lon="12.7690638"><ele>268.0</ele><time>2026-04-04T10:39:09.835Z</time></trkpt><trkpt lat="42.0637556" lon="12.7690883"><ele>268.0</ele><time>2026-04-04T10:39:19.835Z</time></trkpt><trkpt lat="42.0637776" lon="12.7690051"><ele>268.0</ele><time>2026-04-04T10:40:33.834Z</time></trkpt><trkpt lat="42.0637675" lon="12.7689059"><ele>268.0</ele><time>2026-04-04T10:41:13.835Z</time></trkpt><trkpt lat="42.0637033" lon="12.7688822"><ele>268.0</ele><time>2026-04-04T10:42:13.834Z</time></trkpt><trkpt lat="42.0636729" lon="12.7689898"><ele>268.0</ele><time>2026-04-04T10:43:46.835Z</time></trkpt><trkpt lat="42.0635419" lon="12.7689452"><ele>268.0</ele><time>2026-04-04T10:48:49.835Z</time></trkpt><trkpt lat="42.0634699" lon="12.7689066"><ele>268.0</ele><time>2026-04-04T10:49:23.838Z</time></trkpt><trkpt lat="42.0634224" lon="12.7689772"><ele>268.0</ele><time>2026-04-04T10:49:26.835Z</time></trkpt><trkpt lat="42.0633264" lon="12.7689352"><ele>268.0</ele><time>2026-04-04T10:49:28.835Z</time></trkpt><trkpt lat="42.0632624" lon="12.7690026"><ele>268.0</ele><time>2026-04-04T10:49:30.835Z</time></trkpt><trkpt lat="42.0632229" lon="12.7691215"><ele>268.0</ele><time>2026-04-04T10:49:32.835Z</time></trkpt><trkpt lat="42.0631462" lon="12.7691567"><ele>267.8</ele><time>2026-04-04T10:49:35.835Z</time></trkpt><trkpt lat="42.0630941" lon="12.7692205"><ele>267.6</ele><time>2026-04-04T10:49:39.835Z</time></trkpt><trkpt lat="42.0630844" lon="12.7694013"><ele>267.4</ele><time>2026-04-04T10:49:41.835Z</time></trkpt><trkpt lat="42.0630817" lon="12.7695279"><ele>267.2</ele><time>2026-04-04T10:49:42.835Z</time></trkpt><trkpt lat="42.0630828" lon="12.7696836"><ele>267.0</ele><time>2026-04-04T10:49:43.835Z</time></trkpt><trkpt lat="42.063086" lon="12.7698481"><ele>267.0</ele><time>2026-04-04T10:49:44.835Z</time></trkpt><trkpt lat="42.0630919" lon="12.7700064"><ele>267.0</ele><time>2026-04-04T10:49:45.835Z</time></trkpt><trkpt lat="42.0630998" lon="12.7701473"><ele>267.0</ele><time>2026-04-04T10:49:46.835Z</time></trkpt><trkpt lat="42.0631028" lon="12.7702807"><ele>267.0</ele><time>2026-04-04T10:49:47.835Z</time></trkpt><trkpt lat="42.063102" lon="12.7704023"><ele>267.0</ele><time>2026-04-04T10:49:48.835Z</time></trkpt><trkpt lat="42.0631025" lon="12.7705154"><ele>268.0</ele><time>2026-04-04T10:49:49.834Z</time></trkpt><trkpt lat="42.0630995" lon="12.7706172"><ele>269.0</ele><time>2026-04-04T10:49:50.835Z</time></trkpt><trkpt lat="42.063085" lon="12.7707732"><ele>270.0</ele><time>2026-04-04T10:49:52.835Z</time></trkpt><trkpt lat="42.0630902" lon="12.7709238"><ele>271.0</ele><time>2026-04-04T10:49:54.835Z</time></trkpt><trkpt lat="42.063188" lon="12.7710051"><ele>272.0</ele><time>2026-04-04T10:49:56.835Z</time></trkpt><trkpt lat="42.0632765" lon="12.770994"><ele>273.0</ele><time>2026-04-04T10:49:57.835Z</time></trkpt><trkpt lat="42.0633791" lon="12.7709784"><ele>274.0</ele><time>2026-04-04T10:49:58.835Z</time></trkpt><trkpt lat="42.0634826" lon="12.7709528"><ele>275.0</ele><time>2026-04-04T10:49:59.835Z</time></trkpt><trkpt lat="42.0635842" lon="12.7709159"><ele>276.0</ele><time>2026-04-04T10:50:00.835Z</time></trkpt><trkpt lat="42.0636861" lon="12.770874"><ele>277.0</ele><time>2026-04-04T10:50:01.835Z</time></trkpt><trkpt lat="42.0637862" lon="12.7708368"><ele>277.0</ele><time>2026-04-04T10:50:02.835Z</time></trkpt><trkpt lat="42.0638762" lon="12.7707974"><ele>277.0</ele><time>2026-04-04T10:50:03.835Z</time></trkpt><trkpt lat="42.0639548" lon="12.7707639"><ele>277.0</ele><time>2026-04-04T10:50:04.835Z</time></trkpt><trkpt lat="42.0640221" lon="12.7707378"><ele>277.0</ele><time>2026-04-04T10:50:05.834Z</time></trkpt><trkpt lat="42.0640896" lon="12.7707007"><ele>277.0</ele><time>2026-04-04T10:50:06.835Z</time></trkpt><trkpt lat="42.0641601" lon="12.7706604"><ele>277.0</ele><time>2026-04-04T10:50:07.834Z</time></trkpt><trkpt lat="42.064248" lon="12.7706254"><ele>277.8</ele><time>2026-04-04T10:50:08.835Z</time></trkpt><trkpt lat="42.0643387" lon="12.7705809"><ele>278.6</ele><time>2026-04-04T10:50:09.835Z</time></trkpt><trkpt lat="42.064434" lon="12.7705297"><ele>279.40000000000003</ele><time>2026-04-04T10:50:10.835Z</time></trkpt><trkpt lat="42.0645339" lon="12.7704762"><ele>280.2</ele><time>2026-04-04T10:50:11.835Z</time></trkpt><trkpt lat="42.064636" lon="12.7704219"><ele>281.0</ele><time>2026-04-04T10:50:12.835Z</time></trkpt><trkpt lat="42.0647448" lon="12.7703696"><ele>281.0</ele><time>2026-04-04T10:50:13.835Z</time></trkpt><trkpt lat="42.0648572" lon="12.7703141"><ele>281.0</ele><time>2026-04-04T10:50:14.835Z</time></trkpt><trkpt lat="42.0649717" lon="12.7702597"><ele>281.0</ele><time>2026-04-04T10:50:15.835Z</time></trkpt><trkpt lat="42.0650849" lon="12.7702099"><ele>281.0</ele><time>2026-04-04T10:50:16.835Z</time></trkpt><trkpt lat="42.0651959" lon="12.7701603"><ele>280.8</ele><time>2026-04-04T10:50:17.835Z</time></trkpt><trkpt lat="42.0652961" lon="12.7701127"><ele>280.6</ele><time>2026-04-04T10:50:18.835Z</time></trkpt><trkpt lat="42.0653963" lon="12.770065"><ele>280.4</ele><time>2026-04-04T10:50:19.835Z</time></trkpt><trkpt lat="42.0654945" lon="12.7700195"><ele>280.2</ele><time>2026-04-04T10:50:20.835Z</time></trkpt><trkpt lat="42.0655913" lon="12.7699758"><ele>280.0</ele><time>2026-04-04T10:50:21.835Z</time></trkpt><trkpt lat="42.0656857" lon="12.7699361"><ele>281.2</ele><time>2026-04-04T10:50:22.835Z</time></trkpt><trkpt lat="42.0657789" lon="12.7698955"><ele>282.4</ele><time>2026-04-04T10:50:23.835Z</time></trkpt><trkpt lat="42.0658746" lon="12.7698511"><ele>283.6</ele><time>2026-04-04T10:50:24.835Z</time></trkpt><trkpt lat="42.0659644" lon="12.7698087"><ele>284.8</ele><time>2026-04-04T10:50:25.835Z</time></trkpt><trkpt lat="42.0660573" lon="12.7697659"><ele>286.0</ele><time>2026-04-04T10:50:26.835Z</time></trkpt><trkpt lat="42.0661566" lon="12.7697282"><ele>286.0</ele><time>2026-04-04T10:50:27.835Z</time></trkpt><trkpt lat="42.0662516" lon="12.7696799"><ele>286.0</ele><time>2026-04-04T10:50:28.835Z</time></trkpt><trkpt lat="42.0663505" lon="12.7696352"><ele>286.0</ele><time>2026-04-04T10:50:29.835Z</time></trkpt><trkpt lat="42.0664457" lon="12.7695933"><ele>286.0</ele><time>2026-04-04T10:50:30.835Z</time></trkpt><trkpt lat="42.0665515" lon="12.7695477"><ele>286.0</ele><time>2026-04-04T10:50:31.835Z</time></trkpt><trkpt lat="42.0666462" lon="12.7695055"><ele>286.2</ele><time>2026-04-04T10:50:32.835Z</time></trkpt><trkpt lat="42.0667397" lon="12.7694621"><ele>286.40000000000003</ele><time>2026-04-04T10:50:33.835Z</time></trkpt><trkpt lat="42.0668331" lon="12.7694098"><ele>286.6</ele><time>2026-04-04T10:50:34.835Z</time></trkpt><trkpt lat="42.0669295" lon="12.7693529"><ele>286.8</ele><time>2026-04-04T10:50:35.835Z</time></trkpt><trkpt lat="42.0670247" lon="12.7692802"><ele>287.0</ele><time>2026-04-04T10:50:36.835Z</time></trkpt><trkpt lat="42.0671187" lon="12.7692147"><ele>287.0</ele><time>2026-04-04T10:50:37.835Z</time></trkpt><trkpt lat="42.0672093" lon="12.7691419"><ele>287.0</ele><time>2026-04-04T10:50:38.835Z</time></trkpt><trkpt lat="42.0672916" lon="12.7690638"><ele>287.0</ele><time>2026-04-04T10:50:39.835Z</time></trkpt><trkpt lat="42.067371" lon="12.7689876"><ele>287.0</ele><time>2026-04-04T10:50:40.835Z</time></trkpt><trkpt lat="42.0674453" lon="12.7689052"><ele>287.0</ele><time>2026-04-04T10:50:41.835Z</time></trkpt><trkpt lat="42.0675165" lon="12.7688247"><ele>287.0</ele><time>2026-04-04T10:50:42.835Z</time></trkpt><trkpt lat="42.0675886" lon="12.7687235"><ele>287.0</ele><time>2026-04-04T10:50:43.835Z</time></trkpt><trkpt lat="42.0676564" lon="12.7686231"><ele>287.0</ele><time>2026-04-04T10:50:44.835Z</time></trkpt><trkpt lat="42.067719" lon="12.7685216"><ele>287.0</ele><time>2026-04-04T10:50:45.835Z</time></trkpt><trkpt lat="42.0677833" lon="12.768418"><ele>287.0</ele><time>2026-04-04T10:50:46.835Z</time></trkpt><trkpt lat="42.0678479" lon="12.7683101"><ele>289.8</ele><time>2026-04-04T10:50:47.835Z</time></trkpt><trkpt lat="42.0679173" lon="12.7682017"><ele>292.6</ele><time>2026-04-04T10:50:48.835Z</time></trkpt><trkpt lat="42.0679857" lon="12.7680969"><ele>295.40000000000003</ele><time>2026-04-04T10:50:49.834Z</time></trkpt><trkpt lat="42.0680597" lon="12.767992"><ele>298.2</ele><time>2026-04-04T10:50:50.835Z</time></trkpt><trkpt lat="42.0681402" lon="12.7678968"><ele>301.0</ele><time>2026-04-04T10:50:51.834Z</time></trkpt><trkpt lat="42.0682232" lon="12.7677992"><ele>300.0</ele><time>2026-04-04T10:50:52.835Z</time></trkpt><trkpt lat="42.068311" lon="12.7676988"><ele>299.0</ele><time>2026-04-04T10:50:53.835Z</time></trkpt><trkpt lat="42.0684029" lon="12.7676032"><ele>298.0</ele><time>2026-04-04T10:50:54.835Z</time></trkpt><trkpt lat="42.0684974" lon="12.7675029"><ele>297.0</ele><time>2026-04-04T10:50:55.835Z</time></trkpt><trkpt lat="42.068586" lon="12.7674082"><ele>297.0</ele><time>2026-04-04T10:50:56.834Z</time></trkpt><trkpt lat="42.0686741" lon="12.7673141"><ele>297.0</ele><time>2026-04-04T10:50:57.835Z</time></trkpt><trkpt lat="42.0687642" lon="12.7672245"><ele>297.0</ele><time>2026-04-04T10:50:58.834Z</time></trkpt><trkpt lat="42.0688526" lon="12.7671414"><ele>297.0</ele><time>2026-04-04T10:50:59.835Z</time></trkpt><trkpt lat="42.0689318" lon="12.7670665"><ele>297.0</ele><time>2026-04-04T10:51:00.835Z</time></trkpt><trkpt lat="42.069004" lon="12.7669976"><ele>297.0</ele><time>2026-04-04T10:51:01.835Z</time></trkpt><trkpt lat="42.0690748" lon="12.7669369"><ele>297.0</ele><time>2026-04-04T10:51:02.834Z</time></trkpt><trkpt lat="42.069148" lon="12.7668727"><ele>297.0</ele><time>2026-04-04T10:51:03.835Z</time></trkpt><trkpt lat="42.069223" lon="12.7668148"><ele>297.0</ele><time>2026-04-04T10:51:04.834Z</time></trkpt><trkpt lat="42.0693116" lon="12.7667631"><ele>297.0</ele><time>2026-04-04T10:51:05.835Z</time></trkpt><trkpt lat="42.0693976" lon="12.7667199"><ele>297.0</ele><time>2026-04-04T10:51:06.835Z</time></trkpt><trkpt lat="42.0694817" lon="12.7666813"><ele>297.0</ele><time>2026-04-04T10:51:07.835Z</time></trkpt><trkpt lat="42.0695765" lon="12.7666374"><ele>297.0</ele><time>2026-04-04T10:51:08.835Z</time></trkpt><trkpt lat="42.0696782" lon="12.7666046"><ele>297.0</ele><time>2026-04-04T10:51:09.834Z</time></trkpt><trkpt lat="42.0697855" lon="12.7665848"><ele>297.0</ele><time>2026-04-04T10:51:10.835Z</time></trkpt><trkpt lat="42.0698922" lon="12.7665653"><ele>297.0</ele><time>2026-04-04T10:51:11.835Z</time></trkpt><trkpt lat="42.0699946" lon="12.7665519"><ele>296.6666666666667</ele><time>2026-04-04T10:51:12.835Z</time></trkpt><trkpt lat="42.0700968" lon="12.766538"><ele>296.3333333333333</ele><time>2026-04-04T10:51:13.835Z</time></trkpt><trkpt lat="42.0701918" lon="12.7665441"><ele>296.0</ele><time>2026-04-04T10:51:14.835Z</time></trkpt><trkpt lat="42.0702822" lon="12.7665513"><ele>295.66666666666663</ele><time>2026-04-04T10:51:15.835Z</time></trkpt><trkpt lat="42.0703634" lon="12.7665605"><ele>295.3333333333333</ele><time>2026-04-04T10:51:16.835Z</time></trkpt><trkpt lat="42.0704389" lon="12.7665703"><ele>295.0</ele><time>2026-04-04T10:51:17.835Z</time></trkpt><trkpt lat="42.0705089" lon="12.7665784"><ele>295.0</ele><time>2026-04-04T10:51:18.835Z</time></trkpt><trkpt lat="42.070574" lon="12.7665869"><ele>295.0</ele><time>2026-04-04T10:51:19.835Z</time></trkpt><trkpt lat="42.0706385" lon="12.7665951"><ele>295.0</ele><time>2026-04-04T10:51:20.835Z</time></trkpt><trkpt lat="42.0707083" lon="12.7666"><ele>295.0</ele><time>2026-04-04T10:51:21.835Z</time></trkpt><trkpt lat="42.0707981" lon="12.7665984"><ele>295.0</ele><time>2026-04-04T10:51:22.835Z</time></trkpt><trkpt lat="42.0708956" lon="12.7665932"><ele>295.0</ele><time>2026-04-04T10:51:23.835Z</time></trkpt><trkpt lat="42.0710019" lon="12.766585"><ele>296.2</ele><time>2026-04-04T10:51:24.835Z</time></trkpt><trkpt lat="42.0711039" lon="12.766584"><ele>297.4</ele><time>2026-04-04T10:51:25.835Z</time></trkpt><trkpt lat="42.071212" lon="12.7665855"><ele>298.6</ele><time>2026-04-04T10:51:26.835Z</time></trkpt><trkpt lat="42.0713187" lon="12.7665835"><ele>299.8</ele><time>2026-04-04T10:51:27.835Z</time></trkpt><trkpt lat="42.0714376" lon="12.7665635"><ele>301.0</ele><time>2026-04-04T10:51:28.835Z</time></trkpt><trkpt lat="42.0715569" lon="12.7665403"><ele>299.5</ele><time>2026-04-04T10:51:29.835Z</time></trkpt><trkpt lat="42.0716813" lon="12.7665134"><ele>298.0</ele><time>2026-04-04T10:51:30.835Z</time></trkpt><trkpt lat="42.0718024" lon="12.7664828"><ele>296.5</ele><time>2026-04-04T10:51:31.835Z</time></trkpt><trkpt lat="42.0719215" lon="12.7664461"><ele>295.0</ele><time>2026-04-04T10:51:32.835Z</time></trkpt><trkpt lat="42.072045" lon="12.7664046"><ele>295.0</ele><time>2026-04-04T10:51:33.834Z</time></trkpt><trkpt lat="42.0721723" lon="12.7663612"><ele>295.0</ele><time>2026-04-04T10:51:34.835Z</time></trkpt><trkpt lat="42.0723026" lon="12.766305"><ele>295.0</ele><time>2026-04-04T10:51:35.835Z</time></trkpt><trkpt lat="42.0724286" lon="12.7662505"><ele>295.0</ele><time>2026-04-04T10:51:36.835Z</time></trkpt><trkpt lat="42.0725607" lon="12.7662012"><ele>296.5</ele><time>2026-04-04T10:51:37.835Z</time></trkpt><trkpt lat="42.0726862" lon="12.7661423"><ele>298.0</ele><time>2026-04-04T10:51:38.835Z</time></trkpt><trkpt lat="42.0728167" lon="12.7660845"><ele>299.5</ele><time>2026-04-04T10:51:39.835Z</time></trkpt><trkpt lat="42.0729444" lon="12.7660316"><ele>301.0</ele><time>2026-04-04T10:51:40.835Z</time></trkpt><trkpt lat="42.0730718" lon="12.7659753"><ele>298.25</ele><time>2026-04-04T10:51:41.835Z</time></trkpt><trkpt lat="42.0731973" lon="12.7659174"><ele>295.5</ele><time>2026-04-04T10:51:42.835Z</time></trkpt><trkpt lat="42.0733228" lon="12.765865"><ele>292.75</ele><time>2026-04-04T10:51:43.835Z</time></trkpt><trkpt lat="42.0734494" lon="12.7658098"><ele>290.0</ele><time>2026-04-04T10:51:44.834Z</time></trkpt><trkpt lat="42.0735793" lon="12.7657587"><ele>290.0</ele><time>2026-04-04T10:51:45.835Z</time></trkpt><trkpt lat="42.0737022" lon="12.7657132"><ele>290.0</ele><time>2026-04-04T10:51:46.835Z</time></trkpt><trkpt lat="42.0738238" lon="12.7656639"><ele>290.0</ele><time>2026-04-04T10:51:47.835Z</time></trkpt><trkpt lat="42.0739463" lon="12.7656262"><ele>290.0</ele><time>2026-04-04T10:51:48.835Z</time></trkpt><trkpt lat="42.0740742" lon="12.765593"><ele>291.25</ele><time>2026-04-04T10:51:49.835Z</time></trkpt><trkpt lat="42.0742042" lon="12.7655785"><ele>292.5</ele><time>2026-04-04T10:51:50.835Z</time></trkpt><trkpt lat="42.0743358" lon="12.7655791"><ele>293.75</ele><time>2026-04-04T10:51:51.835Z</time></trkpt><trkpt lat="42.074464" lon="12.7655816"><ele>295.0</ele><time>2026-04-04T10:51:52.835Z</time></trkpt><trkpt lat="42.0745976" lon="12.7655779"><ele>295.0</ele><time>2026-04-04T10:51:53.835Z</time></trkpt><trkpt lat="42.0747309" lon="12.7655576"><ele>295.0</ele><time>2026-04-04T10:51:54.835Z</time></trkpt><trkpt lat="42.074861" lon="12.7655184"><ele>295.0</ele><time>2026-04-04T10:51:55.835Z</time></trkpt><trkpt lat="42.074988" lon="12.7654612"><ele>295.0</ele><time>2026-04-04T10:51:56.835Z</time></trkpt><trkpt lat="42.0751097" lon="12.7653948"><ele>295.75</ele><time>2026-04-04T10:51:57.835Z</time></trkpt><trkpt lat="42.0752301" lon="12.7653315"><ele>296.5</ele><time>2026-04-04T10:51:58.835Z</time></trkpt><trkpt lat="42.0753538" lon="12.7652745"><ele>297.25</ele><time>2026-04-04T10:51:59.835Z</time></trkpt><trkpt lat="42.0754791" lon="12.7652262"><ele>298.0</ele><time>2026-04-04T10:52:00.835Z</time></trkpt><trkpt lat="42.0756031" lon="12.7651886"><ele>297.25</ele><time>2026-04-04T10:52:01.835Z</time></trkpt><trkpt lat="42.0757294" lon="12.7651655"><ele>296.5</ele><time>2026-04-04T10:52:02.835Z</time></trkpt><trkpt lat="42.0758495" lon="12.7651756"><ele>295.75</ele><time>2026-04-04T10:52:03.835Z</time></trkpt><trkpt lat="42.0759526" lon="12.7652518"><ele>295.0</ele><time>2026-04-04T10:52:04.835Z</time></trkpt><trkpt lat="42.0760521" lon="12.7653228"><ele>295.0</ele><time>2026-04-04T10:52:05.835Z</time></trkpt><trkpt lat="42.0761475" lon="12.7654087"><ele>295.0</ele><time>2026-04-04T10:52:06.835Z</time></trkpt><trkpt lat="42.0762462" lon="12.7654862"><ele>295.0</ele><time>2026-04-04T10:52:07.834Z</time></trkpt><trkpt lat="42.0763531" lon="12.7655408"><ele>295.0</ele><time>2026-04-04T10:52:08.835Z</time></trkpt><trkpt lat="42.0764666" lon="12.7655737"><ele>295.0</ele><time>2026-04-04T10:52:09.835Z</time></trkpt><trkpt lat="42.0765777" lon="12.7655732"><ele>295.0</ele><time>2026-04-04T10:52:10.834Z</time></trkpt><trkpt lat="42.0766831" lon="12.7655534"><ele>295.0</ele><time>2026-04-04T10:52:11.835Z</time></trkpt><trkpt lat="42.0767704" lon="12.7655417"><ele>295.0</ele><time>2026-04-04T10:52:12.834Z</time></trkpt><trkpt lat="42.0768514" lon="12.7655446"><ele>295.0</ele><time>2026-04-04T10:52:13.835Z</time></trkpt><trkpt lat="42.0769368" lon="12.7655603"><ele>295.2</ele><time>2026-04-04T10:52:14.835Z</time></trkpt><trkpt lat="42.0770303" lon="12.7655816"><ele>295.4</ele><time>2026-04-04T10:52:15.835Z</time></trkpt><trkpt lat="42.0771339" lon="12.7656025"><ele>295.6</ele><time>2026-04-04T10:52:16.835Z</time></trkpt><trkpt lat="42.0772381" lon="12.7656342"><ele>295.8</ele><time>2026-04-04T10:52:17.835Z</time></trkpt><trkpt lat="42.0773363" lon="12.7656623"><ele>296.0</ele><time>2026-04-04T10:52:18.834Z</time></trkpt><trkpt lat="42.0774307" lon="12.7656933"><ele>297.2</ele><time>2026-04-04T10:52:19.835Z</time></trkpt><trkpt lat="42.0775264" lon="12.7657196"><ele>298.40000000000003</ele><time>2026-04-04T10:52:20.835Z</time></trkpt><trkpt lat="42.0776191" lon="12.7657547"><ele>299.6</ele><time>2026-04-04T10:52:21.835Z</time></trkpt><trkpt lat="42.0777115" lon="12.7657867"><ele>300.8</ele><time>2026-04-04T10:52:22.835Z</time></trkpt><trkpt lat="42.0778108" lon="12.7658188"><ele>302.0</ele><time>2026-04-04T10:52:23.835Z</time></trkpt><trkpt lat="42.0779171" lon="12.7658565"><ele>302.0</ele><time>2026-04-04T10:52:24.835Z</time></trkpt><trkpt lat="42.0780299" lon="12.7658915"><ele>302.0</ele><time>2026-04-04T10:52:25.835Z</time></trkpt><trkpt lat="42.07816" lon="12.7659316"><ele>302.0</ele><time>2026-04-04T10:52:26.834Z</time></trkpt><trkpt lat="42.0782838" lon="12.7659708"><ele>302.0</ele><time>2026-04-04T10:52:27.834Z</time></trkpt><trkpt lat="42.0784056" lon="12.7660006"><ele>304.75</ele><time>2026-04-04T10:52:28.835Z</time></trkpt><trkpt lat="42.0785373" lon="12.7660288"><ele>307.5</ele><time>2026-04-04T10:52:29.835Z</time></trkpt><trkpt lat="42.0786688" lon="12.7660621"><ele>310.25</ele><time>2026-04-04T10:52:30.834Z</time></trkpt><trkpt lat="42.078779" lon="12.7661118"><ele>313.0</ele><time>2026-04-04T10:52:31.835Z</time></trkpt><trkpt lat="42.078875" lon="12.7661386"><ele>313.0</ele><time>2026-04-04T10:52:32.834Z</time></trkpt><trkpt lat="42.0789533" lon="12.7661672"><ele>313.0</ele><time>2026-04-04T10:52:33.835Z</time></trkpt><trkpt lat="42.0790094" lon="12.7662072"><ele>313.0</ele><time>2026-04-04T10:52:34.835Z</time></trkpt><trkpt lat="42.0790692" lon="12.7663474"><ele>313.0</ele><time>2026-04-04T10:52:36.835Z</time></trkpt><trkpt lat="42.0790886" lon="12.766469"><ele>313.0</ele><time>2026-04-04T10:52:37.835Z</time></trkpt><trkpt lat="42.0791047" lon="12.7666233"><ele>315.5</ele><time>2026-04-04T10:52:38.835Z</time></trkpt><trkpt lat="42.0791233" lon="12.7667856"><ele>318.0</ele><time>2026-04-04T10:52:39.835Z</time></trkpt><trkpt lat="42.0791392" lon="12.7669393"><ele>320.5</ele><time>2026-04-04T10:52:40.835Z</time></trkpt><trkpt lat="42.0791537" lon="12.7670816"><ele>323.0</ele><time>2026-04-04T10:52:41.835Z</time></trkpt><trkpt lat="42.0791648" lon="12.7672275"><ele>324.33333333333337</ele><time>2026-04-04T10:52:42.835Z</time></trkpt><trkpt lat="42.0791784" lon="12.7673627"><ele>325.6666666666667</ele><time>2026-04-04T10:52:43.835Z</time></trkpt><trkpt lat="42.0791852" lon="12.7674791"><ele>327.0</ele><time>2026-04-04T10:52:44.835Z</time></trkpt><trkpt lat="42.0791982" lon="12.7675927"><ele>328.3333333333333</ele><time>2026-04-04T10:52:45.835Z</time></trkpt><trkpt lat="42.0792242" lon="12.7676922"><ele>329.66666666666663</ele><time>2026-04-04T10:52:46.834Z</time></trkpt><trkpt lat="42.0792568" lon="12.7677883"><ele>331.0</ele><time>2026-04-04T10:52:47.835Z</time></trkpt><trkpt lat="42.0792999" lon="12.7679012"><ele>332.8</ele><time>2026-04-04T10:52:48.835Z</time></trkpt><trkpt lat="42.079344" lon="12.7680199"><ele>334.6</ele><time>2026-04-04T10:52:49.835Z</time></trkpt><trkpt lat="42.0793925" lon="12.768131"><ele>336.4</ele><time>2026-04-04T10:52:50.835Z</time></trkpt><trkpt lat="42.0794453" lon="12.7682684"><ele>338.2</ele><time>2026-04-04T10:52:51.834Z</time></trkpt><trkpt lat="42.0795002" lon="12.7683897"><ele>340.0</ele><time>2026-04-04T10:52:52.835Z</time></trkpt><trkpt lat="42.0795518" lon="12.7685019"><ele>343.8</ele><time>2026-04-04T10:52:53.835Z</time></trkpt><trkpt lat="42.0796014" lon="12.7686107"><ele>347.6</ele><time>2026-04-04T10:52:54.835Z</time></trkpt><trkpt lat="42.0796574" lon="12.7687319"><ele>351.4</ele><time>2026-04-04T10:52:55.835Z</time></trkpt><trkpt lat="42.0797096" lon="12.7688556"><ele>355.2</ele><time>2026-04-04T10:52:56.835Z</time></trkpt><trkpt lat="42.0797793" lon="12.7690108"><ele>359.0</ele><time>2026-04-04T10:52:57.835Z</time></trkpt><trkpt lat="42.0798536" lon="12.769171"><ele>359.0</ele><time>2026-04-04T10:52:58.835Z</time></trkpt><trkpt lat="42.0799115" lon="12.7693023"><ele>359.0</ele><time>2026-04-04T10:52:59.835Z</time></trkpt><trkpt lat="42.079963" lon="12.7694174"><ele>359.0</ele><time>2026-04-04T10:53:00.835Z</time></trkpt><trkpt lat="42.0800175" lon="12.769524"><ele>359.0</ele><time>2026-04-04T10:53:01.835Z</time></trkpt><trkpt lat="42.0800788" lon="12.7696375"><ele>359.0</ele><time>2026-04-04T10:53:02.835Z</time></trkpt><trkpt lat="42.0801331" lon="12.7697416"><ele>360.5</ele><time>2026-04-04T10:53:03.835Z</time></trkpt><trkpt lat="42.0801851" lon="12.769828"><ele>362.0</ele><time>2026-04-04T10:53:04.835Z</time></trkpt><trkpt lat="42.0802306" lon="12.7699124"><ele>363.5</ele><time>2026-04-04T10:53:05.835Z</time></trkpt><trkpt lat="42.0802696" lon="12.7699997"><ele>365.0</ele><time>2026-04-04T10:53:06.834Z</time></trkpt><trkpt lat="42.0803121" lon="12.7700913"><ele>366.5</ele><time>2026-04-04T10:53:07.835Z</time></trkpt><trkpt lat="42.0803515" lon="12.7701658"><ele>368.0</ele><time>2026-04-04T10:53:08.835Z</time></trkpt><trkpt lat="42.0804093" lon="12.770293"><ele>369.4</ele><time>2026-04-04T10:53:10.835Z</time></trkpt><trkpt lat="42.0804496" lon="12.7704042"><ele>370.79999999999995</ele><time>2026-04-04T10:53:12.835Z</time></trkpt><trkpt lat="42.0804814" lon="12.7705075"><ele>372.2</ele><time>2026-04-04T10:53:14.835Z</time></trkpt><trkpt lat="42.0804971" lon="12.7706618"><ele>373.6</ele><time>2026-04-04T10:53:16.834Z</time></trkpt><trkpt lat="42.0805053" lon="12.7707498"><ele>375.0</ele><time>2026-04-04T10:53:17.835Z</time></trkpt><trkpt lat="42.0805236" lon="12.7709095"><ele>377.4</ele><time>2026-04-04T10:53:19.835Z</time></trkpt><trkpt lat="42.0805361" lon="12.7710679"><ele>379.8</ele><time>2026-04-04T10:53:21.835Z</time></trkpt><trkpt lat="42.0805468" lon="12.7711564"><ele>382.20000000000005</ele><time>2026-04-04T10:53:22.835Z</time></trkpt><trkpt lat="42.0805584" lon="12.7712985"><ele>384.6</ele><time>2026-04-04T10:53:24.835Z</time></trkpt><trkpt lat="42.0805795" lon="12.7714073"><ele>387.0</ele><time>2026-04-04T10:53:26.834Z</time></trkpt><trkpt lat="42.0805896" lon="12.7715183"><ele>387.0</ele><time>2026-04-04T10:53:28.835Z</time></trkpt><trkpt lat="42.0806153" lon="12.7716442"><ele>387.0</ele><time>2026-04-04T10:53:30.835Z</time></trkpt><trkpt lat="42.0806203" lon="12.7717867"><ele>387.0</ele><time>2026-04-04T10:53:32.835Z</time></trkpt><trkpt lat="42.0806388" lon="12.7719228"><ele>387.0</ele><time>2026-04-04T10:53:34.835Z</time></trkpt><trkpt lat="42.0806564" lon="12.772005"><ele>387.0</ele><time>2026-04-04T10:53:35.835Z</time></trkpt><trkpt lat="42.0806722" lon="12.7721402"><ele>386.6666666666667</ele><time>2026-04-04T10:53:37.835Z</time></trkpt><trkpt lat="42.0806964" lon="12.7722966"><ele>386.33333333333337</ele><time>2026-04-04T10:53:39.835Z</time></trkpt><trkpt lat="42.080711" lon="12.7723873"><ele>386.0</ele><time>2026-04-04T10:53:40.835Z</time></trkpt><trkpt lat="42.0807303" lon="12.7724898"><ele>385.6666666666667</ele><time>2026-04-04T10:53:41.835Z</time></trkpt><trkpt lat="42.0807425" lon="12.77259"><ele>385.33333333333337</ele><time>2026-04-04T10:53:42.835Z</time></trkpt><trkpt lat="42.080761" lon="12.7726862"><ele>385.0</ele><time>2026-04-04T10:53:43.835Z</time></trkpt><trkpt lat="42.0807709" lon="12.7727919"><ele>376.4</ele><time>2026-04-04T10:53:44.835Z</time></trkpt><trkpt lat="42.0807869" lon="12.7728787"><ele>367.8</ele><time>2026-04-04T10:53:45.835Z</time></trkpt><trkpt lat="42.0808119" lon="12.7730273"><ele>359.20000000000005</ele><time>2026-04-04T10:53:47.835Z</time></trkpt><trkpt lat="42.0808376" lon="12.7731587"><ele>350.6</ele><time>2026-04-04T10:53:49.835Z</time></trkpt><trkpt lat="42.08085" lon="12.7732933"><ele>342.0</ele><time>2026-04-04T10:53:51.835Z</time></trkpt><trkpt lat="42.0808683" lon="12.7734289"><ele>342.6</ele><time>2026-04-04T10:53:53.835Z</time></trkpt><trkpt lat="42.0808759" lon="12.7735716"><ele>343.20000000000005</ele><time>2026-04-04T10:53:55.835Z</time></trkpt><trkpt lat="42.0808986" lon="12.7737346"><ele>343.8</ele><time>2026-04-04T10:53:57.835Z</time></trkpt><trkpt lat="42.0809227" lon="12.7739075"><ele>344.4</ele><time>2026-04-04T10:53:59.835Z</time></trkpt><trkpt lat="42.080935" lon="12.7740007"><ele>345.0</ele><time>2026-04-04T10:54:00.835Z</time></trkpt><trkpt lat="42.0809579" lon="12.7740968"><ele>345.0</ele><time>2026-04-04T10:54:01.834Z</time></trkpt><trkpt lat="42.0809767" lon="12.7742012"><ele>345.0</ele><time>2026-04-04T10:54:02.835Z</time></trkpt><trkpt lat="42.0809914" lon="12.7743063"><ele>345.0</ele><time>2026-04-04T10:54:03.835Z</time></trkpt><trkpt lat="42.0810059" lon="12.7743991"><ele>345.0</ele><time>2026-04-04T10:54:04.835Z</time></trkpt><trkpt lat="42.0810148" lon="12.7744955"><ele>345.0</ele><time>2026-04-04T10:54:05.835Z</time></trkpt><trkpt lat="42.0810274" lon="12.7746245"><ele>345.0</ele><time>2026-04-04T10:54:07.835Z</time></trkpt><trkpt lat="42.0810696" lon="12.7747176"><ele>345.0</ele><time>2026-04-04T10:54:50.835Z</time></trkpt><trkpt lat="42.0810674" lon="12.7746227"><ele>345.0</ele><time>2026-04-04T10:55:08.835Z</time></trkpt><trkpt lat="42.0810805" lon="12.7745249"><ele>345.0</ele><time>2026-04-04T10:55:11.835Z</time></trkpt><trkpt lat="42.0810887" lon="12.7744329"><ele>345.0</ele><time>2026-04-04T10:55:14.835Z</time></trkpt><trkpt lat="42.0810923" lon="12.7743396"><ele>345.0</ele><time>2026-04-04T10:55:16.835Z</time></trkpt><trkpt lat="42.0811017" lon="12.7742141"><ele>345.0</ele><time>2026-04-04T10:55:19.835Z</time></trkpt><trkpt lat="42.0811145" lon="12.7740941"><ele>345.0</ele><time>2026-04-04T10:55:22.835Z</time></trkpt><trkpt lat="42.0811205" lon="12.773986"><ele>345.0</ele><time>2026-04-04T10:55:24.835Z</time></trkpt><trkpt lat="42.0811287" lon="12.7738924"><ele>345.0</ele><time>2026-04-04T10:55:26.835Z</time></trkpt><trkpt lat="42.081138" lon="12.7738025"><ele>345.0</ele><time>2026-04-04T10:55:28.835Z</time></trkpt><trkpt lat="42.0811469" lon="12.7737033"><ele>345.0</ele><time>2026-04-04T10:55:30.835Z</time></trkpt><trkpt lat="42.0811678" lon="12.7736011"><ele>345.0</ele><time>2026-04-04T10:55:32.835Z</time></trkpt><trkpt lat="42.0811726" lon="12.7735046"><ele>345.0</ele><time>2026-04-04T10:55:34.835Z</time></trkpt><trkpt lat="42.0811988" lon="12.7734215"><ele>344.57142857142856</ele><time>2026-04-04T10:55:37.835Z</time></trkpt><trkpt lat="42.0812166" lon="12.7733337"><ele>344.1428571428571</ele><time>2026-04-04T10:55:39.835Z</time></trkpt><trkpt lat="42.0812302" lon="12.7732452"><ele>343.71428571428567</ele><time>2026-04-04T10:55:41.835Z</time></trkpt><trkpt lat="42.0812512" lon="12.7731402"><ele>343.2857142857143</ele><time>2026-04-04T10:55:44.834Z</time></trkpt><trkpt lat="42.0812726" lon="12.7730527"><ele>342.85714285714283</ele><time>2026-04-04T10:55:49.835Z</time></trkpt><trkpt lat="42.0812988" lon="12.7729553"><ele>342.4285714285714</ele><time>2026-04-04T10:55:52.835Z</time></trkpt><trkpt lat="42.0813171" lon="12.7728622"><ele>342.0</ele><time>2026-04-04T10:55:55.834Z</time></trkpt><trkpt lat="42.0813258" lon="12.7727711"><ele>342.0</ele><time>2026-04-04T10:55:58.835Z</time></trkpt><trkpt lat="42.0813567" lon="12.7726814"><ele>342.0</ele><time>2026-04-04T10:56:02.835Z</time></trkpt><trkpt lat="42.0814094" lon="12.7726186"><ele>342.0</ele><time>2026-04-04T10:56:05.835Z</time></trkpt><trkpt lat="42.0814643" lon="12.7725457"><ele>342.0</ele><time>2026-04-04T10:56:08.834Z</time></trkpt><trkpt lat="42.0815306" lon="12.7724508"><ele>342.0</ele><time>2026-04-04T10:56:11.835Z</time></trkpt><trkpt lat="42.0816016" lon="12.7723884"><ele>342.0</ele><time>2026-04-04T10:56:13.834Z</time></trkpt><trkpt lat="42.0816742" lon="12.7723297"><ele>336.5</ele><time>2026-04-04T10:56:15.835Z</time></trkpt><trkpt lat="42.0817482" lon="12.772275"><ele>331.0</ele><time>2026-04-04T10:56:17.835Z</time></trkpt><trkpt lat="42.081813" lon="12.7722292"><ele>325.5</ele><time>2026-04-04T10:56:19.835Z</time></trkpt><trkpt lat="42.0818916" lon="12.772194"><ele>320.0</ele><time>2026-04-04T10:56:21.835Z</time></trkpt><trkpt lat="42.0819681" lon="12.7721594"><ele>314.5</ele><time>2026-04-04T10:56:23.835Z</time></trkpt><trkpt lat="42.0820498" lon="12.7721071"><ele>309.0</ele><time>2026-04-04T10:56:25.835Z</time></trkpt><trkpt lat="42.0821193" lon="12.772049"><ele>309.00000000000006</ele><time>2026-04-04T10:56:27.835Z</time></trkpt><trkpt lat="42.0821761" lon="12.7719959"><ele>309.0</ele><time>2026-04-04T10:56:29.835Z</time></trkpt><trkpt lat="42.0822502" lon="12.7719887"><ele>309.0</ele><time>2026-04-04T10:56:31.835Z</time></trkpt><trkpt lat="42.0823115" lon="12.772014"><ele>309.0</ele><time>2026-04-04T10:56:34.835Z</time></trkpt><trkpt lat="42.0823806" lon="12.771989"><ele>309.0</ele><time>2026-04-04T10:56:48.835Z</time></trkpt><trkpt lat="42.0824202" lon="12.7719094"><ele>309.00000000000006</ele><time>2026-04-04T10:57:04.834Z</time></trkpt><trkpt lat="42.0824677" lon="12.7718211"><ele>309.0</ele><time>2026-04-04T10:57:05.835Z</time></trkpt><trkpt lat="42.0825052" lon="12.7717469"><ele>306.5</ele><time>2026-04-04T10:57:06.835Z</time></trkpt><trkpt lat="42.0825575" lon="12.7716586"><ele>304.0</ele><time>2026-04-04T10:57:07.835Z</time></trkpt><trkpt lat="42.0826057" lon="12.7715617"><ele>301.5</ele><time>2026-04-04T10:57:08.835Z</time></trkpt><trkpt lat="42.0826493" lon="12.7714845"><ele>299.0</ele><time>2026-04-04T10:57:09.835Z</time></trkpt><trkpt lat="42.0826932" lon="12.7714037"><ele>296.5</ele><time>2026-04-04T10:57:10.835Z</time></trkpt><trkpt lat="42.0827288" lon="12.7713305"><ele>294.0</ele><time>2026-04-04T10:57:11.835Z</time></trkpt><trkpt lat="42.0827736" lon="12.7712476"><ele>294.0</ele><time>2026-04-04T10:57:12.834Z</time></trkpt><trkpt lat="42.082826" lon="12.7711937"><ele>294.0</ele><time>2026-04-04T10:57:13.835Z</time></trkpt><trkpt lat="42.0828861" lon="12.7711365"><ele>294.0</ele><time>2026-04-04T10:57:14.835Z</time></trkpt><trkpt lat="42.08296" lon="12.7710852"><ele>294.0</ele><time>2026-04-04T10:57:15.835Z</time></trkpt><trkpt lat="42.0830334" lon="12.7710425"><ele>294.0</ele><time>2026-04-04T10:57:16.835Z</time></trkpt><trkpt lat="42.0831137" lon="12.7709877"><ele>294.0</ele><time>2026-04-04T10:57:17.835Z</time></trkpt><trkpt lat="42.0831855" lon="12.7709328"><ele>294.6666666666667</ele><time>2026-04-04T10:57:18.834Z</time></trkpt><trkpt lat="42.0832579" lon="12.7708652"><ele>295.3333333333333</ele><time>2026-04-04T10:57:19.835Z</time></trkpt><trkpt lat="42.0833357" lon="12.7708057"><ele>296.0</ele><time>2026-04-04T10:57:20.835Z</time></trkpt><trkpt lat="42.0833946" lon="12.7707344"><ele>296.66666666666663</ele><time>2026-04-04T10:57:21.835Z</time></trkpt><trkpt lat="42.0834642" lon="12.7706817"><ele>297.3333333333333</ele><time>2026-04-04T10:57:22.835Z</time></trkpt><trkpt lat="42.0835286" lon="12.7706207"><ele>298.0</ele><time>2026-04-04T10:57:23.835Z</time></trkpt><trkpt lat="42.0835977" lon="12.7705545"><ele>294.5</ele><time>2026-04-04T10:57:24.835Z</time></trkpt><trkpt lat="42.08366" lon="12.7704915"><ele>291.0</ele><time>2026-04-04T10:57:25.835Z</time></trkpt><trkpt lat="42.0837249" lon="12.7704377"><ele>287.5</ele><time>2026-04-04T10:57:26.835Z</time></trkpt><trkpt lat="42.083796" lon="12.7703713"><ele>284.0</ele><time>2026-04-04T10:57:27.835Z</time></trkpt><trkpt lat="42.0838594" lon="12.7703121"><ele>280.5</ele><time>2026-04-04T10:57:28.835Z</time></trkpt><trkpt lat="42.0839321" lon="12.7702554"><ele>277.0</ele><time>2026-04-04T10:57:30.835Z</time></trkpt><trkpt lat="42.0839947" lon="12.7702056"><ele>276.7142857142857</ele><time>2026-04-04T10:57:54.835Z</time></trkpt><trkpt lat="42.0840219" lon="12.7701015"><ele>276.4285714285714</ele><time>2026-04-04T10:57:56.834Z</time></trkpt><trkpt lat="42.0840287" lon="12.7700066"><ele>276.1428571428571</ele><time>2026-04-04T10:57:57.835Z</time></trkpt><trkpt lat="42.0840339" lon="12.7699093"><ele>275.85714285714283</ele><time>2026-04-04T10:57:58.835Z</time></trkpt><trkpt lat="42.0840327" lon="12.7698185"><ele>275.57142857142856</ele><time>2026-04-04T10:57:59.835Z</time></trkpt><trkpt lat="42.0840445" lon="12.769722"><ele>275.2857142857143</ele><time>2026-04-04T10:58:01.835Z</time></trkpt><trkpt lat="42.0840528" lon="12.7696377"><ele>275.0</ele><time>2026-04-04T10:58:05.835Z</time></trkpt><trkpt lat="42.0840024" lon="12.7696988"><ele>275.0</ele><time>2026-04-04T10:58:09.835Z</time></trkpt><trkpt lat="42.0839991" lon="12.7698737"><ele>275.0</ele><time>2026-04-04T10:58:11.835Z</time></trkpt><trkpt lat="42.0839964" lon="12.7700239"><ele>275.0</ele><time>2026-04-04T10:58:13.835Z</time></trkpt><trkpt lat="42.0839912" lon="12.7701492"><ele>275.0</ele><time>2026-04-04T10:58:15.835Z</time></trkpt><trkpt lat="42.083944" lon="12.7702439"><ele>275.0</ele><time>2026-04-04T10:58:19.835Z</time></trkpt><trkpt lat="42.0838736" lon="12.7702963"><ele>275.4</ele><time>2026-04-04T10:58:21.835Z</time></trkpt><trkpt lat="42.083792" lon="12.7703733"><ele>275.8</ele><time>2026-04-04T10:58:23.834Z</time></trkpt><trkpt lat="42.0837029" lon="12.7704538"><ele>276.2</ele><time>2026-04-04T10:58:25.835Z</time></trkpt><trkpt lat="42.0836158" lon="12.7705396"><ele>276.6</ele><time>2026-04-04T10:58:27.835Z</time></trkpt><trkpt lat="42.0835625" lon="12.7705943"><ele>277.0</ele><time>2026-04-04T10:58:28.835Z</time></trkpt><trkpt lat="42.0835042" lon="12.7706452"><ele>277.0</ele><time>2026-04-04T10:58:29.835Z</time></trkpt><trkpt lat="42.0834487" lon="12.7706966"><ele>277.0</ele><time>2026-04-04T10:58:30.835Z</time></trkpt><trkpt lat="42.0833887" lon="12.7707535"><ele>277.0</ele><time>2026-04-04T10:58:31.835Z</time></trkpt><trkpt lat="42.0833313" lon="12.770808"><ele>277.0</ele><time>2026-04-04T10:58:32.834Z</time></trkpt><trkpt lat="42.0832745" lon="12.7708645"><ele>277.0</ele><time>2026-04-04T10:58:33.835Z</time></trkpt><trkpt lat="42.0832026" lon="12.7709261"><ele>277.0</ele><time>2026-04-04T10:58:34.835Z</time></trkpt><trkpt lat="42.0831157" lon="12.770995"><ele>279.8333333333333</ele><time>2026-04-04T10:58:35.835Z</time></trkpt><trkpt lat="42.083036" lon="12.7710398"><ele>282.66666666666663</ele><time>2026-04-04T10:58:36.835Z</time></trkpt><trkpt lat="42.0829688" lon="12.771081"><ele>285.5</ele><time>2026-04-04T10:58:37.834Z</time></trkpt><trkpt lat="42.0829013" lon="12.7711306"><ele>288.3333333333333</ele><time>2026-04-04T10:58:38.835Z</time></trkpt><trkpt lat="42.0828029" lon="12.7712303"><ele>291.1666666666667</ele><time>2026-04-04T10:58:40.834Z</time></trkpt><trkpt lat="42.0827587" lon="12.7713141"><ele>294.0</ele><time>2026-04-04T10:58:41.834Z</time></trkpt><trkpt lat="42.0827026" lon="12.7714108"><ele>294.0</ele><time>2026-04-04T10:58:42.835Z</time></trkpt><trkpt lat="42.0826611" lon="12.7715176"><ele>294.0</ele><time>2026-04-04T10:58:43.835Z</time></trkpt><trkpt lat="42.0825953" lon="12.7716264"><ele>294.0</ele><time>2026-04-04T10:58:44.834Z</time></trkpt><trkpt lat="42.0825405" lon="12.7717324"><ele>294.0</ele><time>2026-04-04T10:58:45.835Z</time></trkpt><trkpt lat="42.0824784" lon="12.77182"><ele>294.0</ele><time>2026-04-04T10:58:46.834Z</time></trkpt><trkpt lat="42.0824407" lon="12.771897"><ele>294.0</ele><time>2026-04-04T10:58:47.835Z</time></trkpt><trkpt lat="42.0823661" lon="12.7720128"><ele>295.8333333333333</ele><time>2026-04-04T10:58:49.835Z</time></trkpt><trkpt lat="42.0823353" lon="12.7721533"><ele>297.6666666666667</ele><time>2026-04-04T10:58:51.835Z</time></trkpt><trkpt lat="42.0823167" lon="12.7722456"><ele>299.5</ele><time>2026-04-04T10:58:53.835Z</time></trkpt><trkpt lat="42.0822947" lon="12.772339"><ele>301.33333333333337</ele><time>2026-04-04T10:59:10.834Z</time></trkpt><trkpt lat="42.0822682" lon="12.7724616"><ele>303.1666666666667</ele><time>2026-04-04T10:59:12.835Z</time></trkpt><trkpt lat="42.0822402" lon="12.7725395"><ele>305.0</ele><time>2026-04-04T10:59:13.835Z</time></trkpt><trkpt lat="42.0822032" lon="12.7727017"><ele>305.0</ele><time>2026-04-04T10:59:15.835Z</time></trkpt><trkpt lat="42.0821851" lon="12.7728831"><ele>305.0</ele><time>2026-04-04T10:59:17.834Z</time></trkpt><trkpt lat="42.0821773" lon="12.7729833"><ele>305.0</ele><time>2026-04-04T10:59:18.835Z</time></trkpt><trkpt lat="42.0821807" lon="12.7730725"><ele>305.0</ele><time>2026-04-04T10:59:19.835Z</time></trkpt><trkpt lat="42.0821853" lon="12.7731666"><ele>305.0</ele><time>2026-04-04T10:59:20.835Z</time></trkpt><trkpt lat="42.0822199" lon="12.7732652"><ele>305.0</ele><time>2026-04-04T10:59:21.835Z</time></trkpt><trkpt lat="42.0822432" lon="12.7733495"><ele>305.0</ele><time>2026-04-04T10:59:22.835Z</time></trkpt><trkpt lat="42.082279" lon="12.7735097"><ele>305.0</ele><time>2026-04-04T10:59:24.835Z</time></trkpt><trkpt lat="42.0822941" lon="12.7736915"><ele>305.0</ele><time>2026-04-04T10:59:26.835Z</time></trkpt><trkpt lat="42.082294" lon="12.773786"><ele>305.0</ele><time>2026-04-04T10:59:27.835Z</time></trkpt><trkpt lat="42.082307" lon="12.7738945"><ele>305.0</ele><time>2026-04-04T10:59:28.835Z</time></trkpt><trkpt lat="42.0823131" lon="12.773985"><ele>305.0</ele><time>2026-04-04T10:59:29.835Z</time></trkpt><trkpt lat="42.0823378" lon="12.7740713"><ele>305.0</ele><time>2026-04-04T10:59:30.835Z</time></trkpt><trkpt lat="42.0823733" lon="12.7741507"><ele>305.0</ele><time>2026-04-04T10:59:31.834Z</time></trkpt><trkpt lat="42.0824159" lon="12.7743048"><ele>305.0</ele><time>2026-04-04T10:59:33.835Z</time></trkpt><trkpt lat="42.0824445" lon="12.7743853"><ele>305.0</ele><time>2026-04-04T10:59:34.835Z</time></trkpt><trkpt lat="42.0824799" lon="12.774482"><ele>305.0</ele><time>2026-04-04T10:59:35.835Z</time></trkpt><trkpt lat="42.0825063" lon="12.7745741"><ele>301.0</ele><time>2026-04-04T10:59:36.835Z</time></trkpt><trkpt lat="42.0825282" lon="12.7746652"><ele>297.0</ele><time>2026-04-04T10:59:37.835Z</time></trkpt><trkpt lat="42.0825574" lon="12.7747622"><ele>293.0</ele><time>2026-04-04T10:59:38.835Z</time></trkpt><trkpt lat="42.0825827" lon="12.7748435"><ele>289.0</ele><time>2026-04-04T10:59:39.835Z</time></trkpt><trkpt lat="42.0826279" lon="12.7749638"><ele>285.0</ele><time>2026-04-04T10:59:41.835Z</time></trkpt><trkpt lat="42.0826752" lon="12.775066"><ele>281.0</ele><time>2026-04-04T10:59:43.835Z</time></trkpt><trkpt lat="42.0827251" lon="12.7751225"><ele>281.5</ele><time>2026-04-04T10:59:44.835Z</time></trkpt><trkpt lat="42.0827894" lon="12.7752055"><ele>282.0</ele><time>2026-04-04T10:59:45.835Z</time></trkpt><trkpt lat="42.0828458" lon="12.7752797"><ele>282.5</ele><time>2026-04-04T10:59:46.835Z</time></trkpt><trkpt lat="42.0829008" lon="12.7753497"><ele>283.0</ele><time>2026-04-04T10:59:47.835Z</time></trkpt><trkpt lat="42.0829609" lon="12.7754272"><ele>283.5</ele><time>2026-04-04T10:59:48.835Z</time></trkpt><trkpt lat="42.0830286" lon="12.7755091"><ele>284.0</ele><time>2026-04-04T10:59:49.835Z</time></trkpt><trkpt lat="42.083079" lon="12.7755743"><ele>284.0</ele><time>2026-04-04T10:59:50.835Z</time></trkpt><trkpt lat="42.0831626" lon="12.7756825"><ele>284.0</ele><time>2026-04-04T10:59:52.835Z</time></trkpt><trkpt lat="42.0832093" lon="12.7757448"><ele>284.0</ele><time>2026-04-04T10:59:53.835Z</time></trkpt><trkpt lat="42.0832666" lon="12.7758179"><ele>284.0</ele><time>2026-04-04T10:59:54.835Z</time></trkpt><trkpt lat="42.0833206" lon="12.7758827"><ele>284.0</ele><time>2026-04-04T10:59:55.835Z</time></trkpt><trkpt lat="42.0833748" lon="12.7759419"><ele>284.0</ele><time>2026-04-04T10:59:56.835Z</time></trkpt><trkpt lat="42.0834279" lon="12.7760025"><ele>282.8</ele><time>2026-04-04T10:59:57.835Z</time></trkpt><trkpt lat="42.0834825" lon="12.7760564"><ele>281.59999999999997</ele><time>2026-04-04T10:59:58.835Z</time></trkpt><trkpt lat="42.0835773" lon="12.7761325"><ele>280.4</ele><time>2026-04-04T11:00:00.835Z</time></trkpt><trkpt lat="42.0836606" lon="12.7762418"><ele>279.2</ele><time>2026-04-04T11:00:02.835Z</time></trkpt><trkpt lat="42.0837027" lon="12.7763107"><ele>278.0</ele><time>2026-04-04T11:00:03.835Z</time></trkpt><trkpt lat="42.0837641" lon="12.7764067"><ele>278.0</ele><time>2026-04-04T11:00:05.835Z</time></trkpt><trkpt lat="42.0838051" lon="12.776493"><ele>278.0</ele><time>2026-04-04T11:00:08.835Z</time></trkpt><trkpt lat="42.0838724" lon="12.7765432"><ele>278.0</ele><time>2026-04-04T11:00:10.835Z</time></trkpt><trkpt lat="42.0839445" lon="12.7765661"><ele>278.0</ele><time>2026-04-04T11:00:13.835Z</time></trkpt><trkpt lat="42.0840199" lon="12.7766002"><ele>278.0</ele><time>2026-04-04T11:00:16.835Z</time></trkpt><trkpt lat="42.0840822" lon="12.7766393"><ele>278.0</ele><time>2026-04-04T11:00:47.835Z</time></trkpt><trkpt lat="42.0841431" lon="12.7767204"><ele>277.5</ele><time>2026-04-04T11:00:51.835Z</time></trkpt><trkpt lat="42.084213" lon="12.7767536"><ele>277.0</ele><time>2026-04-04T11:00:53.835Z</time></trkpt><trkpt lat="42.0842883" lon="12.776788"><ele>276.5</ele><time>2026-04-04T11:00:55.835Z</time></trkpt><trkpt lat="42.0843368" lon="12.776859"><ele>276.0</ele><time>2026-04-04T11:00:57.835Z</time></trkpt><trkpt lat="42.0843509" lon="12.7769553"><ele>275.5</ele><time>2026-04-04T11:01:00.835Z</time></trkpt><trkpt lat="42.0842899" lon="12.7771147"><ele>275.0</ele><time>2026-04-04T11:01:02.835Z</time></trkpt><trkpt lat="42.0842463" lon="12.7771979"><ele>275.0</ele><time>2026-04-04T11:01:03.835Z</time></trkpt><trkpt lat="42.0841958" lon="12.777333"><ele>275.0</ele><time>2026-04-04T11:01:05.834Z</time></trkpt><trkpt lat="42.0841668" lon="12.7774327"><ele>275.0</ele><time>2026-04-04T11:01:07.835Z</time></trkpt><trkpt lat="42.0841953" lon="12.7773538"><ele>275.0</ele><time>2026-04-04T11:01:20.835Z</time></trkpt><trkpt lat="42.0842437" lon="12.7772154"><ele>275.0</ele><time>2026-04-04T11:01:22.835Z</time></trkpt><trkpt lat="42.0843127" lon="12.7770963"><ele>275.0</ele><time>2026-04-04T11:01:24.835Z</time></trkpt><trkpt lat="42.0843598" lon="12.7769798"><ele>275.0</ele><time>2026-04-04T11:01:26.835Z</time></trkpt><trkpt lat="42.0844203" lon="12.7769263"><ele>275.0</ele><time>2026-04-04T11:01:29.835Z</time></trkpt><trkpt lat="42.0844861" lon="12.7769794"><ele>275.0</ele><time>2026-04-04T11:01:32.835Z</time></trkpt><trkpt lat="42.0845567" lon="12.7770979"><ele>275.0</ele><time>2026-04-04T11:01:35.835Z</time></trkpt><trkpt lat="42.0846066" lon="12.7771812"><ele>275.0</ele><time>2026-04-04T11:01:36.835Z</time></trkpt><trkpt lat="42.084658" lon="12.7772676"><ele>275.0</ele><time>2026-04-04T11:01:37.835Z</time></trkpt><trkpt lat="42.0846991" lon="12.7773429"><ele>275.0</ele><time>2026-04-04T11:01:38.835Z</time></trkpt><trkpt lat="42.0847511" lon="12.7774318"><ele>275.0</ele><time>2026-04-04T11:01:40.835Z</time></trkpt><trkpt lat="42.0848172" lon="12.7775267"><ele>275.0</ele><time>2026-04-04T11:02:00.835Z</time></trkpt><trkpt lat="42.0848819" lon="12.777637"><ele>275.0</ele><time>2026-04-04T11:02:02.835Z</time></trkpt><trkpt lat="42.0849382" lon="12.777726"><ele>275.0</ele><time>2026-04-04T11:02:04.834Z</time></trkpt><trkpt lat="42.08499" lon="12.777801"><ele>274.6666666666667</ele><time>2026-04-04T11:02:06.835Z</time></trkpt><trkpt lat="42.0850375" lon="12.7779559"><ele>274.33333333333337</ele><time>2026-04-04T11:02:08.835Z</time></trkpt><trkpt lat="42.0850687" lon="12.7780435"><ele>274.0</ele><time>2026-04-04T11:02:09.835Z</time></trkpt><trkpt lat="42.08509" lon="12.7781289"><ele>273.6666666666667</ele><time>2026-04-04T11:02:10.835Z</time></trkpt><trkpt lat="42.0851122" lon="12.7782764"><ele>273.3333333333333</ele><time>2026-04-04T11:02:12.835Z</time></trkpt><trkpt lat="42.0851251" lon="12.7783706"><ele>273.0</ele><time>2026-04-04T11:02:13.835Z</time></trkpt><trkpt lat="42.0851349" lon="12.7784614"><ele>273.85714285714283</ele><time>2026-04-04T11:02:14.835Z</time></trkpt><trkpt lat="42.0851538" lon="12.7785481"><ele>274.7142857142857</ele><time>2026-04-04T11:02:15.835Z</time></trkpt><trkpt lat="42.0851772" lon="12.7786391"><ele>275.57142857142856</ele><time>2026-04-04T11:02:16.835Z</time></trkpt><trkpt lat="42.085207" lon="12.778731"><ele>276.42857142857144</ele><time>2026-04-04T11:02:17.835Z</time></trkpt><trkpt lat="42.085221" lon="12.7788221"><ele>277.2857142857143</ele><time>2026-04-04T11:02:18.834Z</time></trkpt><trkpt lat="42.0852304" lon="12.7789224"><ele>278.1428571428571</ele><time>2026-04-04T11:02:19.835Z</time></trkpt><trkpt lat="42.0852479" lon="12.7790303"><ele>279.0</ele><time>2026-04-04T11:02:20.835Z</time></trkpt><trkpt lat="42.0852649" lon="12.7791384"><ele>279.0</ele><time>2026-04-04T11:02:21.835Z</time></trkpt><trkpt lat="42.0852682" lon="12.7792469"><ele>279.0</ele><time>2026-04-04T11:02:22.835Z</time></trkpt><trkpt lat="42.0852737" lon="12.7793569"><ele>279.0</ele><time>2026-04-04T11:02:23.835Z</time></trkpt><trkpt lat="42.085283" lon="12.7794788"><ele>279.0</ele><time>2026-04-04T11:02:24.835Z</time></trkpt><trkpt lat="42.0852829" lon="12.7795715"><ele>279.0</ele><time>2026-04-04T11:02:25.835Z</time></trkpt><trkpt lat="42.0852433" lon="12.779723"><ele>279.0</ele><time>2026-04-04T11:02:27.835Z</time></trkpt><trkpt lat="42.0852104" lon="12.7798164"><ele>279.3333333333333</ele><time>2026-04-04T11:02:28.835Z</time></trkpt><trkpt lat="42.0851644" lon="12.7798956"><ele>279.6666666666667</ele><time>2026-04-04T11:02:29.835Z</time></trkpt><trkpt lat="42.0851308" lon="12.7799704"><ele>280.0</ele><time>2026-04-04T11:02:30.835Z</time></trkpt><trkpt lat="42.0850974" lon="12.7800543"><ele>280.33333333333337</ele><time>2026-04-04T11:02:31.835Z</time></trkpt><trkpt lat="42.0850753" lon="12.7801365"><ele>280.6666666666667</ele><time>2026-04-04T11:02:32.835Z</time></trkpt><trkpt lat="42.0850396" lon="12.7802721"><ele>281.0</ele><time>2026-04-04T11:02:34.835Z</time></trkpt><trkpt lat="42.0850262" lon="12.7803823"><ele>281.40000000000003</ele><time>2026-04-04T11:02:37.835Z</time></trkpt><trkpt lat="42.085007" lon="12.7805402"><ele>281.8</ele><time>2026-04-04T11:02:39.835Z</time></trkpt><trkpt lat="42.0849969" lon="12.7806452"><ele>282.20000000000005</ele><time>2026-04-04T11:02:40.835Z</time></trkpt><trkpt lat="42.084987" lon="12.7807461"><ele>282.6</ele><time>2026-04-04T11:02:41.834Z</time></trkpt><trkpt lat="42.0849781" lon="12.7808759"><ele>283.0</ele><time>2026-04-04T11:02:42.835Z</time></trkpt><trkpt lat="42.0849689" lon="12.7809962"><ele>284.5</ele><time>2026-04-04T11:02:43.835Z</time></trkpt><trkpt lat="42.0849612" lon="12.7811117"><ele>286.0</ele><time>2026-04-04T11:02:44.835Z</time></trkpt><trkpt lat="42.0849427" lon="12.7812257"><ele>287.5</ele><time>2026-04-04T11:02:45.835Z</time></trkpt><trkpt lat="42.084928" lon="12.7813347"><ele>289.0</ele><time>2026-04-04T11:02:46.835Z</time></trkpt><trkpt lat="42.084918" lon="12.7814473"><ele>290.5</ele><time>2026-04-04T11:02:47.835Z</time></trkpt><trkpt lat="42.0849083" lon="12.7815626"><ele>292.0</ele><time>2026-04-04T11:02:48.835Z</time></trkpt><trkpt lat="42.084893" lon="12.781682"><ele>292.0</ele><time>2026-04-04T11:02:49.835Z</time></trkpt><trkpt lat="42.0848849" lon="12.7817994"><ele>292.0</ele><time>2026-04-04T11:02:50.835Z</time></trkpt><trkpt lat="42.084869" lon="12.7819113"><ele>292.0</ele><time>2026-04-04T11:02:51.835Z</time></trkpt><trkpt lat="42.0848466" lon="12.7820153"><ele>292.0</ele><time>2026-04-04T11:02:52.835Z</time></trkpt><trkpt lat="42.084818" lon="12.7821137"><ele>292.0</ele><time>2026-04-04T11:02:53.834Z</time></trkpt><trkpt lat="42.0847884" lon="12.7822166"><ele>292.0</ele><time>2026-04-04T11:02:54.835Z</time></trkpt><trkpt lat="42.0847483" lon="12.7823364"><ele>293.6</ele><time>2026-04-04T11:02:55.835Z</time></trkpt><trkpt lat="42.0847085" lon="12.7824402"><ele>295.2</ele><time>2026-04-04T11:02:56.835Z</time></trkpt><trkpt lat="42.0846656" lon="12.7825521"><ele>296.8</ele><time>2026-04-04T11:02:57.835Z</time></trkpt><trkpt lat="42.0846216" lon="12.782663"><ele>298.4</ele><time>2026-04-04T11:02:58.835Z</time></trkpt><trkpt lat="42.084579" lon="12.7827726"><ele>300.0</ele><time>2026-04-04T11:02:59.835Z</time></trkpt><trkpt lat="42.0845339" lon="12.7828921"><ele>301.5</ele><time>2026-04-04T11:03:00.835Z</time></trkpt><trkpt lat="42.084495" lon="12.7830013"><ele>303.0</ele><time>2026-04-04T11:03:01.835Z</time></trkpt><trkpt lat="42.0844516" lon="12.7831028"><ele>304.5</ele><time>2026-04-04T11:03:02.835Z</time></trkpt><trkpt lat="42.0844191" lon="12.7831802"><ele>306.0</ele><time>2026-04-04T11:03:03.835Z</time></trkpt><trkpt lat="42.0843711" lon="12.7832995"><ele>307.5</ele><time>2026-04-04T11:03:05.835Z</time></trkpt><trkpt lat="42.0843334" lon="12.7834006"><ele>309.0</ele><time>2026-04-04T11:03:07.835Z</time></trkpt><trkpt lat="42.0842949" lon="12.7834851"><ele>309.0</ele><time>2026-04-04T11:03:10.835Z</time></trkpt><trkpt lat="42.0843468" lon="12.7833952"><ele>309.0</ele><time>2026-04-04T11:03:37.835Z</time></trkpt><trkpt lat="42.0843892" lon="12.7833057"><ele>309.0</ele><time>2026-04-04T11:03:40.835Z</time></trkpt><trkpt lat="42.08443" lon="12.7832078"><ele>309.0</ele><time>2026-04-04T11:03:42.835Z</time></trkpt><trkpt lat="42.0844824" lon="12.783071"><ele>309.0</ele><time>2026-04-04T11:03:44.835Z</time></trkpt><trkpt lat="42.0845389" lon="12.7829217"><ele>309.00000000000006</ele><time>2026-04-04T11:03:46.834Z</time></trkpt><trkpt lat="42.0845692" lon="12.7828435"><ele>309.0</ele><time>2026-04-04T11:03:47.835Z</time></trkpt><trkpt lat="42.0846007" lon="12.782762"><ele>309.0</ele><time>2026-04-04T11:03:48.835Z</time></trkpt><trkpt lat="42.0846354" lon="12.7826887"><ele>309.0</ele><time>2026-04-04T11:03:49.835Z</time></trkpt><trkpt lat="42.0846678" lon="12.782612"><ele>309.0</ele><time>2026-04-04T11:03:50.835Z</time></trkpt><trkpt lat="42.0847032" lon="12.7825363"><ele>309.00000000000006</ele><time>2026-04-04T11:03:51.835Z</time></trkpt><trkpt lat="42.0847277" lon="12.7824533"><ele>309.0</ele><time>2026-04-04T11:03:52.835Z</time></trkpt><trkpt lat="42.0847526" lon="12.782369"><ele>307.2</ele><time>2026-04-04T11:03:53.834Z</time></trkpt><trkpt lat="42.0848052" lon="12.7822174"><ele>305.4</ele><time>2026-04-04T11:03:55.835Z</time></trkpt><trkpt lat="42.0848321" lon="12.7821396"><ele>303.6</ele><time>2026-04-04T11:03:56.835Z</time></trkpt><trkpt lat="42.0848656" lon="12.7819785"><ele>301.8</ele><time>2026-04-04T11:03:58.835Z</time></trkpt><trkpt lat="42.0848866" lon="12.7818133"><ele>300.0</ele><time>2026-04-04T11:04:00.835Z</time></trkpt><trkpt lat="42.084907" lon="12.7816626"><ele>298.6666666666667</ele><time>2026-04-04T11:04:02.835Z</time></trkpt><trkpt lat="42.0849222" lon="12.7815415"><ele>297.3333333333333</ele><time>2026-04-04T11:04:04.835Z</time></trkpt><trkpt lat="42.0849322" lon="12.7814566"><ele>296.0</ele><time>2026-04-04T11:04:06.835Z</time></trkpt><trkpt lat="42.084938" lon="12.781365"><ele>294.66666666666663</ele><time>2026-04-04T11:04:08.835Z</time></trkpt><trkpt lat="42.0849501" lon="12.7812588"><ele>293.3333333333333</ele><time>2026-04-04T11:04:11.835Z</time></trkpt><trkpt lat="42.0849597" lon="12.781165"><ele>292.0</ele><time>2026-04-04T11:04:14.835Z</time></trkpt><trkpt lat="42.0849768" lon="12.781047"><ele>290.7142857142857</ele><time>2026-04-04T11:04:17.835Z</time></trkpt><trkpt lat="42.0849888" lon="12.7809567"><ele>289.42857142857144</ele><time>2026-04-04T11:04:19.835Z</time></trkpt><trkpt lat="42.0849931" lon="12.7808663"><ele>288.14285714285717</ele><time>2026-04-04T11:04:21.835Z</time></trkpt><trkpt lat="42.0849992" lon="12.7807697"><ele>286.8571428571429</ele><time>2026-04-04T11:04:23.835Z</time></trkpt><trkpt lat="42.0850078" lon="12.7806735"><ele>285.5714285714286</ele><time>2026-04-04T11:04:25.835Z</time></trkpt><trkpt lat="42.0850195" lon="12.7805806"><ele>284.2857142857143</ele><time>2026-04-04T11:04:27.835Z</time></trkpt><trkpt lat="42.0850504" lon="12.7804694"><ele>283.0</ele><time>2026-04-04T11:04:30.834Z</time></trkpt><trkpt lat="42.0850694" lon="12.7803874"><ele>283.0</ele><time>2026-04-04T11:05:06.835Z</time></trkpt><trkpt lat="42.0850605" lon="12.7802743"><ele>283.0</ele><time>2026-04-04T11:05:11.835Z</time></trkpt><trkpt lat="42.0851" lon="12.7800855"><ele>283.0</ele><time>2026-04-04T11:05:13.835Z</time></trkpt><trkpt lat="42.0851347" lon="12.7799967"><ele>283.0</ele><time>2026-04-04T11:05:14.835Z</time></trkpt><trkpt lat="42.0851798" lon="12.7799119"><ele>283.0</ele><time>2026-04-04T11:05:15.835Z</time></trkpt><trkpt lat="42.0852201" lon="12.7798285"><ele>282.66666666666663</ele><time>2026-04-04T11:05:16.834Z</time></trkpt><trkpt lat="42.0852548" lon="12.7797425"><ele>282.3333333333333</ele><time>2026-04-04T11:05:17.835Z</time></trkpt><trkpt lat="42.0852813" lon="12.7796593"><ele>282.0</ele><time>2026-04-04T11:05:18.835Z</time></trkpt><trkpt lat="42.0852931" lon="12.7794849"><ele>281.6666666666667</ele><time>2026-04-04T11:05:20.835Z</time></trkpt><trkpt lat="42.0852865" lon="12.7793785"><ele>281.33333333333337</ele><time>2026-04-04T11:05:21.835Z</time></trkpt><trkpt lat="42.0852935" lon="12.7792687"><ele>281.0</ele><time>2026-04-04T11:05:22.835Z</time></trkpt><trkpt lat="42.0852822" lon="12.7791711"><ele>280.6666666666667</ele><time>2026-04-04T11:05:23.834Z</time></trkpt><trkpt lat="42.0852711" lon="12.7790783"><ele>280.33333333333337</ele><time>2026-04-04T11:05:24.835Z</time></trkpt><trkpt lat="42.0852592" lon="12.7789871"><ele>280.0</ele><time>2026-04-04T11:05:25.835Z</time></trkpt><trkpt lat="42.0852523" lon="12.7788956"><ele>279.6666666666667</ele><time>2026-04-04T11:05:26.835Z</time></trkpt><trkpt lat="42.0852395" lon="12.7787997"><ele>279.3333333333333</ele><time>2026-04-04T11:05:27.835Z</time></trkpt><trkpt lat="42.085197" lon="12.778645"><ele>279.0</ele><time>2026-04-04T11:05:29.835Z</time></trkpt><trkpt lat="42.0851519" lon="12.7785085"><ele>278.0</ele><time>2026-04-04T11:05:31.835Z</time></trkpt><trkpt lat="42.0851169" lon="12.7783488"><ele>277.0</ele><time>2026-04-04T11:05:33.835Z</time></trkpt><trkpt lat="42.085099" lon="12.7782613"><ele>276.0</ele><time>2026-04-04T11:05:34.835Z</time></trkpt><trkpt lat="42.0850908" lon="12.7781652"><ele>275.0</ele><time>2026-04-04T11:05:35.835Z</time></trkpt><trkpt lat="42.0850716" lon="12.7780829"><ele>274.0</ele><time>2026-04-04T11:05:36.835Z</time></trkpt><trkpt lat="42.0850483" lon="12.7780014"><ele>273.0</ele><time>2026-04-04T11:05:37.835Z</time></trkpt><trkpt lat="42.0850203" lon="12.777875"><ele>273.0</ele><time>2026-04-04T11:05:39.835Z</time></trkpt><trkpt lat="42.0850497" lon="12.7777823"><ele>273.0</ele><time>2026-04-04T11:05:41.835Z</time></trkpt><trkpt lat="42.0851338" lon="12.7777173"><ele>273.0</ele><time>2026-04-04T11:05:43.834Z</time></trkpt><trkpt lat="42.0852434" lon="12.7776533"><ele>273.0</ele><time>2026-04-04T11:05:45.835Z</time></trkpt><trkpt lat="42.0853016" lon="12.7776145"><ele>273.0</ele><time>2026-04-04T11:05:46.834Z</time></trkpt><trkpt lat="42.0853681" lon="12.7775538"><ele>273.0</ele><time>2026-04-04T11:05:47.835Z</time></trkpt><trkpt lat="42.0854444" lon="12.7774948"><ele>272.6</ele><time>2026-04-04T11:05:48.835Z</time></trkpt><trkpt lat="42.08552" lon="12.7774307"><ele>272.20000000000005</ele><time>2026-04-04T11:05:49.835Z</time></trkpt><trkpt lat="42.0856038" lon="12.7773541"><ele>271.8</ele><time>2026-04-04T11:05:50.835Z</time></trkpt><trkpt lat="42.0856842" lon="12.7772766"><ele>271.40000000000003</ele><time>2026-04-04T11:05:51.835Z</time></trkpt><trkpt lat="42.0857651" lon="12.7772065"><ele>271.0</ele><time>2026-04-04T11:05:52.834Z</time></trkpt><trkpt lat="42.0858128" lon="12.7771388"><ele>272.66666666666663</ele><time>2026-04-04T11:05:53.835Z</time></trkpt><trkpt lat="42.0858697" lon="12.7770617"><ele>274.3333333333333</ele><time>2026-04-04T11:05:54.835Z</time></trkpt><trkpt lat="42.085901" lon="12.7769674"><ele>276.0</ele><time>2026-04-04T11:05:55.835Z</time></trkpt><trkpt lat="42.085942" lon="12.7768757"><ele>277.6666666666667</ele><time>2026-04-04T11:05:56.835Z</time></trkpt><trkpt lat="42.0859616" lon="12.7767816"><ele>279.33333333333337</ele><time>2026-04-04T11:05:57.835Z</time></trkpt><trkpt lat="42.0859748" lon="12.7766809"><ele>281.0</ele><time>2026-04-04T11:05:58.835Z</time></trkpt><trkpt lat="42.0859867" lon="12.7765743"><ele>281.5</ele><time>2026-04-04T11:05:59.834Z</time></trkpt><trkpt lat="42.0859841" lon="12.7764735"><ele>282.0</ele><time>2026-04-04T11:06:00.835Z</time></trkpt><trkpt lat="42.0860004" lon="12.7763758"><ele>282.5</ele><time>2026-04-04T11:06:01.834Z</time></trkpt><trkpt lat="42.0860341" lon="12.7762695"><ele>283.0</ele><time>2026-04-04T11:06:02.835Z</time></trkpt><trkpt lat="42.0860773" lon="12.7761598"><ele>283.5</ele><time>2026-04-04T11:06:03.835Z</time></trkpt><trkpt lat="42.0861352" lon="12.7760432"><ele>284.0</ele><time>2026-04-04T11:06:04.835Z</time></trkpt><trkpt lat="42.0861953" lon="12.7759247"><ele>284.0</ele><time>2026-04-04T11:06:05.835Z</time></trkpt><trkpt lat="42.0862502" lon="12.7758081"><ele>284.0</ele><time>2026-04-04T11:06:06.834Z</time></trkpt><trkpt lat="42.086302" lon="12.7757002"><ele>284.0</ele><time>2026-04-04T11:06:07.835Z</time></trkpt><trkpt lat="42.0863429" lon="12.775606"><ele>284.0</ele><time>2026-04-04T11:06:08.835Z</time></trkpt><trkpt lat="42.0863806" lon="12.7755295"><ele>284.0</ele><time>2026-04-04T11:06:09.835Z</time></trkpt><trkpt lat="42.0864304" lon="12.775455"><ele>284.0</ele><time>2026-04-04T11:06:10.835Z</time></trkpt><trkpt lat="42.0865002" lon="12.7753614"><ele>284.0</ele><time>2026-04-04T11:06:12.835Z</time></trkpt><trkpt lat="42.0865539" lon="12.7752701"><ele>284.0</ele><time>2026-04-04T11:06:14.835Z</time></trkpt><trkpt lat="42.0865911" lon="12.7751888"><ele>284.0</ele><time>2026-04-04T11:06:29.835Z</time></trkpt><trkpt lat="42.0866878" lon="12.7752229"><ele>284.0</ele><time>2026-04-04T11:06:32.835Z</time></trkpt><trkpt lat="42.0867724" lon="12.775261"><ele>284.0</ele><time>2026-04-04T11:06:35.835Z</time></trkpt><trkpt lat="42.0868312" lon="12.775296"><ele>284.0</ele><time>2026-04-04T11:06:37.834Z</time></trkpt><trkpt lat="42.0869218" lon="12.775355"><ele>283.2</ele><time>2026-04-04T11:06:39.835Z</time></trkpt><trkpt lat="42.0870252" lon="12.7754631"><ele>282.4</ele><time>2026-04-04T11:06:41.835Z</time></trkpt><trkpt lat="42.0870919" lon="12.7755283"><ele>281.6</ele><time>2026-04-04T11:06:42.835Z</time></trkpt><trkpt lat="42.0871688" lon="12.7756014"><ele>280.8</ele><time>2026-04-04T11:06:43.834Z</time></trkpt><trkpt lat="42.0872507" lon="12.7756749"><ele>280.0</ele><time>2026-04-04T11:06:44.835Z</time></trkpt><trkpt lat="42.0873471" lon="12.77576"><ele>278.25</ele><time>2026-04-04T11:06:45.835Z</time></trkpt><trkpt lat="42.08745" lon="12.7758431"><ele>276.5</ele><time>2026-04-04T11:06:46.835Z</time></trkpt><trkpt lat="42.0875637" lon="12.7759146"><ele>274.75</ele><time>2026-04-04T11:06:47.835Z</time></trkpt><trkpt lat="42.0876909" lon="12.775974"><ele>273.0</ele><time>2026-04-04T11:06:48.835Z</time></trkpt><trkpt lat="42.0878226" lon="12.7760128"><ele>273.0</ele><time>2026-04-04T11:06:49.835Z</time></trkpt><trkpt lat="42.087954" lon="12.7760372"><ele>273.0</ele><time>2026-04-04T11:06:50.835Z</time></trkpt><trkpt lat="42.088083" lon="12.7760303"><ele>273.0</ele><time>2026-04-04T11:06:51.835Z</time></trkpt><trkpt lat="42.088204" lon="12.7759767"><ele>273.0</ele><time>2026-04-04T11:06:52.835Z</time></trkpt><trkpt lat="42.0883158" lon="12.7758752"><ele>272.5</ele><time>2026-04-04T11:06:53.835Z</time></trkpt><trkpt lat="42.0884164" lon="12.7757469"><ele>272.0</ele><time>2026-04-04T11:06:54.835Z</time></trkpt><trkpt lat="42.0885158" lon="12.7756169"><ele>271.5</ele><time>2026-04-04T11:06:55.835Z</time></trkpt><trkpt lat="42.0886134" lon="12.7754873"><ele>271.0</ele><time>2026-04-04T11:06:56.835Z</time></trkpt><trkpt lat="42.0887072" lon="12.7753725"><ele>271.0</ele><time>2026-04-04T11:06:57.835Z</time></trkpt><trkpt lat="42.0888022" lon="12.775279"><ele>271.0</ele><time>2026-04-04T11:06:58.835Z</time></trkpt><trkpt lat="42.0889205" lon="12.7752009"><ele>271.0</ele><time>2026-04-04T11:06:59.835Z</time></trkpt><trkpt lat="42.0890525" lon="12.775128"><ele>271.0</ele><time>2026-04-04T11:07:00.835Z</time></trkpt><trkpt lat="42.0891694" lon="12.7750626"><ele>270.75</ele><time>2026-04-04T11:07:01.835Z</time></trkpt><trkpt lat="42.0892847" lon="12.7750053"><ele>270.5</ele><time>2026-04-04T11:07:02.835Z</time></trkpt><trkpt lat="42.0893903" lon="12.7749573"><ele>270.25</ele><time>2026-04-04T11:07:03.835Z</time></trkpt><trkpt lat="42.0894988" lon="12.7749178"><ele>270.0</ele><time>2026-04-04T11:07:04.835Z</time></trkpt><trkpt lat="42.0896089" lon="12.7748732"><ele>270.0</ele><time>2026-04-04T11:07:05.835Z</time></trkpt><trkpt lat="42.089718" lon="12.7748309"><ele>270.0</ele><time>2026-04-04T11:07:06.835Z</time></trkpt><trkpt lat="42.0898209" lon="12.7747958"><ele>270.0</ele><time>2026-04-04T11:07:07.835Z</time></trkpt><trkpt lat="42.0899238" lon="12.7747616"><ele>270.0</ele><time>2026-04-04T11:07:08.835Z</time></trkpt><trkpt lat="42.0900318" lon="12.774739"><ele>270.0</ele><time>2026-04-04T11:07:09.835Z</time></trkpt><trkpt lat="42.0901388" lon="12.7747361"><ele>271.3333333333333</ele><time>2026-04-04T11:07:10.835Z</time></trkpt><trkpt lat="42.090233" lon="12.7747583"><ele>272.6666666666667</ele><time>2026-04-04T11:07:11.835Z</time></trkpt><trkpt lat="42.0903155" lon="12.7748023"><ele>274.0</ele><time>2026-04-04T11:07:12.835Z</time></trkpt><trkpt lat="42.0903768" lon="12.7748716"><ele>275.33333333333337</ele><time>2026-04-04T11:07:13.835Z</time></trkpt><trkpt lat="42.0903988" lon="12.7749516"><ele>276.6666666666667</ele><time>2026-04-04T11:07:14.835Z</time></trkpt><trkpt lat="42.0903914" lon="12.7750365"><ele>278.0</ele><time>2026-04-04T11:07:15.834Z</time></trkpt><trkpt lat="42.0903804" lon="12.7751314"><ele>278.6</ele><time>2026-04-04T11:07:16.835Z</time></trkpt><trkpt lat="42.0903562" lon="12.7752286"><ele>279.20000000000005</ele><time>2026-04-04T11:07:17.835Z</time></trkpt><trkpt lat="42.0903283" lon="12.7753319"><ele>279.8</ele><time>2026-04-04T11:07:18.835Z</time></trkpt><trkpt lat="42.0902882" lon="12.7754395"><ele>280.40000000000003</ele><time>2026-04-04T11:07:19.835Z</time></trkpt><trkpt lat="42.0902643" lon="12.7755513"><ele>281.0</ele><time>2026-04-04T11:07:20.835Z</time></trkpt><trkpt lat="42.0902345" lon="12.7758298"><ele>281.0</ele><time>2026-04-04T11:07:22.835Z</time></trkpt><trkpt lat="42.0902164" lon="12.7759774"><ele>281.0</ele><time>2026-04-04T11:07:23.835Z</time></trkpt><trkpt lat="42.090196" lon="12.7761461"><ele>281.0</ele><time>2026-04-04T11:07:24.835Z</time></trkpt><trkpt lat="42.0901694" lon="12.7763068"><ele>281.0</ele><time>2026-04-04T11:07:25.835Z</time></trkpt><trkpt lat="42.0901499" lon="12.7764711"><ele>281.75</ele><time>2026-04-04T11:07:26.835Z</time></trkpt><trkpt lat="42.090123" lon="12.776631"><ele>282.5</ele><time>2026-04-04T11:07:27.835Z</time></trkpt><trkpt lat="42.0901016" lon="12.7767936"><ele>283.25</ele><time>2026-04-04T11:07:28.835Z</time></trkpt><trkpt lat="42.0900836" lon="12.7769534"><ele>284.0</ele><time>2026-04-04T11:07:29.834Z</time></trkpt><trkpt lat="42.0900615" lon="12.7771177"><ele>284.75</ele><time>2026-04-04T11:07:30.835Z</time></trkpt><trkpt lat="42.0900395" lon="12.7772788"><ele>285.5</ele><time>2026-04-04T11:07:31.835Z</time></trkpt><trkpt lat="42.0900222" lon="12.7774419"><ele>286.25</ele><time>2026-04-04T11:07:32.835Z</time></trkpt><trkpt lat="42.0900067" lon="12.7776119"><ele>287.0</ele><time>2026-04-04T11:07:33.834Z</time></trkpt><trkpt lat="42.0899808" lon="12.777767"><ele>287.25</ele><time>2026-04-04T11:07:34.835Z</time></trkpt><trkpt lat="42.0899483" lon="12.7779248"><ele>287.5</ele><time>2026-04-04T11:07:35.834Z</time></trkpt><trkpt lat="42.0899038" lon="12.7780831"><ele>287.75</ele><time>2026-04-04T11:07:36.835Z</time></trkpt><trkpt lat="42.0898329" lon="12.7782445"><ele>288.0</ele><time>2026-04-04T11:07:37.835Z</time></trkpt><trkpt lat="42.0897554" lon="12.7783901"><ele>288.6</ele><time>2026-04-04T11:07:38.835Z</time></trkpt><trkpt lat="42.0896795" lon="12.778514"><ele>289.20000000000005</ele><time>2026-04-04T11:07:39.835Z</time></trkpt><trkpt lat="42.0896073" lon="12.7786232"><ele>289.8</ele><time>2026-04-04T11:07:40.835Z</time></trkpt><trkpt lat="42.0895544" lon="12.7787255"><ele>290.40000000000003</ele><time>2026-04-04T11:07:41.835Z</time></trkpt><trkpt lat="42.0895149" lon="12.7788332"><ele>291.0</ele><time>2026-04-04T11:07:42.835Z</time></trkpt><trkpt lat="42.0895006" lon="12.7789633"><ele>291.1666666666667</ele><time>2026-04-04T11:07:43.835Z</time></trkpt><trkpt lat="42.0894993" lon="12.7790966"><ele>291.3333333333333</ele><time>2026-04-04T11:07:44.835Z</time></trkpt><trkpt lat="42.0894925" lon="12.7792231"><ele>291.5</ele><time>2026-04-04T11:07:45.835Z</time></trkpt><trkpt lat="42.0894728" lon="12.7793365"><ele>291.66666666666663</ele><time>2026-04-04T11:07:46.835Z</time></trkpt><trkpt lat="42.089438" lon="12.7794348"><ele>291.8333333333333</ele><time>2026-04-04T11:07:47.834Z</time></trkpt><trkpt lat="42.0893962" lon="12.7795252"><ele>292.0</ele><time>2026-04-04T11:07:48.835Z</time></trkpt><trkpt lat="42.0893439" lon="12.7796331"><ele>292.6</ele><time>2026-04-04T11:07:49.835Z</time></trkpt><trkpt lat="42.0892829" lon="12.7797588"><ele>293.2</ele><time>2026-04-04T11:07:50.835Z</time></trkpt><trkpt lat="42.0892165" lon="12.7798829"><ele>293.8</ele><time>2026-04-04T11:07:51.835Z</time></trkpt><trkpt lat="42.0891447" lon="12.7800032"><ele>294.4</ele><time>2026-04-04T11:07:52.835Z</time></trkpt><trkpt lat="42.0890771" lon="12.7801032"><ele>295.0</ele><time>2026-04-04T11:07:53.835Z</time></trkpt><trkpt lat="42.0890163" lon="12.7801922"><ele>295.66666666666663</ele><time>2026-04-04T11:07:54.835Z</time></trkpt><trkpt lat="42.0889632" lon="12.780269"><ele>296.3333333333333</ele><time>2026-04-04T11:07:55.835Z</time></trkpt><trkpt lat="42.0889178" lon="12.7803404"><ele>297.0</ele><time>2026-04-04T11:07:56.835Z</time></trkpt><trkpt lat="42.0888747" lon="12.7804039"><ele>297.6666666666667</ele><time>2026-04-04T11:07:57.835Z</time></trkpt><trkpt lat="42.088832" lon="12.7804858"><ele>298.33333333333337</ele><time>2026-04-04T11:07:58.834Z</time></trkpt><trkpt lat="42.0887778" lon="12.780574"><ele>299.0</ele><time>2026-04-04T11:07:59.835Z</time></trkpt><trkpt lat="42.0887198" lon="12.7806614"><ele>299.0</ele><time>2026-04-04T11:08:00.835Z</time></trkpt><trkpt lat="42.0886583" lon="12.7807619"><ele>299.0</ele><time>2026-04-04T11:08:01.835Z</time></trkpt><trkpt lat="42.0885964" lon="12.7808716"><ele>299.0</ele><time>2026-04-04T11:08:02.835Z</time></trkpt><trkpt lat="42.088527" lon="12.78099"><ele>299.0</ele><time>2026-04-04T11:08:03.835Z</time></trkpt><trkpt lat="42.0884548" lon="12.7811008"><ele>299.0</ele><time>2026-04-04T11:08:04.835Z</time></trkpt><trkpt lat="42.0883789" lon="12.7812109"><ele>298.59999999999997</ele><time>2026-04-04T11:08:05.835Z</time></trkpt><trkpt lat="42.0882989" lon="12.7813175"><ele>298.2</ele><time>2026-04-04T11:08:06.835Z</time></trkpt><trkpt lat="42.0882124" lon="12.7814202"><ele>297.79999999999995</ele><time>2026-04-04T11:08:07.835Z</time></trkpt><trkpt lat="42.0881296" lon="12.7815193"><ele>297.4</ele><time>2026-04-04T11:08:08.835Z</time></trkpt><trkpt lat="42.0880553" lon="12.7816084"><ele>297.0</ele><time>2026-04-04T11:08:09.835Z</time></trkpt><trkpt lat="42.0879884" lon="12.7816852"><ele>298.0</ele><time>2026-04-04T11:08:10.835Z</time></trkpt><trkpt lat="42.0879209" lon="12.7817734"><ele>299.0</ele><time>2026-04-04T11:08:11.835Z</time></trkpt><trkpt lat="42.0878561" lon="12.7818606"><ele>300.0</ele><time>2026-04-04T11:08:12.835Z</time></trkpt><trkpt lat="42.0877989" lon="12.7819609"><ele>301.0</ele><time>2026-04-04T11:08:13.835Z</time></trkpt><trkpt lat="42.0877387" lon="12.7820832"><ele>302.0</ele><time>2026-04-04T11:08:14.835Z</time></trkpt><trkpt lat="42.0876755" lon="12.7822085"><ele>302.2</ele><time>2026-04-04T11:08:15.835Z</time></trkpt><trkpt lat="42.0876105" lon="12.7823337"><ele>302.4</ele><time>2026-04-04T11:08:16.835Z</time></trkpt><trkpt lat="42.087541" lon="12.7824603"><ele>302.6</ele><time>2026-04-04T11:08:17.835Z</time></trkpt><trkpt lat="42.0874905" lon="12.782568"><ele>302.8</ele><time>2026-04-04T11:08:18.835Z</time></trkpt><trkpt lat="42.0874425" lon="12.782677"><ele>303.0</ele><time>2026-04-04T11:08:19.835Z</time></trkpt><trkpt lat="42.0873931" lon="12.7827858"><ele>304.4</ele><time>2026-04-04T11:08:20.835Z</time></trkpt><trkpt lat="42.0873428" lon="12.7829059"><ele>305.8</ele><time>2026-04-04T11:08:21.834Z</time></trkpt><trkpt lat="42.0872891" lon="12.7830318"><ele>307.2</ele><time>2026-04-04T11:08:22.835Z</time></trkpt><trkpt lat="42.0872262" lon="12.7831519"><ele>308.6</ele><time>2026-04-04T11:08:23.835Z</time></trkpt><trkpt lat="42.087153" lon="12.7832733"><ele>310.0</ele><time>2026-04-04T11:08:24.835Z</time></trkpt><trkpt lat="42.0870752" lon="12.7834106"><ele>310.75</ele><time>2026-04-04T11:08:25.835Z</time></trkpt><trkpt lat="42.0869886" lon="12.7835634"><ele>311.5</ele><time>2026-04-04T11:08:26.835Z</time></trkpt><trkpt lat="42.0869065" lon="12.783719"><ele>312.25</ele><time>2026-04-04T11:08:27.835Z</time></trkpt><trkpt lat="42.0868208" lon="12.7838743"><ele>313.0</ele><time>2026-04-04T11:08:28.835Z</time></trkpt><trkpt lat="42.0867346" lon="12.7840185"><ele>313.0</ele><time>2026-04-04T11:08:29.835Z</time></trkpt><trkpt lat="42.0866502" lon="12.7841564"><ele>313.0</ele><time>2026-04-04T11:08:30.835Z</time></trkpt><trkpt lat="42.0865637" lon="12.7842935"><ele>313.0</ele><time>2026-04-04T11:08:31.834Z</time></trkpt><trkpt lat="42.0864807" lon="12.7844234"><ele>313.0</ele><time>2026-04-04T11:08:32.835Z</time></trkpt><trkpt lat="42.0863925" lon="12.7845501"><ele>313.75</ele><time>2026-04-04T11:08:33.835Z</time></trkpt><trkpt lat="42.0863098" lon="12.784681"><ele>314.5</ele><time>2026-04-04T11:08:34.835Z</time></trkpt><trkpt lat="42.0862302" lon="12.784823"><ele>315.25</ele><time>2026-04-04T11:08:35.835Z</time></trkpt><trkpt lat="42.086154" lon="12.7849842"><ele>316.0</ele><time>2026-04-04T11:08:36.835Z</time></trkpt><trkpt lat="42.0860833" lon="12.7851493"><ele>317.25</ele><time>2026-04-04T11:08:37.835Z</time></trkpt><trkpt lat="42.0860197" lon="12.7853157"><ele>318.5</ele><time>2026-04-04T11:08:38.835Z</time></trkpt><trkpt lat="42.0859607" lon="12.7854907"><ele>319.75</ele><time>2026-04-04T11:08:39.835Z</time></trkpt><trkpt lat="42.0859063" lon="12.785646"><ele>321.0</ele><time>2026-04-04T11:08:40.835Z</time></trkpt><trkpt lat="42.0858578" lon="12.785794"><ele>321.0</ele><time>2026-04-04T11:08:41.835Z</time></trkpt><trkpt lat="42.0858074" lon="12.7859413"><ele>321.0</ele><time>2026-04-04T11:08:42.834Z</time></trkpt><trkpt lat="42.0857623" lon="12.7860712"><ele>321.0</ele><time>2026-04-04T11:08:43.835Z</time></trkpt><trkpt lat="42.085713" lon="12.7861855"><ele>321.0</ele><time>2026-04-04T11:08:44.835Z</time></trkpt><trkpt lat="42.0856595" lon="12.7862958"><ele>321.0</ele><time>2026-04-04T11:08:45.834Z</time></trkpt><trkpt lat="42.0856094" lon="12.7863952"><ele>322.0</ele><time>2026-04-04T11:08:46.835Z</time></trkpt><trkpt lat="42.0855505" lon="12.7865216"><ele>323.0</ele><time>2026-04-04T11:08:47.835Z</time></trkpt><trkpt lat="42.0854945" lon="12.7866473"><ele>324.0</ele><time>2026-04-04T11:08:48.835Z</time></trkpt><trkpt lat="42.085443" lon="12.7867756"><ele>325.0</ele><time>2026-04-04T11:08:49.835Z</time></trkpt><trkpt lat="42.0853897" lon="12.7869029"><ele>326.0</ele><time>2026-04-04T11:08:50.835Z</time></trkpt><trkpt lat="42.0853416" lon="12.7870272"><ele>326.6666666666667</ele><time>2026-04-04T11:08:51.835Z</time></trkpt><trkpt lat="42.085296" lon="12.7871321"><ele>327.33333333333337</ele><time>2026-04-04T11:08:52.835Z</time></trkpt><trkpt lat="42.0852542" lon="12.7872397"><ele>328.0</ele><time>2026-04-04T11:08:53.835Z</time></trkpt><trkpt lat="42.0852176" lon="12.787337"><ele>328.6666666666667</ele><time>2026-04-04T11:08:54.835Z</time></trkpt><trkpt lat="42.0851892" lon="12.7874264"><ele>329.3333333333333</ele><time>2026-04-04T11:08:55.835Z</time></trkpt><trkpt lat="42.0851499" lon="12.7875535"><ele>330.0</ele><time>2026-04-04T11:08:57.835Z</time></trkpt><trkpt lat="42.0851157" lon="12.7876615"><ele>330.6</ele><time>2026-04-04T11:08:59.835Z</time></trkpt><trkpt lat="42.0850838" lon="12.7877549"><ele>331.2</ele><time>2026-04-04T11:09:01.835Z</time></trkpt><trkpt lat="42.0850342" lon="12.7879061"><ele>331.79999999999995</ele><time>2026-04-04T11:09:03.835Z</time></trkpt><trkpt lat="42.0850007" lon="12.7879954"><ele>332.4</ele><time>2026-04-04T11:09:04.835Z</time></trkpt><trkpt lat="42.0849341" lon="12.7881271"><ele>333.0</ele><time>2026-04-04T11:09:06.835Z</time></trkpt><trkpt lat="42.08488" lon="12.7882203"><ele>334.4</ele><time>2026-04-04T11:09:08.835Z</time></trkpt><trkpt lat="42.0848396" lon="12.7883033"><ele>335.79999999999995</ele><time>2026-04-04T11:09:11.835Z</time></trkpt><trkpt lat="42.0847829" lon="12.7883888"><ele>337.2</ele><time>2026-04-04T11:09:14.835Z</time></trkpt><trkpt lat="42.0847214" lon="12.7884884"><ele>338.6</ele><time>2026-04-04T11:09:16.835Z</time></trkpt><trkpt lat="42.0846013" lon="12.788619"><ele>340.0</ele><time>2026-04-04T11:09:18.835Z</time></trkpt><trkpt lat="42.084503" lon="12.7887491"><ele>340.6</ele><time>2026-04-04T11:09:19.834Z</time></trkpt><trkpt lat="42.0844219" lon="12.7888474"><ele>341.2</ele><time>2026-04-04T11:09:20.835Z</time></trkpt><trkpt lat="42.0843475" lon="12.7889393"><ele>341.79999999999995</ele><time>2026-04-04T11:09:21.835Z</time></trkpt><trkpt lat="42.084272" lon="12.7890557"><ele>342.4</ele><time>2026-04-04T11:09:22.835Z</time></trkpt><trkpt lat="42.0842065" lon="12.7891627"><ele>343.0</ele><time>2026-04-04T11:09:23.835Z</time></trkpt><trkpt lat="42.0841491" lon="12.7892558"><ele>344.0</ele><time>2026-04-04T11:09:24.835Z</time></trkpt><trkpt lat="42.0840906" lon="12.7893372"><ele>345.0</ele><time>2026-04-04T11:09:25.835Z</time></trkpt><trkpt lat="42.0840333" lon="12.7894093"><ele>346.0</ele><time>2026-04-04T11:09:26.835Z</time></trkpt><trkpt lat="42.0839738" lon="12.7894654"><ele>347.0</ele><time>2026-04-04T11:09:27.835Z</time></trkpt><trkpt lat="42.0839008" lon="12.7894989"><ele>348.0</ele><time>2026-04-04T11:09:28.835Z</time></trkpt><trkpt lat="42.0838057" lon="12.789527"><ele>349.0</ele><time>2026-04-04T11:09:29.835Z</time></trkpt><trkpt lat="42.0837093" lon="12.7895491"><ele>349.0</ele><time>2026-04-04T11:09:30.835Z</time></trkpt><trkpt lat="42.0836105" lon="12.7895853"><ele>349.0</ele><time>2026-04-04T11:09:31.835Z</time></trkpt><trkpt lat="42.0835014" lon="12.7896334"><ele>349.0</ele><time>2026-04-04T11:09:32.835Z</time></trkpt><trkpt lat="42.083397" lon="12.7896871"><ele>349.0</ele><time>2026-04-04T11:09:33.835Z</time></trkpt><trkpt lat="42.0832878" lon="12.7897465"><ele>349.0</ele><time>2026-04-04T11:09:34.835Z</time></trkpt><trkpt lat="42.0831886" lon="12.7898016"><ele>351.0</ele><time>2026-04-04T11:09:35.835Z</time></trkpt><trkpt lat="42.0830916" lon="12.7898555"><ele>353.0</ele><time>2026-04-04T11:09:36.835Z</time></trkpt><trkpt lat="42.082997" lon="12.7899168"><ele>355.0</ele><time>2026-04-04T11:09:37.835Z</time></trkpt><trkpt lat="42.0829176" lon="12.7899643"><ele>357.0</ele><time>2026-04-04T11:09:38.835Z</time></trkpt><trkpt lat="42.0828429" lon="12.7900232"><ele>359.0</ele><time>2026-04-04T11:09:39.835Z</time></trkpt><trkpt lat="42.0827808" lon="12.7901055"><ele>359.83333333333337</ele><time>2026-04-04T11:09:40.835Z</time></trkpt><trkpt lat="42.0827342" lon="12.7902007"><ele>360.6666666666667</ele><time>2026-04-04T11:09:41.835Z</time></trkpt><trkpt lat="42.0826985" lon="12.7903127"><ele>361.5</ele><time>2026-04-04T11:09:42.835Z</time></trkpt><trkpt lat="42.0826655" lon="12.7904354"><ele>362.3333333333333</ele><time>2026-04-04T11:09:43.835Z</time></trkpt><trkpt lat="42.0826379" lon="12.7905331"><ele>363.16666666666663</ele><time>2026-04-04T11:09:44.835Z</time></trkpt><trkpt lat="42.0826117" lon="12.7906269"><ele>364.0</ele><time>2026-04-04T11:09:45.835Z</time></trkpt><trkpt lat="42.082589" lon="12.7907116"><ele>364.0</ele><time>2026-04-04T11:09:46.835Z</time></trkpt><trkpt lat="42.0825658" lon="12.7907959"><ele>364.0</ele><time>2026-04-04T11:09:47.835Z</time></trkpt><trkpt lat="42.082544" lon="12.7908782"><ele>364.0</ele><time>2026-04-04T11:09:48.835Z</time></trkpt><trkpt lat="42.0825098" lon="12.7910109"><ele>364.0</ele><time>2026-04-04T11:09:50.835Z</time></trkpt><trkpt lat="42.082485" lon="12.7911124"><ele>364.0</ele><time>2026-04-04T11:09:53.835Z</time></trkpt><trkpt lat="42.0824863" lon="12.791232"><ele>364.0</ele><time>2026-04-04T11:11:06.835Z</time></trkpt><trkpt lat="42.0824803" lon="12.7913373"><ele>363.6</ele><time>2026-04-04T11:11:09.835Z</time></trkpt><trkpt lat="42.0824839" lon="12.7914313"><ele>363.2</ele><time>2026-04-04T11:11:16.835Z</time></trkpt><trkpt lat="42.0824818" lon="12.7916249"><ele>362.8</ele><time>2026-04-04T11:11:18.835Z</time></trkpt><trkpt lat="42.0824771" lon="12.7917557"><ele>362.40000000000003</ele><time>2026-04-04T11:11:19.834Z</time></trkpt><trkpt lat="42.0824707" lon="12.7918839"><ele>362.0</ele><time>2026-04-04T11:11:20.835Z</time></trkpt><trkpt lat="42.0824543" lon="12.7920014"><ele>361.6666666666667</ele><time>2026-04-04T11:11:21.835Z</time></trkpt><trkpt lat="42.082433" lon="12.7921145"><ele>361.33333333333337</ele><time>2026-04-04T11:11:22.835Z</time></trkpt><trkpt lat="42.0824278" lon="12.7922149"><ele>361.0</ele><time>2026-04-04T11:11:23.835Z</time></trkpt><trkpt lat="42.0824199" lon="12.7923192"><ele>360.6666666666667</ele><time>2026-04-04T11:11:24.835Z</time></trkpt><trkpt lat="42.0824312" lon="12.792439"><ele>360.3333333333333</ele><time>2026-04-04T11:11:25.835Z</time></trkpt><trkpt lat="42.0824223" lon="12.7925629"><ele>360.0</ele><time>2026-04-04T11:11:26.835Z</time></trkpt><trkpt lat="42.0824101" lon="12.7926924"><ele>362.0</ele><time>2026-04-04T11:11:27.835Z</time></trkpt><trkpt lat="42.0823891" lon="12.7927889"><ele>364.0</ele><time>2026-04-04T11:11:28.834Z</time></trkpt><trkpt lat="42.0823713" lon="12.7928953"><ele>366.0</ele><time>2026-04-04T11:11:29.835Z</time></trkpt><trkpt lat="42.0823616" lon="12.792988"><ele>368.0</ele><time>2026-04-04T11:11:30.835Z</time></trkpt><trkpt lat="42.0823639" lon="12.793095"><ele>370.0</ele><time>2026-04-04T11:11:31.835Z</time></trkpt><trkpt lat="42.082377" lon="12.7932124"><ele>372.0</ele><time>2026-04-04T11:11:32.835Z</time></trkpt><trkpt lat="42.0823958" lon="12.7933271"><ele>372.0</ele><time>2026-04-04T11:11:33.835Z</time></trkpt><trkpt lat="42.0824114" lon="12.7934326"><ele>372.0</ele><time>2026-04-04T11:11:34.835Z</time></trkpt><trkpt lat="42.0824269" lon="12.7935253"><ele>372.0</ele><time>2026-04-04T11:11:35.834Z</time></trkpt><trkpt lat="42.0824561" lon="12.7936127"><ele>372.0</ele><time>2026-04-04T11:11:36.835Z</time></trkpt><trkpt lat="42.0824967" lon="12.7936922"><ele>372.0</ele><time>2026-04-04T11:11:37.835Z</time></trkpt><trkpt lat="42.0825517" lon="12.7937838"><ele>372.0</ele><time>2026-04-04T11:11:38.835Z</time></trkpt><trkpt lat="42.082621" lon="12.7938914"><ele>371.5</ele><time>2026-04-04T11:11:39.835Z</time></trkpt><trkpt lat="42.0827007" lon="12.7940006"><ele>371.0</ele><time>2026-04-04T11:11:40.834Z</time></trkpt><trkpt lat="42.0827752" lon="12.794086"><ele>370.5</ele><time>2026-04-04T11:11:41.835Z</time></trkpt><trkpt lat="42.0828422" lon="12.7941633"><ele>370.0</ele><time>2026-04-04T11:11:42.834Z</time></trkpt><trkpt lat="42.082889" lon="12.7942364"><ele>369.5</ele><time>2026-04-04T11:11:43.835Z</time></trkpt><trkpt lat="42.0829285" lon="12.7943026"><ele>369.0</ele><time>2026-04-04T11:11:44.835Z</time></trkpt><trkpt lat="42.0829624" lon="12.7943881"><ele>370.1666666666667</ele><time>2026-04-04T11:11:45.835Z</time></trkpt><trkpt lat="42.0829837" lon="12.7944694"><ele>371.3333333333333</ele><time>2026-04-04T11:11:46.835Z</time></trkpt><trkpt lat="42.0829936" lon="12.7945709"><ele>372.5</ele><time>2026-04-04T11:11:47.835Z</time></trkpt><trkpt lat="42.0829961" lon="12.794677"><ele>373.66666666666663</ele><time>2026-04-04T11:11:48.834Z</time></trkpt><trkpt lat="42.0829904" lon="12.7947897"><ele>374.8333333333333</ele><time>2026-04-04T11:11:49.835Z</time></trkpt><trkpt lat="42.0829764" lon="12.7949011"><ele>376.0</ele><time>2026-04-04T11:11:50.835Z</time></trkpt><trkpt lat="42.0829661" lon="12.7950038"><ele>376.0</ele><time>2026-04-04T11:11:51.835Z</time></trkpt><trkpt lat="42.0829644" lon="12.7950988"><ele>376.0</ele><time>2026-04-04T11:11:52.835Z</time></trkpt><trkpt lat="42.0829606" lon="12.7951986"><ele>376.0</ele><time>2026-04-04T11:11:53.835Z</time></trkpt><trkpt lat="42.0829999" lon="12.7953383"><ele>376.0</ele><time>2026-04-04T11:11:55.834Z</time></trkpt><trkpt lat="42.0830405" lon="12.7954595"><ele>376.0</ele><time>2026-04-04T11:11:57.834Z</time></trkpt><trkpt lat="42.0830929" lon="12.7955575"><ele>376.0</ele><time>2026-04-04T11:11:59.835Z</time></trkpt><trkpt lat="42.0831162" lon="12.795677"><ele>377.0</ele><time>2026-04-04T11:12:01.835Z</time></trkpt><trkpt lat="42.0831376" lon="12.7958175"><ele>378.0</ele><time>2026-04-04T11:12:03.835Z</time></trkpt><trkpt lat="42.0831234" lon="12.7959054"><ele>379.0</ele><time>2026-04-04T11:12:04.835Z</time></trkpt><trkpt lat="42.0830943" lon="12.7960047"><ele>380.0</ele><time>2026-04-04T11:12:05.835Z</time></trkpt><trkpt lat="42.0830693" lon="12.7960943"><ele>381.0</ele><time>2026-04-04T11:12:06.835Z</time></trkpt><trkpt lat="42.0830387" lon="12.7961697"><ele>382.0</ele><time>2026-04-04T11:12:07.835Z</time></trkpt><trkpt lat="42.0829977" lon="12.7962436"><ele>383.16666666666663</ele><time>2026-04-04T11:12:08.835Z</time></trkpt><trkpt lat="42.0829344" lon="12.7963513"><ele>384.3333333333333</ele><time>2026-04-04T11:12:09.835Z</time></trkpt><trkpt lat="42.082897" lon="12.7964351"><ele>385.5</ele><time>2026-04-04T11:12:10.835Z</time></trkpt><trkpt lat="42.0828574" lon="12.7965191"><ele>386.66666666666663</ele><time>2026-04-04T11:12:11.835Z</time></trkpt><trkpt lat="42.0828209" lon="12.7965888"><ele>387.8333333333333</ele><time>2026-04-04T11:12:12.835Z</time></trkpt><trkpt lat="42.0827699" lon="12.796758"><ele>389.0</ele><time>2026-04-04T11:12:14.835Z</time></trkpt><trkpt lat="42.0827496" lon="12.7968458"><ele>389.0</ele><time>2026-04-04T11:12:15.835Z</time></trkpt><trkpt lat="42.0827017" lon="12.796964"><ele>389.0</ele><time>2026-04-04T11:12:16.835Z</time></trkpt><trkpt lat="42.082657" lon="12.7970349"><ele>389.0</ele><time>2026-04-04T11:12:17.835Z</time></trkpt><trkpt lat="42.0826238" lon="12.7971122"><ele>389.0</ele><time>2026-04-04T11:12:18.835Z</time></trkpt><trkpt lat="42.0825665" lon="12.7972933"><ele>389.0</ele><time>2026-04-04T11:12:20.835Z</time></trkpt><trkpt lat="42.0824828" lon="12.7974382"><ele>388.99999999999994</ele><time>2026-04-04T11:12:22.835Z</time></trkpt><trkpt lat="42.0824401" lon="12.7975301"><ele>389.0</ele><time>2026-04-04T11:12:23.834Z</time></trkpt><trkpt lat="42.0823937" lon="12.7975929"><ele>389.0</ele><time>2026-04-04T11:12:24.835Z</time></trkpt><trkpt lat="42.0822981" lon="12.7976986"><ele>389.0</ele><time>2026-04-04T11:12:26.835Z</time></trkpt><trkpt lat="42.0822329" lon="12.7977463"><ele>388.99999999999994</ele><time>2026-04-04T11:12:27.835Z</time></trkpt><trkpt lat="42.0821697" lon="12.797774"><ele>389.0</ele><time>2026-04-04T11:12:28.835Z</time></trkpt><trkpt lat="42.0820947" lon="12.7978123"><ele>391.16666666666663</ele><time>2026-04-04T11:12:29.834Z</time></trkpt><trkpt lat="42.0820265" lon="12.7978607"><ele>393.3333333333333</ele><time>2026-04-04T11:12:30.835Z</time></trkpt><trkpt lat="42.0819461" lon="12.7979248"><ele>395.5</ele><time>2026-04-04T11:12:31.835Z</time></trkpt><trkpt lat="42.0818691" lon="12.7979985"><ele>397.66666666666663</ele><time>2026-04-04T11:12:32.835Z</time></trkpt><trkpt lat="42.0818116" lon="12.7980576"><ele>399.8333333333333</ele><time>2026-04-04T11:12:33.834Z</time></trkpt><trkpt lat="42.0817614" lon="12.7981326"><ele>402.0</ele><time>2026-04-04T11:12:34.835Z</time></trkpt><trkpt lat="42.0817082" lon="12.7982106"><ele>402.0</ele><time>2026-04-04T11:12:35.834Z</time></trkpt><trkpt lat="42.0816879" lon="12.7983409"><ele>402.0</ele><time>2026-04-04T11:12:36.835Z</time></trkpt><trkpt lat="42.0816629" lon="12.7984581"><ele>402.0</ele><time>2026-04-04T11:12:37.834Z</time></trkpt><trkpt lat="42.0816398" lon="12.7985518"><ele>402.0</ele><time>2026-04-04T11:12:38.835Z</time></trkpt><trkpt lat="42.0816221" lon="12.7986517"><ele>402.0</ele><time>2026-04-04T11:12:39.835Z</time></trkpt><trkpt lat="42.0816084" lon="12.7987369"><ele>402.0</ele><time>2026-04-04T11:12:40.835Z</time></trkpt><trkpt lat="42.0815731" lon="12.7988684"><ele>405.4285714285714</ele><time>2026-04-04T11:12:42.834Z</time></trkpt><trkpt lat="42.0815523" lon="12.7989506"><ele>408.8571428571429</ele><time>2026-04-04T11:12:43.835Z</time></trkpt><trkpt lat="42.0815308" lon="12.7990328"><ele>412.2857142857143</ele><time>2026-04-04T11:12:44.835Z</time></trkpt><trkpt lat="42.0815088" lon="12.7991194"><ele>415.71428571428567</ele><time>2026-04-04T11:12:45.835Z</time></trkpt><trkpt lat="42.0814646" lon="12.7992601"><ele>419.1428571428571</ele><time>2026-04-04T11:12:47.835Z</time></trkpt><trkpt lat="42.0814381" lon="12.7993428"><ele>422.57142857142856</ele><time>2026-04-04T11:12:48.835Z</time></trkpt><trkpt lat="42.0814144" lon="12.7994302"><ele>426.0</ele><time>2026-04-04T11:12:49.834Z</time></trkpt><trkpt lat="42.0813937" lon="12.7995228"><ele>426.1666666666667</ele><time>2026-04-04T11:12:50.835Z</time></trkpt><trkpt lat="42.0813826" lon="12.7996168"><ele>426.33333333333337</ele><time>2026-04-04T11:12:51.835Z</time></trkpt><trkpt lat="42.0813781" lon="12.7997137"><ele>426.5</ele><time>2026-04-04T11:12:52.835Z</time></trkpt><trkpt lat="42.0813768" lon="12.7998461"><ele>426.6666666666667</ele><time>2026-04-04T11:12:54.834Z</time></trkpt><trkpt lat="42.0813515" lon="12.7999878"><ele>426.83333333333337</ele><time>2026-04-04T11:12:56.835Z</time></trkpt><trkpt lat="42.0813194" lon="12.8000949"><ele>427.0</ele><time>2026-04-04T11:12:57.835Z</time></trkpt><trkpt lat="42.0812866" lon="12.8001887"><ele>426.1666666666667</ele><time>2026-04-04T11:12:58.834Z</time></trkpt><trkpt lat="42.081249" lon="12.8003055"><ele>425.33333333333337</ele><time>2026-04-04T11:12:59.835Z</time></trkpt><trkpt lat="42.0812077" lon="12.8004203"><ele>424.5</ele><time>2026-04-04T11:13:00.835Z</time></trkpt><trkpt lat="42.0811742" lon="12.8005307"><ele>423.66666666666663</ele><time>2026-04-04T11:13:01.835Z</time></trkpt><trkpt lat="42.0811449" lon="12.8006351"><ele>422.8333333333333</ele><time>2026-04-04T11:13:02.835Z</time></trkpt><trkpt lat="42.0811359" lon="12.8007363"><ele>422.0</ele><time>2026-04-04T11:13:03.835Z</time></trkpt><trkpt lat="42.0810829" lon="12.8008421"><ele>422.0</ele><time>2026-04-04T11:13:04.834Z</time></trkpt><trkpt lat="42.0810413" lon="12.8009656"><ele>422.0</ele><time>2026-04-04T11:13:05.834Z</time></trkpt><trkpt lat="42.081002" lon="12.8010881"><ele>422.0</ele><time>2026-04-04T11:13:06.834Z</time></trkpt><trkpt lat="42.0809631" lon="12.8012351"><ele>422.0</ele><time>2026-04-04T11:13:07.835Z</time></trkpt><trkpt lat="42.0809295" lon="12.8013813"><ele>422.0</ele><time>2026-04-04T11:13:08.834Z</time></trkpt><trkpt lat="42.0809025" lon="12.8015303"><ele>421.8</ele><time>2026-04-04T11:13:09.835Z</time></trkpt><trkpt lat="42.0808787" lon="12.8016548"><ele>421.6</ele><time>2026-04-04T11:13:10.835Z</time></trkpt><trkpt lat="42.0808576" lon="12.8017758"><ele>421.40000000000003</ele><time>2026-04-04T11:13:11.835Z</time></trkpt><trkpt lat="42.0808385" lon="12.8019022"><ele>421.20000000000005</ele><time>2026-04-04T11:13:12.835Z</time></trkpt><trkpt lat="42.0808206" lon="12.8020287"><ele>421.0</ele><time>2026-04-04T11:13:13.835Z</time></trkpt><trkpt lat="42.0808043" lon="12.8021359"><ele>421.6666666666667</ele><time>2026-04-04T11:13:14.835Z</time></trkpt><trkpt lat="42.0807834" lon="12.8022629"><ele>422.33333333333337</ele><time>2026-04-04T11:13:15.835Z</time></trkpt><trkpt lat="42.0807726" lon="12.8023867"><ele>423.0</ele><time>2026-04-04T11:13:16.835Z</time></trkpt><trkpt lat="42.0807567" lon="12.8024926"><ele>423.66666666666663</ele><time>2026-04-04T11:13:17.835Z</time></trkpt><trkpt lat="42.0807493" lon="12.8025883"><ele>424.3333333333333</ele><time>2026-04-04T11:13:18.835Z</time></trkpt><trkpt lat="42.0807325" lon="12.8026851"><ele>425.0</ele><time>2026-04-04T11:13:19.835Z</time></trkpt><trkpt lat="42.0807082" lon="12.8027975"><ele>426.49999999999994</ele><time>2026-04-04T11:13:20.835Z</time></trkpt><trkpt lat="42.0806842" lon="12.8028949"><ele>428.0</ele><time>2026-04-04T11:13:21.835Z</time></trkpt><trkpt lat="42.08066" lon="12.8029755"><ele>429.5</ele><time>2026-04-04T11:13:22.835Z</time></trkpt><trkpt lat="42.0806484" lon="12.8030896"><ele>431.0</ele><time>2026-04-04T11:13:24.835Z</time></trkpt><trkpt lat="42.0807124" lon="12.8031382"><ele>432.49999999999994</ele><time>2026-04-04T11:13:26.835Z</time></trkpt><trkpt lat="42.0807824" lon="12.8031694"><ele>434.0</ele><time>2026-04-04T11:13:28.835Z</time></trkpt><trkpt lat="42.0808611" lon="12.8032317"><ele>434.0</ele><time>2026-04-04T11:13:30.835Z</time></trkpt><trkpt lat="42.0808716" lon="12.8033457"><ele>434.0</ele><time>2026-04-04T11:13:32.835Z</time></trkpt><trkpt lat="42.0808465" lon="12.8034771"><ele>434.0</ele><time>2026-04-04T11:13:34.835Z</time></trkpt><trkpt lat="42.0807979" lon="12.8035931"><ele>434.0</ele><time>2026-04-04T11:13:36.835Z</time></trkpt><trkpt lat="42.0807431" lon="12.8037111"><ele>434.0</ele><time>2026-04-04T11:13:38.835Z</time></trkpt><trkpt lat="42.0806834" lon="12.8038273"><ele>438.2</ele><time>2026-04-04T11:13:40.835Z</time></trkpt><trkpt lat="42.0806064" lon="12.8039528"><ele>442.4</ele><time>2026-04-04T11:13:42.835Z</time></trkpt><trkpt lat="42.0805638" lon="12.8040353"><ele>446.6</ele><time>2026-04-04T11:13:43.835Z</time></trkpt><trkpt lat="42.0805177" lon="12.8041418"><ele>450.8</ele><time>2026-04-04T11:13:45.835Z</time></trkpt><trkpt lat="42.0804397" lon="12.8042838"><ele>455.0</ele><time>2026-04-04T11:13:47.835Z</time></trkpt><trkpt lat="42.0803541" lon="12.8043983"><ele>455.66666666666663</ele><time>2026-04-04T11:13:49.835Z</time></trkpt><trkpt lat="42.0802779" lon="12.8045231"><ele>456.3333333333333</ele><time>2026-04-04T11:13:51.834Z</time></trkpt><trkpt lat="42.0802454" lon="12.8046183"><ele>457.0</ele><time>2026-04-04T11:13:52.835Z</time></trkpt><trkpt lat="42.0802067" lon="12.8046987"><ele>457.66666666666663</ele><time>2026-04-04T11:13:53.835Z</time></trkpt><trkpt lat="42.0801739" lon="12.8047719"><ele>458.3333333333333</ele><time>2026-04-04T11:13:54.835Z</time></trkpt><trkpt lat="42.0801345" lon="12.8048428"><ele>459.0</ele><time>2026-04-04T11:13:55.835Z</time></trkpt><trkpt lat="42.0801115" lon="12.8049328"><ele>459.0</ele><time>2026-04-04T11:13:56.835Z</time></trkpt><trkpt lat="42.0800908" lon="12.8050571"><ele>459.0</ele><time>2026-04-04T11:13:57.835Z</time></trkpt><trkpt lat="42.0800789" lon="12.805175"><ele>459.0</ele><time>2026-04-04T11:13:58.835Z</time></trkpt><trkpt lat="42.0800673" lon="12.8052778"><ele>459.0</ele><time>2026-04-04T11:13:59.835Z</time></trkpt><trkpt lat="42.0800542" lon="12.8053912"><ele>459.0</ele><time>2026-04-04T11:14:00.835Z</time></trkpt><trkpt lat="42.0800343" lon="12.8055071"><ele>459.0</ele><time>2026-04-04T11:14:01.835Z</time></trkpt><trkpt lat="42.080019" lon="12.8056085"><ele>458.8333333333333</ele><time>2026-04-04T11:14:02.835Z</time></trkpt><trkpt lat="42.0799919" lon="12.8057"><ele>458.66666666666663</ele><time>2026-04-04T11:14:03.835Z</time></trkpt><trkpt lat="42.0799816" lon="12.8058148"><ele>458.5</ele><time>2026-04-04T11:14:04.835Z</time></trkpt><trkpt lat="42.0799641" lon="12.80594"><ele>458.3333333333333</ele><time>2026-04-04T11:14:05.835Z</time></trkpt><trkpt lat="42.0799436" lon="12.8060466"><ele>458.16666666666663</ele><time>2026-04-04T11:14:06.835Z</time></trkpt><trkpt lat="42.0799271" lon="12.8061662"><ele>458.0</ele><time>2026-04-04T11:14:07.835Z</time></trkpt><trkpt lat="42.0799201" lon="12.8062758"><ele>460.2</ele><time>2026-04-04T11:14:08.835Z</time></trkpt><trkpt lat="42.0799128" lon="12.8063922"><ele>462.4</ele><time>2026-04-04T11:14:09.835Z</time></trkpt><trkpt lat="42.0798988" lon="12.8065122"><ele>464.59999999999997</ele><time>2026-04-04T11:14:10.834Z</time></trkpt><trkpt lat="42.0798887" lon="12.8066184"><ele>466.79999999999995</ele><time>2026-04-04T11:14:11.835Z</time></trkpt><trkpt lat="42.0798367" lon="12.8067587"><ele>469.0</ele><time>2026-04-04T11:14:13.835Z</time></trkpt><trkpt lat="42.0797435" lon="12.8068826"><ele>469.00000000000006</ele><time>2026-04-04T11:14:15.834Z</time></trkpt><trkpt lat="42.0797086" lon="12.8069771"><ele>469.0</ele><time>2026-04-04T11:14:16.835Z</time></trkpt><trkpt lat="42.0796485" lon="12.8070551"><ele>469.0</ele><time>2026-04-04T11:14:17.835Z</time></trkpt><trkpt lat="42.0795949" lon="12.8071225"><ele>469.0</ele><time>2026-04-04T11:14:18.834Z</time></trkpt><trkpt lat="42.0795417" lon="12.8071903"><ele>469.00000000000006</ele><time>2026-04-04T11:14:19.834Z</time></trkpt><trkpt lat="42.0794902" lon="12.8072656"><ele>469.0</ele><time>2026-04-04T11:14:20.835Z</time></trkpt><trkpt lat="42.079443" lon="12.8073446"><ele>469.00000000000006</ele><time>2026-04-04T11:14:21.835Z</time></trkpt><trkpt lat="42.0794235" lon="12.8074503"><ele>469.0</ele><time>2026-04-04T11:14:22.835Z</time></trkpt><trkpt lat="42.0794071" lon="12.8075548"><ele>469.0</ele><time>2026-04-04T11:14:23.835Z</time></trkpt><trkpt lat="42.0794079" lon="12.8076518"><ele>469.0</ele><time>2026-04-04T11:14:24.835Z</time></trkpt><trkpt lat="42.0794149" lon="12.807745"><ele>469.00000000000006</ele><time>2026-04-04T11:14:25.835Z</time></trkpt><trkpt lat="42.0794671" lon="12.8079018"><ele>469.0</ele><time>2026-04-04T11:14:27.834Z</time></trkpt><trkpt lat="42.0795397" lon="12.8080489"><ele>469.1666666666667</ele><time>2026-04-04T11:14:29.835Z</time></trkpt><trkpt lat="42.0795911" lon="12.8081451"><ele>469.33333333333337</ele><time>2026-04-04T11:14:30.835Z</time></trkpt><trkpt lat="42.0796354" lon="12.8082078"><ele>469.5</ele><time>2026-04-04T11:14:31.835Z</time></trkpt><trkpt lat="42.0797054" lon="12.8083077"><ele>469.66666666666663</ele><time>2026-04-04T11:14:33.835Z</time></trkpt><trkpt lat="42.0797466" lon="12.8084168"><ele>469.8333333333333</ele><time>2026-04-04T11:14:35.835Z</time></trkpt><trkpt lat="42.0797547" lon="12.8085039"><ele>470.0</ele><time>2026-04-04T11:14:36.835Z</time></trkpt><trkpt lat="42.0797676" lon="12.8085945"><ele>472.4</ele><time>2026-04-04T11:14:37.835Z</time></trkpt><trkpt lat="42.079769" lon="12.8087118"><ele>474.8</ele><time>2026-04-04T11:14:38.835Z</time></trkpt><trkpt lat="42.0797868" lon="12.8088377"><ele>477.20000000000005</ele><time>2026-04-04T11:14:39.835Z</time></trkpt><trkpt lat="42.0797963" lon="12.80897"><ele>479.6</ele><time>2026-04-04T11:14:40.835Z</time></trkpt><trkpt lat="42.0798133" lon="12.8090926"><ele>482.0</ele><time>2026-04-04T11:14:41.835Z</time></trkpt><trkpt lat="42.0798294" lon="12.809213"><ele>482.0</ele><time>2026-04-04T11:14:42.835Z</time></trkpt><trkpt lat="42.0798452" lon="12.809296"><ele>482.00000000000006</ele><time>2026-04-04T11:14:43.835Z</time></trkpt><trkpt lat="42.0798643" lon="12.8094682"><ele>482.00000000000006</ele><time>2026-04-04T11:14:45.834Z</time></trkpt><trkpt lat="42.0798592" lon="12.8095729"><ele>482.0</ele><time>2026-04-04T11:14:46.834Z</time></trkpt><trkpt lat="42.0798776" lon="12.8097223"><ele>482.0</ele><time>2026-04-04T11:14:48.835Z</time></trkpt><trkpt lat="42.0798916" lon="12.8098149"><ele>482.20000000000005</ele><time>2026-04-04T11:14:49.835Z</time></trkpt><trkpt lat="42.0799018" lon="12.8099523"><ele>482.40000000000003</ele><time>2026-04-04T11:14:51.835Z</time></trkpt><trkpt lat="42.079909" lon="12.8100899"><ele>482.59999999999997</ele><time>2026-04-04T11:14:53.835Z</time></trkpt><trkpt lat="42.0799251" lon="12.81021"><ele>482.79999999999995</ele><time>2026-04-04T11:14:55.835Z</time></trkpt><trkpt lat="42.0799425" lon="12.8103144"><ele>483.0</ele><time>2026-04-04T11:15:19.835Z</time></trkpt><trkpt lat="42.0799603" lon="12.8104468"><ele>483.0</ele><time>2026-04-04T11:15:21.834Z</time></trkpt><trkpt lat="42.0799581" lon="12.8105332"><ele>482.99999999999994</ele><time>2026-04-04T11:15:22.835Z</time></trkpt><trkpt lat="42.0799639" lon="12.8106321"><ele>482.99999999999994</ele><time>2026-04-04T11:15:23.835Z</time></trkpt><trkpt lat="42.0799863" lon="12.8107726"><ele>483.0</ele><time>2026-04-04T11:15:25.835Z</time></trkpt><trkpt lat="42.0799929" lon="12.8109142"><ele>483.0</ele><time>2026-04-04T11:15:27.835Z</time></trkpt><trkpt lat="42.0799381" lon="12.8110304"><ele>487.0</ele><time>2026-04-04T11:15:29.835Z</time></trkpt><trkpt lat="42.0798814" lon="12.8110846"><ele>490.99999999999994</ele><time>2026-04-04T11:15:30.835Z</time></trkpt><trkpt lat="42.0797858" lon="12.8111777"><ele>494.99999999999994</ele><time>2026-04-04T11:15:32.835Z</time></trkpt><trkpt lat="42.0797285" lon="12.8112204"><ele>499.0</ele><time>2026-04-04T11:15:33.834Z</time></trkpt><trkpt lat="42.0796105" lon="12.8113172"><ele>503.0</ele><time>2026-04-04T11:15:35.835Z</time></trkpt><trkpt lat="42.079563" lon="12.8113763"><ele>502.99999999999994</ele><time>2026-04-04T11:15:36.835Z</time></trkpt><trkpt lat="42.0795339" lon="12.8114551"><ele>503.0</ele><time>2026-04-04T11:15:37.834Z</time></trkpt><trkpt lat="42.0795047" lon="12.8115321"><ele>503.0</ele><time>2026-04-04T11:15:38.835Z</time></trkpt><trkpt lat="42.0795016" lon="12.8116523"><ele>503.0</ele><time>2026-04-04T11:15:39.835Z</time></trkpt><trkpt lat="42.079491" lon="12.8117554"><ele>502.99999999999994</ele><time>2026-04-04T11:15:40.835Z</time></trkpt><trkpt lat="42.0794767" lon="12.8118664"><ele>503.0</ele><time>2026-04-04T11:15:41.835Z</time></trkpt><trkpt lat="42.0794455" lon="12.8119966"><ele>503.0</ele><time>2026-04-04T11:15:42.835Z</time></trkpt><trkpt lat="42.0794192" lon="12.8121094"><ele>502.99999999999994</ele><time>2026-04-04T11:15:43.835Z</time></trkpt><trkpt lat="42.0793965" lon="12.8122373"><ele>502.99999999999994</ele><time>2026-04-04T11:15:44.835Z</time></trkpt><trkpt lat="42.079386" lon="12.8123713"><ele>503.0</ele><time>2026-04-04T11:15:45.835Z</time></trkpt><trkpt lat="42.0793657" lon="12.812529"><ele>503.0</ele><time>2026-04-04T11:15:46.835Z</time></trkpt><trkpt lat="42.0793571" lon="12.8126483"><ele>502.79999999999995</ele><time>2026-04-04T11:15:47.835Z</time></trkpt><trkpt lat="42.0793502" lon="12.812744"><ele>502.59999999999997</ele><time>2026-04-04T11:15:48.835Z</time></trkpt><trkpt lat="42.0794191" lon="12.8128027"><ele>502.40000000000003</ele><time>2026-04-04T11:16:01.835Z</time></trkpt><trkpt lat="42.0794822" lon="12.8129335"><ele>502.20000000000005</ele><time>2026-04-04T11:16:03.835Z</time></trkpt><trkpt lat="42.0795344" lon="12.8130322"><ele>502.0</ele><time>2026-04-04T11:16:05.835Z</time></trkpt><trkpt lat="42.0795948" lon="12.813137"><ele>502.0</ele><time>2026-04-04T11:16:08.835Z</time></trkpt><trkpt lat="42.0796392" lon="12.813256"><ele>502.00000000000006</ele><time>2026-04-04T11:16:10.835Z</time></trkpt><trkpt lat="42.0796792" lon="12.8134121"><ele>502.00000000000006</ele><time>2026-04-04T11:16:12.835Z</time></trkpt><trkpt lat="42.0797037" lon="12.8135597"><ele>502.0</ele><time>2026-04-04T11:16:14.835Z</time></trkpt><trkpt lat="42.0797251" lon="12.8136486"><ele>502.0</ele><time>2026-04-04T11:16:15.835Z</time></trkpt><trkpt lat="42.0797433" lon="12.8137445"><ele>502.00000000000006</ele><time>2026-04-04T11:16:16.835Z</time></trkpt><trkpt lat="42.0797749" lon="12.8138377"><ele>502.0</ele><time>2026-04-04T11:16:17.835Z</time></trkpt><trkpt lat="42.0798056" lon="12.8139419"><ele>502.0</ele><time>2026-04-04T11:16:18.835Z</time></trkpt><trkpt lat="42.0798371" lon="12.8140536"><ele>502.0</ele><time>2026-04-04T11:16:19.835Z</time></trkpt><trkpt lat="42.0798556" lon="12.81416"><ele>502.00000000000006</ele><time>2026-04-04T11:16:20.835Z</time></trkpt><trkpt lat="42.0798872" lon="12.8142599"><ele>502.0</ele><time>2026-04-04T11:16:21.835Z</time></trkpt><trkpt lat="42.0799032" lon="12.814359"><ele>500.1666666666667</ele><time>2026-04-04T11:16:22.835Z</time></trkpt><trkpt lat="42.0799447" lon="12.8144546"><ele>498.33333333333337</ele><time>2026-04-04T11:16:23.835Z</time></trkpt><trkpt lat="42.0799919" lon="12.8145482"><ele>496.5</ele><time>2026-04-04T11:16:24.835Z</time></trkpt><trkpt lat="42.0800479" lon="12.8146301"><ele>494.66666666666663</ele><time>2026-04-04T11:16:25.835Z</time></trkpt><trkpt lat="42.0800892" lon="12.8147063"><ele>492.8333333333333</ele><time>2026-04-04T11:16:26.835Z</time></trkpt><trkpt lat="42.080146" lon="12.8147867"><ele>491.0</ele><time>2026-04-04T11:16:27.835Z</time></trkpt><trkpt lat="42.0801814" lon="12.8148578"><ele>490.99999999999994</ele><time>2026-04-04T11:16:28.835Z</time></trkpt><trkpt lat="42.0802498" lon="12.8149489"><ele>491.0</ele><time>2026-04-04T11:16:30.835Z</time></trkpt><trkpt lat="42.0803074" lon="12.8150203"><ele>491.0</ele><time>2026-04-04T11:16:32.835Z</time></trkpt><trkpt lat="42.0803552" lon="12.8150864"><ele>491.0</ele><time>2026-04-04T11:16:34.835Z</time></trkpt><trkpt lat="42.0804344" lon="12.8151864"><ele>490.99999999999994</ele><time>2026-04-04T11:16:37.835Z</time></trkpt><trkpt lat="42.0804734" lon="12.8152822"><ele>491.0</ele><time>2026-04-04T11:16:40.834Z</time></trkpt><trkpt lat="42.0804519" lon="12.8154295"><ele>491.6</ele><time>2026-04-04T11:16:42.835Z</time></trkpt><trkpt lat="42.0804583" lon="12.8155784"><ele>492.20000000000005</ele><time>2026-04-04T11:16:44.835Z</time></trkpt><trkpt lat="42.0805206" lon="12.8157292"><ele>492.79999999999995</ele><time>2026-04-04T11:16:46.835Z</time></trkpt><trkpt lat="42.0805477" lon="12.8158109"><ele>493.4</ele><time>2026-04-04T11:16:47.835Z</time></trkpt><trkpt lat="42.0806055" lon="12.8159684"><ele>494.0</ele><time>2026-04-04T11:16:49.835Z</time></trkpt><trkpt lat="42.0806253" lon="12.8160518"><ele>494.99999999999994</ele><time>2026-04-04T11:16:50.835Z</time></trkpt><trkpt lat="42.0806455" lon="12.8161397"><ele>496.0</ele><time>2026-04-04T11:16:51.834Z</time></trkpt><trkpt lat="42.0806514" lon="12.816247"><ele>497.0</ele><time>2026-04-04T11:16:52.835Z</time></trkpt><trkpt lat="42.080649" lon="12.8163597"><ele>498.0</ele><time>2026-04-04T11:16:53.835Z</time></trkpt><trkpt lat="42.0806366" lon="12.8164858"><ele>498.99999999999994</ele><time>2026-04-04T11:16:54.835Z</time></trkpt><trkpt lat="42.0806253" lon="12.8165924"><ele>500.0</ele><time>2026-04-04T11:16:55.835Z</time></trkpt><trkpt lat="42.0806118" lon="12.8166812"><ele>499.99999999999994</ele><time>2026-04-04T11:16:56.835Z</time></trkpt><trkpt lat="42.0806128" lon="12.8167823"><ele>500.0</ele><time>2026-04-04T11:16:57.834Z</time></trkpt><trkpt lat="42.0806257" lon="12.8168708"><ele>500.0</ele><time>2026-04-04T11:16:58.835Z</time></trkpt><trkpt lat="42.0806493" lon="12.8169673"><ele>500.0</ele><time>2026-04-04T11:16:59.835Z</time></trkpt><trkpt lat="42.080663" lon="12.8170806"><ele>499.99999999999994</ele><time>2026-04-04T11:17:00.835Z</time></trkpt><trkpt lat="42.0806974" lon="12.8171934"><ele>500.0</ele><time>2026-04-04T11:17:01.835Z</time></trkpt><trkpt lat="42.0807238" lon="12.8173086"><ele>500.3333333333333</ele><time>2026-04-04T11:17:02.835Z</time></trkpt><trkpt lat="42.080749" lon="12.8174401"><ele>500.66666666666663</ele><time>2026-04-04T11:17:03.835Z</time></trkpt><trkpt lat="42.0807712" lon="12.8175612"><ele>501.0</ele><time>2026-04-04T11:17:04.835Z</time></trkpt><trkpt lat="42.0807841" lon="12.8176826"><ele>501.33333333333337</ele><time>2026-04-04T11:17:05.835Z</time></trkpt><trkpt lat="42.0807951" lon="12.817785"><ele>501.6666666666667</ele><time>2026-04-04T11:17:06.835Z</time></trkpt><trkpt lat="42.0808074" lon="12.8179001"><ele>502.0</ele><time>2026-04-04T11:17:07.835Z</time></trkpt><trkpt lat="42.0808069" lon="12.8180091"><ele>502.20000000000005</ele><time>2026-04-04T11:17:08.835Z</time></trkpt><trkpt lat="42.0808195" lon="12.8181329"><ele>502.40000000000003</ele><time>2026-04-04T11:17:09.835Z</time></trkpt><trkpt lat="42.0808619" lon="12.8182821"><ele>502.59999999999997</ele><time>2026-04-04T11:17:10.835Z</time></trkpt><trkpt lat="42.0809036" lon="12.8183978"><ele>502.79999999999995</ele><time>2026-04-04T11:17:11.835Z</time></trkpt><trkpt lat="42.0809538" lon="12.8185055"><ele>503.0</ele><time>2026-04-04T11:17:12.835Z</time></trkpt><trkpt lat="42.0809885" lon="12.8185984"><ele>502.99999999999994</ele><time>2026-04-04T11:17:13.835Z</time></trkpt><trkpt lat="42.0810509" lon="12.8186998"><ele>503.0</ele><time>2026-04-04T11:17:14.835Z</time></trkpt><trkpt lat="42.0811169" lon="12.818798"><ele>503.0</ele><time>2026-04-04T11:17:15.835Z</time></trkpt><trkpt lat="42.081171" lon="12.8188622"><ele>503.0</ele><time>2026-04-04T11:17:16.834Z</time></trkpt><trkpt lat="42.0812381" lon="12.8189438"><ele>502.99999999999994</ele><time>2026-04-04T11:17:17.834Z</time></trkpt><trkpt lat="42.0812999" lon="12.8190086"><ele>503.0</ele><time>2026-04-04T11:17:18.835Z</time></trkpt><trkpt lat="42.0813704" lon="12.8190803"><ele>502.99999999999994</ele><time>2026-04-04T11:17:19.835Z</time></trkpt><trkpt lat="42.0814476" lon="12.8191505"><ele>503.0</ele><time>2026-04-04T11:17:20.835Z</time></trkpt><trkpt lat="42.0815311" lon="12.8191941"><ele>503.0</ele><time>2026-04-04T11:17:21.835Z</time></trkpt><trkpt lat="42.0816207" lon="12.819253"><ele>503.0</ele><time>2026-04-04T11:17:22.835Z</time></trkpt><trkpt lat="42.0817008" lon="12.819296"><ele>502.99999999999994</ele><time>2026-04-04T11:17:23.834Z</time></trkpt><trkpt lat="42.0817709" lon="12.8193373"><ele>503.0</ele><time>2026-04-04T11:17:24.835Z</time></trkpt><trkpt lat="42.081844" lon="12.8193717"><ele>504.66666666666663</ele><time>2026-04-04T11:17:25.834Z</time></trkpt><trkpt lat="42.081906" lon="12.8194068"><ele>506.3333333333333</ele><time>2026-04-04T11:17:26.835Z</time></trkpt><trkpt lat="42.0819824" lon="12.8194066"><ele>508.0</ele><time>2026-04-04T11:17:27.835Z</time></trkpt><trkpt lat="42.0820493" lon="12.8194102"><ele>509.66666666666663</ele><time>2026-04-04T11:17:28.835Z</time></trkpt><trkpt lat="42.0821738" lon="12.8194057"><ele>511.3333333333333</ele><time>2026-04-04T11:17:30.835Z</time></trkpt><trkpt lat="42.0822419" lon="12.819413"><ele>513.0</ele><time>2026-04-04T11:17:31.835Z</time></trkpt><trkpt lat="42.0823142" lon="12.8193858"><ele>513.0</ele><time>2026-04-04T11:17:32.835Z</time></trkpt><trkpt lat="42.0823998" lon="12.8193451"><ele>513.0</ele><time>2026-04-04T11:17:33.835Z</time></trkpt><trkpt lat="42.0824694" lon="12.8193305"><ele>513.0</ele><time>2026-04-04T11:17:34.835Z</time></trkpt><trkpt lat="42.0825338" lon="12.8193117"><ele>513.0</ele><time>2026-04-04T11:17:35.835Z</time></trkpt><trkpt lat="42.082601" lon="12.8192878"><ele>513.0</ele><time>2026-04-04T11:17:36.835Z</time></trkpt><trkpt lat="42.0826733" lon="12.8192554"><ele>513.0</ele><time>2026-04-04T11:17:37.835Z</time></trkpt><trkpt lat="42.0827841" lon="12.8191878"><ele>516.4</ele><time>2026-04-04T11:17:38.835Z</time></trkpt><trkpt lat="42.082879" lon="12.8191407"><ele>519.8</ele><time>2026-04-04T11:17:39.835Z</time></trkpt><trkpt lat="42.0829725" lon="12.8190859"><ele>523.2</ele><time>2026-04-04T11:17:40.835Z</time></trkpt><trkpt lat="42.0830646" lon="12.8190741"><ele>526.6</ele><time>2026-04-04T11:17:41.835Z</time></trkpt><trkpt lat="42.083157" lon="12.8190227"><ele>530.0</ele><time>2026-04-04T11:17:42.835Z</time></trkpt><trkpt lat="42.0832333" lon="12.8190005"><ele>531.0</ele><time>2026-04-04T11:17:43.835Z</time></trkpt><trkpt lat="42.0833137" lon="12.8189798"><ele>532.0</ele><time>2026-04-04T11:17:44.835Z</time></trkpt><trkpt lat="42.0834009" lon="12.8189414"><ele>533.0</ele><time>2026-04-04T11:17:45.835Z</time></trkpt><trkpt lat="42.0834752" lon="12.8189092"><ele>534.0</ele><time>2026-04-04T11:17:46.835Z</time></trkpt><trkpt lat="42.0835519" lon="12.8188845"><ele>535.0</ele><time>2026-04-04T11:17:47.835Z</time></trkpt><trkpt lat="42.0836233" lon="12.8188242"><ele>536.0</ele><time>2026-04-04T11:17:48.835Z</time></trkpt><trkpt lat="42.0836864" lon="12.8187843"><ele>536.0</ele><time>2026-04-04T11:17:49.835Z</time></trkpt><trkpt lat="42.0837755" lon="12.8187144"><ele>536.0</ele><time>2026-04-04T11:17:50.835Z</time></trkpt><trkpt lat="42.0838576" lon="12.8186469"><ele>536.0</ele><time>2026-04-04T11:17:51.835Z</time></trkpt><trkpt lat="42.0839359" lon="12.8185904"><ele>536.0</ele><time>2026-04-04T11:17:52.835Z</time></trkpt><trkpt lat="42.0840217" lon="12.8185294"><ele>536.0</ele><time>2026-04-04T11:17:53.835Z</time></trkpt><trkpt lat="42.084104" lon="12.8184856"><ele>538.6</ele><time>2026-04-04T11:17:54.835Z</time></trkpt><trkpt lat="42.0841713" lon="12.8184284"><ele>541.2</ele><time>2026-04-04T11:17:55.835Z</time></trkpt><trkpt lat="42.0842566" lon="12.8184014"><ele>543.8</ele><time>2026-04-04T11:17:56.835Z</time></trkpt><trkpt lat="42.0843646" lon="12.8183315"><ele>546.4</ele><time>2026-04-04T11:17:57.834Z</time></trkpt><trkpt lat="42.0844466" lon="12.8182644"><ele>549.0</ele><time>2026-04-04T11:17:58.835Z</time></trkpt><trkpt lat="42.084512" lon="12.8182003"><ele>549.0</ele><time>2026-04-04T11:17:59.834Z</time></trkpt><trkpt lat="42.0845793" lon="12.8181399"><ele>549.0</ele><time>2026-04-04T11:18:00.835Z</time></trkpt><trkpt lat="42.0846486" lon="12.8180774"><ele>549.0</ele><time>2026-04-04T11:18:01.835Z</time></trkpt><trkpt lat="42.0847011" lon="12.8180118"><ele>549.0</ele><time>2026-04-04T11:18:02.835Z</time></trkpt><trkpt lat="42.0847803" lon="12.8179308"><ele>549.0</ele><time>2026-04-04T11:18:03.835Z</time></trkpt><trkpt lat="42.0848573" lon="12.8178458"><ele>549.0</ele><time>2026-04-04T11:18:04.834Z</time></trkpt><trkpt lat="42.0849379" lon="12.8177721"><ele>549.8</ele><time>2026-04-04T11:18:05.835Z</time></trkpt><trkpt lat="42.0850267" lon="12.8177031"><ele>550.5999999999999</ele><time>2026-04-04T11:18:06.835Z</time></trkpt><trkpt lat="42.085095" lon="12.8176279"><ele>551.4</ele><time>2026-04-04T11:18:07.835Z</time></trkpt><trkpt lat="42.0851516" lon="12.8175539"><ele>552.1999999999999</ele><time>2026-04-04T11:18:08.835Z</time></trkpt><trkpt lat="42.0852225" lon="12.8174736"><ele>553.0</ele><time>2026-04-04T11:18:09.835Z</time></trkpt><trkpt lat="42.0853005" lon="12.8173949"><ele>555.6</ele><time>2026-04-04T11:18:10.835Z</time></trkpt><trkpt lat="42.0853796" lon="12.8173202"><ele>558.1999999999999</ele><time>2026-04-04T11:18:11.835Z</time></trkpt><trkpt lat="42.085441" lon="12.8172425"><ele>560.8</ele><time>2026-04-04T11:18:12.835Z</time></trkpt><trkpt lat="42.0855185" lon="12.8171611"><ele>563.4</ele><time>2026-04-04T11:18:13.835Z</time></trkpt><trkpt lat="42.0856" lon="12.8170619"><ele>566.0</ele><time>2026-04-04T11:18:14.835Z</time></trkpt><trkpt lat="42.0856917" lon="12.8169697"><ele>566.0</ele><time>2026-04-04T11:18:15.835Z</time></trkpt><trkpt lat="42.0857662" lon="12.8168998"><ele>566.0</ele><time>2026-04-04T11:18:16.835Z</time></trkpt><trkpt lat="42.0858509" lon="12.8168153"><ele>566.0</ele><time>2026-04-04T11:18:17.834Z</time></trkpt><trkpt lat="42.0859215" lon="12.8167361"><ele>566.0</ele><time>2026-04-04T11:18:18.835Z</time></trkpt><trkpt lat="42.0859762" lon="12.8166654"><ele>566.0</ele><time>2026-04-04T11:18:19.834Z</time></trkpt><trkpt lat="42.0860316" lon="12.8165869"><ele>566.0</ele><time>2026-04-04T11:18:20.835Z</time></trkpt><trkpt lat="42.0861084" lon="12.816497"><ele>568.4</ele><time>2026-04-04T11:18:21.835Z</time></trkpt><trkpt lat="42.0861849" lon="12.8164122"><ele>570.8</ele><time>2026-04-04T11:18:22.835Z</time></trkpt><trkpt lat="42.0862697" lon="12.8163282"><ele>573.1999999999999</ele><time>2026-04-04T11:18:23.835Z</time></trkpt><trkpt lat="42.0863673" lon="12.816244"><ele>575.6</ele><time>2026-04-04T11:18:24.835Z</time></trkpt><trkpt lat="42.0864749" lon="12.8161886"><ele>578.0</ele><time>2026-04-04T11:18:25.835Z</time></trkpt><trkpt lat="42.0865581" lon="12.816105"><ele>578.0</ele><time>2026-04-04T11:18:26.835Z</time></trkpt><trkpt lat="42.0866304" lon="12.81608"><ele>578.0</ele><time>2026-04-04T11:18:27.835Z</time></trkpt><trkpt lat="42.0867035" lon="12.8160366"><ele>578.0</ele><time>2026-04-04T11:18:28.835Z</time></trkpt><trkpt lat="42.0867784" lon="12.8159892"><ele>578.0</ele><time>2026-04-04T11:18:29.835Z</time></trkpt><trkpt lat="42.0868374" lon="12.815949"><ele>578.0</ele><time>2026-04-04T11:18:31.835Z</time></trkpt><trkpt lat="42.0868806" lon="12.8158838"><ele>578.0</ele><time>2026-04-04T11:18:59.835Z</time></trkpt><trkpt lat="42.086982" lon="12.8158533"><ele>580.3333333333333</ele><time>2026-04-04T11:19:02.835Z</time></trkpt><trkpt lat="42.0870696" lon="12.8158248"><ele>582.6666666666666</ele><time>2026-04-04T11:19:04.835Z</time></trkpt><trkpt lat="42.0871651" lon="12.8157715"><ele>585.0</ele><time>2026-04-04T11:19:06.835Z</time></trkpt><trkpt lat="42.0872276" lon="12.815733"><ele>587.3333333333334</ele><time>2026-04-04T11:19:07.835Z</time></trkpt><trkpt lat="42.0873193" lon="12.8156688"><ele>589.6666666666667</ele><time>2026-04-04T11:19:08.835Z</time></trkpt><trkpt lat="42.0873845" lon="12.8156262"><ele>592.0</ele><time>2026-04-04T11:19:09.835Z</time></trkpt><trkpt lat="42.0874983" lon="12.8155521"><ele>592.0</ele><time>2026-04-04T11:19:10.835Z</time></trkpt><trkpt lat="42.0875922" lon="12.8154885"><ele>592.0</ele><time>2026-04-04T11:19:11.835Z</time></trkpt><trkpt lat="42.0876916" lon="12.8154282"><ele>592.0</ele><time>2026-04-04T11:19:12.835Z</time></trkpt><trkpt lat="42.0877962" lon="12.8153541"><ele>592.0</ele><time>2026-04-04T11:19:13.835Z</time></trkpt><trkpt lat="42.0878824" lon="12.8153058"><ele>592.0</ele><time>2026-04-04T11:19:14.835Z</time></trkpt><trkpt lat="42.0879655" lon="12.815265"><ele>592.0</ele><time>2026-04-04T11:19:15.835Z</time></trkpt><trkpt lat="42.0880516" lon="12.8152179"><ele>592.0</ele><time>2026-04-04T11:19:16.835Z</time></trkpt><trkpt lat="42.088132" lon="12.815168"><ele>592.0</ele><time>2026-04-04T11:19:17.835Z</time></trkpt><trkpt lat="42.0882025" lon="12.8151378"><ele>592.0</ele><time>2026-04-04T11:19:18.835Z</time></trkpt><trkpt lat="42.088296" lon="12.8150915"><ele>592.0</ele><time>2026-04-04T11:19:19.835Z</time></trkpt><trkpt lat="42.0883861" lon="12.8150543"><ele>592.0</ele><time>2026-04-04T11:19:20.835Z</time></trkpt><trkpt lat="42.0884819" lon="12.8150017"><ele>595.6</ele><time>2026-04-04T11:19:21.835Z</time></trkpt><trkpt lat="42.0885807" lon="12.8149504"><ele>599.2</ele><time>2026-04-04T11:19:22.835Z</time></trkpt><trkpt lat="42.0886705" lon="12.8149022"><ele>602.8</ele><time>2026-04-04T11:19:23.835Z</time></trkpt><trkpt lat="42.0887684" lon="12.8148575"><ele>606.4</ele><time>2026-04-04T11:19:24.835Z</time></trkpt><trkpt lat="42.0888672" lon="12.8148207"><ele>610.0</ele><time>2026-04-04T11:19:25.835Z</time></trkpt><trkpt lat="42.0889747" lon="12.8147699"><ele>610.0</ele><time>2026-04-04T11:19:26.835Z</time></trkpt><trkpt lat="42.0890714" lon="12.8147212"><ele>610.0</ele><time>2026-04-04T11:19:27.835Z</time></trkpt><trkpt lat="42.0891651" lon="12.8146809"><ele>610.0</ele><time>2026-04-04T11:19:28.835Z</time></trkpt><trkpt lat="42.0892602" lon="12.8146424"><ele>610.0</ele><time>2026-04-04T11:19:29.835Z</time></trkpt><trkpt lat="42.0893701" lon="12.8145908"><ele>610.0</ele><time>2026-04-04T11:19:30.835Z</time></trkpt><trkpt lat="42.0894646" lon="12.8145458"><ele>609.5</ele><time>2026-04-04T11:19:31.835Z</time></trkpt><trkpt lat="42.0895442" lon="12.8145134"><ele>609.0</ele><time>2026-04-04T11:19:32.835Z</time></trkpt><trkpt lat="42.0896321" lon="12.8144794"><ele>608.5</ele><time>2026-04-04T11:19:33.835Z</time></trkpt><trkpt lat="42.0897159" lon="12.8144569"><ele>608.0</ele><time>2026-04-04T11:19:34.835Z</time></trkpt><trkpt lat="42.0897949" lon="12.8144478"><ele>607.5</ele><time>2026-04-04T11:19:35.835Z</time></trkpt><trkpt lat="42.0898831" lon="12.8144347"><ele>607.0</ele><time>2026-04-04T11:19:36.835Z</time></trkpt><trkpt lat="42.0899953" lon="12.8144043"><ele>608.8000000000001</ele><time>2026-04-04T11:19:37.835Z</time></trkpt><trkpt lat="42.0900925" lon="12.8143756"><ele>610.6</ele><time>2026-04-04T11:19:38.835Z</time></trkpt><trkpt lat="42.0901973" lon="12.8143493"><ele>612.4000000000001</ele><time>2026-04-04T11:19:39.835Z</time></trkpt><trkpt lat="42.0903115" lon="12.8143275"><ele>614.2</ele><time>2026-04-04T11:19:40.835Z</time></trkpt><trkpt lat="42.0904169" lon="12.8143523"><ele>616.0</ele><time>2026-04-04T11:19:41.835Z</time></trkpt><trkpt lat="42.0905138" lon="12.8143667"><ele>616.0</ele><time>2026-04-04T11:19:42.835Z</time></trkpt><trkpt lat="42.0906089" lon="12.8143709"><ele>616.0</ele><time>2026-04-04T11:19:43.835Z</time></trkpt><trkpt lat="42.0907118" lon="12.814357"><ele>616.0</ele><time>2026-04-04T11:19:44.835Z</time></trkpt><trkpt lat="42.0908135" lon="12.8143452"><ele>616.0</ele><time>2026-04-04T11:19:45.835Z</time></trkpt><trkpt lat="42.0909071" lon="12.8143365"><ele>616.0</ele><time>2026-04-04T11:19:46.835Z</time></trkpt><trkpt lat="42.0910006" lon="12.8143325"><ele>618.0</ele><time>2026-04-04T11:19:47.835Z</time></trkpt><trkpt lat="42.09108" lon="12.814346"><ele>620.0</ele><time>2026-04-04T11:19:48.835Z</time></trkpt><trkpt lat="42.0911573" lon="12.8143569"><ele>622.0</ele><time>2026-04-04T11:19:49.834Z</time></trkpt><trkpt lat="42.0912607" lon="12.8143319"><ele>624.0</ele><time>2026-04-04T11:19:50.835Z</time></trkpt><trkpt lat="42.0913407" lon="12.8143236"><ele>626.0</ele><time>2026-04-04T11:19:51.835Z</time></trkpt><trkpt lat="42.0914289" lon="12.8143136"><ele>628.0</ele><time>2026-04-04T11:19:52.835Z</time></trkpt><trkpt lat="42.0915251" lon="12.8143172"><ele>631.5999999999999</ele><time>2026-04-04T11:19:53.835Z</time></trkpt><trkpt lat="42.091612" lon="12.8143041"><ele>635.1999999999999</ele><time>2026-04-04T11:19:54.835Z</time></trkpt><trkpt lat="42.0917194" lon="12.8142973"><ele>638.8</ele><time>2026-04-04T11:19:55.835Z</time></trkpt><trkpt lat="42.0918217" lon="12.8142949"><ele>642.4</ele><time>2026-04-04T11:19:56.835Z</time></trkpt><trkpt lat="42.0919213" lon="12.8142911"><ele>646.0</ele><time>2026-04-04T11:19:57.835Z</time></trkpt><trkpt lat="42.0920258" lon="12.8142917"><ele>646.0</ele><time>2026-04-04T11:19:58.835Z</time></trkpt><trkpt lat="42.0921154" lon="12.8142886"><ele>646.0</ele><time>2026-04-04T11:19:59.835Z</time></trkpt><trkpt lat="42.0922125" lon="12.8142821"><ele>646.0</ele><time>2026-04-04T11:20:00.834Z</time></trkpt><trkpt lat="42.092303" lon="12.8142947"><ele>646.0</ele><time>2026-04-04T11:20:01.835Z</time></trkpt><trkpt lat="42.0923674" lon="12.8143099"><ele>646.0</ele><time>2026-04-04T11:20:02.835Z</time></trkpt><trkpt lat="42.0924357" lon="12.8143416"><ele>646.0</ele><time>2026-04-04T11:20:03.834Z</time></trkpt><trkpt lat="42.092513" lon="12.8143951"><ele>645.2857142857143</ele><time>2026-04-04T11:20:04.834Z</time></trkpt><trkpt lat="42.0925711" lon="12.8144556"><ele>644.5714285714286</ele><time>2026-04-04T11:20:05.835Z</time></trkpt><trkpt lat="42.0926273" lon="12.8145295"><ele>643.8571428571429</ele><time>2026-04-04T11:20:06.835Z</time></trkpt><trkpt lat="42.0926848" lon="12.8146027"><ele>643.1428571428571</ele><time>2026-04-04T11:20:07.835Z</time></trkpt><trkpt lat="42.0927439" lon="12.8146654"><ele>642.4285714285714</ele><time>2026-04-04T11:20:08.835Z</time></trkpt><trkpt lat="42.0927959" lon="12.814714"><ele>641.7142857142858</ele><time>2026-04-04T11:20:09.835Z</time></trkpt><trkpt lat="42.0928645" lon="12.814765"><ele>641.0</ele><time>2026-04-04T11:20:10.835Z</time></trkpt><trkpt lat="42.0929373" lon="12.8147989"><ele>641.0</ele><time>2026-04-04T11:20:11.835Z</time></trkpt><trkpt lat="42.0930354" lon="12.8148562"><ele>641.0</ele><time>2026-04-04T11:20:12.835Z</time></trkpt><trkpt lat="42.0931256" lon="12.8149032"><ele>641.0</ele><time>2026-04-04T11:20:13.835Z</time></trkpt><trkpt lat="42.0932107" lon="12.8149392"><ele>641.0</ele><time>2026-04-04T11:20:14.835Z</time></trkpt><trkpt lat="42.0932915" lon="12.8149698"><ele>641.0</ele><time>2026-04-04T11:20:15.835Z</time></trkpt><trkpt lat="42.0933653" lon="12.8149827"><ele>643.4285714285714</ele><time>2026-04-04T11:20:16.835Z</time></trkpt><trkpt lat="42.0934423" lon="12.8150055"><ele>645.8571428571429</ele><time>2026-04-04T11:20:17.835Z</time></trkpt><trkpt lat="42.0935177" lon="12.8150281"><ele>648.2857142857142</ele><time>2026-04-04T11:20:18.835Z</time></trkpt><trkpt lat="42.0935853" lon="12.8150503"><ele>650.7142857142858</ele><time>2026-04-04T11:20:19.835Z</time></trkpt><trkpt lat="42.0936488" lon="12.8150734"><ele>653.1428571428571</ele><time>2026-04-04T11:20:20.835Z</time></trkpt><trkpt lat="42.0937135" lon="12.8150976"><ele>655.5714285714286</ele><time>2026-04-04T11:20:21.835Z</time></trkpt><trkpt lat="42.0937827" lon="12.8151087"><ele>658.0</ele><time>2026-04-04T11:20:22.835Z</time></trkpt><trkpt lat="42.0938542" lon="12.8151156"><ele>658.0</ele><time>2026-04-04T11:20:23.834Z</time></trkpt><trkpt lat="42.093927" lon="12.8151527"><ele>658.0</ele><time>2026-04-04T11:20:24.835Z</time></trkpt><trkpt lat="42.0940004" lon="12.8151973"><ele>658.0</ele><time>2026-04-04T11:20:25.835Z</time></trkpt><trkpt lat="42.0940718" lon="12.8152654"><ele>658.0</ele><time>2026-04-04T11:20:26.835Z</time></trkpt><trkpt lat="42.0941368" lon="12.8153157"><ele>658.0</ele><time>2026-04-04T11:20:27.835Z</time></trkpt><trkpt lat="42.0942" lon="12.815356"><ele>658.0</ele><time>2026-04-04T11:20:28.835Z</time></trkpt><trkpt lat="42.0942866" lon="12.8154332"><ele>658.0</ele><time>2026-04-04T11:20:30.835Z</time></trkpt><trkpt lat="42.0943513" lon="12.8154403"><ele>658.0</ele><time>2026-04-04T11:21:14.834Z</time></trkpt><trkpt lat="42.0943251" lon="12.8153498"><ele>658.0</ele><time>2026-04-04T11:21:17.835Z</time></trkpt><trkpt lat="42.0942589" lon="12.8152767"><ele>658.0</ele><time>2026-04-04T11:21:19.835Z</time></trkpt><trkpt lat="42.0942048" lon="12.8151988"><ele>658.0</ele><time>2026-04-04T11:21:20.835Z</time></trkpt><trkpt lat="42.0941699" lon="12.815125"><ele>658.0</ele><time>2026-04-04T11:21:21.835Z</time></trkpt><trkpt lat="42.0940996" lon="12.8149811"><ele>658.0</ele><time>2026-04-04T11:21:23.835Z</time></trkpt><trkpt lat="42.094065" lon="12.8149086"><ele>658.0</ele><time>2026-04-04T11:21:24.835Z</time></trkpt><trkpt lat="42.0939876" lon="12.8147674"><ele>658.0</ele><time>2026-04-04T11:21:26.835Z</time></trkpt><trkpt lat="42.0939294" lon="12.814698"><ele>658.0</ele><time>2026-04-04T11:21:27.835Z</time></trkpt><trkpt lat="42.0938792" lon="12.8146222"><ele>658.0</ele><time>2026-04-04T11:21:28.835Z</time></trkpt><trkpt lat="42.093806" lon="12.8145358"><ele>658.0</ele><time>2026-04-04T11:21:29.834Z</time></trkpt><trkpt lat="42.0937555" lon="12.8144552"><ele>658.0</ele><time>2026-04-04T11:21:30.835Z</time></trkpt><trkpt lat="42.0937023" lon="12.8143916"><ele>658.0</ele><time>2026-04-04T11:21:31.835Z</time></trkpt><trkpt lat="42.0936657" lon="12.8143175"><ele>658.0</ele><time>2026-04-04T11:21:32.835Z</time></trkpt><trkpt lat="42.0936235" lon="12.8141565"><ele>658.0</ele><time>2026-04-04T11:21:34.835Z</time></trkpt><trkpt lat="42.0936131" lon="12.8139878"><ele>658.0</ele><time>2026-04-04T11:21:36.835Z</time></trkpt><trkpt lat="42.0936166" lon="12.8138842"><ele>660.1666666666667</ele><time>2026-04-04T11:21:37.835Z</time></trkpt><trkpt lat="42.0936318" lon="12.8137767"><ele>662.3333333333334</ele><time>2026-04-04T11:21:38.835Z</time></trkpt><trkpt lat="42.0936418" lon="12.8136526"><ele>664.5</ele><time>2026-04-04T11:21:39.835Z</time></trkpt><trkpt lat="42.0936468" lon="12.8135522"><ele>666.6666666666666</ele><time>2026-04-04T11:21:40.835Z</time></trkpt><trkpt lat="42.0936585" lon="12.8134492"><ele>668.8333333333333</ele><time>2026-04-04T11:21:41.835Z</time></trkpt><trkpt lat="42.0936738" lon="12.8133638"><ele>671.0</ele><time>2026-04-04T11:21:42.835Z</time></trkpt><trkpt lat="42.0936878" lon="12.8132698"><ele>673.0</ele><time>2026-04-04T11:21:43.835Z</time></trkpt><trkpt lat="42.0937015" lon="12.8131754"><ele>675.0</ele><time>2026-04-04T11:21:44.835Z</time></trkpt><trkpt lat="42.093722" lon="12.8130914"><ele>677.0</ele><time>2026-04-04T11:21:45.835Z</time></trkpt><trkpt lat="42.0937415" lon="12.8129632"><ele>679.0</ele><time>2026-04-04T11:21:47.835Z</time></trkpt><trkpt lat="42.0938078" lon="12.8129207"><ele>681.0</ele><time>2026-04-04T11:21:51.835Z</time></trkpt><trkpt lat="42.0938481" lon="12.8130613"><ele>683.0</ele><time>2026-04-04T11:21:55.835Z</time></trkpt><trkpt lat="42.093902" lon="12.8132281"><ele>683.0</ele><time>2026-04-04T11:21:57.835Z</time></trkpt><trkpt lat="42.093933" lon="12.8133304"><ele>683.0</ele><time>2026-04-04T11:21:58.835Z</time></trkpt><trkpt lat="42.093972" lon="12.813437"><ele>683.0</ele><time>2026-04-04T11:21:59.835Z</time></trkpt><trkpt lat="42.0940037" lon="12.813524"><ele>683.0</ele><time>2026-04-04T11:22:00.835Z</time></trkpt><trkpt lat="42.0940405" lon="12.8136046"><ele>683.0</ele><time>2026-04-04T11:22:01.835Z</time></trkpt><trkpt lat="42.0940809" lon="12.8136776"><ele>683.0</ele><time>2026-04-04T11:22:02.834Z</time></trkpt><trkpt lat="42.0941639" lon="12.8137444"><ele>684.6666666666666</ele><time>2026-04-04T11:22:04.834Z</time></trkpt><trkpt lat="42.094226" lon="12.813779"><ele>686.3333333333333</ele><time>2026-04-04T11:22:06.835Z</time></trkpt><trkpt lat="42.0943063" lon="12.8138542"><ele>688.0</ele><time>2026-04-04T11:22:09.834Z</time></trkpt><trkpt lat="42.094369" lon="12.813909"><ele>689.6666666666666</ele><time>2026-04-04T11:22:11.835Z</time></trkpt><trkpt lat="42.0944347" lon="12.813995"><ele>691.3333333333334</ele><time>2026-04-04T11:22:13.835Z</time></trkpt><trkpt lat="42.0945141" lon="12.8140894"><ele>693.0</ele><time>2026-04-04T11:22:15.834Z</time></trkpt><trkpt lat="42.0945956" lon="12.8141764"><ele>693.0</ele><time>2026-04-04T11:22:17.835Z</time></trkpt><trkpt lat="42.0947016" lon="12.8142675"><ele>693.0</ele><time>2026-04-04T11:22:19.835Z</time></trkpt><trkpt lat="42.0947673" lon="12.8143184"><ele>693.0</ele><time>2026-04-04T11:22:20.835Z</time></trkpt><trkpt lat="42.0948398" lon="12.8143713"><ele>693.0</ele><time>2026-04-04T11:22:21.835Z</time></trkpt><trkpt lat="42.0949036" lon="12.8144248"><ele>693.0</ele><time>2026-04-04T11:22:22.835Z</time></trkpt><trkpt lat="42.0949655" lon="12.8144731"><ele>693.0</ele><time>2026-04-04T11:22:23.835Z</time></trkpt><trkpt lat="42.095033" lon="12.8145272"><ele>693.4</ele><time>2026-04-04T11:22:24.835Z</time></trkpt><trkpt lat="42.0951105" lon="12.8145794"><ele>693.8</ele><time>2026-04-04T11:22:25.834Z</time></trkpt><trkpt lat="42.0951908" lon="12.8146248"><ele>694.2</ele><time>2026-04-04T11:22:26.835Z</time></trkpt><trkpt lat="42.0952697" lon="12.814674"><ele>694.6</ele><time>2026-04-04T11:22:27.835Z</time></trkpt><trkpt lat="42.0953696" lon="12.8147371"><ele>695.0</ele><time>2026-04-04T11:22:28.835Z</time></trkpt><trkpt lat="42.0954543" lon="12.8147923"><ele>695.0</ele><time>2026-04-04T11:22:29.835Z</time></trkpt><trkpt lat="42.0955363" lon="12.8148495"><ele>695.0</ele><time>2026-04-04T11:22:30.835Z</time></trkpt><trkpt lat="42.0956338" lon="12.8149004"><ele>695.0</ele><time>2026-04-04T11:22:31.834Z</time></trkpt><trkpt lat="42.0957488" lon="12.8149702"><ele>695.0</ele><time>2026-04-04T11:22:32.835Z</time></trkpt><trkpt lat="42.0958497" lon="12.81503"><ele>695.0</ele><time>2026-04-04T11:22:33.835Z</time></trkpt><trkpt lat="42.0959333" lon="12.8150763"><ele>696.0</ele><time>2026-04-04T11:22:34.835Z</time></trkpt><trkpt lat="42.0959974" lon="12.8151196"><ele>697.0</ele><time>2026-04-04T11:22:35.835Z</time></trkpt><trkpt lat="42.0960671" lon="12.8151686"><ele>698.0</ele><time>2026-04-04T11:22:37.835Z</time></trkpt><trkpt lat="42.0961523" lon="12.8152016"><ele>699.0</ele><time>2026-04-04T11:22:40.835Z</time></trkpt><trkpt lat="42.0962208" lon="12.8152449"><ele>700.0</ele><time>2026-04-04T11:22:42.835Z</time></trkpt><trkpt lat="42.0962759" lon="12.8153206"><ele>701.0</ele><time>2026-04-04T11:22:45.835Z</time></trkpt><trkpt lat="42.096351" lon="12.8153987"><ele>701.0</ele><time>2026-04-04T11:22:47.834Z</time></trkpt><trkpt lat="42.0964592" lon="12.8155099"><ele>701.0</ele><time>2026-04-04T11:22:49.835Z</time></trkpt><trkpt lat="42.096519" lon="12.8156042"><ele>701.0</ele><time>2026-04-04T11:22:50.835Z</time></trkpt><trkpt lat="42.0965807" lon="12.8157123"><ele>701.0</ele><time>2026-04-04T11:22:51.835Z</time></trkpt><trkpt lat="42.0966667" lon="12.815884"><ele>705.6666666666666</ele><time>2026-04-04T11:22:52.835Z</time></trkpt><trkpt lat="42.0967581" lon="12.8160713"><ele>710.3333333333334</ele><time>2026-04-04T11:22:53.835Z</time></trkpt><trkpt lat="42.096844" lon="12.8162546"><ele>715.0</ele><time>2026-04-04T11:22:54.835Z</time></trkpt><trkpt lat="42.0969346" lon="12.8164506"><ele>715.0</ele><time>2026-04-04T11:22:55.835Z</time></trkpt><trkpt lat="42.0970246" lon="12.8166412"><ele>715.0</ele><time>2026-04-04T11:22:56.835Z</time></trkpt><trkpt lat="42.097104" lon="12.816808"><ele>715.0</ele><time>2026-04-04T11:22:57.835Z</time></trkpt><trkpt lat="42.0971764" lon="12.816954"><ele>715.0</ele><time>2026-04-04T11:22:58.834Z</time></trkpt><trkpt lat="42.097245" lon="12.8170886"><ele>714.4</ele><time>2026-04-04T11:22:59.835Z</time></trkpt><trkpt lat="42.0972948" lon="12.8172221"><ele>713.8</ele><time>2026-04-04T11:23:00.835Z</time></trkpt><trkpt lat="42.0973327" lon="12.81734"><ele>713.2</ele><time>2026-04-04T11:23:01.835Z</time></trkpt><trkpt lat="42.0973601" lon="12.8174705"><ele>712.6</ele><time>2026-04-04T11:23:02.835Z</time></trkpt><trkpt lat="42.0973741" lon="12.8176158"><ele>712.0</ele><time>2026-04-04T11:23:03.835Z</time></trkpt><trkpt lat="42.0973662" lon="12.8177615"><ele>715.4000000000001</ele><time>2026-04-04T11:23:04.835Z</time></trkpt><trkpt lat="42.0973425" lon="12.8178947"><ele>718.8000000000001</ele><time>2026-04-04T11:23:05.835Z</time></trkpt><trkpt lat="42.0973083" lon="12.8180188"><ele>722.2</ele><time>2026-04-04T11:23:06.835Z</time></trkpt><trkpt lat="42.0972498" lon="12.8181418"><ele>725.6</ele><time>2026-04-04T11:23:07.835Z</time></trkpt><trkpt lat="42.0971804" lon="12.8182605"><ele>729.0</ele><time>2026-04-04T11:23:08.835Z</time></trkpt><trkpt lat="42.0971038" lon="12.8183797"><ele>734.25</ele><time>2026-04-04T11:23:09.835Z</time></trkpt><trkpt lat="42.0970224" lon="12.8184936"><ele>739.5</ele><time>2026-04-04T11:23:10.835Z</time></trkpt><trkpt lat="42.0969385" lon="12.8186168"><ele>744.75</ele><time>2026-04-04T11:23:11.835Z</time></trkpt><trkpt lat="42.0968477" lon="12.8187468"><ele>750.0</ele><time>2026-04-04T11:23:12.835Z</time></trkpt><trkpt lat="42.0967692" lon="12.8188466"><ele>750.0</ele><time>2026-04-04T11:23:13.835Z</time></trkpt><trkpt lat="42.0966801" lon="12.8189674"><ele>750.0</ele><time>2026-04-04T11:23:14.835Z</time></trkpt><trkpt lat="42.0966084" lon="12.8190623"><ele>750.0</ele><time>2026-04-04T11:23:15.835Z</time></trkpt><trkpt lat="42.096534" lon="12.8191468"><ele>750.0</ele><time>2026-04-04T11:23:16.835Z</time></trkpt><trkpt lat="42.0964839" lon="12.8192248"><ele>750.0</ele><time>2026-04-04T11:23:17.835Z</time></trkpt><trkpt lat="42.0964355" lon="12.819294"><ele>746.6666666666666</ele><time>2026-04-04T11:23:18.835Z</time></trkpt><trkpt lat="42.0963928" lon="12.8193573"><ele>743.3333333333334</ele><time>2026-04-04T11:23:19.835Z</time></trkpt><trkpt lat="42.0963439" lon="12.8194314"><ele>740.0</ele><time>2026-04-04T11:23:21.835Z</time></trkpt><trkpt lat="42.0963112" lon="12.8195363"><ele>736.6666666666667</ele><time>2026-04-04T11:23:25.835Z</time></trkpt><trkpt lat="42.0963474" lon="12.819663"><ele>733.3333333333334</ele><time>2026-04-04T11:23:28.835Z</time></trkpt><trkpt lat="42.0964126" lon="12.8197965"><ele>730.0</ele><time>2026-04-04T11:23:30.835Z</time></trkpt><trkpt lat="42.0964619" lon="12.8198714"><ele>730.0</ele><time>2026-04-04T11:23:31.835Z</time></trkpt><trkpt lat="42.0965135" lon="12.8199453"><ele>730.0</ele><time>2026-04-04T11:23:32.835Z</time></trkpt><trkpt lat="42.0965772" lon="12.8200309"><ele>730.0</ele><time>2026-04-04T11:23:33.835Z</time></trkpt><trkpt lat="42.096651" lon="12.8201369"><ele>730.0</ele><time>2026-04-04T11:23:34.835Z</time></trkpt><trkpt lat="42.096714" lon="12.8202305"><ele>730.0</ele><time>2026-04-04T11:23:35.834Z</time></trkpt><trkpt lat="42.0967679" lon="12.8203119"><ele>730.0</ele><time>2026-04-04T11:23:36.835Z</time></trkpt><trkpt lat="42.0968192" lon="12.8203766"><ele>731.5</ele><time>2026-04-04T11:23:37.835Z</time></trkpt><trkpt lat="42.0969112" lon="12.8204838"><ele>733.0</ele><time>2026-04-04T11:23:39.835Z</time></trkpt><trkpt lat="42.0969623" lon="12.8205435"><ele>734.5</ele><time>2026-04-04T11:23:40.834Z</time></trkpt><trkpt lat="42.097021" lon="12.8205978"><ele>736.0</ele><time>2026-04-04T11:23:41.834Z</time></trkpt><trkpt lat="42.0970884" lon="12.820651"><ele>737.5</ele><time>2026-04-04T11:23:42.835Z</time></trkpt><trkpt lat="42.0971756" lon="12.8207132"><ele>739.0</ele><time>2026-04-04T11:23:43.835Z</time></trkpt><trkpt lat="42.0972878" lon="12.8207924"><ele>739.0</ele><time>2026-04-04T11:23:44.835Z</time></trkpt><trkpt lat="42.097379" lon="12.8208606"><ele>739.0</ele><time>2026-04-04T11:23:45.835Z</time></trkpt><trkpt lat="42.0974676" lon="12.82094"><ele>739.0</ele><time>2026-04-04T11:23:46.834Z</time></trkpt><trkpt lat="42.0975438" lon="12.8210333"><ele>739.0</ele><time>2026-04-04T11:23:47.835Z</time></trkpt><trkpt lat="42.0976158" lon="12.8211224"><ele>739.0</ele><time>2026-04-04T11:23:48.835Z</time></trkpt><trkpt lat="42.0976899" lon="12.821222"><ele>741.25</ele><time>2026-04-04T11:23:49.835Z</time></trkpt><trkpt lat="42.0977793" lon="12.8213236"><ele>743.5</ele><time>2026-04-04T11:23:50.835Z</time></trkpt><trkpt lat="42.0978605" lon="12.8214261"><ele>745.75</ele><time>2026-04-04T11:23:51.835Z</time></trkpt><trkpt lat="42.097946" lon="12.8215423"><ele>748.0</ele><time>2026-04-04T11:23:52.835Z</time></trkpt><trkpt lat="42.098031" lon="12.8216552"><ele>748.0</ele><time>2026-04-04T11:23:53.835Z</time></trkpt><trkpt lat="42.098105" lon="12.8217781"><ele>748.0</ele><time>2026-04-04T11:23:54.835Z</time></trkpt><trkpt lat="42.0981759" lon="12.8219009"><ele>748.0</ele><time>2026-04-04T11:23:55.835Z</time></trkpt><trkpt lat="42.0982432" lon="12.8220212"><ele>748.0</ele><time>2026-04-04T11:23:56.835Z</time></trkpt><trkpt lat="42.0982875" lon="12.8221419"><ele>748.0</ele><time>2026-04-04T11:23:57.834Z</time></trkpt><trkpt lat="42.0983307" lon="12.8222781"><ele>753.5999999999999</ele><time>2026-04-04T11:23:58.835Z</time></trkpt><trkpt lat="42.0983652" lon="12.8224244"><ele>759.1999999999999</ele><time>2026-04-04T11:23:59.835Z</time></trkpt><trkpt lat="42.0983686" lon="12.8225637"><ele>764.8</ele><time>2026-04-04T11:24:00.835Z</time></trkpt><trkpt lat="42.0983744" lon="12.822704"><ele>770.4</ele><time>2026-04-04T11:24:01.835Z</time></trkpt><trkpt lat="42.0983755" lon="12.8228349"><ele>776.0</ele><time>2026-04-04T11:24:02.835Z</time></trkpt><trkpt lat="42.0983408" lon="12.822932"><ele>775.3333333333334</ele><time>2026-04-04T11:24:03.835Z</time></trkpt><trkpt lat="42.0983096" lon="12.823033"><ele>774.6666666666667</ele><time>2026-04-04T11:24:04.835Z</time></trkpt><trkpt lat="42.0982452" lon="12.823101"><ele>774.0</ele><time>2026-04-04T11:24:05.835Z</time></trkpt><trkpt lat="42.0981697" lon="12.8231645"><ele>773.3333333333333</ele><time>2026-04-04T11:24:06.835Z</time></trkpt><trkpt lat="42.0980952" lon="12.823221"><ele>772.6666666666666</ele><time>2026-04-04T11:24:07.835Z</time></trkpt><trkpt lat="42.0980403" lon="12.8232883"><ele>772.0</ele><time>2026-04-04T11:24:08.835Z</time></trkpt><trkpt lat="42.0979992" lon="12.8233703"><ele>771.9999999999999</ele><time>2026-04-04T11:24:09.835Z</time></trkpt><trkpt lat="42.0979597" lon="12.8234574"><ele>772.0</ele><time>2026-04-04T11:24:10.835Z</time></trkpt><trkpt lat="42.0979447" lon="12.8235683"><ele>772.0</ele><time>2026-04-04T11:24:11.834Z</time></trkpt><trkpt lat="42.0979359" lon="12.823672"><ele>772.0</ele><time>2026-04-04T11:24:12.835Z</time></trkpt><trkpt lat="42.0979309" lon="12.8237891"><ele>771.9999999999999</ele><time>2026-04-04T11:24:13.835Z</time></trkpt><trkpt lat="42.0979245" lon="12.8239149"><ele>772.0</ele><time>2026-04-04T11:24:14.835Z</time></trkpt><trkpt lat="42.0979271" lon="12.8240454"><ele>773.9999999999999</ele><time>2026-04-04T11:24:15.835Z</time></trkpt><trkpt lat="42.0979293" lon="12.8241646"><ele>776.0</ele><time>2026-04-04T11:24:16.835Z</time></trkpt><trkpt lat="42.0979186" lon="12.8242595"><ele>778.0</ele><time>2026-04-04T11:24:17.835Z</time></trkpt><trkpt lat="42.0979101" lon="12.8243476"><ele>780.0</ele><time>2026-04-04T11:24:18.835Z</time></trkpt><trkpt lat="42.0979299" lon="12.8245019"><ele>781.9999999999999</ele><time>2026-04-04T11:24:20.835Z</time></trkpt><trkpt lat="42.0979684" lon="12.8246159"><ele>784.0</ele><time>2026-04-04T11:24:22.835Z</time></trkpt><trkpt lat="42.0979992" lon="12.8247033"><ele>784.9999999999999</ele><time>2026-04-04T11:24:26.835Z</time></trkpt><trkpt lat="42.0980539" lon="12.8247621"><ele>786.0</ele><time>2026-04-04T11:24:30.835Z</time></trkpt><trkpt lat="42.0981195" lon="12.824807"><ele>787.0</ele><time>2026-04-04T11:25:49.835Z</time></trkpt><trkpt lat="42.0982017" lon="12.8249045"><ele>788.0</ele><time>2026-04-04T11:25:51.835Z</time></trkpt><trkpt lat="42.0982601" lon="12.8249796"><ele>788.9999999999999</ele><time>2026-04-04T11:25:52.835Z</time></trkpt><trkpt lat="42.0983136" lon="12.825046"><ele>790.0</ele><time>2026-04-04T11:25:53.835Z</time></trkpt><trkpt lat="42.0983608" lon="12.8251151"><ele>788.2</ele><time>2026-04-04T11:25:54.835Z</time></trkpt><trkpt lat="42.0984075" lon="12.8251797"><ele>786.4</ele><time>2026-04-04T11:25:55.835Z</time></trkpt><trkpt lat="42.0984544" lon="12.8252417"><ele>784.5999999999999</ele><time>2026-04-04T11:25:56.835Z</time></trkpt><trkpt lat="42.098547" lon="12.825354"><ele>782.8</ele><time>2026-04-04T11:25:58.835Z</time></trkpt><trkpt lat="42.0986281" lon="12.82546"><ele>781.0</ele><time>2026-04-04T11:26:00.835Z</time></trkpt><trkpt lat="42.0987004" lon="12.8255462"><ele>780.9999999999999</ele><time>2026-04-04T11:26:02.835Z</time></trkpt><trkpt lat="42.0987736" lon="12.8256262"><ele>781.0</ele><time>2026-04-04T11:26:04.835Z</time></trkpt><trkpt lat="42.0988329" lon="12.8257014"><ele>781.0</ele><time>2026-04-04T11:26:06.835Z</time></trkpt><trkpt lat="42.098899" lon="12.8257673"><ele>781.0</ele><time>2026-04-04T11:26:08.835Z</time></trkpt><trkpt lat="42.0989682" lon="12.8258279"><ele>780.9999999999999</ele><time>2026-04-04T11:26:10.834Z</time></trkpt><trkpt lat="42.099033" lon="12.8258972"><ele>781.0</ele><time>2026-04-04T11:26:12.835Z</time></trkpt><trkpt lat="42.0991317" lon="12.8259734"><ele>779.9999999999999</ele><time>2026-04-04T11:26:14.835Z</time></trkpt><trkpt lat="42.0991914" lon="12.8260241"><ele>779.0</ele><time>2026-04-04T11:26:15.835Z</time></trkpt><trkpt lat="42.0992494" lon="12.8260769"><ele>778.0</ele><time>2026-04-04T11:26:16.835Z</time></trkpt><trkpt lat="42.0993504" lon="12.8261804"><ele>777.0</ele><time>2026-04-04T11:26:18.835Z</time></trkpt><trkpt lat="42.099415" lon="12.8262405"><ele>775.9999999999999</ele><time>2026-04-04T11:26:19.835Z</time></trkpt><trkpt lat="42.0994831" lon="12.8263102"><ele>775.0</ele><time>2026-04-04T11:26:20.835Z</time></trkpt><trkpt lat="42.0995516" lon="12.8263826"><ele>774.9999999999999</ele><time>2026-04-04T11:26:21.835Z</time></trkpt><trkpt lat="42.0996237" lon="12.8264608"><ele>775.0</ele><time>2026-04-04T11:26:22.835Z</time></trkpt><trkpt lat="42.0996985" lon="12.8265367"><ele>775.0</ele><time>2026-04-04T11:26:23.835Z</time></trkpt><trkpt lat="42.0997598" lon="12.8266109"><ele>775.0</ele><time>2026-04-04T11:26:24.835Z</time></trkpt><trkpt lat="42.0998138" lon="12.8266735"><ele>774.9999999999999</ele><time>2026-04-04T11:26:25.835Z</time></trkpt><trkpt lat="42.0998641" lon="12.8267284"><ele>775.0</ele><time>2026-04-04T11:26:26.835Z</time></trkpt><trkpt lat="42.0999391" lon="12.8268167"><ele>774.0</ele><time>2026-04-04T11:26:28.835Z</time></trkpt><trkpt lat="42.0999868" lon="12.8268878"><ele>774.0</ele><time>2026-04-04T11:26:30.835Z</time></trkpt><trkpt lat="42.1000424" lon="12.8269519"><ele>774.0</ele><time>2026-04-04T11:26:33.835Z</time></trkpt></trkseg></trk></gpx>